<?xml version="1.0" encoding="UTF-8" standalone="no" ?>
<gpx xmlns="http://www.topografix.com/GPX/1/1" xmlns:xsi="http://www.w3.org/2001/XMLSchema-instance" xsi:schemaLocation="http://www.topografix.com/GPX/1/1 http://www.topografix.com/GPX/1/1/gpx.xsd" version="1.1" creator="VisuGPX - https://www.visugpx.com">
  <metadata>
    <name>1ere balade</name>
    <desc><![CDATA[1ere balade de la saison 
test sur une portion de l\'itinéraire]]></desc>
  </metadata>
  <trk>
    <name><![CDATA[03/03/2012 14:27]]></name>
    <desc><![CDATA[1er]]></desc>
    <trkseg>
      <trkpt lat="47.4219" lon="7.24682">
        <ele>576</ele>
        <time>2012-03-03T13:37:02Z</time>
      </trkpt>
      <trkpt lat="47.42189" lon="7.24673">
        <ele>572</ele>
        <time>2012-03-03T13:37:03Z</time>
      </trkpt>
      <trkpt lat="47.42185" lon="7.24663">
        <ele>570</ele>
        <time>2012-03-03T13:37:04Z</time>
      </trkpt>
      <trkpt lat="47.42181" lon="7.24652">
        <ele>571</ele>
        <time>2012-03-03T13:37:05Z</time>
      </trkpt>
      <trkpt lat="47.42176" lon="7.24643">
        <ele>570</ele>
        <time>2012-03-03T13:37:06Z</time>
      </trkpt>
      <trkpt lat="47.42166" lon="7.24633">
        <ele>575</ele>
        <time>2012-03-03T13:37:07Z</time>
      </trkpt>
      <trkpt lat="47.42159" lon="7.24623">
        <ele>580</ele>
        <time>2012-03-03T13:37:08Z</time>
      </trkpt>
      <trkpt lat="47.42152" lon="7.24613">
        <ele>577</ele>
        <time>2012-03-03T13:37:09Z</time>
      </trkpt>
      <trkpt lat="47.42146" lon="7.24604">
        <ele>577</ele>
        <time>2012-03-03T13:37:10Z</time>
      </trkpt>
      <trkpt lat="47.42137" lon="7.24593">
        <ele>584</ele>
        <time>2012-03-03T13:37:11Z</time>
      </trkpt>
      <trkpt lat="47.4213" lon="7.24582">
        <ele>588</ele>
        <time>2012-03-03T13:37:12Z</time>
      </trkpt>
      <trkpt lat="47.42125" lon="7.24575">
        <ele>586</ele>
        <time>2012-03-03T13:37:13Z</time>
      </trkpt>
      <trkpt lat="47.42118" lon="7.24567">
        <ele>586</ele>
        <time>2012-03-03T13:37:14Z</time>
      </trkpt>
      <trkpt lat="47.42112" lon="7.24564">
        <ele>585</ele>
        <time>2012-03-03T13:37:15Z</time>
      </trkpt>
      <trkpt lat="47.42106" lon="7.24558">
        <ele>583</ele>
        <time>2012-03-03T13:37:16Z</time>
      </trkpt>
      <trkpt lat="47.42098" lon="7.24556">
        <ele>582</ele>
        <time>2012-03-03T13:37:17Z</time>
      </trkpt>
      <trkpt lat="47.42092" lon="7.2455">
        <ele>582</ele>
        <time>2012-03-03T13:37:18Z</time>
      </trkpt>
      <trkpt lat="47.42084" lon="7.24544">
        <ele>582</ele>
        <time>2012-03-03T13:37:19Z</time>
      </trkpt>
      <trkpt lat="47.42077" lon="7.24537">
        <ele>582</ele>
        <time>2012-03-03T13:37:20Z</time>
      </trkpt>
      <trkpt lat="47.42069" lon="7.24527">
        <ele>584</ele>
        <time>2012-03-03T13:37:21Z</time>
      </trkpt>
      <trkpt lat="47.42062" lon="7.24522">
        <ele>583</ele>
        <time>2012-03-03T13:37:22Z</time>
      </trkpt>
      <trkpt lat="47.42052" lon="7.24514">
        <ele>585</ele>
        <time>2012-03-03T13:37:23Z</time>
      </trkpt>
      <trkpt lat="47.42045" lon="7.24508">
        <ele>585</ele>
        <time>2012-03-03T13:37:24Z</time>
      </trkpt>
      <trkpt lat="47.42036" lon="7.245">
        <ele>585</ele>
        <time>2012-03-03T13:37:25Z</time>
      </trkpt>
      <trkpt lat="47.42028" lon="7.24493">
        <ele>585</ele>
        <time>2012-03-03T13:37:26Z</time>
      </trkpt>
      <trkpt lat="47.42019" lon="7.24487">
        <ele>584</ele>
        <time>2012-03-03T13:37:27Z</time>
      </trkpt>
      <trkpt lat="47.42012" lon="7.24481">
        <ele>583</ele>
        <time>2012-03-03T13:37:28Z</time>
      </trkpt>
      <trkpt lat="47.42005" lon="7.24476">
        <ele>583</ele>
        <time>2012-03-03T13:37:29Z</time>
      </trkpt>
      <trkpt lat="47.41997" lon="7.24472">
        <ele>583</ele>
        <time>2012-03-03T13:37:30Z</time>
      </trkpt>
      <trkpt lat="47.41989" lon="7.24468">
        <ele>583</ele>
        <time>2012-03-03T13:37:31Z</time>
      </trkpt>
      <trkpt lat="47.4198" lon="7.24466">
        <ele>583</ele>
        <time>2012-03-03T13:37:32Z</time>
      </trkpt>
      <trkpt lat="47.4197" lon="7.24465">
        <ele>583</ele>
        <time>2012-03-03T13:37:33Z</time>
      </trkpt>
      <trkpt lat="47.4196" lon="7.24463">
        <ele>583</ele>
        <time>2012-03-03T13:37:34Z</time>
      </trkpt>
      <trkpt lat="47.41949" lon="7.24464">
        <ele>583</ele>
        <time>2012-03-03T13:37:35Z</time>
      </trkpt>
      <trkpt lat="47.41936" lon="7.24465">
        <ele>583</ele>
        <time>2012-03-03T13:37:36Z</time>
      </trkpt>
      <trkpt lat="47.41925" lon="7.24463">
        <ele>583</ele>
        <time>2012-03-03T13:37:37Z</time>
      </trkpt>
      <trkpt lat="47.41914" lon="7.24465">
        <ele>583</ele>
        <time>2012-03-03T13:37:38Z</time>
      </trkpt>
      <trkpt lat="47.41905" lon="7.24464">
        <ele>583</ele>
        <time>2012-03-03T13:37:39Z</time>
      </trkpt>
      <trkpt lat="47.419" lon="7.2447">
        <ele>582</ele>
        <time>2012-03-03T13:37:40Z</time>
      </trkpt>
      <trkpt lat="47.41895" lon="7.24481">
        <ele>580</ele>
        <time>2012-03-03T13:37:41Z</time>
      </trkpt>
      <trkpt lat="47.41885" lon="7.24475">
        <ele>579</ele>
        <time>2012-03-03T13:37:42Z</time>
      </trkpt>
      <trkpt lat="47.41873" lon="7.24468">
        <ele>577</ele>
        <time>2012-03-03T13:37:43Z</time>
      </trkpt>
      <trkpt lat="47.41866" lon="7.24465">
        <ele>577</ele>
        <time>2012-03-03T13:37:44Z</time>
      </trkpt>
      <trkpt lat="47.41853" lon="7.2445">
        <ele>577</ele>
        <time>2012-03-03T13:37:46Z</time>
      </trkpt>
      <trkpt lat="47.41846" lon="7.24442">
        <ele>577</ele>
        <time>2012-03-03T13:37:47Z</time>
      </trkpt>
      <trkpt lat="47.41839" lon="7.24432">
        <ele>573</ele>
        <time>2012-03-03T13:37:48Z</time>
      </trkpt>
      <trkpt lat="47.41832" lon="7.24423">
        <ele>573</ele>
        <time>2012-03-03T13:37:49Z</time>
      </trkpt>
      <trkpt lat="47.41828" lon="7.24419">
        <ele>578</ele>
        <time>2012-03-03T13:37:50Z</time>
      </trkpt>
      <trkpt lat="47.41823" lon="7.24414">
        <ele>576</ele>
        <time>2012-03-03T13:37:51Z</time>
      </trkpt>
      <trkpt lat="47.41817" lon="7.24406">
        <ele>576</ele>
        <time>2012-03-03T13:37:52Z</time>
      </trkpt>
      <trkpt lat="47.4181" lon="7.24393">
        <ele>575</ele>
        <time>2012-03-03T13:37:53Z</time>
      </trkpt>
      <trkpt lat="47.41809" lon="7.24383">
        <ele>574</ele>
        <time>2012-03-03T13:37:54Z</time>
      </trkpt>
      <trkpt lat="47.41808" lon="7.24369">
        <ele>575</ele>
        <time>2012-03-03T13:37:55Z</time>
      </trkpt>
      <trkpt lat="47.4181" lon="7.2436">
        <ele>575</ele>
        <time>2012-03-03T13:37:56Z</time>
      </trkpt>
      <trkpt lat="47.41816" lon="7.24353">
        <ele>575</ele>
        <time>2012-03-03T13:37:58Z</time>
      </trkpt>
      <trkpt lat="47.41828" lon="7.24363">
        <ele>574</ele>
        <time>2012-03-03T13:38:00Z</time>
      </trkpt>
      <trkpt lat="47.41832" lon="7.24365">
        <ele>574</ele>
        <time>2012-03-03T13:38:01Z</time>
      </trkpt>
      <trkpt lat="47.41837" lon="7.24367">
        <ele>574</ele>
        <time>2012-03-03T13:38:02Z</time>
      </trkpt>
      <trkpt lat="47.41841" lon="7.2438">
        <ele>574</ele>
        <time>2012-03-03T13:38:03Z</time>
      </trkpt>
      <trkpt lat="47.41846" lon="7.24393">
        <ele>574</ele>
        <time>2012-03-03T13:38:04Z</time>
      </trkpt>
      <trkpt lat="47.41853" lon="7.24404">
        <ele>573</ele>
        <time>2012-03-03T13:38:05Z</time>
      </trkpt>
      <trkpt lat="47.41857" lon="7.24412">
        <ele>573</ele>
        <time>2012-03-03T13:38:06Z</time>
      </trkpt>
      <trkpt lat="47.42343" lon="7.24616">
        <ele>580</ele>
        <time>2012-03-03T13:38:34Z</time>
      </trkpt>
      <trkpt lat="47.42359" lon="7.24628">
        <ele>580</ele>
        <time>2012-03-03T13:38:35Z</time>
      </trkpt>
      <trkpt lat="47.42374" lon="7.24631">
        <ele>580</ele>
        <time>2012-03-03T13:38:36Z</time>
      </trkpt>
      <trkpt lat="47.42385" lon="7.24642">
        <ele>580</ele>
        <time>2012-03-03T13:38:37Z</time>
      </trkpt>
      <trkpt lat="47.42409" lon="7.24656">
        <ele>581</ele>
        <time>2012-03-03T13:38:39Z</time>
      </trkpt>
      <trkpt lat="47.42421" lon="7.24652">
        <ele>580</ele>
        <time>2012-03-03T13:38:40Z</time>
      </trkpt>
      <trkpt lat="47.42431" lon="7.24657">
        <ele>580</ele>
        <time>2012-03-03T13:38:41Z</time>
      </trkpt>
      <trkpt lat="47.42441" lon="7.24662">
        <ele>580</ele>
        <time>2012-03-03T13:38:42Z</time>
      </trkpt>
      <trkpt lat="47.42449" lon="7.24661">
        <ele>580</ele>
        <time>2012-03-03T13:38:43Z</time>
      </trkpt>
      <trkpt lat="47.42459" lon="7.24664">
        <ele>580</ele>
        <time>2012-03-03T13:38:44Z</time>
      </trkpt>
      <trkpt lat="47.42467" lon="7.24664">
        <ele>580</ele>
        <time>2012-03-03T13:38:45Z</time>
      </trkpt>
      <trkpt lat="47.42476" lon="7.24663">
        <ele>580</ele>
        <time>2012-03-03T13:38:46Z</time>
      </trkpt>
      <trkpt lat="47.42488" lon="7.24668">
        <ele>580</ele>
        <time>2012-03-03T13:38:47Z</time>
      </trkpt>
      <trkpt lat="47.42498" lon="7.2467">
        <ele>580</ele>
        <time>2012-03-03T13:38:48Z</time>
      </trkpt>
      <trkpt lat="47.42508" lon="7.24671">
        <ele>580</ele>
        <time>2012-03-03T13:38:49Z</time>
      </trkpt>
      <trkpt lat="47.42521" lon="7.24676">
        <ele>580</ele>
        <time>2012-03-03T13:38:50Z</time>
      </trkpt>
      <trkpt lat="47.4253" lon="7.24681">
        <ele>580</ele>
        <time>2012-03-03T13:38:51Z</time>
      </trkpt>
      <trkpt lat="47.42546" lon="7.24687">
        <ele>580</ele>
        <time>2012-03-03T13:38:52Z</time>
      </trkpt>
      <trkpt lat="47.42554" lon="7.24689">
        <ele>580</ele>
        <time>2012-03-03T13:38:53Z</time>
      </trkpt>
      <trkpt lat="47.4256" lon="7.24695">
        <ele>580</ele>
        <time>2012-03-03T13:38:54Z</time>
      </trkpt>
      <trkpt lat="47.42569" lon="7.24701">
        <ele>580</ele>
        <time>2012-03-03T13:38:55Z</time>
      </trkpt>
      <trkpt lat="47.42577" lon="7.24709">
        <ele>580</ele>
        <time>2012-03-03T13:38:56Z</time>
      </trkpt>
      <trkpt lat="47.4259" lon="7.24711">
        <ele>580</ele>
        <time>2012-03-03T13:38:57Z</time>
      </trkpt>
      <trkpt lat="47.426" lon="7.2471">
        <ele>580</ele>
        <time>2012-03-03T13:38:58Z</time>
      </trkpt>
      <trkpt lat="47.4261" lon="7.2471">
        <ele>580</ele>
        <time>2012-03-03T13:38:59Z</time>
      </trkpt>
      <trkpt lat="47.4262" lon="7.24705">
        <ele>580</ele>
        <time>2012-03-03T13:39:00Z</time>
      </trkpt>
      <trkpt lat="47.42629" lon="7.24704">
        <ele>581</ele>
        <time>2012-03-03T13:39:01Z</time>
      </trkpt>
      <trkpt lat="47.42638" lon="7.24697">
        <ele>581</ele>
        <time>2012-03-03T13:39:02Z</time>
      </trkpt>
      <trkpt lat="47.42649" lon="7.24693">
        <ele>581</ele>
        <time>2012-03-03T13:39:03Z</time>
      </trkpt>
      <trkpt lat="47.42659" lon="7.24686">
        <ele>581</ele>
        <time>2012-03-03T13:39:04Z</time>
      </trkpt>
      <trkpt lat="47.42668" lon="7.24677">
        <ele>581</ele>
        <time>2012-03-03T13:39:05Z</time>
      </trkpt>
      <trkpt lat="47.42677" lon="7.24667">
        <ele>581</ele>
        <time>2012-03-03T13:39:06Z</time>
      </trkpt>
      <trkpt lat="47.4269" lon="7.24664">
        <ele>581</ele>
        <time>2012-03-03T13:39:07Z</time>
      </trkpt>
      <trkpt lat="47.42702" lon="7.24659">
        <ele>581</ele>
        <time>2012-03-03T13:39:08Z</time>
      </trkpt>
      <trkpt lat="47.42712" lon="7.24659">
        <ele>581</ele>
        <time>2012-03-03T13:39:09Z</time>
      </trkpt>
      <trkpt lat="47.42723" lon="7.24652">
        <ele>581</ele>
        <time>2012-03-03T13:39:10Z</time>
      </trkpt>
      <trkpt lat="47.42736" lon="7.24648">
        <ele>581</ele>
        <time>2012-03-03T13:39:11Z</time>
      </trkpt>
      <trkpt lat="47.42745" lon="7.24655">
        <ele>581</ele>
        <time>2012-03-03T13:39:12Z</time>
      </trkpt>
      <trkpt lat="47.42758" lon="7.24653">
        <ele>581</ele>
        <time>2012-03-03T13:39:13Z</time>
      </trkpt>
      <trkpt lat="47.42769" lon="7.24655">
        <ele>581</ele>
        <time>2012-03-03T13:39:14Z</time>
      </trkpt>
      <trkpt lat="47.42783" lon="7.24659">
        <ele>581</ele>
        <time>2012-03-03T13:39:15Z</time>
      </trkpt>
      <trkpt lat="47.42797" lon="7.24662">
        <ele>581</ele>
        <time>2012-03-03T13:39:16Z</time>
      </trkpt>
      <trkpt lat="47.42895" lon="7.2473">
        <ele>581</ele>
        <time>2012-03-03T13:39:22Z</time>
      </trkpt>
      <trkpt lat="47.4291" lon="7.24736">
        <ele>581</ele>
        <time>2012-03-03T13:39:23Z</time>
      </trkpt>
      <trkpt lat="47.42928" lon="7.24748">
        <ele>581</ele>
        <time>2012-03-03T13:39:24Z</time>
      </trkpt>
      <trkpt lat="47.42958" lon="7.24756">
        <ele>582</ele>
        <time>2012-03-03T13:39:25Z</time>
      </trkpt>
      <trkpt lat="47.44963" lon="7.25303">
        <ele>588</ele>
        <time>2012-03-03T13:40:57Z</time>
      </trkpt>
      <trkpt lat="47.44988" lon="7.25293">
        <ele>587</ele>
        <time>2012-03-03T13:40:58Z</time>
      </trkpt>
      <trkpt lat="47.45002" lon="7.25268">
        <ele>587</ele>
        <time>2012-03-03T13:40:59Z</time>
      </trkpt>
      <trkpt lat="47.45019" lon="7.25258">
        <ele>587</ele>
        <time>2012-03-03T13:41:00Z</time>
      </trkpt>
      <trkpt lat="47.45034" lon="7.25237">
        <ele>587</ele>
        <time>2012-03-03T13:41:01Z</time>
      </trkpt>
      <trkpt lat="47.45044" lon="7.25224">
        <ele>587</ele>
        <time>2012-03-03T13:41:02Z</time>
      </trkpt>
      <trkpt lat="47.45059" lon="7.25219">
        <ele>586</ele>
        <time>2012-03-03T13:41:03Z</time>
      </trkpt>
      <trkpt lat="47.45074" lon="7.2521">
        <ele>586</ele>
        <time>2012-03-03T13:41:04Z</time>
      </trkpt>
      <trkpt lat="47.45286" lon="7.25148">
        <ele>589</ele>
        <time>2012-03-03T13:41:15Z</time>
      </trkpt>
      <trkpt lat="47.45305" lon="7.25136">
        <ele>589</ele>
        <time>2012-03-03T13:41:16Z</time>
      </trkpt>
      <trkpt lat="47.45759" lon="7.25385">
        <ele>596</ele>
        <time>2012-03-03T13:41:45Z</time>
      </trkpt>
      <trkpt lat="47.45769" lon="7.25406">
        <ele>596</ele>
        <time>2012-03-03T13:41:46Z</time>
      </trkpt>
      <trkpt lat="47.4578" lon="7.25425">
        <ele>596</ele>
        <time>2012-03-03T13:41:47Z</time>
      </trkpt>
      <trkpt lat="47.45792" lon="7.25445">
        <ele>597</ele>
        <time>2012-03-03T13:41:48Z</time>
      </trkpt>
      <trkpt lat="47.45806" lon="7.25456">
        <ele>597</ele>
        <time>2012-03-03T13:41:49Z</time>
      </trkpt>
      <trkpt lat="47.45822" lon="7.25469">
        <ele>597</ele>
        <time>2012-03-03T13:41:50Z</time>
      </trkpt>
      <trkpt lat="47.45837" lon="7.2549">
        <ele>599</ele>
        <time>2012-03-03T13:41:51Z</time>
      </trkpt>
      <trkpt lat="47.45863" lon="7.25495">
        <ele>600</ele>
        <time>2012-03-03T13:41:52Z</time>
      </trkpt>
      <trkpt lat="47.45887" lon="7.25511">
        <ele>600</ele>
        <time>2012-03-03T13:41:53Z</time>
      </trkpt>
      <trkpt lat="47.45909" lon="7.25528">
        <ele>600</ele>
        <time>2012-03-03T13:41:54Z</time>
      </trkpt>
      <trkpt lat="47.45931" lon="7.25544">
        <ele>605</ele>
        <time>2012-03-03T13:41:55Z</time>
      </trkpt>
      <trkpt lat="47.45951" lon="7.2556">
        <ele>605</ele>
        <time>2012-03-03T13:41:56Z</time>
      </trkpt>
      <trkpt lat="47.4597" lon="7.2558">
        <ele>605</ele>
        <time>2012-03-03T13:41:57Z</time>
      </trkpt>
      <trkpt lat="47.45988" lon="7.25592">
        <ele>609</ele>
        <time>2012-03-03T13:41:58Z</time>
      </trkpt>
      <trkpt lat="47.46007" lon="7.2561">
        <ele>605</ele>
        <time>2012-03-03T13:41:59Z</time>
      </trkpt>
      <trkpt lat="47.46026" lon="7.25621">
        <ele>608</ele>
        <time>2012-03-03T13:42:00Z</time>
      </trkpt>
      <trkpt lat="47.46036" lon="7.25639">
        <ele>608</ele>
        <time>2012-03-03T13:42:01Z</time>
      </trkpt>
      <trkpt lat="47.46054" lon="7.25651">
        <ele>609</ele>
        <time>2012-03-03T13:42:02Z</time>
      </trkpt>
      <trkpt lat="47.46054" lon="7.25667">
        <ele>608</ele>
        <time>2012-03-03T13:42:03Z</time>
      </trkpt>
      <trkpt lat="47.46076" lon="7.25662">
        <ele>609</ele>
        <time>2012-03-03T13:42:04Z</time>
      </trkpt>
      <trkpt lat="47.46068" lon="7.25668">
        <ele>606</ele>
        <time>2012-03-03T13:42:06Z</time>
      </trkpt>
      <trkpt lat="47.46064" lon="7.25676">
        <ele>608</ele>
        <time>2012-03-03T13:42:07Z</time>
      </trkpt>
      <trkpt lat="47.46064" lon="7.25683">
        <ele>609</ele>
        <time>2012-03-03T13:42:08Z</time>
      </trkpt>
      <trkpt lat="47.46068" lon="7.25691">
        <ele>609</ele>
        <time>2012-03-03T13:42:10Z</time>
      </trkpt>
      <trkpt lat="47.46065" lon="7.25698">
        <ele>610</ele>
        <time>2012-03-03T13:42:11Z</time>
      </trkpt>
      <trkpt lat="47.46069" lon="7.25702">
        <ele>609</ele>
        <time>2012-03-03T13:42:16Z</time>
      </trkpt>
      <trkpt lat="47.46073" lon="7.25707">
        <ele>613</ele>
        <time>2012-03-03T13:42:20Z</time>
      </trkpt>
      <trkpt lat="47.46073" lon="7.25707">
        <ele>613</ele>
        <time>2012-03-03T13:42:20Z</time>
      </trkpt>
      <trkpt lat="47.46073" lon="7.25707">
        <ele>616</ele>
        <time>2012-03-03T13:42:27Z</time>
      </trkpt>
      <trkpt lat="47.4607" lon="7.25715">
        <ele>611</ele>
        <time>2012-03-03T13:42:41Z</time>
      </trkpt>
      <trkpt lat="47.46066" lon="7.25721">
        <ele>610</ele>
        <time>2012-03-03T13:42:43Z</time>
      </trkpt>
      <trkpt lat="47.46068" lon="7.25713">
        <ele>609</ele>
        <time>2012-03-03T13:43:08Z</time>
      </trkpt>
      <trkpt lat="47.4607" lon="7.25706">
        <ele>612</ele>
        <time>2012-03-03T13:44:30Z</time>
      </trkpt>
      <trkpt lat="47.46073" lon="7.25701">
        <ele>612</ele>
        <time>2012-03-03T13:45:20Z</time>
      </trkpt>
      <trkpt lat="47.46069" lon="7.25706">
        <ele>612</ele>
        <time>2012-03-03T13:45:27Z</time>
      </trkpt>
      <trkpt lat="47.46066" lon="7.25712">
        <ele>612</ele>
        <time>2012-03-03T13:45:59Z</time>
      </trkpt>
      <trkpt lat="47.46066" lon="7.25712">
        <ele>612</ele>
        <time>2012-03-03T13:45:59Z</time>
      </trkpt>
      <trkpt lat="47.46066" lon="7.25712">
        <ele>616</ele>
        <time>2012-03-03T13:48:47Z</time>
      </trkpt>
      <trkpt lat="47.46068" lon="7.25707">
        <ele>615</ele>
        <time>2012-03-03T13:49:17Z</time>
      </trkpt>
      <trkpt lat="47.46068" lon="7.25707">
        <ele>615</ele>
        <time>2012-03-03T13:49:17Z</time>
      </trkpt>
      <trkpt lat="47.46068" lon="7.25707">
        <ele>615</ele>
        <time>2012-03-03T13:49:22Z</time>
      </trkpt>
      <trkpt lat="47.4607" lon="7.257">
        <ele>614</ele>
        <time>2012-03-03T13:49:31Z</time>
      </trkpt>
      <trkpt lat="47.4607" lon="7.257">
        <ele>614</ele>
        <time>2012-03-03T13:49:31Z</time>
      </trkpt>
      <trkpt lat="47.4607" lon="7.257">
        <ele>618</ele>
        <time>2012-03-03T13:53:20Z</time>
      </trkpt>
      <trkpt lat="47.46069" lon="7.25707">
        <ele>622</ele>
        <time>2012-03-03T13:56:55Z</time>
      </trkpt>
      <trkpt lat="47.46071" lon="7.2572">
        <ele>622</ele>
        <time>2012-03-03T13:56:57Z</time>
      </trkpt>
      <trkpt lat="47.46074" lon="7.25731">
        <ele>621</ele>
        <time>2012-03-03T13:56:59Z</time>
      </trkpt>
      <trkpt lat="47.46078" lon="7.25738">
        <ele>620</ele>
        <time>2012-03-03T13:57:00Z</time>
      </trkpt>
      <trkpt lat="47.46081" lon="7.25747">
        <ele>619</ele>
        <time>2012-03-03T13:57:01Z</time>
      </trkpt>
      <trkpt lat="47.46085" lon="7.25757">
        <ele>620</ele>
        <time>2012-03-03T13:57:02Z</time>
      </trkpt>
      <trkpt lat="47.46088" lon="7.25768">
        <ele>619</ele>
        <time>2012-03-03T13:57:03Z</time>
      </trkpt>
      <trkpt lat="47.46094" lon="7.25778">
        <ele>619</ele>
        <time>2012-03-03T13:57:04Z</time>
      </trkpt>
      <trkpt lat="47.461" lon="7.25789">
        <ele>620</ele>
        <time>2012-03-03T13:57:05Z</time>
      </trkpt>
      <trkpt lat="47.46109" lon="7.25799">
        <ele>621</ele>
        <time>2012-03-03T13:57:06Z</time>
      </trkpt>
      <trkpt lat="47.46115" lon="7.2581">
        <ele>620</ele>
        <time>2012-03-03T13:57:07Z</time>
      </trkpt>
      <trkpt lat="47.46122" lon="7.25822">
        <ele>620</ele>
        <time>2012-03-03T13:57:08Z</time>
      </trkpt>
      <trkpt lat="47.46131" lon="7.25832">
        <ele>620</ele>
        <time>2012-03-03T13:57:09Z</time>
      </trkpt>
      <trkpt lat="47.46138" lon="7.25845">
        <ele>619</ele>
        <time>2012-03-03T13:57:10Z</time>
      </trkpt>
      <trkpt lat="47.46146" lon="7.25857">
        <ele>619</ele>
        <time>2012-03-03T13:57:11Z</time>
      </trkpt>
      <trkpt lat="47.4615" lon="7.25874">
        <ele>618</ele>
        <time>2012-03-03T13:57:12Z</time>
      </trkpt>
      <trkpt lat="47.46154" lon="7.25888">
        <ele>618</ele>
        <time>2012-03-03T13:57:13Z</time>
      </trkpt>
      <trkpt lat="47.46159" lon="7.25903">
        <ele>618</ele>
        <time>2012-03-03T13:57:14Z</time>
      </trkpt>
      <trkpt lat="47.46162" lon="7.25918">
        <ele>618</ele>
        <time>2012-03-03T13:57:15Z</time>
      </trkpt>
      <trkpt lat="47.46165" lon="7.25933">
        <ele>618</ele>
        <time>2012-03-03T13:57:16Z</time>
      </trkpt>
      <trkpt lat="47.46169" lon="7.25946">
        <ele>618</ele>
        <time>2012-03-03T13:57:17Z</time>
      </trkpt>
      <trkpt lat="47.4617" lon="7.25959">
        <ele>618</ele>
        <time>2012-03-03T13:57:18Z</time>
      </trkpt>
      <trkpt lat="47.46174" lon="7.25974">
        <ele>617</ele>
        <time>2012-03-03T13:57:19Z</time>
      </trkpt>
      <trkpt lat="47.46177" lon="7.25987">
        <ele>617</ele>
        <time>2012-03-03T13:57:20Z</time>
      </trkpt>
      <trkpt lat="47.4618" lon="7.26">
        <ele>616</ele>
        <time>2012-03-03T13:57:21Z</time>
      </trkpt>
      <trkpt lat="47.46183" lon="7.26014">
        <ele>616</ele>
        <time>2012-03-03T13:57:22Z</time>
      </trkpt>
      <trkpt lat="47.46186" lon="7.26029">
        <ele>616</ele>
        <time>2012-03-03T13:57:23Z</time>
      </trkpt>
      <trkpt lat="47.4619" lon="7.26042">
        <ele>616</ele>
        <time>2012-03-03T13:57:24Z</time>
      </trkpt>
      <trkpt lat="47.46193" lon="7.26058">
        <ele>615</ele>
        <time>2012-03-03T13:57:25Z</time>
      </trkpt>
      <trkpt lat="47.46196" lon="7.26072">
        <ele>614</ele>
        <time>2012-03-03T13:57:26Z</time>
      </trkpt>
      <trkpt lat="47.46199" lon="7.26086">
        <ele>614</ele>
        <time>2012-03-03T13:57:27Z</time>
      </trkpt>
      <trkpt lat="47.46205" lon="7.26099">
        <ele>614</ele>
        <time>2012-03-03T13:57:28Z</time>
      </trkpt>
      <trkpt lat="47.46209" lon="7.26115">
        <ele>613</ele>
        <time>2012-03-03T13:57:29Z</time>
      </trkpt>
      <trkpt lat="47.46215" lon="7.26128">
        <ele>613</ele>
        <time>2012-03-03T13:57:30Z</time>
      </trkpt>
      <trkpt lat="47.46224" lon="7.26139">
        <ele>613</ele>
        <time>2012-03-03T13:57:31Z</time>
      </trkpt>
      <trkpt lat="47.46234" lon="7.26149">
        <ele>613</ele>
        <time>2012-03-03T13:57:32Z</time>
      </trkpt>
      <trkpt lat="47.46246" lon="7.26159">
        <ele>613</ele>
        <time>2012-03-03T13:57:33Z</time>
      </trkpt>
      <trkpt lat="47.46257" lon="7.26169">
        <ele>612</ele>
        <time>2012-03-03T13:57:34Z</time>
      </trkpt>
      <trkpt lat="47.46269" lon="7.26178">
        <ele>612</ele>
        <time>2012-03-03T13:57:35Z</time>
      </trkpt>
      <trkpt lat="47.4628" lon="7.26189">
        <ele>612</ele>
        <time>2012-03-03T13:57:36Z</time>
      </trkpt>
      <trkpt lat="47.46291" lon="7.262">
        <ele>612</ele>
        <time>2012-03-03T13:57:37Z</time>
      </trkpt>
      <trkpt lat="47.46303" lon="7.26211">
        <ele>612</ele>
        <time>2012-03-03T13:57:38Z</time>
      </trkpt>
      <trkpt lat="47.46315" lon="7.2622">
        <ele>612</ele>
        <time>2012-03-03T13:57:39Z</time>
      </trkpt>
      <trkpt lat="47.46326" lon="7.26232">
        <ele>612</ele>
        <time>2012-03-03T13:57:40Z</time>
      </trkpt>
      <trkpt lat="47.46339" lon="7.26242">
        <ele>612</ele>
        <time>2012-03-03T13:57:41Z</time>
      </trkpt>
      <trkpt lat="47.46353" lon="7.26251">
        <ele>612</ele>
        <time>2012-03-03T13:57:42Z</time>
      </trkpt>
      <trkpt lat="47.46366" lon="7.26262">
        <ele>612</ele>
        <time>2012-03-03T13:57:43Z</time>
      </trkpt>
      <trkpt lat="47.46378" lon="7.26272">
        <ele>612</ele>
        <time>2012-03-03T13:57:44Z</time>
      </trkpt>
      <trkpt lat="47.4639" lon="7.26282">
        <ele>612</ele>
        <time>2012-03-03T13:57:45Z</time>
      </trkpt>
      <trkpt lat="47.46404" lon="7.26292">
        <ele>611</ele>
        <time>2012-03-03T13:57:46Z</time>
      </trkpt>
      <trkpt lat="47.46417" lon="7.26304">
        <ele>611</ele>
        <time>2012-03-03T13:57:47Z</time>
      </trkpt>
      <trkpt lat="47.4643" lon="7.26314">
        <ele>611</ele>
        <time>2012-03-03T13:57:48Z</time>
      </trkpt>
      <trkpt lat="47.46442" lon="7.26327">
        <ele>610</ele>
        <time>2012-03-03T13:57:49Z</time>
      </trkpt>
      <trkpt lat="47.46455" lon="7.26335">
        <ele>610</ele>
        <time>2012-03-03T13:57:50Z</time>
      </trkpt>
      <trkpt lat="47.46469" lon="7.26347">
        <ele>610</ele>
        <time>2012-03-03T13:57:51Z</time>
      </trkpt>
      <trkpt lat="47.46482" lon="7.26356">
        <ele>610</ele>
        <time>2012-03-03T13:57:52Z</time>
      </trkpt>
      <trkpt lat="47.46495" lon="7.26367">
        <ele>609</ele>
        <time>2012-03-03T13:57:53Z</time>
      </trkpt>
      <trkpt lat="47.46507" lon="7.26379">
        <ele>609</ele>
        <time>2012-03-03T13:57:54Z</time>
      </trkpt>
      <trkpt lat="47.4652" lon="7.2639">
        <ele>609</ele>
        <time>2012-03-03T13:57:55Z</time>
      </trkpt>
      <trkpt lat="47.46532" lon="7.26401">
        <ele>608</ele>
        <time>2012-03-03T13:57:56Z</time>
      </trkpt>
      <trkpt lat="47.46545" lon="7.26414">
        <ele>608</ele>
        <time>2012-03-03T13:57:57Z</time>
      </trkpt>
      <trkpt lat="47.46559" lon="7.26423">
        <ele>608</ele>
        <time>2012-03-03T13:57:58Z</time>
      </trkpt>
      <trkpt lat="47.46574" lon="7.26434">
        <ele>608</ele>
        <time>2012-03-03T13:57:59Z</time>
      </trkpt>
      <trkpt lat="47.46588" lon="7.26447">
        <ele>607</ele>
        <time>2012-03-03T13:58:00Z</time>
      </trkpt>
      <trkpt lat="47.466" lon="7.26458">
        <ele>606</ele>
        <time>2012-03-03T13:58:01Z</time>
      </trkpt>
      <trkpt lat="47.46615" lon="7.26465">
        <ele>606</ele>
        <time>2012-03-03T13:58:02Z</time>
      </trkpt>
      <trkpt lat="47.46631" lon="7.26471">
        <ele>606</ele>
        <time>2012-03-03T13:58:03Z</time>
      </trkpt>
      <trkpt lat="47.46647" lon="7.26477">
        <ele>605</ele>
        <time>2012-03-03T13:58:04Z</time>
      </trkpt>
      <trkpt lat="47.46663" lon="7.2648">
        <ele>605</ele>
        <time>2012-03-03T13:58:05Z</time>
      </trkpt>
      <trkpt lat="47.4668" lon="7.26484">
        <ele>604</ele>
        <time>2012-03-03T13:58:06Z</time>
      </trkpt>
      <trkpt lat="47.46697" lon="7.26492">
        <ele>604</ele>
        <time>2012-03-03T13:58:07Z</time>
      </trkpt>
      <trkpt lat="47.46712" lon="7.26502">
        <ele>604</ele>
        <time>2012-03-03T13:58:08Z</time>
      </trkpt>
      <trkpt lat="47.46728" lon="7.26512">
        <ele>604</ele>
        <time>2012-03-03T13:58:09Z</time>
      </trkpt>
      <trkpt lat="47.46746" lon="7.26522">
        <ele>604</ele>
        <time>2012-03-03T13:58:10Z</time>
      </trkpt>
      <trkpt lat="47.4676" lon="7.26535">
        <ele>604</ele>
        <time>2012-03-03T13:58:11Z</time>
      </trkpt>
      <trkpt lat="47.46773" lon="7.2655">
        <ele>602</ele>
        <time>2012-03-03T13:58:12Z</time>
      </trkpt>
      <trkpt lat="47.46787" lon="7.26563">
        <ele>601</ele>
        <time>2012-03-03T13:58:13Z</time>
      </trkpt>
      <trkpt lat="47.46803" lon="7.26574">
        <ele>601</ele>
        <time>2012-03-03T13:58:14Z</time>
      </trkpt>
      <trkpt lat="47.46821" lon="7.26585">
        <ele>601</ele>
        <time>2012-03-03T13:58:15Z</time>
      </trkpt>
      <trkpt lat="47.46841" lon="7.26592">
        <ele>601</ele>
        <time>2012-03-03T13:58:16Z</time>
      </trkpt>
      <trkpt lat="47.46858" lon="7.26602">
        <ele>601</ele>
        <time>2012-03-03T13:58:17Z</time>
      </trkpt>
      <trkpt lat="47.46877" lon="7.26609">
        <ele>601</ele>
        <time>2012-03-03T13:58:18Z</time>
      </trkpt>
      <trkpt lat="47.46894" lon="7.26618">
        <ele>601</ele>
        <time>2012-03-03T13:58:19Z</time>
      </trkpt>
      <trkpt lat="47.46913" lon="7.26625">
        <ele>602</ele>
        <time>2012-03-03T13:58:20Z</time>
      </trkpt>
      <trkpt lat="47.46928" lon="7.26633">
        <ele>601</ele>
        <time>2012-03-03T13:58:21Z</time>
      </trkpt>
      <trkpt lat="47.46944" lon="7.2664">
        <ele>601</ele>
        <time>2012-03-03T13:58:22Z</time>
      </trkpt>
      <trkpt lat="47.46963" lon="7.26648">
        <ele>601</ele>
        <time>2012-03-03T13:58:23Z</time>
      </trkpt>
      <trkpt lat="47.46979" lon="7.26654">
        <ele>601</ele>
        <time>2012-03-03T13:58:24Z</time>
      </trkpt>
      <trkpt lat="47.46996" lon="7.26661">
        <ele>601</ele>
        <time>2012-03-03T13:58:25Z</time>
      </trkpt>
      <trkpt lat="47.47013" lon="7.26668">
        <ele>601</ele>
        <time>2012-03-03T13:58:26Z</time>
      </trkpt>
      <trkpt lat="47.47028" lon="7.26675">
        <ele>601</ele>
        <time>2012-03-03T13:58:27Z</time>
      </trkpt>
      <trkpt lat="47.47048" lon="7.26677">
        <ele>602</ele>
        <time>2012-03-03T13:58:28Z</time>
      </trkpt>
      <trkpt lat="47.47064" lon="7.26684">
        <ele>602</ele>
        <time>2012-03-03T13:58:29Z</time>
      </trkpt>
      <trkpt lat="47.47077" lon="7.26691">
        <ele>601</ele>
        <time>2012-03-03T13:58:30Z</time>
      </trkpt>
      <trkpt lat="47.47095" lon="7.26699">
        <ele>601</ele>
        <time>2012-03-03T13:58:31Z</time>
      </trkpt>
      <trkpt lat="47.47112" lon="7.26706">
        <ele>601</ele>
        <time>2012-03-03T13:58:32Z</time>
      </trkpt>
      <trkpt lat="47.4713" lon="7.26713">
        <ele>601</ele>
        <time>2012-03-03T13:58:33Z</time>
      </trkpt>
      <trkpt lat="47.47149" lon="7.26721">
        <ele>601</ele>
        <time>2012-03-03T13:58:34Z</time>
      </trkpt>
      <trkpt lat="47.47167" lon="7.26728">
        <ele>601</ele>
        <time>2012-03-03T13:58:35Z</time>
      </trkpt>
      <trkpt lat="47.47185" lon="7.26732">
        <ele>601</ele>
        <time>2012-03-03T13:58:36Z</time>
      </trkpt>
      <trkpt lat="47.47203" lon="7.2674">
        <ele>601</ele>
        <time>2012-03-03T13:58:37Z</time>
      </trkpt>
      <trkpt lat="47.47218" lon="7.26754">
        <ele>601</ele>
        <time>2012-03-03T13:58:38Z</time>
      </trkpt>
      <trkpt lat="47.47229" lon="7.2677">
        <ele>601</ele>
        <time>2012-03-03T13:58:39Z</time>
      </trkpt>
      <trkpt lat="47.47237" lon="7.26788">
        <ele>601</ele>
        <time>2012-03-03T13:58:40Z</time>
      </trkpt>
      <trkpt lat="47.47246" lon="7.26812">
        <ele>602</ele>
        <time>2012-03-03T13:58:41Z</time>
      </trkpt>
      <trkpt lat="47.47256" lon="7.26834">
        <ele>601</ele>
        <time>2012-03-03T13:58:42Z</time>
      </trkpt>
      <trkpt lat="47.47266" lon="7.26854">
        <ele>601</ele>
        <time>2012-03-03T13:58:43Z</time>
      </trkpt>
      <trkpt lat="47.47273" lon="7.26876">
        <ele>600</ele>
        <time>2012-03-03T13:58:44Z</time>
      </trkpt>
      <trkpt lat="47.47282" lon="7.26896">
        <ele>600</ele>
        <time>2012-03-03T13:58:45Z</time>
      </trkpt>
      <trkpt lat="47.47287" lon="7.26918">
        <ele>600</ele>
        <time>2012-03-03T13:58:46Z</time>
      </trkpt>
      <trkpt lat="47.47288" lon="7.26949">
        <ele>599</ele>
        <time>2012-03-03T13:58:47Z</time>
      </trkpt>
      <trkpt lat="47.47286" lon="7.26978">
        <ele>599</ele>
        <time>2012-03-03T13:58:48Z</time>
      </trkpt>
      <trkpt lat="47.47281" lon="7.27013">
        <ele>599</ele>
        <time>2012-03-03T13:58:49Z</time>
      </trkpt>
      <trkpt lat="47.47281" lon="7.27047">
        <ele>599</ele>
        <time>2012-03-03T13:58:50Z</time>
      </trkpt>
      <trkpt lat="47.47284" lon="7.2708">
        <ele>599</ele>
        <time>2012-03-03T13:58:51Z</time>
      </trkpt>
      <trkpt lat="47.47281" lon="7.2712">
        <ele>599</ele>
        <time>2012-03-03T13:58:52Z</time>
      </trkpt>
      <trkpt lat="47.47284" lon="7.27156">
        <ele>599</ele>
        <time>2012-03-03T13:58:53Z</time>
      </trkpt>
      <trkpt lat="47.47285" lon="7.27186">
        <ele>600</ele>
        <time>2012-03-03T13:58:54Z</time>
      </trkpt>
      <trkpt lat="47.47286" lon="7.27224">
        <ele>600</ele>
        <time>2012-03-03T13:58:55Z</time>
      </trkpt>
      <trkpt lat="47.47287" lon="7.27256">
        <ele>600</ele>
        <time>2012-03-03T13:58:56Z</time>
      </trkpt>
      <trkpt lat="47.47286" lon="7.2729">
        <ele>600</ele>
        <time>2012-03-03T13:58:57Z</time>
      </trkpt>
      <trkpt lat="47.47286" lon="7.27323">
        <ele>601</ele>
        <time>2012-03-03T13:58:58Z</time>
      </trkpt>
      <trkpt lat="47.47286" lon="7.27357">
        <ele>600</ele>
        <time>2012-03-03T13:58:59Z</time>
      </trkpt>
      <trkpt lat="47.47285" lon="7.2739">
        <ele>600</ele>
        <time>2012-03-03T13:59:00Z</time>
      </trkpt>
      <trkpt lat="47.47285" lon="7.27423">
        <ele>601</ele>
        <time>2012-03-03T13:59:01Z</time>
      </trkpt>
      <trkpt lat="47.47284" lon="7.27454">
        <ele>602</ele>
        <time>2012-03-03T13:59:02Z</time>
      </trkpt>
      <trkpt lat="47.47284" lon="7.27484">
        <ele>602</ele>
        <time>2012-03-03T13:59:03Z</time>
      </trkpt>
      <trkpt lat="47.47283" lon="7.27511">
        <ele>602</ele>
        <time>2012-03-03T13:59:04Z</time>
      </trkpt>
      <trkpt lat="47.47285" lon="7.2754">
        <ele>602</ele>
        <time>2012-03-03T13:59:05Z</time>
      </trkpt>
      <trkpt lat="47.47286" lon="7.27569">
        <ele>602</ele>
        <time>2012-03-03T13:59:06Z</time>
      </trkpt>
      <trkpt lat="47.47289" lon="7.27598">
        <ele>603</ele>
        <time>2012-03-03T13:59:07Z</time>
      </trkpt>
      <trkpt lat="47.47294" lon="7.27627">
        <ele>603</ele>
        <time>2012-03-03T13:59:08Z</time>
      </trkpt>
      <trkpt lat="47.47298" lon="7.27654">
        <ele>603</ele>
        <time>2012-03-03T13:59:09Z</time>
      </trkpt>
      <trkpt lat="47.47302" lon="7.27681">
        <ele>603</ele>
        <time>2012-03-03T13:59:10Z</time>
      </trkpt>
      <trkpt lat="47.47313" lon="7.27708">
        <ele>603</ele>
        <time>2012-03-03T13:59:11Z</time>
      </trkpt>
      <trkpt lat="47.4732" lon="7.27735">
        <ele>603</ele>
        <time>2012-03-03T13:59:12Z</time>
      </trkpt>
      <trkpt lat="47.4733" lon="7.27764">
        <ele>603</ele>
        <time>2012-03-03T13:59:13Z</time>
      </trkpt>
      <trkpt lat="47.47339" lon="7.2779">
        <ele>604</ele>
        <time>2012-03-03T13:59:14Z</time>
      </trkpt>
      <trkpt lat="47.4735" lon="7.27817">
        <ele>604</ele>
        <time>2012-03-03T13:59:15Z</time>
      </trkpt>
      <trkpt lat="47.47363" lon="7.27842">
        <ele>604</ele>
        <time>2012-03-03T13:59:16Z</time>
      </trkpt>
      <trkpt lat="47.47379" lon="7.27867">
        <ele>604</ele>
        <time>2012-03-03T13:59:17Z</time>
      </trkpt>
      <trkpt lat="47.47389" lon="7.27893">
        <ele>604</ele>
        <time>2012-03-03T13:59:18Z</time>
      </trkpt>
      <trkpt lat="47.47399" lon="7.27922">
        <ele>604</ele>
        <time>2012-03-03T13:59:19Z</time>
      </trkpt>
      <trkpt lat="47.47411" lon="7.2795">
        <ele>604</ele>
        <time>2012-03-03T13:59:20Z</time>
      </trkpt>
      <trkpt lat="47.4742" lon="7.27983">
        <ele>604</ele>
        <time>2012-03-03T13:59:21Z</time>
      </trkpt>
      <trkpt lat="47.4743" lon="7.28012">
        <ele>604</ele>
        <time>2012-03-03T13:59:22Z</time>
      </trkpt>
      <trkpt lat="47.47441" lon="7.28042">
        <ele>604</ele>
        <time>2012-03-03T13:59:23Z</time>
      </trkpt>
      <trkpt lat="47.47451" lon="7.2807">
        <ele>604</ele>
        <time>2012-03-03T13:59:24Z</time>
      </trkpt>
      <trkpt lat="47.47463" lon="7.28097">
        <ele>604</ele>
        <time>2012-03-03T13:59:25Z</time>
      </trkpt>
      <trkpt lat="47.47477" lon="7.28119">
        <ele>605</ele>
        <time>2012-03-03T13:59:26Z</time>
      </trkpt>
      <trkpt lat="47.47494" lon="7.28146">
        <ele>605</ele>
        <time>2012-03-03T13:59:27Z</time>
      </trkpt>
      <trkpt lat="47.47508" lon="7.28172">
        <ele>604</ele>
        <time>2012-03-03T13:59:28Z</time>
      </trkpt>
      <trkpt lat="47.47518" lon="7.28197">
        <ele>605</ele>
        <time>2012-03-03T13:59:29Z</time>
      </trkpt>
      <trkpt lat="47.47537" lon="7.28213">
        <ele>604</ele>
        <time>2012-03-03T13:59:30Z</time>
      </trkpt>
      <trkpt lat="47.47542" lon="7.28244">
        <ele>605</ele>
        <time>2012-03-03T13:59:31Z</time>
      </trkpt>
      <trkpt lat="47.47554" lon="7.28266">
        <ele>605</ele>
        <time>2012-03-03T13:59:32Z</time>
      </trkpt>
      <trkpt lat="47.47567" lon="7.28281">
        <ele>605</ele>
        <time>2012-03-03T13:59:33Z</time>
      </trkpt>
      <trkpt lat="47.47581" lon="7.28298">
        <ele>605</ele>
        <time>2012-03-03T13:59:34Z</time>
      </trkpt>
      <trkpt lat="47.47609" lon="7.28309">
        <ele>605</ele>
        <time>2012-03-03T13:59:35Z</time>
      </trkpt>
      <trkpt lat="47.47632" lon="7.28322">
        <ele>605</ele>
        <time>2012-03-03T13:59:36Z</time>
      </trkpt>
      <trkpt lat="47.47648" lon="7.28337">
        <ele>605</ele>
        <time>2012-03-03T13:59:37Z</time>
      </trkpt>
      <trkpt lat="47.47666" lon="7.28355">
        <ele>605</ele>
        <time>2012-03-03T13:59:38Z</time>
      </trkpt>
      <trkpt lat="47.47687" lon="7.28367">
        <ele>605</ele>
        <time>2012-03-03T13:59:39Z</time>
      </trkpt>
      <trkpt lat="47.47704" lon="7.28384">
        <ele>606</ele>
        <time>2012-03-03T13:59:40Z</time>
      </trkpt>
      <trkpt lat="47.47723" lon="7.284">
        <ele>607</ele>
        <time>2012-03-03T13:59:41Z</time>
      </trkpt>
      <trkpt lat="47.47743" lon="7.28414">
        <ele>607</ele>
        <time>2012-03-03T13:59:42Z</time>
      </trkpt>
      <trkpt lat="47.47762" lon="7.28432">
        <ele>609</ele>
        <time>2012-03-03T13:59:43Z</time>
      </trkpt>
      <trkpt lat="47.47779" lon="7.28449">
        <ele>611</ele>
        <time>2012-03-03T13:59:44Z</time>
      </trkpt>
      <trkpt lat="47.47797" lon="7.28469">
        <ele>612</ele>
        <time>2012-03-03T13:59:45Z</time>
      </trkpt>
      <trkpt lat="47.47814" lon="7.28494">
        <ele>613</ele>
        <time>2012-03-03T13:59:46Z</time>
      </trkpt>
      <trkpt lat="47.47831" lon="7.28522">
        <ele>614</ele>
        <time>2012-03-03T13:59:47Z</time>
      </trkpt>
      <trkpt lat="47.47846" lon="7.28549">
        <ele>615</ele>
        <time>2012-03-03T13:59:48Z</time>
      </trkpt>
      <trkpt lat="47.4786" lon="7.28571">
        <ele>615</ele>
        <time>2012-03-03T13:59:49Z</time>
      </trkpt>
      <trkpt lat="47.47872" lon="7.28594">
        <ele>615</ele>
        <time>2012-03-03T13:59:50Z</time>
      </trkpt>
      <trkpt lat="47.47888" lon="7.28619">
        <ele>616</ele>
        <time>2012-03-03T13:59:51Z</time>
      </trkpt>
      <trkpt lat="47.47902" lon="7.28642">
        <ele>616</ele>
        <time>2012-03-03T13:59:52Z</time>
      </trkpt>
      <trkpt lat="47.47916" lon="7.28662">
        <ele>616</ele>
        <time>2012-03-03T13:59:53Z</time>
      </trkpt>
      <trkpt lat="47.4793" lon="7.28682">
        <ele>617</ele>
        <time>2012-03-03T13:59:54Z</time>
      </trkpt>
      <trkpt lat="47.47947" lon="7.28698">
        <ele>616</ele>
        <time>2012-03-03T13:59:55Z</time>
      </trkpt>
      <trkpt lat="47.47965" lon="7.28714">
        <ele>616</ele>
        <time>2012-03-03T13:59:56Z</time>
      </trkpt>
      <trkpt lat="47.47984" lon="7.28733">
        <ele>616</ele>
        <time>2012-03-03T13:59:57Z</time>
      </trkpt>
      <trkpt lat="47.48" lon="7.28757">
        <ele>615</ele>
        <time>2012-03-03T13:59:58Z</time>
      </trkpt>
      <trkpt lat="47.48014" lon="7.28789">
        <ele>614</ele>
        <time>2012-03-03T13:59:59Z</time>
      </trkpt>
      <trkpt lat="47.48022" lon="7.28834">
        <ele>613</ele>
        <time>2012-03-03T14:00:00Z</time>
      </trkpt>
      <trkpt lat="47.48034" lon="7.28867">
        <ele>612</ele>
        <time>2012-03-03T14:00:01Z</time>
      </trkpt>
      <trkpt lat="47.48046" lon="7.28899">
        <ele>613</ele>
        <time>2012-03-03T14:00:02Z</time>
      </trkpt>
      <trkpt lat="47.48053" lon="7.28936">
        <ele>612</ele>
        <time>2012-03-03T14:00:03Z</time>
      </trkpt>
      <trkpt lat="47.48058" lon="7.28976">
        <ele>612</ele>
        <time>2012-03-03T14:00:04Z</time>
      </trkpt>
      <trkpt lat="47.48066" lon="7.29012">
        <ele>611</ele>
        <time>2012-03-03T14:00:05Z</time>
      </trkpt>
      <trkpt lat="47.48074" lon="7.29045">
        <ele>611</ele>
        <time>2012-03-03T14:00:06Z</time>
      </trkpt>
      <trkpt lat="47.48084" lon="7.29081">
        <ele>611</ele>
        <time>2012-03-03T14:00:07Z</time>
      </trkpt>
      <trkpt lat="47.48094" lon="7.29112">
        <ele>611</ele>
        <time>2012-03-03T14:00:08Z</time>
      </trkpt>
      <trkpt lat="47.48103" lon="7.29142">
        <ele>611</ele>
        <time>2012-03-03T14:00:09Z</time>
      </trkpt>
      <trkpt lat="47.48112" lon="7.2917">
        <ele>611</ele>
        <time>2012-03-03T14:00:10Z</time>
      </trkpt>
      <trkpt lat="47.4812" lon="7.29196">
        <ele>611</ele>
        <time>2012-03-03T14:00:11Z</time>
      </trkpt>
      <trkpt lat="47.48128" lon="7.29222">
        <ele>611</ele>
        <time>2012-03-03T14:00:12Z</time>
      </trkpt>
      <trkpt lat="47.48138" lon="7.29248">
        <ele>611</ele>
        <time>2012-03-03T14:00:13Z</time>
      </trkpt>
      <trkpt lat="47.48146" lon="7.29274">
        <ele>611</ele>
        <time>2012-03-03T14:00:14Z</time>
      </trkpt>
      <trkpt lat="47.48156" lon="7.29304">
        <ele>611</ele>
        <time>2012-03-03T14:00:15Z</time>
      </trkpt>
      <trkpt lat="47.48169" lon="7.29332">
        <ele>611</ele>
        <time>2012-03-03T14:00:16Z</time>
      </trkpt>
      <trkpt lat="47.48183" lon="7.2936">
        <ele>612</ele>
        <time>2012-03-03T14:00:17Z</time>
      </trkpt>
      <trkpt lat="47.48193" lon="7.29388">
        <ele>612</ele>
        <time>2012-03-03T14:00:18Z</time>
      </trkpt>
      <trkpt lat="47.482" lon="7.29418">
        <ele>611</ele>
        <time>2012-03-03T14:00:19Z</time>
      </trkpt>
      <trkpt lat="47.48209" lon="7.29448">
        <ele>611</ele>
        <time>2012-03-03T14:00:20Z</time>
      </trkpt>
      <trkpt lat="47.48216" lon="7.2948">
        <ele>611</ele>
        <time>2012-03-03T14:00:21Z</time>
      </trkpt>
      <trkpt lat="47.48224" lon="7.29509">
        <ele>611</ele>
        <time>2012-03-03T14:00:22Z</time>
      </trkpt>
      <trkpt lat="47.48231" lon="7.29543">
        <ele>611</ele>
        <time>2012-03-03T14:00:23Z</time>
      </trkpt>
      <trkpt lat="47.48239" lon="7.29575">
        <ele>611</ele>
        <time>2012-03-03T14:00:24Z</time>
      </trkpt>
      <trkpt lat="47.48243" lon="7.29608">
        <ele>611</ele>
        <time>2012-03-03T14:00:25Z</time>
      </trkpt>
      <trkpt lat="47.48249" lon="7.2964">
        <ele>611</ele>
        <time>2012-03-03T14:00:26Z</time>
      </trkpt>
      <trkpt lat="47.48256" lon="7.2967">
        <ele>611</ele>
        <time>2012-03-03T14:00:27Z</time>
      </trkpt>
      <trkpt lat="47.48264" lon="7.29695">
        <ele>610</ele>
        <time>2012-03-03T14:00:28Z</time>
      </trkpt>
      <trkpt lat="47.48273" lon="7.29721">
        <ele>610</ele>
        <time>2012-03-03T14:00:29Z</time>
      </trkpt>
      <trkpt lat="47.48282" lon="7.2974">
        <ele>609</ele>
        <time>2012-03-03T14:00:30Z</time>
      </trkpt>
      <trkpt lat="47.48295" lon="7.29764">
        <ele>609</ele>
        <time>2012-03-03T14:00:31Z</time>
      </trkpt>
      <trkpt lat="47.48306" lon="7.29785">
        <ele>609</ele>
        <time>2012-03-03T14:00:32Z</time>
      </trkpt>
      <trkpt lat="47.48322" lon="7.29804">
        <ele>609</ele>
        <time>2012-03-03T14:00:33Z</time>
      </trkpt>
      <trkpt lat="47.48338" lon="7.29824">
        <ele>608</ele>
        <time>2012-03-03T14:00:34Z</time>
      </trkpt>
      <trkpt lat="47.48353" lon="7.29847">
        <ele>607</ele>
        <time>2012-03-03T14:00:35Z</time>
      </trkpt>
      <trkpt lat="47.48367" lon="7.2987">
        <ele>607</ele>
        <time>2012-03-03T14:00:36Z</time>
      </trkpt>
      <trkpt lat="47.4838" lon="7.29896">
        <ele>606</ele>
        <time>2012-03-03T14:00:37Z</time>
      </trkpt>
      <trkpt lat="47.48386" lon="7.29926">
        <ele>605</ele>
        <time>2012-03-03T14:00:38Z</time>
      </trkpt>
      <trkpt lat="47.48396" lon="7.29955">
        <ele>605</ele>
        <time>2012-03-03T14:00:39Z</time>
      </trkpt>
      <trkpt lat="47.48405" lon="7.29981">
        <ele>604</ele>
        <time>2012-03-03T14:00:40Z</time>
      </trkpt>
      <trkpt lat="47.48405" lon="7.30011">
        <ele>603</ele>
        <time>2012-03-03T14:00:41Z</time>
      </trkpt>
      <trkpt lat="47.48409" lon="7.30038">
        <ele>602</ele>
        <time>2012-03-03T14:00:42Z</time>
      </trkpt>
      <trkpt lat="47.48412" lon="7.30067">
        <ele>602</ele>
        <time>2012-03-03T14:00:43Z</time>
      </trkpt>
      <trkpt lat="47.48414" lon="7.30095">
        <ele>601</ele>
        <time>2012-03-03T14:00:44Z</time>
      </trkpt>
      <trkpt lat="47.4842" lon="7.3012">
        <ele>601</ele>
        <time>2012-03-03T14:00:45Z</time>
      </trkpt>
      <trkpt lat="47.48425" lon="7.30144">
        <ele>601</ele>
        <time>2012-03-03T14:00:46Z</time>
      </trkpt>
      <trkpt lat="47.48433" lon="7.30173">
        <ele>600</ele>
        <time>2012-03-03T14:00:47Z</time>
      </trkpt>
      <trkpt lat="47.4844" lon="7.30201">
        <ele>600</ele>
        <time>2012-03-03T14:00:48Z</time>
      </trkpt>
      <trkpt lat="47.48452" lon="7.30228">
        <ele>601</ele>
        <time>2012-03-03T14:00:49Z</time>
      </trkpt>
      <trkpt lat="47.48462" lon="7.30256">
        <ele>600</ele>
        <time>2012-03-03T14:00:50Z</time>
      </trkpt>
      <trkpt lat="47.48476" lon="7.30281">
        <ele>600</ele>
        <time>2012-03-03T14:00:51Z</time>
      </trkpt>
      <trkpt lat="47.48485" lon="7.30306">
        <ele>600</ele>
        <time>2012-03-03T14:00:52Z</time>
      </trkpt>
      <trkpt lat="47.485" lon="7.30331">
        <ele>600</ele>
        <time>2012-03-03T14:00:53Z</time>
      </trkpt>
      <trkpt lat="47.4851" lon="7.30355">
        <ele>599</ele>
        <time>2012-03-03T14:00:54Z</time>
      </trkpt>
      <trkpt lat="47.48524" lon="7.3038">
        <ele>599</ele>
        <time>2012-03-03T14:00:55Z</time>
      </trkpt>
      <trkpt lat="47.48536" lon="7.30404">
        <ele>599</ele>
        <time>2012-03-03T14:00:56Z</time>
      </trkpt>
      <trkpt lat="47.48548" lon="7.30428">
        <ele>599</ele>
        <time>2012-03-03T14:00:57Z</time>
      </trkpt>
      <trkpt lat="47.48558" lon="7.30452">
        <ele>599</ele>
        <time>2012-03-03T14:00:58Z</time>
      </trkpt>
      <trkpt lat="47.48567" lon="7.30478">
        <ele>599</ele>
        <time>2012-03-03T14:00:59Z</time>
      </trkpt>
      <trkpt lat="47.48577" lon="7.30504">
        <ele>599</ele>
        <time>2012-03-03T14:01:00Z</time>
      </trkpt>
      <trkpt lat="47.48586" lon="7.30529">
        <ele>599</ele>
        <time>2012-03-03T14:01:01Z</time>
      </trkpt>
      <trkpt lat="47.48596" lon="7.30552">
        <ele>599</ele>
        <time>2012-03-03T14:01:02Z</time>
      </trkpt>
      <trkpt lat="47.48608" lon="7.30575">
        <ele>599</ele>
        <time>2012-03-03T14:01:03Z</time>
      </trkpt>
      <trkpt lat="47.48621" lon="7.30597">
        <ele>598</ele>
        <time>2012-03-03T14:01:04Z</time>
      </trkpt>
      <trkpt lat="47.48633" lon="7.30617">
        <ele>598</ele>
        <time>2012-03-03T14:01:05Z</time>
      </trkpt>
      <trkpt lat="47.48647" lon="7.30635">
        <ele>598</ele>
        <time>2012-03-03T14:01:06Z</time>
      </trkpt>
      <trkpt lat="47.48663" lon="7.30646">
        <ele>598</ele>
        <time>2012-03-03T14:01:07Z</time>
      </trkpt>
      <trkpt lat="47.48679" lon="7.30658">
        <ele>598</ele>
        <time>2012-03-03T14:01:08Z</time>
      </trkpt>
      <trkpt lat="47.48696" lon="7.30678">
        <ele>599</ele>
        <time>2012-03-03T14:01:09Z</time>
      </trkpt>
      <trkpt lat="47.48713" lon="7.30696">
        <ele>599</ele>
        <time>2012-03-03T14:01:10Z</time>
      </trkpt>
      <trkpt lat="47.4873" lon="7.30718">
        <ele>599</ele>
        <time>2012-03-03T14:01:11Z</time>
      </trkpt>
      <trkpt lat="47.48746" lon="7.3074">
        <ele>599</ele>
        <time>2012-03-03T14:01:12Z</time>
      </trkpt>
      <trkpt lat="47.4876" lon="7.30759">
        <ele>599</ele>
        <time>2012-03-03T14:01:13Z</time>
      </trkpt>
      <trkpt lat="47.48774" lon="7.30781">
        <ele>599</ele>
        <time>2012-03-03T14:01:14Z</time>
      </trkpt>
      <trkpt lat="47.48788" lon="7.30805">
        <ele>599</ele>
        <time>2012-03-03T14:01:15Z</time>
      </trkpt>
      <trkpt lat="47.48803" lon="7.30825">
        <ele>599</ele>
        <time>2012-03-03T14:01:16Z</time>
      </trkpt>
      <trkpt lat="47.48815" lon="7.30847">
        <ele>599</ele>
        <time>2012-03-03T14:01:17Z</time>
      </trkpt>
      <trkpt lat="47.4883" lon="7.30864">
        <ele>599</ele>
        <time>2012-03-03T14:01:18Z</time>
      </trkpt>
      <trkpt lat="47.48841" lon="7.30888">
        <ele>599</ele>
        <time>2012-03-03T14:01:19Z</time>
      </trkpt>
      <trkpt lat="47.48852" lon="7.30908">
        <ele>599</ele>
        <time>2012-03-03T14:01:20Z</time>
      </trkpt>
      <trkpt lat="47.4884" lon="7.30942">
        <ele>599</ele>
        <time>2012-03-03T14:01:21Z</time>
      </trkpt>
      <trkpt lat="47.48847" lon="7.30965">
        <ele>600</ele>
        <time>2012-03-03T14:01:22Z</time>
      </trkpt>
      <trkpt lat="47.48848" lon="7.30993">
        <ele>600</ele>
        <time>2012-03-03T14:01:23Z</time>
      </trkpt>
      <trkpt lat="47.48845" lon="7.31028">
        <ele>601</ele>
        <time>2012-03-03T14:01:24Z</time>
      </trkpt>
      <trkpt lat="47.48851" lon="7.31055">
        <ele>601</ele>
        <time>2012-03-03T14:01:25Z</time>
      </trkpt>
      <trkpt lat="47.48855" lon="7.31083">
        <ele>602</ele>
        <time>2012-03-03T14:01:26Z</time>
      </trkpt>
      <trkpt lat="47.48858" lon="7.31115">
        <ele>602</ele>
        <time>2012-03-03T14:01:27Z</time>
      </trkpt>
      <trkpt lat="47.48862" lon="7.31145">
        <ele>602</ele>
        <time>2012-03-03T14:01:28Z</time>
      </trkpt>
      <trkpt lat="47.48863" lon="7.31176">
        <ele>603</ele>
        <time>2012-03-03T14:01:29Z</time>
      </trkpt>
      <trkpt lat="47.48865" lon="7.31204">
        <ele>603</ele>
        <time>2012-03-03T14:01:30Z</time>
      </trkpt>
      <trkpt lat="47.48869" lon="7.31233">
        <ele>604</ele>
        <time>2012-03-03T14:01:31Z</time>
      </trkpt>
      <trkpt lat="47.48872" lon="7.31262">
        <ele>604</ele>
        <time>2012-03-03T14:01:32Z</time>
      </trkpt>
      <trkpt lat="47.48875" lon="7.31292">
        <ele>604</ele>
        <time>2012-03-03T14:01:33Z</time>
      </trkpt>
      <trkpt lat="47.48877" lon="7.31319">
        <ele>603</ele>
        <time>2012-03-03T14:01:34Z</time>
      </trkpt>
      <trkpt lat="47.48882" lon="7.3135">
        <ele>604</ele>
        <time>2012-03-03T14:01:35Z</time>
      </trkpt>
      <trkpt lat="47.48885" lon="7.31377">
        <ele>603</ele>
        <time>2012-03-03T14:01:36Z</time>
      </trkpt>
      <trkpt lat="47.48888" lon="7.31407">
        <ele>604</ele>
        <time>2012-03-03T14:01:37Z</time>
      </trkpt>
      <trkpt lat="47.48892" lon="7.31434">
        <ele>604</ele>
        <time>2012-03-03T14:01:38Z</time>
      </trkpt>
      <trkpt lat="47.48896" lon="7.31461">
        <ele>604</ele>
        <time>2012-03-03T14:01:39Z</time>
      </trkpt>
      <trkpt lat="47.48899" lon="7.31487">
        <ele>604</ele>
        <time>2012-03-03T14:01:40Z</time>
      </trkpt>
      <trkpt lat="47.48901" lon="7.31513">
        <ele>604</ele>
        <time>2012-03-03T14:01:41Z</time>
      </trkpt>
      <trkpt lat="47.48904" lon="7.31536">
        <ele>604</ele>
        <time>2012-03-03T14:01:42Z</time>
      </trkpt>
      <trkpt lat="47.48906" lon="7.31564">
        <ele>604</ele>
        <time>2012-03-03T14:01:43Z</time>
      </trkpt>
      <trkpt lat="47.48908" lon="7.31589">
        <ele>605</ele>
        <time>2012-03-03T14:01:44Z</time>
      </trkpt>
      <trkpt lat="47.48908" lon="7.31612">
        <ele>605</ele>
        <time>2012-03-03T14:01:45Z</time>
      </trkpt>
      <trkpt lat="47.4891" lon="7.31632">
        <ele>605</ele>
        <time>2012-03-03T14:01:46Z</time>
      </trkpt>
      <trkpt lat="47.4891" lon="7.31653">
        <ele>604</ele>
        <time>2012-03-03T14:01:47Z</time>
      </trkpt>
      <trkpt lat="47.48908" lon="7.31672">
        <ele>605</ele>
        <time>2012-03-03T14:01:48Z</time>
      </trkpt>
      <trkpt lat="47.48908" lon="7.31687">
        <ele>606</ele>
        <time>2012-03-03T14:01:49Z</time>
      </trkpt>
      <trkpt lat="47.48905" lon="7.31702">
        <ele>606</ele>
        <time>2012-03-03T14:01:50Z</time>
      </trkpt>
      <trkpt lat="47.48896" lon="7.31718">
        <ele>606</ele>
        <time>2012-03-03T14:01:51Z</time>
      </trkpt>
      <trkpt lat="47.4889" lon="7.3173">
        <ele>606</ele>
        <time>2012-03-03T14:01:52Z</time>
      </trkpt>
      <trkpt lat="47.48885" lon="7.31741">
        <ele>606</ele>
        <time>2012-03-03T14:01:53Z</time>
      </trkpt>
      <trkpt lat="47.48882" lon="7.31754">
        <ele>606</ele>
        <time>2012-03-03T14:01:54Z</time>
      </trkpt>
      <trkpt lat="47.48878" lon="7.31767">
        <ele>606</ele>
        <time>2012-03-03T14:01:55Z</time>
      </trkpt>
      <trkpt lat="47.48879" lon="7.31782">
        <ele>606</ele>
        <time>2012-03-03T14:01:56Z</time>
      </trkpt>
      <trkpt lat="47.48882" lon="7.31797">
        <ele>606</ele>
        <time>2012-03-03T14:01:57Z</time>
      </trkpt>
      <trkpt lat="47.48888" lon="7.31808">
        <ele>606</ele>
        <time>2012-03-03T14:01:58Z</time>
      </trkpt>
      <trkpt lat="47.48897" lon="7.31818">
        <ele>606</ele>
        <time>2012-03-03T14:01:59Z</time>
      </trkpt>
      <trkpt lat="47.48906" lon="7.31828">
        <ele>606</ele>
        <time>2012-03-03T14:02:00Z</time>
      </trkpt>
      <trkpt lat="47.48918" lon="7.31838">
        <ele>607</ele>
        <time>2012-03-03T14:02:01Z</time>
      </trkpt>
      <trkpt lat="47.48928" lon="7.31849">
        <ele>606</ele>
        <time>2012-03-03T14:02:02Z</time>
      </trkpt>
      <trkpt lat="47.4894" lon="7.3186">
        <ele>606</ele>
        <time>2012-03-03T14:02:03Z</time>
      </trkpt>
      <trkpt lat="47.4895" lon="7.31869">
        <ele>606</ele>
        <time>2012-03-03T14:02:04Z</time>
      </trkpt>
      <trkpt lat="47.48961" lon="7.3188">
        <ele>606</ele>
        <time>2012-03-03T14:02:05Z</time>
      </trkpt>
      <trkpt lat="47.48971" lon="7.31889">
        <ele>606</ele>
        <time>2012-03-03T14:02:06Z</time>
      </trkpt>
      <trkpt lat="47.48982" lon="7.31899">
        <ele>606</ele>
        <time>2012-03-03T14:02:07Z</time>
      </trkpt>
      <trkpt lat="47.4899" lon="7.31909">
        <ele>606</ele>
        <time>2012-03-03T14:02:08Z</time>
      </trkpt>
      <trkpt lat="47.48999" lon="7.31918">
        <ele>605</ele>
        <time>2012-03-03T14:02:09Z</time>
      </trkpt>
      <trkpt lat="47.49008" lon="7.31926">
        <ele>605</ele>
        <time>2012-03-03T14:02:10Z</time>
      </trkpt>
      <trkpt lat="47.49019" lon="7.31935">
        <ele>605</ele>
        <time>2012-03-03T14:02:11Z</time>
      </trkpt>
      <trkpt lat="47.49029" lon="7.31944">
        <ele>604</ele>
        <time>2012-03-03T14:02:12Z</time>
      </trkpt>
      <trkpt lat="47.49039" lon="7.31951">
        <ele>604</ele>
        <time>2012-03-03T14:02:13Z</time>
      </trkpt>
      <trkpt lat="47.49048" lon="7.3196">
        <ele>604</ele>
        <time>2012-03-03T14:02:14Z</time>
      </trkpt>
      <trkpt lat="47.49056" lon="7.3197">
        <ele>604</ele>
        <time>2012-03-03T14:02:15Z</time>
      </trkpt>
      <trkpt lat="47.49065" lon="7.31981">
        <ele>604</ele>
        <time>2012-03-03T14:02:16Z</time>
      </trkpt>
      <trkpt lat="47.49074" lon="7.31991">
        <ele>604</ele>
        <time>2012-03-03T14:02:17Z</time>
      </trkpt>
      <trkpt lat="47.49082" lon="7.32001">
        <ele>603</ele>
        <time>2012-03-03T14:02:18Z</time>
      </trkpt>
      <trkpt lat="47.49091" lon="7.32013">
        <ele>602</ele>
        <time>2012-03-03T14:02:19Z</time>
      </trkpt>
      <trkpt lat="47.49098" lon="7.32024">
        <ele>602</ele>
        <time>2012-03-03T14:02:20Z</time>
      </trkpt>
      <trkpt lat="47.49104" lon="7.32036">
        <ele>601</ele>
        <time>2012-03-03T14:02:21Z</time>
      </trkpt>
      <trkpt lat="47.49108" lon="7.32044">
        <ele>599</ele>
        <time>2012-03-03T14:02:22Z</time>
      </trkpt>
      <trkpt lat="47.49115" lon="7.32055">
        <ele>598</ele>
        <time>2012-03-03T14:02:23Z</time>
      </trkpt>
      <trkpt lat="47.49122" lon="7.32065">
        <ele>596</ele>
        <time>2012-03-03T14:02:24Z</time>
      </trkpt>
      <trkpt lat="47.49127" lon="7.32076">
        <ele>595</ele>
        <time>2012-03-03T14:02:25Z</time>
      </trkpt>
      <trkpt lat="47.49134" lon="7.32085">
        <ele>594</ele>
        <time>2012-03-03T14:02:26Z</time>
      </trkpt>
      <trkpt lat="47.49143" lon="7.3209">
        <ele>594</ele>
        <time>2012-03-03T14:02:27Z</time>
      </trkpt>
      <trkpt lat="47.49154" lon="7.3209">
        <ele>595</ele>
        <time>2012-03-03T14:02:28Z</time>
      </trkpt>
      <trkpt lat="47.49165" lon="7.32088">
        <ele>595</ele>
        <time>2012-03-03T14:02:29Z</time>
      </trkpt>
      <trkpt lat="47.49171" lon="7.32087">
        <ele>596</ele>
        <time>2012-03-03T14:02:30Z</time>
      </trkpt>
      <trkpt lat="47.49174" lon="7.32075">
        <ele>594</ele>
        <time>2012-03-03T14:02:31Z</time>
      </trkpt>
      <trkpt lat="47.49177" lon="7.32058">
        <ele>594</ele>
        <time>2012-03-03T14:02:32Z</time>
      </trkpt>
      <trkpt lat="47.49176" lon="7.32045">
        <ele>593</ele>
        <time>2012-03-03T14:02:33Z</time>
      </trkpt>
      <trkpt lat="47.49175" lon="7.32034">
        <ele>594</ele>
        <time>2012-03-03T14:02:34Z</time>
      </trkpt>
      <trkpt lat="47.49172" lon="7.32023">
        <ele>593</ele>
        <time>2012-03-03T14:02:35Z</time>
      </trkpt>
      <trkpt lat="47.49168" lon="7.32011">
        <ele>593</ele>
        <time>2012-03-03T14:02:36Z</time>
      </trkpt>
      <trkpt lat="47.49165" lon="7.31998">
        <ele>593</ele>
        <time>2012-03-03T14:02:37Z</time>
      </trkpt>
      <trkpt lat="47.4916" lon="7.31985">
        <ele>593</ele>
        <time>2012-03-03T14:02:38Z</time>
      </trkpt>
      <trkpt lat="47.49158" lon="7.31969">
        <ele>593</ele>
        <time>2012-03-03T14:02:39Z</time>
      </trkpt>
      <trkpt lat="47.49155" lon="7.31957">
        <ele>593</ele>
        <time>2012-03-03T14:02:40Z</time>
      </trkpt>
      <trkpt lat="47.49151" lon="7.31943">
        <ele>592</ele>
        <time>2012-03-03T14:02:41Z</time>
      </trkpt>
      <trkpt lat="47.49148" lon="7.31932">
        <ele>592</ele>
        <time>2012-03-03T14:02:42Z</time>
      </trkpt>
      <trkpt lat="47.49144" lon="7.31922">
        <ele>592</ele>
        <time>2012-03-03T14:02:43Z</time>
      </trkpt>
      <trkpt lat="47.49141" lon="7.31913">
        <ele>592</ele>
        <time>2012-03-03T14:02:44Z</time>
      </trkpt>
      <trkpt lat="47.49138" lon="7.31903">
        <ele>591</ele>
        <time>2012-03-03T14:02:45Z</time>
      </trkpt>
      <trkpt lat="47.49135" lon="7.31894">
        <ele>591</ele>
        <time>2012-03-03T14:02:46Z</time>
      </trkpt>
      <trkpt lat="47.49133" lon="7.31885">
        <ele>590</ele>
        <time>2012-03-03T14:02:47Z</time>
      </trkpt>
      <trkpt lat="47.4913" lon="7.31878">
        <ele>590</ele>
        <time>2012-03-03T14:02:48Z</time>
      </trkpt>
      <trkpt lat="47.49129" lon="7.31871">
        <ele>590</ele>
        <time>2012-03-03T14:02:49Z</time>
      </trkpt>
      <trkpt lat="47.49126" lon="7.3186">
        <ele>590</ele>
        <time>2012-03-03T14:02:51Z</time>
      </trkpt>
      <trkpt lat="47.49122" lon="7.31852">
        <ele>590</ele>
        <time>2012-03-03T14:02:52Z</time>
      </trkpt>
      <trkpt lat="47.49121" lon="7.31841">
        <ele>590</ele>
        <time>2012-03-03T14:02:53Z</time>
      </trkpt>
      <trkpt lat="47.49118" lon="7.31829">
        <ele>589</ele>
        <time>2012-03-03T14:02:54Z</time>
      </trkpt>
      <trkpt lat="47.49118" lon="7.31815">
        <ele>589</ele>
        <time>2012-03-03T14:02:55Z</time>
      </trkpt>
      <trkpt lat="47.49119" lon="7.318">
        <ele>588</ele>
        <time>2012-03-03T14:02:56Z</time>
      </trkpt>
      <trkpt lat="47.49121" lon="7.31785">
        <ele>587</ele>
        <time>2012-03-03T14:02:57Z</time>
      </trkpt>
      <trkpt lat="47.49127" lon="7.31774">
        <ele>586</ele>
        <time>2012-03-03T14:02:58Z</time>
      </trkpt>
      <trkpt lat="47.49133" lon="7.3176">
        <ele>586</ele>
        <time>2012-03-03T14:02:59Z</time>
      </trkpt>
      <trkpt lat="47.49142" lon="7.31747">
        <ele>586</ele>
        <time>2012-03-03T14:03:00Z</time>
      </trkpt>
      <trkpt lat="47.4915" lon="7.31734">
        <ele>586</ele>
        <time>2012-03-03T14:03:01Z</time>
      </trkpt>
      <trkpt lat="47.4916" lon="7.31719">
        <ele>585</ele>
        <time>2012-03-03T14:03:02Z</time>
      </trkpt>
      <trkpt lat="47.4917" lon="7.31703">
        <ele>586</ele>
        <time>2012-03-03T14:03:03Z</time>
      </trkpt>
      <trkpt lat="47.4918" lon="7.31688">
        <ele>585</ele>
        <time>2012-03-03T14:03:04Z</time>
      </trkpt>
      <trkpt lat="47.49195" lon="7.31674">
        <ele>585</ele>
        <time>2012-03-03T14:03:05Z</time>
      </trkpt>
      <trkpt lat="47.49211" lon="7.3166">
        <ele>586</ele>
        <time>2012-03-03T14:03:06Z</time>
      </trkpt>
      <trkpt lat="47.49223" lon="7.31648">
        <ele>585</ele>
        <time>2012-03-03T14:03:07Z</time>
      </trkpt>
      <trkpt lat="47.49239" lon="7.31637">
        <ele>585</ele>
        <time>2012-03-03T14:03:08Z</time>
      </trkpt>
      <trkpt lat="47.49252" lon="7.31628">
        <ele>585</ele>
        <time>2012-03-03T14:03:09Z</time>
      </trkpt>
      <trkpt lat="47.49262" lon="7.31619">
        <ele>585</ele>
        <time>2012-03-03T14:03:10Z</time>
      </trkpt>
      <trkpt lat="47.49277" lon="7.31601">
        <ele>586</ele>
        <time>2012-03-03T14:03:11Z</time>
      </trkpt>
      <trkpt lat="47.4929" lon="7.31588">
        <ele>586</ele>
        <time>2012-03-03T14:03:12Z</time>
      </trkpt>
      <trkpt lat="47.49302" lon="7.31566">
        <ele>586</ele>
        <time>2012-03-03T14:03:13Z</time>
      </trkpt>
      <trkpt lat="47.49314" lon="7.3155">
        <ele>586</ele>
        <time>2012-03-03T14:03:14Z</time>
      </trkpt>
      <trkpt lat="47.49325" lon="7.31531">
        <ele>586</ele>
        <time>2012-03-03T14:03:15Z</time>
      </trkpt>
      <trkpt lat="47.49332" lon="7.31514">
        <ele>586</ele>
        <time>2012-03-03T14:03:16Z</time>
      </trkpt>
      <trkpt lat="47.49338" lon="7.31495">
        <ele>586</ele>
        <time>2012-03-03T14:03:17Z</time>
      </trkpt>
      <trkpt lat="47.49338" lon="7.31481">
        <ele>586</ele>
        <time>2012-03-03T14:03:18Z</time>
      </trkpt>
      <trkpt lat="47.49346" lon="7.31467">
        <ele>586</ele>
        <time>2012-03-03T14:03:19Z</time>
      </trkpt>
      <trkpt lat="47.4935" lon="7.31451">
        <ele>586</ele>
        <time>2012-03-03T14:03:20Z</time>
      </trkpt>
      <trkpt lat="47.49354" lon="7.31436">
        <ele>586</ele>
        <time>2012-03-03T14:03:21Z</time>
      </trkpt>
      <trkpt lat="47.49358" lon="7.31421">
        <ele>585</ele>
        <time>2012-03-03T14:03:22Z</time>
      </trkpt>
      <trkpt lat="47.4936" lon="7.31406">
        <ele>585</ele>
        <time>2012-03-03T14:03:23Z</time>
      </trkpt>
      <trkpt lat="47.4936" lon="7.31398">
        <ele>585</ele>
        <time>2012-03-03T14:03:24Z</time>
      </trkpt>
      <trkpt lat="47.49361" lon="7.3139">
        <ele>585</ele>
        <time>2012-03-03T14:03:25Z</time>
      </trkpt>
      <trkpt lat="47.49364" lon="7.31379">
        <ele>585</ele>
        <time>2012-03-03T14:03:26Z</time>
      </trkpt>
      <trkpt lat="47.4937" lon="7.31372">
        <ele>585</ele>
        <time>2012-03-03T14:03:27Z</time>
      </trkpt>
      <trkpt lat="47.49375" lon="7.31364">
        <ele>585</ele>
        <time>2012-03-03T14:03:28Z</time>
      </trkpt>
      <trkpt lat="47.49382" lon="7.31363">
        <ele>585</ele>
        <time>2012-03-03T14:03:29Z</time>
      </trkpt>
      <trkpt lat="47.49391" lon="7.3137">
        <ele>585</ele>
        <time>2012-03-03T14:03:30Z</time>
      </trkpt>
      <trkpt lat="47.49396" lon="7.31369">
        <ele>584</ele>
        <time>2012-03-03T14:03:31Z</time>
      </trkpt>
      <trkpt lat="47.49401" lon="7.31368">
        <ele>584</ele>
        <time>2012-03-03T14:03:32Z</time>
      </trkpt>
      <trkpt lat="47.49408" lon="7.31366">
        <ele>584</ele>
        <time>2012-03-03T14:03:33Z</time>
      </trkpt>
      <trkpt lat="47.49419" lon="7.31373">
        <ele>584</ele>
        <time>2012-03-03T14:03:35Z</time>
      </trkpt>
      <trkpt lat="47.49426" lon="7.31379">
        <ele>584</ele>
        <time>2012-03-03T14:03:36Z</time>
      </trkpt>
      <trkpt lat="47.4943" lon="7.31387">
        <ele>584</ele>
        <time>2012-03-03T14:03:37Z</time>
      </trkpt>
      <trkpt lat="47.49436" lon="7.31391">
        <ele>583</ele>
        <time>2012-03-03T14:03:38Z</time>
      </trkpt>
      <trkpt lat="47.49442" lon="7.31395">
        <ele>583</ele>
        <time>2012-03-03T14:03:39Z</time>
      </trkpt>
      <trkpt lat="47.4945" lon="7.31393">
        <ele>583</ele>
        <time>2012-03-03T14:03:40Z</time>
      </trkpt>
      <trkpt lat="47.49458" lon="7.3139">
        <ele>583</ele>
        <time>2012-03-03T14:03:41Z</time>
      </trkpt>
      <trkpt lat="47.49468" lon="7.31389">
        <ele>583</ele>
        <time>2012-03-03T14:03:42Z</time>
      </trkpt>
      <trkpt lat="47.4948" lon="7.31386">
        <ele>583</ele>
        <time>2012-03-03T14:03:43Z</time>
      </trkpt>
      <trkpt lat="47.49486" lon="7.31384">
        <ele>583</ele>
        <time>2012-03-03T14:03:44Z</time>
      </trkpt>
      <trkpt lat="47.49493" lon="7.31381">
        <ele>582</ele>
        <time>2012-03-03T14:03:45Z</time>
      </trkpt>
      <trkpt lat="47.49501" lon="7.31378">
        <ele>582</ele>
        <time>2012-03-03T14:03:46Z</time>
      </trkpt>
      <trkpt lat="47.49508" lon="7.31374">
        <ele>582</ele>
        <time>2012-03-03T14:03:48Z</time>
      </trkpt>
      <trkpt lat="47.49518" lon="7.31371">
        <ele>582</ele>
        <time>2012-03-03T14:03:49Z</time>
      </trkpt>
      <trkpt lat="47.49525" lon="7.31371">
        <ele>582</ele>
        <time>2012-03-03T14:03:50Z</time>
      </trkpt>
      <trkpt lat="47.49534" lon="7.31368">
        <ele>582</ele>
        <time>2012-03-03T14:03:51Z</time>
      </trkpt>
      <trkpt lat="47.49541" lon="7.31369">
        <ele>582</ele>
        <time>2012-03-03T14:03:52Z</time>
      </trkpt>
      <trkpt lat="47.49548" lon="7.31365">
        <ele>582</ele>
        <time>2012-03-03T14:03:53Z</time>
      </trkpt>
      <trkpt lat="47.49556" lon="7.31361">
        <ele>582</ele>
        <time>2012-03-03T14:03:54Z</time>
      </trkpt>
      <trkpt lat="47.49563" lon="7.31358">
        <ele>582</ele>
        <time>2012-03-03T14:03:55Z</time>
      </trkpt>
      <trkpt lat="47.49569" lon="7.31352">
        <ele>582</ele>
        <time>2012-03-03T14:03:56Z</time>
      </trkpt>
      <trkpt lat="47.49574" lon="7.31346">
        <ele>582</ele>
        <time>2012-03-03T14:03:57Z</time>
      </trkpt>
      <trkpt lat="47.49579" lon="7.31341">
        <ele>582</ele>
        <time>2012-03-03T14:03:58Z</time>
      </trkpt>
      <trkpt lat="47.49584" lon="7.31334">
        <ele>582</ele>
        <time>2012-03-03T14:03:59Z</time>
      </trkpt>
      <trkpt lat="47.49585" lon="7.31323">
        <ele>582</ele>
        <time>2012-03-03T14:04:00Z</time>
      </trkpt>
      <trkpt lat="47.49589" lon="7.31312">
        <ele>581</ele>
        <time>2012-03-03T14:04:01Z</time>
      </trkpt>
      <trkpt lat="47.49594" lon="7.31299">
        <ele>581</ele>
        <time>2012-03-03T14:04:02Z</time>
      </trkpt>
      <trkpt lat="47.49598" lon="7.31286">
        <ele>581</ele>
        <time>2012-03-03T14:04:03Z</time>
      </trkpt>
      <trkpt lat="47.49608" lon="7.31277">
        <ele>580</ele>
        <time>2012-03-03T14:04:04Z</time>
      </trkpt>
      <trkpt lat="47.49618" lon="7.31272">
        <ele>579</ele>
        <time>2012-03-03T14:04:05Z</time>
      </trkpt>
      <trkpt lat="47.49629" lon="7.31266">
        <ele>579</ele>
        <time>2012-03-03T14:04:06Z</time>
      </trkpt>
      <trkpt lat="47.49641" lon="7.31261">
        <ele>579</ele>
        <time>2012-03-03T14:04:07Z</time>
      </trkpt>
      <trkpt lat="47.49652" lon="7.31256">
        <ele>577</ele>
        <time>2012-03-03T14:04:08Z</time>
      </trkpt>
      <trkpt lat="47.49662" lon="7.31252">
        <ele>576</ele>
        <time>2012-03-03T14:04:09Z</time>
      </trkpt>
      <trkpt lat="47.49672" lon="7.31245">
        <ele>575</ele>
        <time>2012-03-03T14:04:10Z</time>
      </trkpt>
      <trkpt lat="47.4968" lon="7.31236">
        <ele>576</ele>
        <time>2012-03-03T14:04:11Z</time>
      </trkpt>
      <trkpt lat="47.49686" lon="7.31223">
        <ele>574</ele>
        <time>2012-03-03T14:04:12Z</time>
      </trkpt>
      <trkpt lat="47.49695" lon="7.31206">
        <ele>574</ele>
        <time>2012-03-03T14:04:13Z</time>
      </trkpt>
      <trkpt lat="47.49695" lon="7.31191">
        <ele>574</ele>
        <time>2012-03-03T14:04:14Z</time>
      </trkpt>
      <trkpt lat="47.49703" lon="7.31171">
        <ele>574</ele>
        <time>2012-03-03T14:04:15Z</time>
      </trkpt>
      <trkpt lat="47.4971" lon="7.31155">
        <ele>574</ele>
        <time>2012-03-03T14:04:16Z</time>
      </trkpt>
      <trkpt lat="47.49718" lon="7.3114">
        <ele>573</ele>
        <time>2012-03-03T14:04:17Z</time>
      </trkpt>
      <trkpt lat="47.49726" lon="7.31127">
        <ele>572</ele>
        <time>2012-03-03T14:04:18Z</time>
      </trkpt>
      <trkpt lat="47.49734" lon="7.31114">
        <ele>572</ele>
        <time>2012-03-03T14:04:19Z</time>
      </trkpt>
      <trkpt lat="47.4974" lon="7.31104">
        <ele>570</ele>
        <time>2012-03-03T14:04:20Z</time>
      </trkpt>
      <trkpt lat="47.49746" lon="7.31092">
        <ele>570</ele>
        <time>2012-03-03T14:04:21Z</time>
      </trkpt>
      <trkpt lat="47.49751" lon="7.31082">
        <ele>568</ele>
        <time>2012-03-03T14:04:22Z</time>
      </trkpt>
      <trkpt lat="47.49756" lon="7.31068">
        <ele>565</ele>
        <time>2012-03-03T14:04:23Z</time>
      </trkpt>
      <trkpt lat="47.49765" lon="7.31055">
        <ele>564</ele>
        <time>2012-03-03T14:04:24Z</time>
      </trkpt>
      <trkpt lat="47.49772" lon="7.31045">
        <ele>563</ele>
        <time>2012-03-03T14:04:25Z</time>
      </trkpt>
      <trkpt lat="47.49778" lon="7.31034">
        <ele>563</ele>
        <time>2012-03-03T14:04:26Z</time>
      </trkpt>
      <trkpt lat="47.49783" lon="7.31023">
        <ele>561</ele>
        <time>2012-03-03T14:04:27Z</time>
      </trkpt>
      <trkpt lat="47.4979" lon="7.31011">
        <ele>562</ele>
        <time>2012-03-03T14:04:28Z</time>
      </trkpt>
      <trkpt lat="47.49798" lon="7.30998">
        <ele>561</ele>
        <time>2012-03-03T14:04:29Z</time>
      </trkpt>
      <trkpt lat="47.49806" lon="7.30985">
        <ele>561</ele>
        <time>2012-03-03T14:04:30Z</time>
      </trkpt>
      <trkpt lat="47.49814" lon="7.30971">
        <ele>561</ele>
        <time>2012-03-03T14:04:31Z</time>
      </trkpt>
      <trkpt lat="47.49822" lon="7.30958">
        <ele>561</ele>
        <time>2012-03-03T14:04:32Z</time>
      </trkpt>
      <trkpt lat="47.49829" lon="7.30947">
        <ele>561</ele>
        <time>2012-03-03T14:04:33Z</time>
      </trkpt>
      <trkpt lat="47.49835" lon="7.30934">
        <ele>561</ele>
        <time>2012-03-03T14:04:34Z</time>
      </trkpt>
      <trkpt lat="47.49842" lon="7.30921">
        <ele>560</ele>
        <time>2012-03-03T14:04:35Z</time>
      </trkpt>
      <trkpt lat="47.49852" lon="7.30908">
        <ele>560</ele>
        <time>2012-03-03T14:04:36Z</time>
      </trkpt>
      <trkpt lat="47.4986" lon="7.30896">
        <ele>559</ele>
        <time>2012-03-03T14:04:37Z</time>
      </trkpt>
      <trkpt lat="47.49866" lon="7.30884">
        <ele>559</ele>
        <time>2012-03-03T14:04:38Z</time>
      </trkpt>
      <trkpt lat="47.49874" lon="7.3087">
        <ele>559</ele>
        <time>2012-03-03T14:04:39Z</time>
      </trkpt>
      <trkpt lat="47.49883" lon="7.30856">
        <ele>559</ele>
        <time>2012-03-03T14:04:40Z</time>
      </trkpt>
      <trkpt lat="47.49891" lon="7.30842">
        <ele>559</ele>
        <time>2012-03-03T14:04:41Z</time>
      </trkpt>
      <trkpt lat="47.49898" lon="7.30829">
        <ele>559</ele>
        <time>2012-03-03T14:04:42Z</time>
      </trkpt>
      <trkpt lat="47.49905" lon="7.30817">
        <ele>559</ele>
        <time>2012-03-03T14:04:43Z</time>
      </trkpt>
      <trkpt lat="47.49912" lon="7.30805">
        <ele>559</ele>
        <time>2012-03-03T14:04:44Z</time>
      </trkpt>
      <trkpt lat="47.49918" lon="7.30795">
        <ele>559</ele>
        <time>2012-03-03T14:04:45Z</time>
      </trkpt>
      <trkpt lat="47.49924" lon="7.30783">
        <ele>558</ele>
        <time>2012-03-03T14:04:46Z</time>
      </trkpt>
      <trkpt lat="47.4993" lon="7.30774">
        <ele>557</ele>
        <time>2012-03-03T14:04:47Z</time>
      </trkpt>
      <trkpt lat="47.49935" lon="7.30767">
        <ele>558</ele>
        <time>2012-03-03T14:04:48Z</time>
      </trkpt>
      <trkpt lat="47.49939" lon="7.30759">
        <ele>558</ele>
        <time>2012-03-03T14:04:49Z</time>
      </trkpt>
      <trkpt lat="47.49944" lon="7.30751">
        <ele>558</ele>
        <time>2012-03-03T14:04:50Z</time>
      </trkpt>
      <trkpt lat="47.4995" lon="7.30743">
        <ele>558</ele>
        <time>2012-03-03T14:04:51Z</time>
      </trkpt>
      <trkpt lat="47.49957" lon="7.30733">
        <ele>557</ele>
        <time>2012-03-03T14:04:52Z</time>
      </trkpt>
      <trkpt lat="47.49962" lon="7.3072">
        <ele>555</ele>
        <time>2012-03-03T14:04:53Z</time>
      </trkpt>
      <trkpt lat="47.4997" lon="7.30706">
        <ele>554</ele>
        <time>2012-03-03T14:04:54Z</time>
      </trkpt>
      <trkpt lat="47.49976" lon="7.30692">
        <ele>553</ele>
        <time>2012-03-03T14:04:55Z</time>
      </trkpt>
      <trkpt lat="47.49984" lon="7.30676">
        <ele>552</ele>
        <time>2012-03-03T14:04:56Z</time>
      </trkpt>
      <trkpt lat="47.4999" lon="7.30663">
        <ele>552</ele>
        <time>2012-03-03T14:04:57Z</time>
      </trkpt>
      <trkpt lat="47.49997" lon="7.30649">
        <ele>551</ele>
        <time>2012-03-03T14:04:58Z</time>
      </trkpt>
      <trkpt lat="47.50003" lon="7.30635">
        <ele>550</ele>
        <time>2012-03-03T14:04:59Z</time>
      </trkpt>
      <trkpt lat="47.50008" lon="7.30621">
        <ele>549</ele>
        <time>2012-03-03T14:05:00Z</time>
      </trkpt>
      <trkpt lat="47.50014" lon="7.3061">
        <ele>547</ele>
        <time>2012-03-03T14:05:01Z</time>
      </trkpt>
      <trkpt lat="47.5002" lon="7.30599">
        <ele>546</ele>
        <time>2012-03-03T14:05:02Z</time>
      </trkpt>
      <trkpt lat="47.50028" lon="7.30592">
        <ele>545</ele>
        <time>2012-03-03T14:05:03Z</time>
      </trkpt>
      <trkpt lat="47.50034" lon="7.30587">
        <ele>544</ele>
        <time>2012-03-03T14:05:04Z</time>
      </trkpt>
      <trkpt lat="47.50041" lon="7.30585">
        <ele>543</ele>
        <time>2012-03-03T14:05:05Z</time>
      </trkpt>
      <trkpt lat="47.5005" lon="7.30586">
        <ele>543</ele>
        <time>2012-03-03T14:05:06Z</time>
      </trkpt>
      <trkpt lat="47.50058" lon="7.30585">
        <ele>541</ele>
        <time>2012-03-03T14:05:07Z</time>
      </trkpt>
      <trkpt lat="47.50064" lon="7.30578">
        <ele>540</ele>
        <time>2012-03-03T14:05:08Z</time>
      </trkpt>
      <trkpt lat="47.50066" lon="7.30565">
        <ele>537</ele>
        <time>2012-03-03T14:05:09Z</time>
      </trkpt>
      <trkpt lat="47.5007" lon="7.30554">
        <ele>536</ele>
        <time>2012-03-03T14:05:10Z</time>
      </trkpt>
      <trkpt lat="47.50076" lon="7.30542">
        <ele>536</ele>
        <time>2012-03-03T14:05:11Z</time>
      </trkpt>
      <trkpt lat="47.50083" lon="7.30532">
        <ele>536</ele>
        <time>2012-03-03T14:05:12Z</time>
      </trkpt>
      <trkpt lat="47.5009" lon="7.30521">
        <ele>536</ele>
        <time>2012-03-03T14:05:13Z</time>
      </trkpt>
      <trkpt lat="47.50102" lon="7.30514">
        <ele>536</ele>
        <time>2012-03-03T14:05:14Z</time>
      </trkpt>
      <trkpt lat="47.50113" lon="7.30508">
        <ele>536</ele>
        <time>2012-03-03T14:05:15Z</time>
      </trkpt>
      <trkpt lat="47.50123" lon="7.30501">
        <ele>536</ele>
        <time>2012-03-03T14:05:16Z</time>
      </trkpt>
      <trkpt lat="47.50134" lon="7.30493">
        <ele>536</ele>
        <time>2012-03-03T14:05:17Z</time>
      </trkpt>
      <trkpt lat="47.50144" lon="7.30485">
        <ele>536</ele>
        <time>2012-03-03T14:05:18Z</time>
      </trkpt>
      <trkpt lat="47.50157" lon="7.30476">
        <ele>536</ele>
        <time>2012-03-03T14:05:19Z</time>
      </trkpt>
      <trkpt lat="47.50168" lon="7.30468">
        <ele>536</ele>
        <time>2012-03-03T14:05:20Z</time>
      </trkpt>
      <trkpt lat="47.50182" lon="7.30459">
        <ele>535</ele>
        <time>2012-03-03T14:05:21Z</time>
      </trkpt>
      <trkpt lat="47.50195" lon="7.3045">
        <ele>534</ele>
        <time>2012-03-03T14:05:22Z</time>
      </trkpt>
      <trkpt lat="47.50206" lon="7.30439">
        <ele>533</ele>
        <time>2012-03-03T14:05:23Z</time>
      </trkpt>
      <trkpt lat="47.50217" lon="7.3043">
        <ele>534</ele>
        <time>2012-03-03T14:05:24Z</time>
      </trkpt>
      <trkpt lat="47.50224" lon="7.30419">
        <ele>533</ele>
        <time>2012-03-03T14:05:25Z</time>
      </trkpt>
      <trkpt lat="47.50233" lon="7.30408">
        <ele>533</ele>
        <time>2012-03-03T14:05:26Z</time>
      </trkpt>
      <trkpt lat="47.50241" lon="7.30394">
        <ele>532</ele>
        <time>2012-03-03T14:05:27Z</time>
      </trkpt>
      <trkpt lat="47.50249" lon="7.30382">
        <ele>533</ele>
        <time>2012-03-03T14:05:28Z</time>
      </trkpt>
      <trkpt lat="47.50255" lon="7.30368">
        <ele>532</ele>
        <time>2012-03-03T14:05:29Z</time>
      </trkpt>
      <trkpt lat="47.50262" lon="7.30353">
        <ele>532</ele>
        <time>2012-03-03T14:05:30Z</time>
      </trkpt>
      <trkpt lat="47.50267" lon="7.3034">
        <ele>531</ele>
        <time>2012-03-03T14:05:31Z</time>
      </trkpt>
      <trkpt lat="47.50273" lon="7.30326">
        <ele>532</ele>
        <time>2012-03-03T14:05:32Z</time>
      </trkpt>
      <trkpt lat="47.50277" lon="7.30313">
        <ele>532</ele>
        <time>2012-03-03T14:05:33Z</time>
      </trkpt>
      <trkpt lat="47.50282" lon="7.303">
        <ele>532</ele>
        <time>2012-03-03T14:05:34Z</time>
      </trkpt>
      <trkpt lat="47.50286" lon="7.30287">
        <ele>531</ele>
        <time>2012-03-03T14:05:35Z</time>
      </trkpt>
      <trkpt lat="47.50291" lon="7.30273">
        <ele>531</ele>
        <time>2012-03-03T14:05:36Z</time>
      </trkpt>
      <trkpt lat="47.50293" lon="7.30259">
        <ele>531</ele>
        <time>2012-03-03T14:05:37Z</time>
      </trkpt>
      <trkpt lat="47.50295" lon="7.30246">
        <ele>531</ele>
        <time>2012-03-03T14:05:38Z</time>
      </trkpt>
      <trkpt lat="47.50298" lon="7.30234">
        <ele>531</ele>
        <time>2012-03-03T14:05:39Z</time>
      </trkpt>
      <trkpt lat="47.50301" lon="7.30223">
        <ele>531</ele>
        <time>2012-03-03T14:05:40Z</time>
      </trkpt>
      <trkpt lat="47.50305" lon="7.30213">
        <ele>531</ele>
        <time>2012-03-03T14:05:41Z</time>
      </trkpt>
      <trkpt lat="47.50312" lon="7.30205">
        <ele>531</ele>
        <time>2012-03-03T14:05:42Z</time>
      </trkpt>
      <trkpt lat="47.50319" lon="7.30196">
        <ele>531</ele>
        <time>2012-03-03T14:05:43Z</time>
      </trkpt>
      <trkpt lat="47.50329" lon="7.30187">
        <ele>531</ele>
        <time>2012-03-03T14:05:44Z</time>
      </trkpt>
      <trkpt lat="47.50341" lon="7.30179">
        <ele>531</ele>
        <time>2012-03-03T14:05:45Z</time>
      </trkpt>
      <trkpt lat="47.5035" lon="7.30172">
        <ele>531</ele>
        <time>2012-03-03T14:05:46Z</time>
      </trkpt>
      <trkpt lat="47.50359" lon="7.30165">
        <ele>531</ele>
        <time>2012-03-03T14:05:47Z</time>
      </trkpt>
      <trkpt lat="47.50372" lon="7.30162">
        <ele>531</ele>
        <time>2012-03-03T14:05:48Z</time>
      </trkpt>
      <trkpt lat="47.50384" lon="7.30163">
        <ele>531</ele>
        <time>2012-03-03T14:05:49Z</time>
      </trkpt>
      <trkpt lat="47.50395" lon="7.30165">
        <ele>531</ele>
        <time>2012-03-03T14:05:50Z</time>
      </trkpt>
      <trkpt lat="47.50407" lon="7.30167">
        <ele>531</ele>
        <time>2012-03-03T14:05:51Z</time>
      </trkpt>
      <trkpt lat="47.5042" lon="7.30167">
        <ele>531</ele>
        <time>2012-03-03T14:05:52Z</time>
      </trkpt>
      <trkpt lat="47.50434" lon="7.30168">
        <ele>531</ele>
        <time>2012-03-03T14:05:53Z</time>
      </trkpt>
      <trkpt lat="47.50446" lon="7.30168">
        <ele>530</ele>
        <time>2012-03-03T14:05:54Z</time>
      </trkpt>
      <trkpt lat="47.5046" lon="7.30163">
        <ele>530</ele>
        <time>2012-03-03T14:05:55Z</time>
      </trkpt>
      <trkpt lat="47.50474" lon="7.30159">
        <ele>530</ele>
        <time>2012-03-03T14:05:56Z</time>
      </trkpt>
      <trkpt lat="47.50488" lon="7.30155">
        <ele>529</ele>
        <time>2012-03-03T14:05:57Z</time>
      </trkpt>
      <trkpt lat="47.50503" lon="7.30149">
        <ele>529</ele>
        <time>2012-03-03T14:05:58Z</time>
      </trkpt>
      <trkpt lat="47.50521" lon="7.30143">
        <ele>529</ele>
        <time>2012-03-03T14:05:59Z</time>
      </trkpt>
      <trkpt lat="47.50539" lon="7.30137">
        <ele>529</ele>
        <time>2012-03-03T14:06:00Z</time>
      </trkpt>
      <trkpt lat="47.50558" lon="7.3013">
        <ele>529</ele>
        <time>2012-03-03T14:06:01Z</time>
      </trkpt>
      <trkpt lat="47.50577" lon="7.3012">
        <ele>528</ele>
        <time>2012-03-03T14:06:02Z</time>
      </trkpt>
      <trkpt lat="47.50597" lon="7.30109">
        <ele>529</ele>
        <time>2012-03-03T14:06:03Z</time>
      </trkpt>
      <trkpt lat="47.50614" lon="7.30094">
        <ele>529</ele>
        <time>2012-03-03T14:06:04Z</time>
      </trkpt>
      <trkpt lat="47.50635" lon="7.30077">
        <ele>529</ele>
        <time>2012-03-03T14:06:05Z</time>
      </trkpt>
      <trkpt lat="47.50654" lon="7.30061">
        <ele>529</ele>
        <time>2012-03-03T14:06:06Z</time>
      </trkpt>
      <trkpt lat="47.50675" lon="7.30039">
        <ele>528</ele>
        <time>2012-03-03T14:06:07Z</time>
      </trkpt>
      <trkpt lat="47.50696" lon="7.30021">
        <ele>528</ele>
        <time>2012-03-03T14:06:08Z</time>
      </trkpt>
      <trkpt lat="47.50714" lon="7.30003">
        <ele>527</ele>
        <time>2012-03-03T14:06:09Z</time>
      </trkpt>
      <trkpt lat="47.50732" lon="7.29985">
        <ele>527</ele>
        <time>2012-03-03T14:06:10Z</time>
      </trkpt>
      <trkpt lat="47.50752" lon="7.29967">
        <ele>526</ele>
        <time>2012-03-03T14:06:11Z</time>
      </trkpt>
      <trkpt lat="47.5077" lon="7.29949">
        <ele>527</ele>
        <time>2012-03-03T14:06:12Z</time>
      </trkpt>
      <trkpt lat="47.50789" lon="7.29932">
        <ele>526</ele>
        <time>2012-03-03T14:06:13Z</time>
      </trkpt>
      <trkpt lat="47.50807" lon="7.29915">
        <ele>525</ele>
        <time>2012-03-03T14:06:14Z</time>
      </trkpt>
      <trkpt lat="47.50825" lon="7.29898">
        <ele>524</ele>
        <time>2012-03-03T14:06:15Z</time>
      </trkpt>
      <trkpt lat="47.50843" lon="7.29882">
        <ele>524</ele>
        <time>2012-03-03T14:06:16Z</time>
      </trkpt>
      <trkpt lat="47.50862" lon="7.2987">
        <ele>524</ele>
        <time>2012-03-03T14:06:17Z</time>
      </trkpt>
      <trkpt lat="47.50878" lon="7.29858">
        <ele>523</ele>
        <time>2012-03-03T14:06:18Z</time>
      </trkpt>
      <trkpt lat="47.50895" lon="7.29847">
        <ele>523</ele>
        <time>2012-03-03T14:06:19Z</time>
      </trkpt>
      <trkpt lat="47.50913" lon="7.29834">
        <ele>523</ele>
        <time>2012-03-03T14:06:20Z</time>
      </trkpt>
      <trkpt lat="47.50929" lon="7.29825">
        <ele>523</ele>
        <time>2012-03-03T14:06:21Z</time>
      </trkpt>
      <trkpt lat="47.50942" lon="7.2982">
        <ele>522</ele>
        <time>2012-03-03T14:06:22Z</time>
      </trkpt>
      <trkpt lat="47.50956" lon="7.29824">
        <ele>522</ele>
        <time>2012-03-03T14:06:23Z</time>
      </trkpt>
      <trkpt lat="47.50969" lon="7.2983">
        <ele>522</ele>
        <time>2012-03-03T14:06:24Z</time>
      </trkpt>
      <trkpt lat="47.50978" lon="7.29825">
        <ele>520</ele>
        <time>2012-03-03T14:06:25Z</time>
      </trkpt>
      <trkpt lat="47.50987" lon="7.29824">
        <ele>520</ele>
        <time>2012-03-03T14:06:26Z</time>
      </trkpt>
      <trkpt lat="47.50996" lon="7.29823">
        <ele>520</ele>
        <time>2012-03-03T14:06:27Z</time>
      </trkpt>
      <trkpt lat="47.51003" lon="7.29821">
        <ele>520</ele>
        <time>2012-03-03T14:06:28Z</time>
      </trkpt>
      <trkpt lat="47.51009" lon="7.29819">
        <ele>519</ele>
        <time>2012-03-03T14:06:29Z</time>
      </trkpt>
      <trkpt lat="47.51014" lon="7.29818">
        <ele>519</ele>
        <time>2012-03-03T14:06:30Z</time>
      </trkpt>
      <trkpt lat="47.5102" lon="7.29818">
        <ele>519</ele>
        <time>2012-03-03T14:06:31Z</time>
      </trkpt>
      <trkpt lat="47.51026" lon="7.29817">
        <ele>519</ele>
        <time>2012-03-03T14:06:32Z</time>
      </trkpt>
      <trkpt lat="47.51032" lon="7.29815">
        <ele>518</ele>
        <time>2012-03-03T14:06:33Z</time>
      </trkpt>
      <trkpt lat="47.51039" lon="7.29814">
        <ele>518</ele>
        <time>2012-03-03T14:06:34Z</time>
      </trkpt>
      <trkpt lat="47.51049" lon="7.29812">
        <ele>518</ele>
        <time>2012-03-03T14:06:35Z</time>
      </trkpt>
      <trkpt lat="47.5106" lon="7.29813">
        <ele>518</ele>
        <time>2012-03-03T14:06:36Z</time>
      </trkpt>
      <trkpt lat="47.51073" lon="7.29814">
        <ele>517</ele>
        <time>2012-03-03T14:06:37Z</time>
      </trkpt>
      <trkpt lat="47.51084" lon="7.29818">
        <ele>518</ele>
        <time>2012-03-03T14:06:38Z</time>
      </trkpt>
      <trkpt lat="47.51096" lon="7.29821">
        <ele>517</ele>
        <time>2012-03-03T14:06:39Z</time>
      </trkpt>
      <trkpt lat="47.51113" lon="7.29825">
        <ele>516</ele>
        <time>2012-03-03T14:06:40Z</time>
      </trkpt>
      <trkpt lat="47.51126" lon="7.2983">
        <ele>516</ele>
        <time>2012-03-03T14:06:41Z</time>
      </trkpt>
      <trkpt lat="47.5114" lon="7.29836">
        <ele>515</ele>
        <time>2012-03-03T14:06:42Z</time>
      </trkpt>
      <trkpt lat="47.51152" lon="7.29836">
        <ele>516</ele>
        <time>2012-03-03T14:06:43Z</time>
      </trkpt>
      <trkpt lat="47.51166" lon="7.29837">
        <ele>516</ele>
        <time>2012-03-03T14:06:44Z</time>
      </trkpt>
      <trkpt lat="47.5118" lon="7.29834">
        <ele>515</ele>
        <time>2012-03-03T14:06:45Z</time>
      </trkpt>
      <trkpt lat="47.51194" lon="7.29831">
        <ele>515</ele>
        <time>2012-03-03T14:06:46Z</time>
      </trkpt>
      <trkpt lat="47.5121" lon="7.29824">
        <ele>515</ele>
        <time>2012-03-03T14:06:47Z</time>
      </trkpt>
      <trkpt lat="47.51225" lon="7.29814">
        <ele>516</ele>
        <time>2012-03-03T14:06:48Z</time>
      </trkpt>
      <trkpt lat="47.51237" lon="7.29805">
        <ele>515</ele>
        <time>2012-03-03T14:06:49Z</time>
      </trkpt>
      <trkpt lat="47.51252" lon="7.29793">
        <ele>516</ele>
        <time>2012-03-03T14:06:50Z</time>
      </trkpt>
      <trkpt lat="47.51264" lon="7.29782">
        <ele>516</ele>
        <time>2012-03-03T14:06:51Z</time>
      </trkpt>
      <trkpt lat="47.51276" lon="7.29768">
        <ele>516</ele>
        <time>2012-03-03T14:06:52Z</time>
      </trkpt>
      <trkpt lat="47.51286" lon="7.29756">
        <ele>516</ele>
        <time>2012-03-03T14:06:53Z</time>
      </trkpt>
      <trkpt lat="47.51297" lon="7.29743">
        <ele>515</ele>
        <time>2012-03-03T14:06:54Z</time>
      </trkpt>
      <trkpt lat="47.51309" lon="7.29729">
        <ele>515</ele>
        <time>2012-03-03T14:06:55Z</time>
      </trkpt>
      <trkpt lat="47.5132" lon="7.29714">
        <ele>515</ele>
        <time>2012-03-03T14:06:56Z</time>
      </trkpt>
      <trkpt lat="47.51332" lon="7.29696">
        <ele>515</ele>
        <time>2012-03-03T14:06:57Z</time>
      </trkpt>
      <trkpt lat="47.51342" lon="7.2968">
        <ele>515</ele>
        <time>2012-03-03T14:06:58Z</time>
      </trkpt>
      <trkpt lat="47.51351" lon="7.29664">
        <ele>515</ele>
        <time>2012-03-03T14:06:59Z</time>
      </trkpt>
      <trkpt lat="47.5136" lon="7.29648">
        <ele>515</ele>
        <time>2012-03-03T14:07:00Z</time>
      </trkpt>
      <trkpt lat="47.51368" lon="7.29631">
        <ele>515</ele>
        <time>2012-03-03T14:07:01Z</time>
      </trkpt>
      <trkpt lat="47.51376" lon="7.29615">
        <ele>514</ele>
        <time>2012-03-03T14:07:02Z</time>
      </trkpt>
      <trkpt lat="47.51384" lon="7.29594">
        <ele>514</ele>
        <time>2012-03-03T14:07:03Z</time>
      </trkpt>
      <trkpt lat="47.51394" lon="7.29574">
        <ele>514</ele>
        <time>2012-03-03T14:07:04Z</time>
      </trkpt>
      <trkpt lat="47.514" lon="7.29554">
        <ele>513</ele>
        <time>2012-03-03T14:07:05Z</time>
      </trkpt>
      <trkpt lat="47.51409" lon="7.29533">
        <ele>514</ele>
        <time>2012-03-03T14:07:06Z</time>
      </trkpt>
      <trkpt lat="47.51418" lon="7.29511">
        <ele>514</ele>
        <time>2012-03-03T14:07:07Z</time>
      </trkpt>
      <trkpt lat="47.51426" lon="7.29491">
        <ele>513</ele>
        <time>2012-03-03T14:07:08Z</time>
      </trkpt>
      <trkpt lat="47.51433" lon="7.2947">
        <ele>514</ele>
        <time>2012-03-03T14:07:09Z</time>
      </trkpt>
      <trkpt lat="47.51441" lon="7.2945">
        <ele>512</ele>
        <time>2012-03-03T14:07:10Z</time>
      </trkpt>
      <trkpt lat="47.51451" lon="7.29426">
        <ele>512</ele>
        <time>2012-03-03T14:07:11Z</time>
      </trkpt>
      <trkpt lat="47.5146" lon="7.29405">
        <ele>512</ele>
        <time>2012-03-03T14:07:12Z</time>
      </trkpt>
      <trkpt lat="47.51468" lon="7.29383">
        <ele>512</ele>
        <time>2012-03-03T14:07:13Z</time>
      </trkpt>
      <trkpt lat="47.51479" lon="7.29361">
        <ele>512</ele>
        <time>2012-03-03T14:07:14Z</time>
      </trkpt>
      <trkpt lat="47.51489" lon="7.29341">
        <ele>511</ele>
        <time>2012-03-03T14:07:15Z</time>
      </trkpt>
      <trkpt lat="47.51499" lon="7.29321">
        <ele>511</ele>
        <time>2012-03-03T14:07:16Z</time>
      </trkpt>
      <trkpt lat="47.5151" lon="7.29302">
        <ele>511</ele>
        <time>2012-03-03T14:07:17Z</time>
      </trkpt>
      <trkpt lat="47.5152" lon="7.29286">
        <ele>511</ele>
        <time>2012-03-03T14:07:18Z</time>
      </trkpt>
      <trkpt lat="47.51533" lon="7.2927">
        <ele>510</ele>
        <time>2012-03-03T14:07:19Z</time>
      </trkpt>
      <trkpt lat="47.51547" lon="7.29261">
        <ele>509</ele>
        <time>2012-03-03T14:07:20Z</time>
      </trkpt>
      <trkpt lat="47.51562" lon="7.29251">
        <ele>508</ele>
        <time>2012-03-03T14:07:21Z</time>
      </trkpt>
      <trkpt lat="47.5158" lon="7.29239">
        <ele>509</ele>
        <time>2012-03-03T14:07:22Z</time>
      </trkpt>
      <trkpt lat="47.51599" lon="7.29223">
        <ele>509</ele>
        <time>2012-03-03T14:07:23Z</time>
      </trkpt>
      <trkpt lat="47.51622" lon="7.29209">
        <ele>508</ele>
        <time>2012-03-03T14:07:24Z</time>
      </trkpt>
      <trkpt lat="47.51641" lon="7.29196">
        <ele>508</ele>
        <time>2012-03-03T14:07:25Z</time>
      </trkpt>
      <trkpt lat="47.51658" lon="7.29184">
        <ele>508</ele>
        <time>2012-03-03T14:07:26Z</time>
      </trkpt>
      <trkpt lat="47.51676" lon="7.29171">
        <ele>507</ele>
        <time>2012-03-03T14:07:27Z</time>
      </trkpt>
      <trkpt lat="47.51696" lon="7.29155">
        <ele>507</ele>
        <time>2012-03-03T14:07:28Z</time>
      </trkpt>
      <trkpt lat="47.51714" lon="7.2914">
        <ele>507</ele>
        <time>2012-03-03T14:07:29Z</time>
      </trkpt>
      <trkpt lat="47.51733" lon="7.29126">
        <ele>507</ele>
        <time>2012-03-03T14:07:30Z</time>
      </trkpt>
      <trkpt lat="47.5175" lon="7.29111">
        <ele>507</ele>
        <time>2012-03-03T14:07:31Z</time>
      </trkpt>
      <trkpt lat="47.51769" lon="7.29095">
        <ele>507</ele>
        <time>2012-03-03T14:07:32Z</time>
      </trkpt>
      <trkpt lat="47.51786" lon="7.29083">
        <ele>506</ele>
        <time>2012-03-03T14:07:33Z</time>
      </trkpt>
      <trkpt lat="47.51801" lon="7.29069">
        <ele>506</ele>
        <time>2012-03-03T14:07:34Z</time>
      </trkpt>
      <trkpt lat="47.5182" lon="7.29053">
        <ele>506</ele>
        <time>2012-03-03T14:07:35Z</time>
      </trkpt>
      <trkpt lat="47.51837" lon="7.29039">
        <ele>506</ele>
        <time>2012-03-03T14:07:36Z</time>
      </trkpt>
      <trkpt lat="47.51854" lon="7.29023">
        <ele>506</ele>
        <time>2012-03-03T14:07:37Z</time>
      </trkpt>
      <trkpt lat="47.51867" lon="7.29003">
        <ele>506</ele>
        <time>2012-03-03T14:07:38Z</time>
      </trkpt>
      <trkpt lat="47.51879" lon="7.28987">
        <ele>506</ele>
        <time>2012-03-03T14:07:39Z</time>
      </trkpt>
      <trkpt lat="47.51892" lon="7.28969">
        <ele>506</ele>
        <time>2012-03-03T14:07:40Z</time>
      </trkpt>
      <trkpt lat="47.51895" lon="7.28947">
        <ele>506</ele>
        <time>2012-03-03T14:07:41Z</time>
      </trkpt>
      <trkpt lat="47.51898" lon="7.28927">
        <ele>506</ele>
        <time>2012-03-03T14:07:42Z</time>
      </trkpt>
      <trkpt lat="47.51912" lon="7.28904">
        <ele>506</ele>
        <time>2012-03-03T14:07:43Z</time>
      </trkpt>
      <trkpt lat="47.51926" lon="7.28884">
        <ele>506</ele>
        <time>2012-03-03T14:07:44Z</time>
      </trkpt>
      <trkpt lat="47.5194" lon="7.28864">
        <ele>506</ele>
        <time>2012-03-03T14:07:45Z</time>
      </trkpt>
      <trkpt lat="47.51955" lon="7.28845">
        <ele>506</ele>
        <time>2012-03-03T14:07:46Z</time>
      </trkpt>
      <trkpt lat="47.51968" lon="7.28824">
        <ele>506</ele>
        <time>2012-03-03T14:07:47Z</time>
      </trkpt>
      <trkpt lat="47.51981" lon="7.28804">
        <ele>506</ele>
        <time>2012-03-03T14:07:48Z</time>
      </trkpt>
      <trkpt lat="47.51994" lon="7.28782">
        <ele>506</ele>
        <time>2012-03-03T14:07:49Z</time>
      </trkpt>
      <trkpt lat="47.52004" lon="7.2876">
        <ele>506</ele>
        <time>2012-03-03T14:07:50Z</time>
      </trkpt>
      <trkpt lat="47.5202" lon="7.28737">
        <ele>507</ele>
        <time>2012-03-03T14:07:51Z</time>
      </trkpt>
      <trkpt lat="47.52034" lon="7.28714">
        <ele>507</ele>
        <time>2012-03-03T14:07:52Z</time>
      </trkpt>
      <trkpt lat="47.52048" lon="7.28692">
        <ele>507</ele>
        <time>2012-03-03T14:07:53Z</time>
      </trkpt>
      <trkpt lat="47.52059" lon="7.28663">
        <ele>506</ele>
        <time>2012-03-03T14:07:54Z</time>
      </trkpt>
      <trkpt lat="47.52076" lon="7.28631">
        <ele>506</ele>
        <time>2012-03-03T14:07:55Z</time>
      </trkpt>
      <trkpt lat="47.5209" lon="7.28598">
        <ele>505</ele>
        <time>2012-03-03T14:07:56Z</time>
      </trkpt>
      <trkpt lat="47.52104" lon="7.28567">
        <ele>504</ele>
        <time>2012-03-03T14:07:57Z</time>
      </trkpt>
      <trkpt lat="47.52118" lon="7.28537">
        <ele>504</ele>
        <time>2012-03-03T14:07:58Z</time>
      </trkpt>
      <trkpt lat="47.52136" lon="7.28504">
        <ele>504</ele>
        <time>2012-03-03T14:07:59Z</time>
      </trkpt>
      <trkpt lat="47.52151" lon="7.28476">
        <ele>504</ele>
        <time>2012-03-03T14:08:00Z</time>
      </trkpt>
      <trkpt lat="47.52166" lon="7.28444">
        <ele>503</ele>
        <time>2012-03-03T14:08:01Z</time>
      </trkpt>
      <trkpt lat="47.52179" lon="7.28418">
        <ele>503</ele>
        <time>2012-03-03T14:08:02Z</time>
      </trkpt>
      <trkpt lat="47.52191" lon="7.2839">
        <ele>503</ele>
        <time>2012-03-03T14:08:03Z</time>
      </trkpt>
      <trkpt lat="47.52202" lon="7.28363">
        <ele>503</ele>
        <time>2012-03-03T14:08:04Z</time>
      </trkpt>
      <trkpt lat="47.52215" lon="7.28335">
        <ele>502</ele>
        <time>2012-03-03T14:08:05Z</time>
      </trkpt>
      <trkpt lat="47.5223" lon="7.28309">
        <ele>502</ele>
        <time>2012-03-03T14:08:06Z</time>
      </trkpt>
      <trkpt lat="47.52246" lon="7.28278">
        <ele>501</ele>
        <time>2012-03-03T14:08:07Z</time>
      </trkpt>
      <trkpt lat="47.5226" lon="7.28254">
        <ele>499</ele>
        <time>2012-03-03T14:08:08Z</time>
      </trkpt>
      <trkpt lat="47.52274" lon="7.28227">
        <ele>499</ele>
        <time>2012-03-03T14:08:09Z</time>
      </trkpt>
      <trkpt lat="47.52288" lon="7.282">
        <ele>498</ele>
        <time>2012-03-03T14:08:10Z</time>
      </trkpt>
      <trkpt lat="47.523" lon="7.28174">
        <ele>498</ele>
        <time>2012-03-03T14:08:11Z</time>
      </trkpt>
      <trkpt lat="47.52313" lon="7.28147">
        <ele>498</ele>
        <time>2012-03-03T14:08:12Z</time>
      </trkpt>
      <trkpt lat="47.52326" lon="7.28118">
        <ele>497</ele>
        <time>2012-03-03T14:08:13Z</time>
      </trkpt>
      <trkpt lat="47.52338" lon="7.28093">
        <ele>497</ele>
        <time>2012-03-03T14:08:14Z</time>
      </trkpt>
      <trkpt lat="47.52352" lon="7.28062">
        <ele>497</ele>
        <time>2012-03-03T14:08:15Z</time>
      </trkpt>
      <trkpt lat="47.52364" lon="7.28032">
        <ele>497</ele>
        <time>2012-03-03T14:08:16Z</time>
      </trkpt>
      <trkpt lat="47.52378" lon="7.28001">
        <ele>497</ele>
        <time>2012-03-03T14:08:17Z</time>
      </trkpt>
      <trkpt lat="47.5239" lon="7.2797">
        <ele>497</ele>
        <time>2012-03-03T14:08:18Z</time>
      </trkpt>
      <trkpt lat="47.52402" lon="7.27937">
        <ele>497</ele>
        <time>2012-03-03T14:08:19Z</time>
      </trkpt>
      <trkpt lat="47.52415" lon="7.27908">
        <ele>498</ele>
        <time>2012-03-03T14:08:20Z</time>
      </trkpt>
      <trkpt lat="47.52427" lon="7.27873">
        <ele>497</ele>
        <time>2012-03-03T14:08:21Z</time>
      </trkpt>
      <trkpt lat="47.5244" lon="7.27843">
        <ele>497</ele>
        <time>2012-03-03T14:08:22Z</time>
      </trkpt>
      <trkpt lat="47.52456" lon="7.27811">
        <ele>496</ele>
        <time>2012-03-03T14:08:23Z</time>
      </trkpt>
      <trkpt lat="47.52472" lon="7.27776">
        <ele>495</ele>
        <time>2012-03-03T14:08:24Z</time>
      </trkpt>
      <trkpt lat="47.52486" lon="7.27742">
        <ele>494</ele>
        <time>2012-03-03T14:08:25Z</time>
      </trkpt>
      <trkpt lat="47.52501" lon="7.27711">
        <ele>493</ele>
        <time>2012-03-03T14:08:26Z</time>
      </trkpt>
      <trkpt lat="47.52515" lon="7.2768">
        <ele>492</ele>
        <time>2012-03-03T14:08:27Z</time>
      </trkpt>
      <trkpt lat="47.52529" lon="7.2765">
        <ele>491</ele>
        <time>2012-03-03T14:08:28Z</time>
      </trkpt>
      <trkpt lat="47.52544" lon="7.27619">
        <ele>491</ele>
        <time>2012-03-03T14:08:29Z</time>
      </trkpt>
      <trkpt lat="47.52558" lon="7.27589">
        <ele>490</ele>
        <time>2012-03-03T14:08:30Z</time>
      </trkpt>
      <trkpt lat="47.52576" lon="7.27555">
        <ele>490</ele>
        <time>2012-03-03T14:08:31Z</time>
      </trkpt>
      <trkpt lat="47.5259" lon="7.27523">
        <ele>490</ele>
        <time>2012-03-03T14:08:32Z</time>
      </trkpt>
      <trkpt lat="47.52605" lon="7.27491">
        <ele>489</ele>
        <time>2012-03-03T14:08:33Z</time>
      </trkpt>
      <trkpt lat="47.5262" lon="7.2746">
        <ele>489</ele>
        <time>2012-03-03T14:08:34Z</time>
      </trkpt>
      <trkpt lat="47.52636" lon="7.27428">
        <ele>489</ele>
        <time>2012-03-03T14:08:35Z</time>
      </trkpt>
      <trkpt lat="47.52651" lon="7.27397">
        <ele>489</ele>
        <time>2012-03-03T14:08:36Z</time>
      </trkpt>
      <trkpt lat="47.52667" lon="7.27366">
        <ele>489</ele>
        <time>2012-03-03T14:08:37Z</time>
      </trkpt>
      <trkpt lat="47.52683" lon="7.27337">
        <ele>489</ele>
        <time>2012-03-03T14:08:38Z</time>
      </trkpt>
      <trkpt lat="47.52702" lon="7.27304">
        <ele>488</ele>
        <time>2012-03-03T14:08:39Z</time>
      </trkpt>
      <trkpt lat="47.5272" lon="7.27276">
        <ele>488</ele>
        <time>2012-03-03T14:08:40Z</time>
      </trkpt>
      <trkpt lat="47.5274" lon="7.2725">
        <ele>487</ele>
        <time>2012-03-03T14:08:41Z</time>
      </trkpt>
      <trkpt lat="47.52758" lon="7.27226">
        <ele>487</ele>
        <time>2012-03-03T14:08:42Z</time>
      </trkpt>
      <trkpt lat="47.52776" lon="7.272">
        <ele>487</ele>
        <time>2012-03-03T14:08:43Z</time>
      </trkpt>
      <trkpt lat="47.52796" lon="7.27179">
        <ele>486</ele>
        <time>2012-03-03T14:08:44Z</time>
      </trkpt>
      <trkpt lat="47.52815" lon="7.27158">
        <ele>485</ele>
        <time>2012-03-03T14:08:45Z</time>
      </trkpt>
      <trkpt lat="47.52837" lon="7.2714">
        <ele>484</ele>
        <time>2012-03-03T14:08:46Z</time>
      </trkpt>
      <trkpt lat="47.52859" lon="7.27118">
        <ele>484</ele>
        <time>2012-03-03T14:08:47Z</time>
      </trkpt>
      <trkpt lat="47.52883" lon="7.27099">
        <ele>484</ele>
        <time>2012-03-03T14:08:48Z</time>
      </trkpt>
      <trkpt lat="47.52906" lon="7.27081">
        <ele>483</ele>
        <time>2012-03-03T14:08:49Z</time>
      </trkpt>
      <trkpt lat="47.5293" lon="7.27062">
        <ele>483</ele>
        <time>2012-03-03T14:08:50Z</time>
      </trkpt>
      <trkpt lat="47.52952" lon="7.27041">
        <ele>483</ele>
        <time>2012-03-03T14:08:51Z</time>
      </trkpt>
      <trkpt lat="47.52975" lon="7.2702">
        <ele>483</ele>
        <time>2012-03-03T14:08:52Z</time>
      </trkpt>
      <trkpt lat="47.52996" lon="7.27">
        <ele>482</ele>
        <time>2012-03-03T14:08:53Z</time>
      </trkpt>
      <trkpt lat="47.53016" lon="7.26982">
        <ele>482</ele>
        <time>2012-03-03T14:08:54Z</time>
      </trkpt>
      <trkpt lat="47.5304" lon="7.2696">
        <ele>482</ele>
        <time>2012-03-03T14:08:55Z</time>
      </trkpt>
      <trkpt lat="47.53088" lon="7.26922">
        <ele>482</ele>
        <time>2012-03-03T14:08:57Z</time>
      </trkpt>
      <trkpt lat="47.5311" lon="7.26901">
        <ele>482</ele>
        <time>2012-03-03T14:08:58Z</time>
      </trkpt>
      <trkpt lat="47.53133" lon="7.26882">
        <ele>482</ele>
        <time>2012-03-03T14:08:59Z</time>
      </trkpt>
      <trkpt lat="47.53155" lon="7.26862">
        <ele>482</ele>
        <time>2012-03-03T14:09:00Z</time>
      </trkpt>
      <trkpt lat="47.53174" lon="7.26844">
        <ele>482</ele>
        <time>2012-03-03T14:09:01Z</time>
      </trkpt>
      <trkpt lat="47.5319" lon="7.26829">
        <ele>482</ele>
        <time>2012-03-03T14:09:02Z</time>
      </trkpt>
      <trkpt lat="47.53208" lon="7.26809">
        <ele>481</ele>
        <time>2012-03-03T14:09:03Z</time>
      </trkpt>
      <trkpt lat="47.53226" lon="7.26789">
        <ele>481</ele>
        <time>2012-03-03T14:09:04Z</time>
      </trkpt>
      <trkpt lat="47.53243" lon="7.26769">
        <ele>480</ele>
        <time>2012-03-03T14:09:05Z</time>
      </trkpt>
      <trkpt lat="47.53259" lon="7.2675">
        <ele>480</ele>
        <time>2012-03-03T14:09:06Z</time>
      </trkpt>
      <trkpt lat="47.53274" lon="7.2673">
        <ele>479</ele>
        <time>2012-03-03T14:09:07Z</time>
      </trkpt>
      <trkpt lat="47.53287" lon="7.2671">
        <ele>479</ele>
        <time>2012-03-03T14:09:08Z</time>
      </trkpt>
      <trkpt lat="47.53299" lon="7.2669">
        <ele>479</ele>
        <time>2012-03-03T14:09:09Z</time>
      </trkpt>
      <trkpt lat="47.53309" lon="7.26672">
        <ele>478</ele>
        <time>2012-03-03T14:09:10Z</time>
      </trkpt>
      <trkpt lat="47.53319" lon="7.26653">
        <ele>478</ele>
        <time>2012-03-03T14:09:11Z</time>
      </trkpt>
      <trkpt lat="47.53326" lon="7.26632">
        <ele>477</ele>
        <time>2012-03-03T14:09:12Z</time>
      </trkpt>
      <trkpt lat="47.53333" lon="7.26615">
        <ele>476</ele>
        <time>2012-03-03T14:09:13Z</time>
      </trkpt>
      <trkpt lat="47.5334" lon="7.26598">
        <ele>475</ele>
        <time>2012-03-03T14:09:14Z</time>
      </trkpt>
      <trkpt lat="47.53348" lon="7.26583">
        <ele>474</ele>
        <time>2012-03-03T14:09:15Z</time>
      </trkpt>
      <trkpt lat="47.53357" lon="7.26568">
        <ele>474</ele>
        <time>2012-03-03T14:09:16Z</time>
      </trkpt>
      <trkpt lat="47.53366" lon="7.26554">
        <ele>474</ele>
        <time>2012-03-03T14:09:17Z</time>
      </trkpt>
      <trkpt lat="47.53378" lon="7.26542">
        <ele>474</ele>
        <time>2012-03-03T14:09:18Z</time>
      </trkpt>
      <trkpt lat="47.53394" lon="7.26533">
        <ele>473</ele>
        <time>2012-03-03T14:09:19Z</time>
      </trkpt>
      <trkpt lat="47.53405" lon="7.26528">
        <ele>474</ele>
        <time>2012-03-03T14:09:20Z</time>
      </trkpt>
      <trkpt lat="47.53422" lon="7.26527">
        <ele>474</ele>
        <time>2012-03-03T14:09:21Z</time>
      </trkpt>
      <trkpt lat="47.53435" lon="7.26532">
        <ele>474</ele>
        <time>2012-03-03T14:09:22Z</time>
      </trkpt>
      <trkpt lat="47.53449" lon="7.26536">
        <ele>474</ele>
        <time>2012-03-03T14:09:23Z</time>
      </trkpt>
      <trkpt lat="47.53463" lon="7.26537">
        <ele>474</ele>
        <time>2012-03-03T14:09:24Z</time>
      </trkpt>
      <trkpt lat="47.53476" lon="7.2654">
        <ele>474</ele>
        <time>2012-03-03T14:09:25Z</time>
      </trkpt>
      <trkpt lat="47.53488" lon="7.26543">
        <ele>473</ele>
        <time>2012-03-03T14:09:26Z</time>
      </trkpt>
      <trkpt lat="47.53501" lon="7.26545">
        <ele>474</ele>
        <time>2012-03-03T14:09:27Z</time>
      </trkpt>
      <trkpt lat="47.53515" lon="7.26546">
        <ele>474</ele>
        <time>2012-03-03T14:09:28Z</time>
      </trkpt>
      <trkpt lat="47.53528" lon="7.26544">
        <ele>474</ele>
        <time>2012-03-03T14:09:29Z</time>
      </trkpt>
      <trkpt lat="47.53539" lon="7.26543">
        <ele>474</ele>
        <time>2012-03-03T14:09:30Z</time>
      </trkpt>
      <trkpt lat="47.53551" lon="7.26538">
        <ele>473</ele>
        <time>2012-03-03T14:09:31Z</time>
      </trkpt>
      <trkpt lat="47.53563" lon="7.26533">
        <ele>473</ele>
        <time>2012-03-03T14:09:32Z</time>
      </trkpt>
      <trkpt lat="47.53573" lon="7.26528">
        <ele>472</ele>
        <time>2012-03-03T14:09:33Z</time>
      </trkpt>
      <trkpt lat="47.5358" lon="7.26525">
        <ele>471</ele>
        <time>2012-03-03T14:09:34Z</time>
      </trkpt>
      <trkpt lat="47.53587" lon="7.26522">
        <ele>472</ele>
        <time>2012-03-03T14:09:35Z</time>
      </trkpt>
      <trkpt lat="47.53593" lon="7.26519">
        <ele>471</ele>
        <time>2012-03-03T14:09:36Z</time>
      </trkpt>
      <trkpt lat="47.53599" lon="7.26512">
        <ele>470</ele>
        <time>2012-03-03T14:09:46Z</time>
      </trkpt>
      <trkpt lat="47.53603" lon="7.26507">
        <ele>470</ele>
        <time>2012-03-03T14:09:47Z</time>
      </trkpt>
      <trkpt lat="47.53607" lon="7.26503">
        <ele>470</ele>
        <time>2012-03-03T14:09:48Z</time>
      </trkpt>
      <trkpt lat="47.53615" lon="7.26497">
        <ele>470</ele>
        <time>2012-03-03T14:09:50Z</time>
      </trkpt>
      <trkpt lat="47.53621" lon="7.26489">
        <ele>469</ele>
        <time>2012-03-03T14:09:52Z</time>
      </trkpt>
      <trkpt lat="47.53625" lon="7.26485">
        <ele>469</ele>
        <time>2012-03-03T14:09:53Z</time>
      </trkpt>
      <trkpt lat="47.53629" lon="7.26481">
        <ele>469</ele>
        <time>2012-03-03T14:09:54Z</time>
      </trkpt>
      <trkpt lat="47.53638" lon="7.26474">
        <ele>469</ele>
        <time>2012-03-03T14:09:57Z</time>
      </trkpt>
      <trkpt lat="47.53645" lon="7.26468">
        <ele>468</ele>
        <time>2012-03-03T14:09:59Z</time>
      </trkpt>
      <trkpt lat="47.53651" lon="7.26461">
        <ele>469</ele>
        <time>2012-03-03T14:10:01Z</time>
      </trkpt>
      <trkpt lat="47.53655" lon="7.26455">
        <ele>468</ele>
        <time>2012-03-03T14:10:02Z</time>
      </trkpt>
      <trkpt lat="47.53662" lon="7.26447">
        <ele>467</ele>
        <time>2012-03-03T14:10:04Z</time>
      </trkpt>
      <trkpt lat="47.53666" lon="7.2644">
        <ele>466</ele>
        <time>2012-03-03T14:10:05Z</time>
      </trkpt>
      <trkpt lat="47.53672" lon="7.26433">
        <ele>466</ele>
        <time>2012-03-03T14:10:06Z</time>
      </trkpt>
      <trkpt lat="47.53676" lon="7.26424">
        <ele>466</ele>
        <time>2012-03-03T14:10:07Z</time>
      </trkpt>
      <trkpt lat="47.53682" lon="7.26413">
        <ele>466</ele>
        <time>2012-03-03T14:10:08Z</time>
      </trkpt>
      <trkpt lat="47.53688" lon="7.26403">
        <ele>466</ele>
        <time>2012-03-03T14:10:09Z</time>
      </trkpt>
      <trkpt lat="47.53696" lon="7.26393">
        <ele>466</ele>
        <time>2012-03-03T14:10:10Z</time>
      </trkpt>
      <trkpt lat="47.53703" lon="7.26382">
        <ele>465</ele>
        <time>2012-03-03T14:10:11Z</time>
      </trkpt>
      <trkpt lat="47.5371" lon="7.26373">
        <ele>465</ele>
        <time>2012-03-03T14:10:12Z</time>
      </trkpt>
      <trkpt lat="47.53717" lon="7.26362">
        <ele>465</ele>
        <time>2012-03-03T14:10:13Z</time>
      </trkpt>
      <trkpt lat="47.53724" lon="7.26353">
        <ele>465</ele>
        <time>2012-03-03T14:10:14Z</time>
      </trkpt>
      <trkpt lat="47.53731" lon="7.26344">
        <ele>465</ele>
        <time>2012-03-03T14:10:15Z</time>
      </trkpt>
      <trkpt lat="47.53738" lon="7.26336">
        <ele>465</ele>
        <time>2012-03-03T14:10:16Z</time>
      </trkpt>
      <trkpt lat="47.53744" lon="7.26327">
        <ele>465</ele>
        <time>2012-03-03T14:10:17Z</time>
      </trkpt>
      <trkpt lat="47.5375" lon="7.2632">
        <ele>464</ele>
        <time>2012-03-03T14:10:18Z</time>
      </trkpt>
      <trkpt lat="47.53757" lon="7.26312">
        <ele>464</ele>
        <time>2012-03-03T14:10:19Z</time>
      </trkpt>
      <trkpt lat="47.53764" lon="7.26301">
        <ele>464</ele>
        <time>2012-03-03T14:10:20Z</time>
      </trkpt>
      <trkpt lat="47.53771" lon="7.2629">
        <ele>463</ele>
        <time>2012-03-03T14:10:21Z</time>
      </trkpt>
      <trkpt lat="47.53777" lon="7.2628">
        <ele>464</ele>
        <time>2012-03-03T14:10:22Z</time>
      </trkpt>
      <trkpt lat="47.53784" lon="7.26268">
        <ele>462</ele>
        <time>2012-03-03T14:10:23Z</time>
      </trkpt>
      <trkpt lat="47.5379" lon="7.26261">
        <ele>461</ele>
        <time>2012-03-03T14:10:24Z</time>
      </trkpt>
      <trkpt lat="47.53795" lon="7.26255">
        <ele>461</ele>
        <time>2012-03-03T14:10:25Z</time>
      </trkpt>
      <trkpt lat="47.53801" lon="7.26247">
        <ele>460</ele>
        <time>2012-03-03T14:10:26Z</time>
      </trkpt>
      <trkpt lat="47.53807" lon="7.26239">
        <ele>460</ele>
        <time>2012-03-03T14:10:27Z</time>
      </trkpt>
      <trkpt lat="47.53812" lon="7.26232">
        <ele>459</ele>
        <time>2012-03-03T14:10:28Z</time>
      </trkpt>
      <trkpt lat="47.53815" lon="7.26224">
        <ele>459</ele>
        <time>2012-03-03T14:10:29Z</time>
      </trkpt>
      <trkpt lat="47.5382" lon="7.26217">
        <ele>459</ele>
        <time>2012-03-03T14:10:30Z</time>
      </trkpt>
      <trkpt lat="47.53825" lon="7.2621">
        <ele>459</ele>
        <time>2012-03-03T14:10:31Z</time>
      </trkpt>
      <trkpt lat="47.5383" lon="7.26203">
        <ele>458</ele>
        <time>2012-03-03T14:10:32Z</time>
      </trkpt>
      <trkpt lat="47.53836" lon="7.26196">
        <ele>459</ele>
        <time>2012-03-03T14:10:33Z</time>
      </trkpt>
      <trkpt lat="47.53842" lon="7.26189">
        <ele>458</ele>
        <time>2012-03-03T14:10:34Z</time>
      </trkpt>
      <trkpt lat="47.53846" lon="7.26183">
        <ele>458</ele>
        <time>2012-03-03T14:10:35Z</time>
      </trkpt>
      <trkpt lat="47.53851" lon="7.26175">
        <ele>457</ele>
        <time>2012-03-03T14:10:36Z</time>
      </trkpt>
      <trkpt lat="47.53856" lon="7.26167">
        <ele>457</ele>
        <time>2012-03-03T14:10:37Z</time>
      </trkpt>
      <trkpt lat="47.53862" lon="7.26159">
        <ele>457</ele>
        <time>2012-03-03T14:10:38Z</time>
      </trkpt>
      <trkpt lat="47.53868" lon="7.26151">
        <ele>457</ele>
        <time>2012-03-03T14:10:39Z</time>
      </trkpt>
      <trkpt lat="47.53875" lon="7.26142">
        <ele>457</ele>
        <time>2012-03-03T14:10:40Z</time>
      </trkpt>
      <trkpt lat="47.53883" lon="7.26132">
        <ele>457</ele>
        <time>2012-03-03T14:10:41Z</time>
      </trkpt>
      <trkpt lat="47.53891" lon="7.26122">
        <ele>457</ele>
        <time>2012-03-03T14:10:42Z</time>
      </trkpt>
      <trkpt lat="47.53903" lon="7.26109">
        <ele>457</ele>
        <time>2012-03-03T14:10:43Z</time>
      </trkpt>
      <trkpt lat="47.53917" lon="7.26096">
        <ele>456</ele>
        <time>2012-03-03T14:10:44Z</time>
      </trkpt>
      <trkpt lat="47.53928" lon="7.26081">
        <ele>456</ele>
        <time>2012-03-03T14:10:45Z</time>
      </trkpt>
      <trkpt lat="47.5394" lon="7.26065">
        <ele>457</ele>
        <time>2012-03-03T14:10:46Z</time>
      </trkpt>
      <trkpt lat="47.53961" lon="7.26034">
        <ele>457</ele>
        <time>2012-03-03T14:10:47Z</time>
      </trkpt>
      <trkpt lat="47.5398" lon="7.26013">
        <ele>457</ele>
        <time>2012-03-03T14:10:48Z</time>
      </trkpt>
      <trkpt lat="47.53997" lon="7.25989">
        <ele>457</ele>
        <time>2012-03-03T14:10:49Z</time>
      </trkpt>
      <trkpt lat="47.54013" lon="7.25967">
        <ele>457</ele>
        <time>2012-03-03T14:10:50Z</time>
      </trkpt>
      <trkpt lat="47.54029" lon="7.25945">
        <ele>457</ele>
        <time>2012-03-03T14:10:51Z</time>
      </trkpt>
      <trkpt lat="47.54045" lon="7.25923">
        <ele>457</ele>
        <time>2012-03-03T14:10:52Z</time>
      </trkpt>
      <trkpt lat="47.54059" lon="7.25902">
        <ele>457</ele>
        <time>2012-03-03T14:10:53Z</time>
      </trkpt>
      <trkpt lat="47.54078" lon="7.25884">
        <ele>457</ele>
        <time>2012-03-03T14:10:54Z</time>
      </trkpt>
      <trkpt lat="47.54097" lon="7.25864">
        <ele>457</ele>
        <time>2012-03-03T14:10:55Z</time>
      </trkpt>
      <trkpt lat="47.54114" lon="7.25844">
        <ele>457</ele>
        <time>2012-03-03T14:10:56Z</time>
      </trkpt>
      <trkpt lat="47.5413" lon="7.25824">
        <ele>457</ele>
        <time>2012-03-03T14:10:57Z</time>
      </trkpt>
      <trkpt lat="47.54146" lon="7.25806">
        <ele>457</ele>
        <time>2012-03-03T14:10:58Z</time>
      </trkpt>
      <trkpt lat="47.5416" lon="7.25788">
        <ele>456</ele>
        <time>2012-03-03T14:10:59Z</time>
      </trkpt>
      <trkpt lat="47.54176" lon="7.2577">
        <ele>457</ele>
        <time>2012-03-03T14:11:00Z</time>
      </trkpt>
      <trkpt lat="47.54192" lon="7.25757">
        <ele>457</ele>
        <time>2012-03-03T14:11:01Z</time>
      </trkpt>
      <trkpt lat="47.5421" lon="7.2575">
        <ele>456</ele>
        <time>2012-03-03T14:11:02Z</time>
      </trkpt>
      <trkpt lat="47.54228" lon="7.25739">
        <ele>456</ele>
        <time>2012-03-03T14:11:03Z</time>
      </trkpt>
      <trkpt lat="47.54246" lon="7.25729">
        <ele>456</ele>
        <time>2012-03-03T14:11:04Z</time>
      </trkpt>
      <trkpt lat="47.54266" lon="7.2572">
        <ele>456</ele>
        <time>2012-03-03T14:11:05Z</time>
      </trkpt>
      <trkpt lat="47.54282" lon="7.25707">
        <ele>456</ele>
        <time>2012-03-03T14:11:06Z</time>
      </trkpt>
      <trkpt lat="47.54298" lon="7.25695">
        <ele>455</ele>
        <time>2012-03-03T14:11:07Z</time>
      </trkpt>
      <trkpt lat="47.54312" lon="7.2568">
        <ele>456</ele>
        <time>2012-03-03T14:11:08Z</time>
      </trkpt>
      <trkpt lat="47.5433" lon="7.25664">
        <ele>456</ele>
        <time>2012-03-03T14:11:09Z</time>
      </trkpt>
      <trkpt lat="47.54341" lon="7.25648">
        <ele>455</ele>
        <time>2012-03-03T14:11:10Z</time>
      </trkpt>
      <trkpt lat="47.54358" lon="7.25632">
        <ele>455</ele>
        <time>2012-03-03T14:11:11Z</time>
      </trkpt>
      <trkpt lat="47.54374" lon="7.25618">
        <ele>454</ele>
        <time>2012-03-03T14:11:12Z</time>
      </trkpt>
      <trkpt lat="47.54392" lon="7.25606">
        <ele>454</ele>
        <time>2012-03-03T14:11:13Z</time>
      </trkpt>
      <trkpt lat="47.54411" lon="7.25595">
        <ele>454</ele>
        <time>2012-03-03T14:11:14Z</time>
      </trkpt>
      <trkpt lat="47.54435" lon="7.25589">
        <ele>454</ele>
        <time>2012-03-03T14:11:15Z</time>
      </trkpt>
      <trkpt lat="47.54456" lon="7.2558">
        <ele>453</ele>
        <time>2012-03-03T14:11:16Z</time>
      </trkpt>
      <trkpt lat="47.54479" lon="7.25573">
        <ele>453</ele>
        <time>2012-03-03T14:11:17Z</time>
      </trkpt>
      <trkpt lat="47.54498" lon="7.25568">
        <ele>452</ele>
        <time>2012-03-03T14:11:18Z</time>
      </trkpt>
      <trkpt lat="47.5452" lon="7.25561">
        <ele>451</ele>
        <time>2012-03-03T14:11:19Z</time>
      </trkpt>
      <trkpt lat="47.54539" lon="7.25556">
        <ele>451</ele>
        <time>2012-03-03T14:11:20Z</time>
      </trkpt>
      <trkpt lat="47.5456" lon="7.2555">
        <ele>451</ele>
        <time>2012-03-03T14:11:21Z</time>
      </trkpt>
      <trkpt lat="47.5458" lon="7.25542">
        <ele>451</ele>
        <time>2012-03-03T14:11:22Z</time>
      </trkpt>
      <trkpt lat="47.54601" lon="7.25533">
        <ele>451</ele>
        <time>2012-03-03T14:11:23Z</time>
      </trkpt>
      <trkpt lat="47.54619" lon="7.25527">
        <ele>451</ele>
        <time>2012-03-03T14:11:24Z</time>
      </trkpt>
      <trkpt lat="47.54633" lon="7.25522">
        <ele>451</ele>
        <time>2012-03-03T14:11:25Z</time>
      </trkpt>
      <trkpt lat="47.54652" lon="7.25512">
        <ele>451</ele>
        <time>2012-03-03T14:11:26Z</time>
      </trkpt>
      <trkpt lat="47.54668" lon="7.25495">
        <ele>451</ele>
        <time>2012-03-03T14:11:27Z</time>
      </trkpt>
      <trkpt lat="47.54685" lon="7.25477">
        <ele>451</ele>
        <time>2012-03-03T14:11:28Z</time>
      </trkpt>
      <trkpt lat="47.54701" lon="7.25458">
        <ele>450</ele>
        <time>2012-03-03T14:11:29Z</time>
      </trkpt>
      <trkpt lat="47.54719" lon="7.25439">
        <ele>450</ele>
        <time>2012-03-03T14:11:30Z</time>
      </trkpt>
      <trkpt lat="47.54737" lon="7.2542">
        <ele>450</ele>
        <time>2012-03-03T14:11:31Z</time>
      </trkpt>
      <trkpt lat="47.54756" lon="7.25401">
        <ele>450</ele>
        <time>2012-03-03T14:11:32Z</time>
      </trkpt>
      <trkpt lat="47.54774" lon="7.25384">
        <ele>449</ele>
        <time>2012-03-03T14:11:33Z</time>
      </trkpt>
      <trkpt lat="47.54791" lon="7.25371">
        <ele>448</ele>
        <time>2012-03-03T14:11:34Z</time>
      </trkpt>
      <trkpt lat="47.5481" lon="7.25355">
        <ele>448</ele>
        <time>2012-03-03T14:11:35Z</time>
      </trkpt>
      <trkpt lat="47.54826" lon="7.25342">
        <ele>447</ele>
        <time>2012-03-03T14:11:36Z</time>
      </trkpt>
      <trkpt lat="47.54844" lon="7.25333">
        <ele>447</ele>
        <time>2012-03-03T14:11:37Z</time>
      </trkpt>
      <trkpt lat="47.54862" lon="7.25323">
        <ele>446</ele>
        <time>2012-03-03T14:11:38Z</time>
      </trkpt>
      <trkpt lat="47.54882" lon="7.25308">
        <ele>446</ele>
        <time>2012-03-03T14:11:39Z</time>
      </trkpt>
      <trkpt lat="47.54899" lon="7.25292">
        <ele>446</ele>
        <time>2012-03-03T14:11:40Z</time>
      </trkpt>
      <trkpt lat="47.54917" lon="7.25277">
        <ele>446</ele>
        <time>2012-03-03T14:11:41Z</time>
      </trkpt>
      <trkpt lat="47.5493" lon="7.25262">
        <ele>446</ele>
        <time>2012-03-03T14:11:42Z</time>
      </trkpt>
      <trkpt lat="47.54948" lon="7.25242">
        <ele>445</ele>
        <time>2012-03-03T14:11:43Z</time>
      </trkpt>
      <trkpt lat="47.54962" lon="7.25222">
        <ele>445</ele>
        <time>2012-03-03T14:11:44Z</time>
      </trkpt>
      <trkpt lat="47.54979" lon="7.25203">
        <ele>445</ele>
        <time>2012-03-03T14:11:45Z</time>
      </trkpt>
      <trkpt lat="47.55002" lon="7.25186">
        <ele>445</ele>
        <time>2012-03-03T14:11:46Z</time>
      </trkpt>
      <trkpt lat="47.55022" lon="7.25167">
        <ele>444</ele>
        <time>2012-03-03T14:11:47Z</time>
      </trkpt>
      <trkpt lat="47.55046" lon="7.25156">
        <ele>443</ele>
        <time>2012-03-03T14:11:48Z</time>
      </trkpt>
      <trkpt lat="47.55063" lon="7.25149">
        <ele>443</ele>
        <time>2012-03-03T14:11:49Z</time>
      </trkpt>
      <trkpt lat="47.55085" lon="7.2514">
        <ele>442</ele>
        <time>2012-03-03T14:11:50Z</time>
      </trkpt>
      <trkpt lat="47.55106" lon="7.2513">
        <ele>442</ele>
        <time>2012-03-03T14:11:51Z</time>
      </trkpt>
      <trkpt lat="47.55123" lon="7.25119">
        <ele>442</ele>
        <time>2012-03-03T14:11:52Z</time>
      </trkpt>
      <trkpt lat="47.55138" lon="7.25109">
        <ele>441</ele>
        <time>2012-03-03T14:11:53Z</time>
      </trkpt>
      <trkpt lat="47.55156" lon="7.25104">
        <ele>441</ele>
        <time>2012-03-03T14:11:54Z</time>
      </trkpt>
      <trkpt lat="47.55171" lon="7.25096">
        <ele>440</ele>
        <time>2012-03-03T14:11:55Z</time>
      </trkpt>
      <trkpt lat="47.55191" lon="7.25085">
        <ele>440</ele>
        <time>2012-03-03T14:11:56Z</time>
      </trkpt>
      <trkpt lat="47.5521" lon="7.25069">
        <ele>440</ele>
        <time>2012-03-03T14:11:57Z</time>
      </trkpt>
      <trkpt lat="47.55228" lon="7.25056">
        <ele>440</ele>
        <time>2012-03-03T14:11:58Z</time>
      </trkpt>
      <trkpt lat="47.55249" lon="7.2504">
        <ele>440</ele>
        <time>2012-03-03T14:11:59Z</time>
      </trkpt>
      <trkpt lat="47.55268" lon="7.25021">
        <ele>440</ele>
        <time>2012-03-03T14:12:00Z</time>
      </trkpt>
      <trkpt lat="47.55287" lon="7.25">
        <ele>440</ele>
        <time>2012-03-03T14:12:01Z</time>
      </trkpt>
      <trkpt lat="47.55307" lon="7.24982">
        <ele>439</ele>
        <time>2012-03-03T14:12:02Z</time>
      </trkpt>
      <trkpt lat="47.55326" lon="7.24964">
        <ele>440</ele>
        <time>2012-03-03T14:12:03Z</time>
      </trkpt>
      <trkpt lat="47.55346" lon="7.24944">
        <ele>440</ele>
        <time>2012-03-03T14:12:04Z</time>
      </trkpt>
      <trkpt lat="47.55367" lon="7.24924">
        <ele>440</ele>
        <time>2012-03-03T14:12:05Z</time>
      </trkpt>
      <trkpt lat="47.55385" lon="7.24906">
        <ele>440</ele>
        <time>2012-03-03T14:12:06Z</time>
      </trkpt>
      <trkpt lat="47.55405" lon="7.24887">
        <ele>441</ele>
        <time>2012-03-03T14:12:07Z</time>
      </trkpt>
      <trkpt lat="47.55426" lon="7.24868">
        <ele>440</ele>
        <time>2012-03-03T14:12:08Z</time>
      </trkpt>
      <trkpt lat="47.55449" lon="7.2485">
        <ele>440</ele>
        <time>2012-03-03T14:12:09Z</time>
      </trkpt>
      <trkpt lat="47.5547" lon="7.24835">
        <ele>440</ele>
        <time>2012-03-03T14:12:10Z</time>
      </trkpt>
      <trkpt lat="47.5549" lon="7.24816">
        <ele>440</ele>
        <time>2012-03-03T14:12:11Z</time>
      </trkpt>
      <trkpt lat="47.55513" lon="7.248">
        <ele>439</ele>
        <time>2012-03-03T14:12:12Z</time>
      </trkpt>
      <trkpt lat="47.55534" lon="7.24781">
        <ele>439</ele>
        <time>2012-03-03T14:12:13Z</time>
      </trkpt>
      <trkpt lat="47.55548" lon="7.24764">
        <ele>439</ele>
        <time>2012-03-03T14:12:14Z</time>
      </trkpt>
      <trkpt lat="47.55571" lon="7.24748">
        <ele>439</ele>
        <time>2012-03-03T14:12:15Z</time>
      </trkpt>
      <trkpt lat="47.55593" lon="7.24735">
        <ele>439</ele>
        <time>2012-03-03T14:12:16Z</time>
      </trkpt>
      <trkpt lat="47.55614" lon="7.2472">
        <ele>439</ele>
        <time>2012-03-03T14:12:17Z</time>
      </trkpt>
      <trkpt lat="47.55635" lon="7.24707">
        <ele>440</ele>
        <time>2012-03-03T14:12:18Z</time>
      </trkpt>
      <trkpt lat="47.55658" lon="7.24695">
        <ele>440</ele>
        <time>2012-03-03T14:12:19Z</time>
      </trkpt>
      <trkpt lat="47.5568" lon="7.24686">
        <ele>440</ele>
        <time>2012-03-03T14:12:20Z</time>
      </trkpt>
      <trkpt lat="47.55702" lon="7.24675">
        <ele>440</ele>
        <time>2012-03-03T14:12:21Z</time>
      </trkpt>
      <trkpt lat="47.55724" lon="7.24665">
        <ele>440</ele>
        <time>2012-03-03T14:12:22Z</time>
      </trkpt>
      <trkpt lat="47.55751" lon="7.24657">
        <ele>439</ele>
        <time>2012-03-03T14:12:23Z</time>
      </trkpt>
      <trkpt lat="47.55757" lon="7.24673">
        <ele>440</ele>
        <time>2012-03-03T14:12:24Z</time>
      </trkpt>
      <trkpt lat="47.55774" lon="7.24663">
        <ele>440</ele>
        <time>2012-03-03T14:12:25Z</time>
      </trkpt>
      <trkpt lat="47.55791" lon="7.24646">
        <ele>440</ele>
        <time>2012-03-03T14:12:26Z</time>
      </trkpt>
      <trkpt lat="47.55806" lon="7.24631">
        <ele>440</ele>
        <time>2012-03-03T14:12:27Z</time>
      </trkpt>
      <trkpt lat="47.55824" lon="7.24618">
        <ele>440</ele>
        <time>2012-03-03T14:12:28Z</time>
      </trkpt>
      <trkpt lat="47.55838" lon="7.24604">
        <ele>440</ele>
        <time>2012-03-03T14:12:29Z</time>
      </trkpt>
      <trkpt lat="47.55848" lon="7.24589">
        <ele>440</ele>
        <time>2012-03-03T14:12:30Z</time>
      </trkpt>
      <trkpt lat="47.55911" lon="7.24532">
        <ele>436</ele>
        <time>2012-03-03T14:12:34Z</time>
      </trkpt>
      <trkpt lat="47.55927" lon="7.24519">
        <ele>435</ele>
        <time>2012-03-03T14:12:35Z</time>
      </trkpt>
      <trkpt lat="47.55941" lon="7.24507">
        <ele>436</ele>
        <time>2012-03-03T14:12:36Z</time>
      </trkpt>
      <trkpt lat="47.55954" lon="7.24497">
        <ele>433</ele>
        <time>2012-03-03T14:12:37Z</time>
      </trkpt>
      <trkpt lat="47.55967" lon="7.24487">
        <ele>431</ele>
        <time>2012-03-03T14:12:38Z</time>
      </trkpt>
      <trkpt lat="47.55982" lon="7.24475">
        <ele>430</ele>
        <time>2012-03-03T14:12:39Z</time>
      </trkpt>
      <trkpt lat="47.55998" lon="7.24467">
        <ele>430</ele>
        <time>2012-03-03T14:12:40Z</time>
      </trkpt>
      <trkpt lat="47.56012" lon="7.24457">
        <ele>430</ele>
        <time>2012-03-03T14:12:41Z</time>
      </trkpt>
      <trkpt lat="47.56022" lon="7.2444">
        <ele>430</ele>
        <time>2012-03-03T14:12:42Z</time>
      </trkpt>
      <trkpt lat="47.56034" lon="7.24424">
        <ele>430</ele>
        <time>2012-03-03T14:12:43Z</time>
      </trkpt>
      <trkpt lat="47.56042" lon="7.24402">
        <ele>430</ele>
        <time>2012-03-03T14:12:44Z</time>
      </trkpt>
      <trkpt lat="47.56045" lon="7.24376">
        <ele>428</ele>
        <time>2012-03-03T14:12:45Z</time>
      </trkpt>
      <trkpt lat="47.56052" lon="7.24351">
        <ele>427</ele>
        <time>2012-03-03T14:12:46Z</time>
      </trkpt>
      <trkpt lat="47.56061" lon="7.24324">
        <ele>426</ele>
        <time>2012-03-03T14:12:47Z</time>
      </trkpt>
      <trkpt lat="47.56075" lon="7.24296">
        <ele>425</ele>
        <time>2012-03-03T14:12:48Z</time>
      </trkpt>
      <trkpt lat="47.56085" lon="7.24271">
        <ele>425</ele>
        <time>2012-03-03T14:12:49Z</time>
      </trkpt>
      <trkpt lat="47.56099" lon="7.24248">
        <ele>425</ele>
        <time>2012-03-03T14:12:50Z</time>
      </trkpt>
      <trkpt lat="47.56111" lon="7.24225">
        <ele>424</ele>
        <time>2012-03-03T14:12:51Z</time>
      </trkpt>
      <trkpt lat="47.56122" lon="7.24204">
        <ele>424</ele>
        <time>2012-03-03T14:12:52Z</time>
      </trkpt>
      <trkpt lat="47.56133" lon="7.24184">
        <ele>424</ele>
        <time>2012-03-03T14:12:53Z</time>
      </trkpt>
      <trkpt lat="47.56141" lon="7.24162">
        <ele>421</ele>
        <time>2012-03-03T14:12:54Z</time>
      </trkpt>
      <trkpt lat="47.5615" lon="7.24142">
        <ele>420</ele>
        <time>2012-03-03T14:12:55Z</time>
      </trkpt>
      <trkpt lat="47.5616" lon="7.24123">
        <ele>420</ele>
        <time>2012-03-03T14:12:56Z</time>
      </trkpt>
      <trkpt lat="47.56168" lon="7.24106">
        <ele>419</ele>
        <time>2012-03-03T14:12:57Z</time>
      </trkpt>
      <trkpt lat="47.56178" lon="7.24088">
        <ele>420</ele>
        <time>2012-03-03T14:12:58Z</time>
      </trkpt>
      <trkpt lat="47.56186" lon="7.2407">
        <ele>419</ele>
        <time>2012-03-03T14:12:59Z</time>
      </trkpt>
      <trkpt lat="47.56194" lon="7.24054">
        <ele>419</ele>
        <time>2012-03-03T14:13:00Z</time>
      </trkpt>
      <trkpt lat="47.56201" lon="7.24037">
        <ele>419</ele>
        <time>2012-03-03T14:13:01Z</time>
      </trkpt>
      <trkpt lat="47.5621" lon="7.24022">
        <ele>419</ele>
        <time>2012-03-03T14:13:02Z</time>
      </trkpt>
      <trkpt lat="47.56221" lon="7.24004">
        <ele>419</ele>
        <time>2012-03-03T14:13:03Z</time>
      </trkpt>
      <trkpt lat="47.56233" lon="7.2399">
        <ele>419</ele>
        <time>2012-03-03T14:13:04Z</time>
      </trkpt>
      <trkpt lat="47.5625" lon="7.23978">
        <ele>418</ele>
        <time>2012-03-03T14:13:05Z</time>
      </trkpt>
      <trkpt lat="47.56266" lon="7.23964">
        <ele>417</ele>
        <time>2012-03-03T14:13:06Z</time>
      </trkpt>
      <trkpt lat="47.56285" lon="7.2395">
        <ele>417</ele>
        <time>2012-03-03T14:13:07Z</time>
      </trkpt>
      <trkpt lat="47.56305" lon="7.23937">
        <ele>417</ele>
        <time>2012-03-03T14:13:08Z</time>
      </trkpt>
      <trkpt lat="47.56326" lon="7.23926">
        <ele>417</ele>
        <time>2012-03-03T14:13:09Z</time>
      </trkpt>
      <trkpt lat="47.56346" lon="7.2391">
        <ele>416</ele>
        <time>2012-03-03T14:13:10Z</time>
      </trkpt>
      <trkpt lat="47.56367" lon="7.23894">
        <ele>416</ele>
        <time>2012-03-03T14:13:11Z</time>
      </trkpt>
      <trkpt lat="47.56388" lon="7.23879">
        <ele>416</ele>
        <time>2012-03-03T14:13:12Z</time>
      </trkpt>
      <trkpt lat="47.56406" lon="7.23865">
        <ele>415</ele>
        <time>2012-03-03T14:13:13Z</time>
      </trkpt>
      <trkpt lat="47.56423" lon="7.23855">
        <ele>415</ele>
        <time>2012-03-03T14:13:14Z</time>
      </trkpt>
      <trkpt lat="47.56441" lon="7.23845">
        <ele>415</ele>
        <time>2012-03-03T14:13:15Z</time>
      </trkpt>
      <trkpt lat="47.56462" lon="7.23842">
        <ele>414</ele>
        <time>2012-03-03T14:13:16Z</time>
      </trkpt>
      <trkpt lat="47.5648" lon="7.23836">
        <ele>414</ele>
        <time>2012-03-03T14:13:17Z</time>
      </trkpt>
      <trkpt lat="47.56497" lon="7.23826">
        <ele>415</ele>
        <time>2012-03-03T14:13:18Z</time>
      </trkpt>
      <trkpt lat="47.56516" lon="7.23823">
        <ele>414</ele>
        <time>2012-03-03T14:13:19Z</time>
      </trkpt>
      <trkpt lat="47.56532" lon="7.23822">
        <ele>414</ele>
        <time>2012-03-03T14:13:20Z</time>
      </trkpt>
      <trkpt lat="47.56548" lon="7.23821">
        <ele>414</ele>
        <time>2012-03-03T14:13:21Z</time>
      </trkpt>
      <trkpt lat="47.56562" lon="7.23824">
        <ele>413</ele>
        <time>2012-03-03T14:13:22Z</time>
      </trkpt>
      <trkpt lat="47.5658" lon="7.23824">
        <ele>414</ele>
        <time>2012-03-03T14:13:23Z</time>
      </trkpt>
      <trkpt lat="47.56595" lon="7.23826">
        <ele>414</ele>
        <time>2012-03-03T14:13:24Z</time>
      </trkpt>
      <trkpt lat="47.56609" lon="7.23829">
        <ele>414</ele>
        <time>2012-03-03T14:13:25Z</time>
      </trkpt>
      <trkpt lat="47.5662" lon="7.23831">
        <ele>414</ele>
        <time>2012-03-03T14:13:26Z</time>
      </trkpt>
      <trkpt lat="47.56633" lon="7.23836">
        <ele>413</ele>
        <time>2012-03-03T14:13:27Z</time>
      </trkpt>
      <trkpt lat="47.56646" lon="7.23841">
        <ele>414</ele>
        <time>2012-03-03T14:13:28Z</time>
      </trkpt>
      <trkpt lat="47.56656" lon="7.23846">
        <ele>414</ele>
        <time>2012-03-03T14:13:29Z</time>
      </trkpt>
      <trkpt lat="47.56666" lon="7.23852">
        <ele>414</ele>
        <time>2012-03-03T14:13:30Z</time>
      </trkpt>
      <trkpt lat="47.56676" lon="7.23856">
        <ele>415</ele>
        <time>2012-03-03T14:13:31Z</time>
      </trkpt>
      <trkpt lat="47.56687" lon="7.23862">
        <ele>415</ele>
        <time>2012-03-03T14:13:32Z</time>
      </trkpt>
      <trkpt lat="47.56698" lon="7.23869">
        <ele>415</ele>
        <time>2012-03-03T14:13:33Z</time>
      </trkpt>
      <trkpt lat="47.56708" lon="7.23874">
        <ele>415</ele>
        <time>2012-03-03T14:13:34Z</time>
      </trkpt>
      <trkpt lat="47.56721" lon="7.23881">
        <ele>416</ele>
        <time>2012-03-03T14:13:35Z</time>
      </trkpt>
      <trkpt lat="47.56734" lon="7.23884">
        <ele>415</ele>
        <time>2012-03-03T14:13:36Z</time>
      </trkpt>
      <trkpt lat="47.56745" lon="7.2389">
        <ele>414</ele>
        <time>2012-03-03T14:13:37Z</time>
      </trkpt>
      <trkpt lat="47.56757" lon="7.23893">
        <ele>415</ele>
        <time>2012-03-03T14:13:38Z</time>
      </trkpt>
      <trkpt lat="47.56767" lon="7.23899">
        <ele>415</ele>
        <time>2012-03-03T14:13:39Z</time>
      </trkpt>
      <trkpt lat="47.56778" lon="7.23905">
        <ele>415</ele>
        <time>2012-03-03T14:13:40Z</time>
      </trkpt>
      <trkpt lat="47.56787" lon="7.23912">
        <ele>415</ele>
        <time>2012-03-03T14:13:41Z</time>
      </trkpt>
      <trkpt lat="47.56796" lon="7.2392">
        <ele>414</ele>
        <time>2012-03-03T14:13:42Z</time>
      </trkpt>
      <trkpt lat="47.56809" lon="7.23925">
        <ele>413</ele>
        <time>2012-03-03T14:13:43Z</time>
      </trkpt>
      <trkpt lat="47.5682" lon="7.23932">
        <ele>414</ele>
        <time>2012-03-03T14:13:44Z</time>
      </trkpt>
      <trkpt lat="47.56831" lon="7.23939">
        <ele>413</ele>
        <time>2012-03-03T14:13:45Z</time>
      </trkpt>
      <trkpt lat="47.56841" lon="7.23947">
        <ele>413</ele>
        <time>2012-03-03T14:13:46Z</time>
      </trkpt>
      <trkpt lat="47.56852" lon="7.23957">
        <ele>413</ele>
        <time>2012-03-03T14:13:47Z</time>
      </trkpt>
      <trkpt lat="47.56861" lon="7.23968">
        <ele>414</ele>
        <time>2012-03-03T14:13:48Z</time>
      </trkpt>
      <trkpt lat="47.56871" lon="7.23979">
        <ele>413</ele>
        <time>2012-03-03T14:13:49Z</time>
      </trkpt>
      <trkpt lat="47.56881" lon="7.23989">
        <ele>414</ele>
        <time>2012-03-03T14:13:50Z</time>
      </trkpt>
      <trkpt lat="47.56891" lon="7.24002">
        <ele>413</ele>
        <time>2012-03-03T14:13:51Z</time>
      </trkpt>
      <trkpt lat="47.569" lon="7.24012">
        <ele>413</ele>
        <time>2012-03-03T14:13:52Z</time>
      </trkpt>
      <trkpt lat="47.5691" lon="7.24023">
        <ele>413</ele>
        <time>2012-03-03T14:13:53Z</time>
      </trkpt>
      <trkpt lat="47.5692" lon="7.24035">
        <ele>413</ele>
        <time>2012-03-03T14:13:54Z</time>
      </trkpt>
      <trkpt lat="47.56929" lon="7.24046">
        <ele>413</ele>
        <time>2012-03-03T14:13:55Z</time>
      </trkpt>
      <trkpt lat="47.56937" lon="7.24057">
        <ele>412</ele>
        <time>2012-03-03T14:13:56Z</time>
      </trkpt>
      <trkpt lat="47.56944" lon="7.24068">
        <ele>413</ele>
        <time>2012-03-03T14:13:57Z</time>
      </trkpt>
      <trkpt lat="47.56951" lon="7.24077">
        <ele>413</ele>
        <time>2012-03-03T14:13:58Z</time>
      </trkpt>
      <trkpt lat="47.56958" lon="7.24089">
        <ele>412</ele>
        <time>2012-03-03T14:13:59Z</time>
      </trkpt>
      <trkpt lat="47.56965" lon="7.24096">
        <ele>411</ele>
        <time>2012-03-03T14:14:00Z</time>
      </trkpt>
      <trkpt lat="47.56973" lon="7.24101">
        <ele>410</ele>
        <time>2012-03-03T14:14:01Z</time>
      </trkpt>
      <trkpt lat="47.56982" lon="7.24108">
        <ele>410</ele>
        <time>2012-03-03T14:14:02Z</time>
      </trkpt>
      <trkpt lat="47.56992" lon="7.24112">
        <ele>409</ele>
        <time>2012-03-03T14:14:03Z</time>
      </trkpt>
      <trkpt lat="47.57002" lon="7.24114">
        <ele>409</ele>
        <time>2012-03-03T14:14:04Z</time>
      </trkpt>
      <trkpt lat="47.57011" lon="7.24115">
        <ele>408</ele>
        <time>2012-03-03T14:14:05Z</time>
      </trkpt>
      <trkpt lat="47.5702" lon="7.24116">
        <ele>408</ele>
        <time>2012-03-03T14:14:06Z</time>
      </trkpt>
      <trkpt lat="47.5703" lon="7.24119">
        <ele>408</ele>
        <time>2012-03-03T14:14:07Z</time>
      </trkpt>
      <trkpt lat="47.57039" lon="7.24121">
        <ele>408</ele>
        <time>2012-03-03T14:14:08Z</time>
      </trkpt>
      <trkpt lat="47.5705" lon="7.24121">
        <ele>407</ele>
        <time>2012-03-03T14:14:09Z</time>
      </trkpt>
      <trkpt lat="47.57061" lon="7.24124">
        <ele>407</ele>
        <time>2012-03-03T14:14:10Z</time>
      </trkpt>
      <trkpt lat="47.57071" lon="7.24131">
        <ele>407</ele>
        <time>2012-03-03T14:14:11Z</time>
      </trkpt>
      <trkpt lat="47.57082" lon="7.24138">
        <ele>406</ele>
        <time>2012-03-03T14:14:12Z</time>
      </trkpt>
      <trkpt lat="47.5709" lon="7.24146">
        <ele>406</ele>
        <time>2012-03-03T14:14:13Z</time>
      </trkpt>
      <trkpt lat="47.57099" lon="7.24152">
        <ele>406</ele>
        <time>2012-03-03T14:14:14Z</time>
      </trkpt>
      <trkpt lat="47.57108" lon="7.2416">
        <ele>406</ele>
        <time>2012-03-03T14:14:15Z</time>
      </trkpt>
      <trkpt lat="47.57118" lon="7.24167">
        <ele>406</ele>
        <time>2012-03-03T14:14:16Z</time>
      </trkpt>
      <trkpt lat="47.5713" lon="7.24172">
        <ele>407</ele>
        <time>2012-03-03T14:14:17Z</time>
      </trkpt>
      <trkpt lat="47.57139" lon="7.2418">
        <ele>407</ele>
        <time>2012-03-03T14:14:18Z</time>
      </trkpt>
      <trkpt lat="47.57149" lon="7.24187">
        <ele>407</ele>
        <time>2012-03-03T14:14:19Z</time>
      </trkpt>
      <trkpt lat="47.5716" lon="7.24195">
        <ele>407</ele>
        <time>2012-03-03T14:14:20Z</time>
      </trkpt>
      <trkpt lat="47.57171" lon="7.24201">
        <ele>407</ele>
        <time>2012-03-03T14:14:21Z</time>
      </trkpt>
      <trkpt lat="47.5718" lon="7.24206">
        <ele>407</ele>
        <time>2012-03-03T14:14:22Z</time>
      </trkpt>
      <trkpt lat="47.5719" lon="7.24208">
        <ele>407</ele>
        <time>2012-03-03T14:14:23Z</time>
      </trkpt>
      <trkpt lat="47.572" lon="7.24206">
        <ele>407</ele>
        <time>2012-03-03T14:14:24Z</time>
      </trkpt>
      <trkpt lat="47.57211" lon="7.24202">
        <ele>406</ele>
        <time>2012-03-03T14:14:25Z</time>
      </trkpt>
      <trkpt lat="47.57219" lon="7.24203">
        <ele>406</ele>
        <time>2012-03-03T14:14:26Z</time>
      </trkpt>
      <trkpt lat="47.57229" lon="7.24204">
        <ele>407</ele>
        <time>2012-03-03T14:14:27Z</time>
      </trkpt>
      <trkpt lat="47.57237" lon="7.24204">
        <ele>407</ele>
        <time>2012-03-03T14:14:28Z</time>
      </trkpt>
      <trkpt lat="47.57245" lon="7.24206">
        <ele>407</ele>
        <time>2012-03-03T14:14:29Z</time>
      </trkpt>
      <trkpt lat="47.57251" lon="7.24211">
        <ele>406</ele>
        <time>2012-03-03T14:14:30Z</time>
      </trkpt>
      <trkpt lat="47.57255" lon="7.24225">
        <ele>404</ele>
        <time>2012-03-03T14:14:31Z</time>
      </trkpt>
      <trkpt lat="47.57261" lon="7.24237">
        <ele>401</ele>
        <time>2012-03-03T14:14:32Z</time>
      </trkpt>
      <trkpt lat="47.57262" lon="7.24249">
        <ele>401</ele>
        <time>2012-03-03T14:14:33Z</time>
      </trkpt>
      <trkpt lat="47.57265" lon="7.24259">
        <ele>400</ele>
        <time>2012-03-03T14:14:34Z</time>
      </trkpt>
      <trkpt lat="47.57267" lon="7.24267">
        <ele>400</ele>
        <time>2012-03-03T14:14:35Z</time>
      </trkpt>
      <trkpt lat="47.5727" lon="7.24275">
        <ele>399</ele>
        <time>2012-03-03T14:14:36Z</time>
      </trkpt>
      <trkpt lat="47.57277" lon="7.24282">
        <ele>399</ele>
        <time>2012-03-03T14:14:37Z</time>
      </trkpt>
      <trkpt lat="47.57283" lon="7.24289">
        <ele>399</ele>
        <time>2012-03-03T14:14:38Z</time>
      </trkpt>
      <trkpt lat="47.57294" lon="7.24298">
        <ele>399</ele>
        <time>2012-03-03T14:14:39Z</time>
      </trkpt>
      <trkpt lat="47.57305" lon="7.24306">
        <ele>399</ele>
        <time>2012-03-03T14:14:40Z</time>
      </trkpt>
      <trkpt lat="47.57316" lon="7.24314">
        <ele>399</ele>
        <time>2012-03-03T14:14:41Z</time>
      </trkpt>
      <trkpt lat="47.57326" lon="7.24322">
        <ele>400</ele>
        <time>2012-03-03T14:14:42Z</time>
      </trkpt>
      <trkpt lat="47.57336" lon="7.24329">
        <ele>399</ele>
        <time>2012-03-03T14:14:43Z</time>
      </trkpt>
      <trkpt lat="47.57344" lon="7.24334">
        <ele>399</ele>
        <time>2012-03-03T14:14:44Z</time>
      </trkpt>
      <trkpt lat="47.57354" lon="7.24342">
        <ele>399</ele>
        <time>2012-03-03T14:14:45Z</time>
      </trkpt>
      <trkpt lat="47.57364" lon="7.24348">
        <ele>398</ele>
        <time>2012-03-03T14:14:46Z</time>
      </trkpt>
      <trkpt lat="47.57374" lon="7.24355">
        <ele>397</ele>
        <time>2012-03-03T14:14:47Z</time>
      </trkpt>
      <trkpt lat="47.57385" lon="7.24363">
        <ele>397</ele>
        <time>2012-03-03T14:14:48Z</time>
      </trkpt>
      <trkpt lat="47.57394" lon="7.2437">
        <ele>397</ele>
        <time>2012-03-03T14:14:49Z</time>
      </trkpt>
      <trkpt lat="47.57403" lon="7.24378">
        <ele>396</ele>
        <time>2012-03-03T14:14:50Z</time>
      </trkpt>
      <trkpt lat="47.57412" lon="7.24387">
        <ele>396</ele>
        <time>2012-03-03T14:14:51Z</time>
      </trkpt>
      <trkpt lat="47.57422" lon="7.24396">
        <ele>396</ele>
        <time>2012-03-03T14:14:52Z</time>
      </trkpt>
      <trkpt lat="47.57431" lon="7.24406">
        <ele>396</ele>
        <time>2012-03-03T14:14:53Z</time>
      </trkpt>
      <trkpt lat="47.57439" lon="7.24416">
        <ele>396</ele>
        <time>2012-03-03T14:14:54Z</time>
      </trkpt>
      <trkpt lat="47.57448" lon="7.24426">
        <ele>396</ele>
        <time>2012-03-03T14:14:55Z</time>
      </trkpt>
      <trkpt lat="47.57466" lon="7.24449">
        <ele>396</ele>
        <time>2012-03-03T14:14:57Z</time>
      </trkpt>
      <trkpt lat="47.57476" lon="7.24459">
        <ele>395</ele>
        <time>2012-03-03T14:14:58Z</time>
      </trkpt>
      <trkpt lat="47.57484" lon="7.24473">
        <ele>395</ele>
        <time>2012-03-03T14:14:59Z</time>
      </trkpt>
      <trkpt lat="47.57492" lon="7.24486">
        <ele>394</ele>
        <time>2012-03-03T14:15:00Z</time>
      </trkpt>
      <trkpt lat="47.575" lon="7.24498">
        <ele>393</ele>
        <time>2012-03-03T14:15:01Z</time>
      </trkpt>
      <trkpt lat="47.57509" lon="7.24508">
        <ele>393</ele>
        <time>2012-03-03T14:15:02Z</time>
      </trkpt>
      <trkpt lat="47.57518" lon="7.24521">
        <ele>393</ele>
        <time>2012-03-03T14:15:03Z</time>
      </trkpt>
      <trkpt lat="47.57527" lon="7.24532">
        <ele>393</ele>
        <time>2012-03-03T14:15:04Z</time>
      </trkpt>
      <trkpt lat="47.57537" lon="7.24545">
        <ele>392</ele>
        <time>2012-03-03T14:15:05Z</time>
      </trkpt>
      <trkpt lat="47.57547" lon="7.24558">
        <ele>392</ele>
        <time>2012-03-03T14:15:06Z</time>
      </trkpt>
      <trkpt lat="47.57559" lon="7.2457">
        <ele>392</ele>
        <time>2012-03-03T14:15:07Z</time>
      </trkpt>
      <trkpt lat="47.57573" lon="7.24584">
        <ele>391</ele>
        <time>2012-03-03T14:15:08Z</time>
      </trkpt>
      <trkpt lat="47.57588" lon="7.24597">
        <ele>391</ele>
        <time>2012-03-03T14:15:09Z</time>
      </trkpt>
      <trkpt lat="47.57603" lon="7.24609">
        <ele>390</ele>
        <time>2012-03-03T14:15:10Z</time>
      </trkpt>
      <trkpt lat="47.57621" lon="7.24622">
        <ele>390</ele>
        <time>2012-03-03T14:15:11Z</time>
      </trkpt>
      <trkpt lat="47.57638" lon="7.24636">
        <ele>389</ele>
        <time>2012-03-03T14:15:12Z</time>
      </trkpt>
      <trkpt lat="47.57657" lon="7.24646">
        <ele>389</ele>
        <time>2012-03-03T14:15:13Z</time>
      </trkpt>
      <trkpt lat="47.57673" lon="7.24658">
        <ele>389</ele>
        <time>2012-03-03T14:15:14Z</time>
      </trkpt>
      <trkpt lat="47.5769" lon="7.24669">
        <ele>389</ele>
        <time>2012-03-03T14:15:15Z</time>
      </trkpt>
      <trkpt lat="47.57706" lon="7.24679">
        <ele>389</ele>
        <time>2012-03-03T14:15:16Z</time>
      </trkpt>
      <trkpt lat="47.57724" lon="7.24689">
        <ele>388</ele>
        <time>2012-03-03T14:15:17Z</time>
      </trkpt>
      <trkpt lat="47.5774" lon="7.24698">
        <ele>389</ele>
        <time>2012-03-03T14:15:18Z</time>
      </trkpt>
      <trkpt lat="47.57757" lon="7.24708">
        <ele>390</ele>
        <time>2012-03-03T14:15:19Z</time>
      </trkpt>
      <trkpt lat="47.57772" lon="7.24717">
        <ele>390</ele>
        <time>2012-03-03T14:15:20Z</time>
      </trkpt>
      <trkpt lat="47.57785" lon="7.24724">
        <ele>389</ele>
        <time>2012-03-03T14:15:21Z</time>
      </trkpt>
      <trkpt lat="47.578" lon="7.24732">
        <ele>389</ele>
        <time>2012-03-03T14:15:22Z</time>
      </trkpt>
      <trkpt lat="47.57814" lon="7.24741">
        <ele>389</ele>
        <time>2012-03-03T14:15:23Z</time>
      </trkpt>
      <trkpt lat="47.57828" lon="7.24747">
        <ele>389</ele>
        <time>2012-03-03T14:15:24Z</time>
      </trkpt>
      <trkpt lat="47.57842" lon="7.24752">
        <ele>389</ele>
        <time>2012-03-03T14:15:25Z</time>
      </trkpt>
      <trkpt lat="47.57855" lon="7.24755">
        <ele>388</ele>
        <time>2012-03-03T14:15:26Z</time>
      </trkpt>
      <trkpt lat="47.57872" lon="7.24756">
        <ele>389</ele>
        <time>2012-03-03T14:15:27Z</time>
      </trkpt>
      <trkpt lat="47.57887" lon="7.24756">
        <ele>389</ele>
        <time>2012-03-03T14:15:28Z</time>
      </trkpt>
      <trkpt lat="47.57902" lon="7.24755">
        <ele>388</ele>
        <time>2012-03-03T14:15:29Z</time>
      </trkpt>
      <trkpt lat="47.57918" lon="7.24754">
        <ele>388</ele>
        <time>2012-03-03T14:15:30Z</time>
      </trkpt>
      <trkpt lat="47.57932" lon="7.24752">
        <ele>388</ele>
        <time>2012-03-03T14:15:31Z</time>
      </trkpt>
      <trkpt lat="47.57945" lon="7.24752">
        <ele>388</ele>
        <time>2012-03-03T14:15:32Z</time>
      </trkpt>
      <trkpt lat="47.57958" lon="7.2475">
        <ele>388</ele>
        <time>2012-03-03T14:15:33Z</time>
      </trkpt>
      <trkpt lat="47.5797" lon="7.2475">
        <ele>388</ele>
        <time>2012-03-03T14:15:34Z</time>
      </trkpt>
      <trkpt lat="47.57983" lon="7.24748">
        <ele>387</ele>
        <time>2012-03-03T14:15:35Z</time>
      </trkpt>
      <trkpt lat="47.57995" lon="7.24748">
        <ele>386</ele>
        <time>2012-03-03T14:15:36Z</time>
      </trkpt>
      <trkpt lat="47.58006" lon="7.24749">
        <ele>386</ele>
        <time>2012-03-03T14:15:37Z</time>
      </trkpt>
      <trkpt lat="47.58019" lon="7.24747">
        <ele>385</ele>
        <time>2012-03-03T14:15:38Z</time>
      </trkpt>
      <trkpt lat="47.58032" lon="7.24746">
        <ele>386</ele>
        <time>2012-03-03T14:15:39Z</time>
      </trkpt>
      <trkpt lat="47.58045" lon="7.24746">
        <ele>386</ele>
        <time>2012-03-03T14:15:40Z</time>
      </trkpt>
      <trkpt lat="47.58057" lon="7.24744">
        <ele>386</ele>
        <time>2012-03-03T14:15:41Z</time>
      </trkpt>
      <trkpt lat="47.5807" lon="7.24742">
        <ele>386</ele>
        <time>2012-03-03T14:15:42Z</time>
      </trkpt>
      <trkpt lat="47.58083" lon="7.24744">
        <ele>386</ele>
        <time>2012-03-03T14:15:43Z</time>
      </trkpt>
      <trkpt lat="47.58096" lon="7.24745">
        <ele>386</ele>
        <time>2012-03-03T14:15:44Z</time>
      </trkpt>
      <trkpt lat="47.58106" lon="7.2475">
        <ele>386</ele>
        <time>2012-03-03T14:15:45Z</time>
      </trkpt>
      <trkpt lat="47.58119" lon="7.24756">
        <ele>386</ele>
        <time>2012-03-03T14:15:46Z</time>
      </trkpt>
      <trkpt lat="47.58129" lon="7.24761">
        <ele>387</ele>
        <time>2012-03-03T14:15:47Z</time>
      </trkpt>
      <trkpt lat="47.5814" lon="7.24766">
        <ele>387</ele>
        <time>2012-03-03T14:15:48Z</time>
      </trkpt>
      <trkpt lat="47.5815" lon="7.2477">
        <ele>386</ele>
        <time>2012-03-03T14:15:49Z</time>
      </trkpt>
      <trkpt lat="47.58161" lon="7.24776">
        <ele>386</ele>
        <time>2012-03-03T14:15:50Z</time>
      </trkpt>
      <trkpt lat="47.58171" lon="7.24781">
        <ele>386</ele>
        <time>2012-03-03T14:15:51Z</time>
      </trkpt>
      <trkpt lat="47.58182" lon="7.24786">
        <ele>386</ele>
        <time>2012-03-03T14:15:52Z</time>
      </trkpt>
      <trkpt lat="47.58193" lon="7.24789">
        <ele>385</ele>
        <time>2012-03-03T14:15:53Z</time>
      </trkpt>
      <trkpt lat="47.58204" lon="7.24789">
        <ele>385</ele>
        <time>2012-03-03T14:15:54Z</time>
      </trkpt>
      <trkpt lat="47.58216" lon="7.24788">
        <ele>385</ele>
        <time>2012-03-03T14:15:55Z</time>
      </trkpt>
      <trkpt lat="47.58239" lon="7.2478">
        <ele>386</ele>
        <time>2012-03-03T14:15:57Z</time>
      </trkpt>
      <trkpt lat="47.5825" lon="7.24777">
        <ele>386</ele>
        <time>2012-03-03T14:15:58Z</time>
      </trkpt>
      <trkpt lat="47.58261" lon="7.24772">
        <ele>386</ele>
        <time>2012-03-03T14:15:59Z</time>
      </trkpt>
      <trkpt lat="47.58272" lon="7.24768">
        <ele>385</ele>
        <time>2012-03-03T14:16:00Z</time>
      </trkpt>
      <trkpt lat="47.58283" lon="7.24766">
        <ele>385</ele>
        <time>2012-03-03T14:16:01Z</time>
      </trkpt>
      <trkpt lat="47.58294" lon="7.24765">
        <ele>385</ele>
        <time>2012-03-03T14:16:02Z</time>
      </trkpt>
      <trkpt lat="47.58303" lon="7.24765">
        <ele>384</ele>
        <time>2012-03-03T14:16:03Z</time>
      </trkpt>
      <trkpt lat="47.58313" lon="7.24767">
        <ele>384</ele>
        <time>2012-03-03T14:16:04Z</time>
      </trkpt>
      <trkpt lat="47.58324" lon="7.24776">
        <ele>384</ele>
        <time>2012-03-03T14:16:05Z</time>
      </trkpt>
      <trkpt lat="47.58333" lon="7.24788">
        <ele>384</ele>
        <time>2012-03-03T14:16:06Z</time>
      </trkpt>
      <trkpt lat="47.58344" lon="7.24802">
        <ele>384</ele>
        <time>2012-03-03T14:16:07Z</time>
      </trkpt>
      <trkpt lat="47.58354" lon="7.24813">
        <ele>384</ele>
        <time>2012-03-03T14:16:08Z</time>
      </trkpt>
      <trkpt lat="47.58365" lon="7.24825">
        <ele>383</ele>
        <time>2012-03-03T14:16:09Z</time>
      </trkpt>
      <trkpt lat="47.58376" lon="7.24836">
        <ele>384</ele>
        <time>2012-03-03T14:16:10Z</time>
      </trkpt>
      <trkpt lat="47.58382" lon="7.24852">
        <ele>382</ele>
        <time>2012-03-03T14:16:11Z</time>
      </trkpt>
      <trkpt lat="47.58382" lon="7.24871">
        <ele>381</ele>
        <time>2012-03-03T14:16:12Z</time>
      </trkpt>
      <trkpt lat="47.58381" lon="7.2489">
        <ele>381</ele>
        <time>2012-03-03T14:16:13Z</time>
      </trkpt>
      <trkpt lat="47.58382" lon="7.24907">
        <ele>381</ele>
        <time>2012-03-03T14:16:14Z</time>
      </trkpt>
      <trkpt lat="47.58386" lon="7.24926">
        <ele>381</ele>
        <time>2012-03-03T14:16:15Z</time>
      </trkpt>
      <trkpt lat="47.5839" lon="7.24944">
        <ele>380</ele>
        <time>2012-03-03T14:16:16Z</time>
      </trkpt>
      <trkpt lat="47.58394" lon="7.24959">
        <ele>380</ele>
        <time>2012-03-03T14:16:17Z</time>
      </trkpt>
      <trkpt lat="47.584" lon="7.24974">
        <ele>380</ele>
        <time>2012-03-03T14:16:18Z</time>
      </trkpt>
      <trkpt lat="47.58404" lon="7.24989">
        <ele>380</ele>
        <time>2012-03-03T14:16:19Z</time>
      </trkpt>
      <trkpt lat="47.58408" lon="7.25002">
        <ele>380</ele>
        <time>2012-03-03T14:16:20Z</time>
      </trkpt>
      <trkpt lat="47.58411" lon="7.25018">
        <ele>379</ele>
        <time>2012-03-03T14:16:21Z</time>
      </trkpt>
      <trkpt lat="47.58415" lon="7.25032">
        <ele>379</ele>
        <time>2012-03-03T14:16:22Z</time>
      </trkpt>
      <trkpt lat="47.58418" lon="7.25046">
        <ele>379</ele>
        <time>2012-03-03T14:16:23Z</time>
      </trkpt>
      <trkpt lat="47.58425" lon="7.25059">
        <ele>379</ele>
        <time>2012-03-03T14:16:09Z</time>
      </trkpt>
      <trkpt lat="47.58431" lon="7.2507">
        <ele>378</ele>
        <time>2012-03-03T14:16:10Z</time>
      </trkpt>
      <trkpt lat="47.58436" lon="7.25082">
        <ele>379</ele>
        <time>2012-03-03T14:16:11Z</time>
      </trkpt>
      <trkpt lat="47.5844" lon="7.25092">
        <ele>378</ele>
        <time>2012-03-03T14:16:12Z</time>
      </trkpt>
      <trkpt lat="47.58446" lon="7.25103">
        <ele>378</ele>
        <time>2012-03-03T14:16:13Z</time>
      </trkpt>
      <trkpt lat="47.58451" lon="7.25113">
        <ele>378</ele>
        <time>2012-03-03T14:16:14Z</time>
      </trkpt>
      <trkpt lat="47.58456" lon="7.25122">
        <ele>378</ele>
        <time>2012-03-03T14:16:15Z</time>
      </trkpt>
      <trkpt lat="47.58461" lon="7.25135">
        <ele>378</ele>
        <time>2012-03-03T14:16:16Z</time>
      </trkpt>
      <trkpt lat="47.58466" lon="7.25149">
        <ele>377</ele>
        <time>2012-03-03T14:16:17Z</time>
      </trkpt>
      <trkpt lat="47.58474" lon="7.25162">
        <ele>377</ele>
        <time>2012-03-03T14:16:18Z</time>
      </trkpt>
      <trkpt lat="47.58478" lon="7.25175">
        <ele>377</ele>
        <time>2012-03-03T14:16:19Z</time>
      </trkpt>
      <trkpt lat="47.58483" lon="7.25188">
        <ele>377</ele>
        <time>2012-03-03T14:16:20Z</time>
      </trkpt>
      <trkpt lat="47.58488" lon="7.25201">
        <ele>378</ele>
        <time>2012-03-03T14:16:21Z</time>
      </trkpt>
      <trkpt lat="47.58492" lon="7.25215">
        <ele>377</ele>
        <time>2012-03-03T14:16:22Z</time>
      </trkpt>
      <trkpt lat="47.58497" lon="7.25226">
        <ele>377</ele>
        <time>2012-03-03T14:16:23Z</time>
      </trkpt>
      <trkpt lat="47.58501" lon="7.2524">
        <ele>377</ele>
        <time>2012-03-03T14:16:24Z</time>
      </trkpt>
      <trkpt lat="47.58504" lon="7.25255">
        <ele>378</ele>
        <time>2012-03-03T14:16:25Z</time>
      </trkpt>
      <trkpt lat="47.58509" lon="7.25268">
        <ele>378</ele>
        <time>2012-03-03T14:16:26Z</time>
      </trkpt>
      <trkpt lat="47.58513" lon="7.25282">
        <ele>377</ele>
        <time>2012-03-03T14:16:27Z</time>
      </trkpt>
      <trkpt lat="47.58518" lon="7.25294">
        <ele>377</ele>
        <time>2012-03-03T14:16:28Z</time>
      </trkpt>
      <trkpt lat="47.58525" lon="7.25307">
        <ele>378</ele>
        <time>2012-03-03T14:16:29Z</time>
      </trkpt>
      <trkpt lat="47.5853" lon="7.25321">
        <ele>377</ele>
        <time>2012-03-03T14:16:30Z</time>
      </trkpt>
      <trkpt lat="47.58534" lon="7.25333">
        <ele>377</ele>
        <time>2012-03-03T14:16:31Z</time>
      </trkpt>
      <trkpt lat="47.58539" lon="7.25348">
        <ele>377</ele>
        <time>2012-03-03T14:16:32Z</time>
      </trkpt>
      <trkpt lat="47.58544" lon="7.25362">
        <ele>377</ele>
        <time>2012-03-03T14:16:33Z</time>
      </trkpt>
      <trkpt lat="47.58549" lon="7.25375">
        <ele>377</ele>
        <time>2012-03-03T14:16:34Z</time>
      </trkpt>
      <trkpt lat="47.58556" lon="7.25387">
        <ele>377</ele>
        <time>2012-03-03T14:16:35Z</time>
      </trkpt>
      <trkpt lat="47.58563" lon="7.254">
        <ele>376</ele>
        <time>2012-03-03T14:16:36Z</time>
      </trkpt>
      <trkpt lat="47.58569" lon="7.25413">
        <ele>377</ele>
        <time>2012-03-03T14:16:37Z</time>
      </trkpt>
      <trkpt lat="47.58575" lon="7.25424">
        <ele>376</ele>
        <time>2012-03-03T14:16:38Z</time>
      </trkpt>
      <trkpt lat="47.58579" lon="7.25436">
        <ele>376</ele>
        <time>2012-03-03T14:16:39Z</time>
      </trkpt>
      <trkpt lat="47.58585" lon="7.25447">
        <ele>376</ele>
        <time>2012-03-03T14:16:40Z</time>
      </trkpt>
      <trkpt lat="47.5859" lon="7.25458">
        <ele>376</ele>
        <time>2012-03-03T14:16:41Z</time>
      </trkpt>
      <trkpt lat="47.58592" lon="7.25467">
        <ele>375</ele>
        <time>2012-03-03T14:16:42Z</time>
      </trkpt>
      <trkpt lat="47.58595" lon="7.25476">
        <ele>375</ele>
        <time>2012-03-03T14:16:43Z</time>
      </trkpt>
      <trkpt lat="47.586" lon="7.25484">
        <ele>375</ele>
        <time>2012-03-03T14:16:44Z</time>
      </trkpt>
      <trkpt lat="47.58602" lon="7.25494">
        <ele>375</ele>
        <time>2012-03-03T14:16:45Z</time>
      </trkpt>
      <trkpt lat="47.58607" lon="7.25503">
        <ele>375</ele>
        <time>2012-03-03T14:16:46Z</time>
      </trkpt>
      <trkpt lat="47.5861" lon="7.25512">
        <ele>375</ele>
        <time>2012-03-03T14:16:47Z</time>
      </trkpt>
      <trkpt lat="47.58612" lon="7.25524">
        <ele>375</ele>
        <time>2012-03-03T14:16:48Z</time>
      </trkpt>
      <trkpt lat="47.58616" lon="7.25533">
        <ele>375</ele>
        <time>2012-03-03T14:16:49Z</time>
      </trkpt>
      <trkpt lat="47.58618" lon="7.25542">
        <ele>375</ele>
        <time>2012-03-03T14:16:50Z</time>
      </trkpt>
      <trkpt lat="47.58623" lon="7.25548">
        <ele>375</ele>
        <time>2012-03-03T14:16:51Z</time>
      </trkpt>
      <trkpt lat="47.58628" lon="7.25554">
        <ele>374</ele>
        <time>2012-03-03T14:16:52Z</time>
      </trkpt>
      <trkpt lat="47.58632" lon="7.25557">
        <ele>374</ele>
        <time>2012-03-03T14:16:53Z</time>
      </trkpt>
      <trkpt lat="47.58638" lon="7.25557">
        <ele>374</ele>
        <time>2012-03-03T14:16:54Z</time>
      </trkpt>
      <trkpt lat="47.58643" lon="7.25554">
        <ele>374</ele>
        <time>2012-03-03T14:16:55Z</time>
      </trkpt>
      <trkpt lat="47.58651" lon="7.2555">
        <ele>374</ele>
        <time>2012-03-03T14:16:56Z</time>
      </trkpt>
      <trkpt lat="47.58659" lon="7.25544">
        <ele>373</ele>
        <time>2012-03-03T14:16:57Z</time>
      </trkpt>
      <trkpt lat="47.58668" lon="7.25538">
        <ele>373</ele>
        <time>2012-03-03T14:16:58Z</time>
      </trkpt>
      <trkpt lat="47.58675" lon="7.25532">
        <ele>373</ele>
        <time>2012-03-03T14:16:59Z</time>
      </trkpt>
      <trkpt lat="47.58684" lon="7.25525">
        <ele>374</ele>
        <time>2012-03-03T14:17:00Z</time>
      </trkpt>
      <trkpt lat="47.5869" lon="7.2552">
        <ele>373</ele>
        <time>2012-03-03T14:17:01Z</time>
      </trkpt>
      <trkpt lat="47.58698" lon="7.25514">
        <ele>373</ele>
        <time>2012-03-03T14:17:02Z</time>
      </trkpt>
      <trkpt lat="47.58705" lon="7.25508">
        <ele>373</ele>
        <time>2012-03-03T14:17:03Z</time>
      </trkpt>
      <trkpt lat="47.58714" lon="7.255">
        <ele>374</ele>
        <time>2012-03-03T14:17:04Z</time>
      </trkpt>
      <trkpt lat="47.58719" lon="7.25492">
        <ele>374</ele>
        <time>2012-03-03T14:17:05Z</time>
      </trkpt>
      <trkpt lat="47.58726" lon="7.25481">
        <ele>373</ele>
        <time>2012-03-03T14:17:06Z</time>
      </trkpt>
      <trkpt lat="47.58737" lon="7.25473">
        <ele>374</ele>
        <time>2012-03-03T14:17:07Z</time>
      </trkpt>
      <trkpt lat="47.58746" lon="7.25462">
        <ele>373</ele>
        <time>2012-03-03T14:17:08Z</time>
      </trkpt>
      <trkpt lat="47.58755" lon="7.25454">
        <ele>374</ele>
        <time>2012-03-03T14:17:09Z</time>
      </trkpt>
      <trkpt lat="47.58763" lon="7.25445">
        <ele>374</ele>
        <time>2012-03-03T14:17:10Z</time>
      </trkpt>
      <trkpt lat="47.5877" lon="7.25436">
        <ele>374</ele>
        <time>2012-03-03T14:17:11Z</time>
      </trkpt>
      <trkpt lat="47.58778" lon="7.25428">
        <ele>374</ele>
        <time>2012-03-03T14:17:12Z</time>
      </trkpt>
      <trkpt lat="47.58786" lon="7.25419">
        <ele>374</ele>
        <time>2012-03-03T14:17:13Z</time>
      </trkpt>
      <trkpt lat="47.58793" lon="7.25412">
        <ele>373</ele>
        <time>2012-03-03T14:17:14Z</time>
      </trkpt>
      <trkpt lat="47.58799" lon="7.25404">
        <ele>374</ele>
        <time>2012-03-03T14:17:15Z</time>
      </trkpt>
      <trkpt lat="47.58806" lon="7.25398">
        <ele>374</ele>
        <time>2012-03-03T14:17:16Z</time>
      </trkpt>
      <trkpt lat="47.58813" lon="7.25389">
        <ele>373</ele>
        <time>2012-03-03T14:17:17Z</time>
      </trkpt>
      <trkpt lat="47.5882" lon="7.25382">
        <ele>374</ele>
        <time>2012-03-03T14:17:18Z</time>
      </trkpt>
      <trkpt lat="47.58826" lon="7.25373">
        <ele>373</ele>
        <time>2012-03-03T14:17:19Z</time>
      </trkpt>
      <trkpt lat="47.58834" lon="7.25363">
        <ele>373</ele>
        <time>2012-03-03T14:17:20Z</time>
      </trkpt>
      <trkpt lat="47.58843" lon="7.25354">
        <ele>374</ele>
        <time>2012-03-03T14:17:21Z</time>
      </trkpt>
      <trkpt lat="47.58851" lon="7.25344">
        <ele>373</ele>
        <time>2012-03-03T14:17:22Z</time>
      </trkpt>
      <trkpt lat="47.58857" lon="7.25336">
        <ele>373</ele>
        <time>2012-03-03T14:17:23Z</time>
      </trkpt>
      <trkpt lat="47.58864" lon="7.25329">
        <ele>374</ele>
        <time>2012-03-03T14:17:24Z</time>
      </trkpt>
      <trkpt lat="47.58871" lon="7.25323">
        <ele>374</ele>
        <time>2012-03-03T14:17:25Z</time>
      </trkpt>
      <trkpt lat="47.58878" lon="7.25324">
        <ele>374</ele>
        <time>2012-03-03T14:17:26Z</time>
      </trkpt>
      <trkpt lat="47.58885" lon="7.25321">
        <ele>375</ele>
        <time>2012-03-03T14:17:27Z</time>
      </trkpt>
      <trkpt lat="47.58898" lon="7.25335">
        <ele>376</ele>
        <time>2012-03-03T14:17:28Z</time>
      </trkpt>
      <trkpt lat="47.58908" lon="7.25351">
        <ele>376</ele>
        <time>2012-03-03T14:17:29Z</time>
      </trkpt>
      <trkpt lat="47.58916" lon="7.25366">
        <ele>375</ele>
        <time>2012-03-03T14:17:30Z</time>
      </trkpt>
      <trkpt lat="47.58923" lon="7.25378">
        <ele>376</ele>
        <time>2012-03-03T14:17:31Z</time>
      </trkpt>
      <trkpt lat="47.5893" lon="7.2539">
        <ele>375</ele>
        <time>2012-03-03T14:17:32Z</time>
      </trkpt>
      <trkpt lat="47.58937" lon="7.25404">
        <ele>376</ele>
        <time>2012-03-03T14:17:33Z</time>
      </trkpt>
      <trkpt lat="47.58946" lon="7.25416">
        <ele>376</ele>
        <time>2012-03-03T14:17:34Z</time>
      </trkpt>
      <trkpt lat="47.58956" lon="7.25426">
        <ele>377</ele>
        <time>2012-03-03T14:17:35Z</time>
      </trkpt>
      <trkpt lat="47.58966" lon="7.25439">
        <ele>376</ele>
        <time>2012-03-03T14:17:36Z</time>
      </trkpt>
      <trkpt lat="47.58975" lon="7.25449">
        <ele>376</ele>
        <time>2012-03-03T14:17:37Z</time>
      </trkpt>
      <trkpt lat="47.58986" lon="7.25454">
        <ele>377</ele>
        <time>2012-03-03T14:17:38Z</time>
      </trkpt>
      <trkpt lat="47.58997" lon="7.25458">
        <ele>377</ele>
        <time>2012-03-03T14:17:39Z</time>
      </trkpt>
      <trkpt lat="47.59007" lon="7.25464">
        <ele>377</ele>
        <time>2012-03-03T14:17:40Z</time>
      </trkpt>
      <trkpt lat="47.59027" lon="7.25473">
        <ele>377</ele>
        <time>2012-03-03T14:17:42Z</time>
      </trkpt>
      <trkpt lat="47.59035" lon="7.25475">
        <ele>377</ele>
        <time>2012-03-03T14:17:43Z</time>
      </trkpt>
      <trkpt lat="47.59046" lon="7.25473">
        <ele>378</ele>
        <time>2012-03-03T14:17:44Z</time>
      </trkpt>
      <trkpt lat="47.59058" lon="7.25466">
        <ele>378</ele>
        <time>2012-03-03T14:17:45Z</time>
      </trkpt>
      <trkpt lat="47.59071" lon="7.25459">
        <ele>379</ele>
        <time>2012-03-03T14:17:46Z</time>
      </trkpt>
      <trkpt lat="47.59082" lon="7.25452">
        <ele>379</ele>
        <time>2012-03-03T14:17:47Z</time>
      </trkpt>
      <trkpt lat="47.59092" lon="7.25444">
        <ele>379</ele>
        <time>2012-03-03T14:17:48Z</time>
      </trkpt>
      <trkpt lat="47.59102" lon="7.25436">
        <ele>378</ele>
        <time>2012-03-03T14:17:49Z</time>
      </trkpt>
      <trkpt lat="47.59117" lon="7.25424">
        <ele>378</ele>
        <time>2012-03-03T14:17:50Z</time>
      </trkpt>
      <trkpt lat="47.5913" lon="7.25412">
        <ele>378</ele>
        <time>2012-03-03T14:17:51Z</time>
      </trkpt>
      <trkpt lat="47.59143" lon="7.25399">
        <ele>378</ele>
        <time>2012-03-03T14:17:52Z</time>
      </trkpt>
      <trkpt lat="47.59156" lon="7.25387">
        <ele>379</ele>
        <time>2012-03-03T14:17:53Z</time>
      </trkpt>
      <trkpt lat="47.59167" lon="7.25373">
        <ele>378</ele>
        <time>2012-03-03T14:17:54Z</time>
      </trkpt>
      <trkpt lat="47.59179" lon="7.25359">
        <ele>379</ele>
        <time>2012-03-03T14:17:55Z</time>
      </trkpt>
      <trkpt lat="47.5919" lon="7.25345">
        <ele>379</ele>
        <time>2012-03-03T14:17:56Z</time>
      </trkpt>
      <trkpt lat="47.59201" lon="7.25331">
        <ele>379</ele>
        <time>2012-03-03T14:17:57Z</time>
      </trkpt>
      <trkpt lat="47.59211" lon="7.25316">
        <ele>378</ele>
        <time>2012-03-03T14:17:58Z</time>
      </trkpt>
      <trkpt lat="47.59222" lon="7.25302">
        <ele>379</ele>
        <time>2012-03-03T14:17:59Z</time>
      </trkpt>
      <trkpt lat="47.59232" lon="7.25288">
        <ele>379</ele>
        <time>2012-03-03T14:18:00Z</time>
      </trkpt>
      <trkpt lat="47.59242" lon="7.25272">
        <ele>379</ele>
        <time>2012-03-03T14:18:01Z</time>
      </trkpt>
      <trkpt lat="47.59253" lon="7.25258">
        <ele>379</ele>
        <time>2012-03-03T14:18:02Z</time>
      </trkpt>
      <trkpt lat="47.59264" lon="7.25242">
        <ele>378</ele>
        <time>2012-03-03T14:18:03Z</time>
      </trkpt>
      <trkpt lat="47.59275" lon="7.25225">
        <ele>379</ele>
        <time>2012-03-03T14:18:04Z</time>
      </trkpt>
      <trkpt lat="47.59284" lon="7.25207">
        <ele>378</ele>
        <time>2012-03-03T14:18:05Z</time>
      </trkpt>
      <trkpt lat="47.59294" lon="7.25189">
        <ele>378</ele>
        <time>2012-03-03T14:18:06Z</time>
      </trkpt>
      <trkpt lat="47.59302" lon="7.25171">
        <ele>378</ele>
        <time>2012-03-03T14:18:07Z</time>
      </trkpt>
      <trkpt lat="47.59314" lon="7.2515">
        <ele>378</ele>
        <time>2012-03-03T14:18:08Z</time>
      </trkpt>
      <trkpt lat="47.59324" lon="7.25131">
        <ele>378</ele>
        <time>2012-03-03T14:18:09Z</time>
      </trkpt>
      <trkpt lat="47.59332" lon="7.2511">
        <ele>377</ele>
        <time>2012-03-03T14:18:10Z</time>
      </trkpt>
      <trkpt lat="47.59341" lon="7.25091">
        <ele>377</ele>
        <time>2012-03-03T14:18:11Z</time>
      </trkpt>
      <trkpt lat="47.59349" lon="7.25069">
        <ele>376</ele>
        <time>2012-03-03T14:18:12Z</time>
      </trkpt>
      <trkpt lat="47.59357" lon="7.25046">
        <ele>376</ele>
        <time>2012-03-03T14:18:13Z</time>
      </trkpt>
      <trkpt lat="47.59364" lon="7.25021">
        <ele>376</ele>
        <time>2012-03-03T14:18:14Z</time>
      </trkpt>
      <trkpt lat="47.59368" lon="7.24998">
        <ele>376</ele>
        <time>2012-03-03T14:18:15Z</time>
      </trkpt>
      <trkpt lat="47.59375" lon="7.24973">
        <ele>375</ele>
        <time>2012-03-03T14:18:16Z</time>
      </trkpt>
      <trkpt lat="47.59385" lon="7.24948">
        <ele>375</ele>
        <time>2012-03-03T14:18:17Z</time>
      </trkpt>
      <trkpt lat="47.59389" lon="7.24925">
        <ele>375</ele>
        <time>2012-03-03T14:18:18Z</time>
      </trkpt>
      <trkpt lat="47.59394" lon="7.24901">
        <ele>375</ele>
        <time>2012-03-03T14:18:19Z</time>
      </trkpt>
      <trkpt lat="47.59402" lon="7.24877">
        <ele>375</ele>
        <time>2012-03-03T14:18:20Z</time>
      </trkpt>
      <trkpt lat="47.59411" lon="7.24854">
        <ele>376</ele>
        <time>2012-03-03T14:18:21Z</time>
      </trkpt>
      <trkpt lat="47.5942" lon="7.24831">
        <ele>376</ele>
        <time>2012-03-03T14:18:22Z</time>
      </trkpt>
      <trkpt lat="47.59426" lon="7.24808">
        <ele>376</ele>
        <time>2012-03-03T14:18:23Z</time>
      </trkpt>
      <trkpt lat="47.59435" lon="7.24783">
        <ele>376</ele>
        <time>2012-03-03T14:18:24Z</time>
      </trkpt>
      <trkpt lat="47.59441" lon="7.24755">
        <ele>375</ele>
        <time>2012-03-03T14:18:25Z</time>
      </trkpt>
      <trkpt lat="47.59448" lon="7.24728">
        <ele>375</ele>
        <time>2012-03-03T14:18:26Z</time>
      </trkpt>
      <trkpt lat="47.59453" lon="7.24702">
        <ele>376</ele>
        <time>2012-03-03T14:18:27Z</time>
      </trkpt>
      <trkpt lat="47.59461" lon="7.24671">
        <ele>376</ele>
        <time>2012-03-03T14:18:28Z</time>
      </trkpt>
      <trkpt lat="47.59468" lon="7.24642">
        <ele>376</ele>
        <time>2012-03-03T14:18:29Z</time>
      </trkpt>
      <trkpt lat="47.59475" lon="7.2461">
        <ele>376</ele>
        <time>2012-03-03T14:18:30Z</time>
      </trkpt>
      <trkpt lat="47.5948" lon="7.2458">
        <ele>376</ele>
        <time>2012-03-03T14:18:31Z</time>
      </trkpt>
      <trkpt lat="47.59484" lon="7.24548">
        <ele>376</ele>
        <time>2012-03-03T14:18:32Z</time>
      </trkpt>
      <trkpt lat="47.59488" lon="7.24515">
        <ele>376</ele>
        <time>2012-03-03T14:18:33Z</time>
      </trkpt>
      <trkpt lat="47.59493" lon="7.24483">
        <ele>376</ele>
        <time>2012-03-03T14:18:34Z</time>
      </trkpt>
      <trkpt lat="47.59494" lon="7.2445">
        <ele>375</ele>
        <time>2012-03-03T14:18:35Z</time>
      </trkpt>
      <trkpt lat="47.59498" lon="7.24418">
        <ele>375</ele>
        <time>2012-03-03T14:18:36Z</time>
      </trkpt>
      <trkpt lat="47.59501" lon="7.24388">
        <ele>375</ele>
        <time>2012-03-03T14:18:37Z</time>
      </trkpt>
      <trkpt lat="47.59505" lon="7.2436">
        <ele>374</ele>
        <time>2012-03-03T14:18:38Z</time>
      </trkpt>
      <trkpt lat="47.59512" lon="7.24333">
        <ele>374</ele>
        <time>2012-03-03T14:18:39Z</time>
      </trkpt>
      <trkpt lat="47.5952" lon="7.24299">
        <ele>374</ele>
        <time>2012-03-03T14:18:40Z</time>
      </trkpt>
      <trkpt lat="47.59529" lon="7.24269">
        <ele>374</ele>
        <time>2012-03-03T14:18:41Z</time>
      </trkpt>
      <trkpt lat="47.5954" lon="7.24239">
        <ele>374</ele>
        <time>2012-03-03T14:18:42Z</time>
      </trkpt>
      <trkpt lat="47.59552" lon="7.24206">
        <ele>374</ele>
        <time>2012-03-03T14:18:43Z</time>
      </trkpt>
      <trkpt lat="47.59565" lon="7.24173">
        <ele>373</ele>
        <time>2012-03-03T14:18:44Z</time>
      </trkpt>
      <trkpt lat="47.59576" lon="7.24142">
        <ele>372</ele>
        <time>2012-03-03T14:18:45Z</time>
      </trkpt>
      <trkpt lat="47.59587" lon="7.24108">
        <ele>372</ele>
        <time>2012-03-03T14:18:46Z</time>
      </trkpt>
      <trkpt lat="47.59598" lon="7.24078">
        <ele>372</ele>
        <time>2012-03-03T14:18:47Z</time>
      </trkpt>
      <trkpt lat="47.59609" lon="7.24044">
        <ele>372</ele>
        <time>2012-03-03T14:18:48Z</time>
      </trkpt>
      <trkpt lat="47.5962" lon="7.24012">
        <ele>373</ele>
        <time>2012-03-03T14:18:49Z</time>
      </trkpt>
      <trkpt lat="47.59632" lon="7.23975">
        <ele>373</ele>
        <time>2012-03-03T14:18:50Z</time>
      </trkpt>
      <trkpt lat="47.59645" lon="7.23938">
        <ele>373</ele>
        <time>2012-03-03T14:18:51Z</time>
      </trkpt>
      <trkpt lat="47.59659" lon="7.23901">
        <ele>373</ele>
        <time>2012-03-03T14:18:52Z</time>
      </trkpt>
      <trkpt lat="47.59672" lon="7.23864">
        <ele>373</ele>
        <time>2012-03-03T14:18:53Z</time>
      </trkpt>
      <trkpt lat="47.59684" lon="7.23833">
        <ele>373</ele>
        <time>2012-03-03T14:18:54Z</time>
      </trkpt>
      <trkpt lat="47.59697" lon="7.23805">
        <ele>372</ele>
        <time>2012-03-03T14:18:55Z</time>
      </trkpt>
      <trkpt lat="47.5971" lon="7.23775">
        <ele>372</ele>
        <time>2012-03-03T14:18:56Z</time>
      </trkpt>
      <trkpt lat="47.59723" lon="7.23744">
        <ele>372</ele>
        <time>2012-03-03T14:18:57Z</time>
      </trkpt>
      <trkpt lat="47.59735" lon="7.23715">
        <ele>373</ele>
        <time>2012-03-03T14:18:58Z</time>
      </trkpt>
      <trkpt lat="47.59749" lon="7.23686">
        <ele>373</ele>
        <time>2012-03-03T14:18:59Z</time>
      </trkpt>
      <trkpt lat="47.59763" lon="7.23658">
        <ele>373</ele>
        <time>2012-03-03T14:19:00Z</time>
      </trkpt>
      <trkpt lat="47.5978" lon="7.23631">
        <ele>373</ele>
        <time>2012-03-03T14:19:01Z</time>
      </trkpt>
      <trkpt lat="47.59799" lon="7.23605">
        <ele>374</ele>
        <time>2012-03-03T14:19:02Z</time>
      </trkpt>
      <trkpt lat="47.59815" lon="7.23579">
        <ele>374</ele>
        <time>2012-03-03T14:19:03Z</time>
      </trkpt>
      <trkpt lat="47.59835" lon="7.23553">
        <ele>374</ele>
        <time>2012-03-03T14:19:04Z</time>
      </trkpt>
      <trkpt lat="47.59856" lon="7.23531">
        <ele>374</ele>
        <time>2012-03-03T14:19:05Z</time>
      </trkpt>
      <trkpt lat="47.59881" lon="7.23511">
        <ele>374</ele>
        <time>2012-03-03T14:19:06Z</time>
      </trkpt>
      <trkpt lat="47.59906" lon="7.23494">
        <ele>375</ele>
        <time>2012-03-03T14:19:07Z</time>
      </trkpt>
      <trkpt lat="47.59925" lon="7.23474">
        <ele>375</ele>
        <time>2012-03-03T14:19:08Z</time>
      </trkpt>
      <trkpt lat="47.59946" lon="7.23453">
        <ele>374</ele>
        <time>2012-03-03T14:19:09Z</time>
      </trkpt>
      <trkpt lat="47.59964" lon="7.23434">
        <ele>374</ele>
        <time>2012-03-03T14:19:10Z</time>
      </trkpt>
      <trkpt lat="47.59983" lon="7.23422">
        <ele>375</ele>
        <time>2012-03-03T14:19:11Z</time>
      </trkpt>
      <trkpt lat="47.6" lon="7.23401">
        <ele>375</ele>
        <time>2012-03-03T14:19:12Z</time>
      </trkpt>
      <trkpt lat="47.60016" lon="7.23375">
        <ele>374</ele>
        <time>2012-03-03T14:19:13Z</time>
      </trkpt>
      <trkpt lat="47.60033" lon="7.23351">
        <ele>374</ele>
        <time>2012-03-03T14:19:14Z</time>
      </trkpt>
      <trkpt lat="47.60047" lon="7.23326">
        <ele>374</ele>
        <time>2012-03-03T14:19:15Z</time>
      </trkpt>
      <trkpt lat="47.60063" lon="7.23307">
        <ele>373</ele>
        <time>2012-03-03T14:19:16Z</time>
      </trkpt>
      <trkpt lat="47.60074" lon="7.23282">
        <ele>371</ele>
        <time>2012-03-03T14:19:17Z</time>
      </trkpt>
      <trkpt lat="47.60088" lon="7.23258">
        <ele>371</ele>
        <time>2012-03-03T14:19:18Z</time>
      </trkpt>
      <trkpt lat="47.601" lon="7.23237">
        <ele>370</ele>
        <time>2012-03-03T14:19:19Z</time>
      </trkpt>
      <trkpt lat="47.60114" lon="7.23213">
        <ele>370</ele>
        <time>2012-03-03T14:19:20Z</time>
      </trkpt>
      <trkpt lat="47.60128" lon="7.23193">
        <ele>369</ele>
        <time>2012-03-03T14:19:21Z</time>
      </trkpt>
      <trkpt lat="47.6014" lon="7.23172">
        <ele>369</ele>
        <time>2012-03-03T14:19:22Z</time>
      </trkpt>
      <trkpt lat="47.60153" lon="7.23155">
        <ele>370</ele>
        <time>2012-03-03T14:19:23Z</time>
      </trkpt>
      <trkpt lat="47.60165" lon="7.23138">
        <ele>369</ele>
        <time>2012-03-03T14:19:24Z</time>
      </trkpt>
      <trkpt lat="47.60173" lon="7.23122">
        <ele>369</ele>
        <time>2012-03-03T14:19:25Z</time>
      </trkpt>
      <trkpt lat="47.60183" lon="7.23106">
        <ele>369</ele>
        <time>2012-03-03T14:19:26Z</time>
      </trkpt>
      <trkpt lat="47.60192" lon="7.23092">
        <ele>369</ele>
        <time>2012-03-03T14:19:27Z</time>
      </trkpt>
      <trkpt lat="47.60202" lon="7.2308">
        <ele>368</ele>
        <time>2012-03-03T14:19:28Z</time>
      </trkpt>
      <trkpt lat="47.60211" lon="7.23066">
        <ele>368</ele>
        <time>2012-03-03T14:19:29Z</time>
      </trkpt>
      <trkpt lat="47.60218" lon="7.23051">
        <ele>367</ele>
        <time>2012-03-03T14:19:30Z</time>
      </trkpt>
      <trkpt lat="47.60228" lon="7.23039">
        <ele>366</ele>
        <time>2012-03-03T14:19:31Z</time>
      </trkpt>
      <trkpt lat="47.60236" lon="7.23025">
        <ele>366</ele>
        <time>2012-03-03T14:19:32Z</time>
      </trkpt>
      <trkpt lat="47.60245" lon="7.23011">
        <ele>365</ele>
        <time>2012-03-03T14:19:33Z</time>
      </trkpt>
      <trkpt lat="47.60254" lon="7.22996">
        <ele>366</ele>
        <time>2012-03-03T14:19:34Z</time>
      </trkpt>
      <trkpt lat="47.6026" lon="7.22981">
        <ele>367</ele>
        <time>2012-03-03T14:19:35Z</time>
      </trkpt>
      <trkpt lat="47.6027" lon="7.22965">
        <ele>367</ele>
        <time>2012-03-03T14:19:36Z</time>
      </trkpt>
      <trkpt lat="47.6028" lon="7.22949">
        <ele>366</ele>
        <time>2012-03-03T14:19:37Z</time>
      </trkpt>
      <trkpt lat="47.6029" lon="7.22934">
        <ele>366</ele>
        <time>2012-03-03T14:19:38Z</time>
      </trkpt>
      <trkpt lat="47.60299" lon="7.22918">
        <ele>366</ele>
        <time>2012-03-03T14:19:39Z</time>
      </trkpt>
      <trkpt lat="47.60309" lon="7.22903">
        <ele>365</ele>
        <time>2012-03-03T14:19:40Z</time>
      </trkpt>
      <trkpt lat="47.60329" lon="7.22874">
        <ele>365</ele>
        <time>2012-03-03T14:19:42Z</time>
      </trkpt>
      <trkpt lat="47.60337" lon="7.22861">
        <ele>365</ele>
        <time>2012-03-03T14:19:43Z</time>
      </trkpt>
      <trkpt lat="47.60346" lon="7.22846">
        <ele>365</ele>
        <time>2012-03-03T14:19:44Z</time>
      </trkpt>
      <trkpt lat="47.60356" lon="7.22831">
        <ele>364</ele>
        <time>2012-03-03T14:19:45Z</time>
      </trkpt>
      <trkpt lat="47.60365" lon="7.22816">
        <ele>364</ele>
        <time>2012-03-03T14:19:46Z</time>
      </trkpt>
      <trkpt lat="47.60373" lon="7.22803">
        <ele>365</ele>
        <time>2012-03-03T14:19:47Z</time>
      </trkpt>
      <trkpt lat="47.60381" lon="7.22792">
        <ele>365</ele>
        <time>2012-03-03T14:19:48Z</time>
      </trkpt>
      <trkpt lat="47.60389" lon="7.2278">
        <ele>364</ele>
        <time>2012-03-03T14:19:49Z</time>
      </trkpt>
      <trkpt lat="47.60397" lon="7.22768">
        <ele>363</ele>
        <time>2012-03-03T14:19:50Z</time>
      </trkpt>
      <trkpt lat="47.60403" lon="7.22757">
        <ele>364</ele>
        <time>2012-03-03T14:19:51Z</time>
      </trkpt>
      <trkpt lat="47.60412" lon="7.22744">
        <ele>364</ele>
        <time>2012-03-03T14:19:52Z</time>
      </trkpt>
      <trkpt lat="47.60423" lon="7.22731">
        <ele>364</ele>
        <time>2012-03-03T14:19:53Z</time>
      </trkpt>
      <trkpt lat="47.60431" lon="7.2272">
        <ele>363</ele>
        <time>2012-03-03T14:19:54Z</time>
      </trkpt>
      <trkpt lat="47.60442" lon="7.22708">
        <ele>363</ele>
        <time>2012-03-03T14:19:55Z</time>
      </trkpt>
      <trkpt lat="47.60452" lon="7.22694">
        <ele>363</ele>
        <time>2012-03-03T14:19:56Z</time>
      </trkpt>
      <trkpt lat="47.60461" lon="7.22682">
        <ele>363</ele>
        <time>2012-03-03T14:19:57Z</time>
      </trkpt>
      <trkpt lat="47.60471" lon="7.22668">
        <ele>363</ele>
        <time>2012-03-03T14:19:58Z</time>
      </trkpt>
      <trkpt lat="47.60478" lon="7.22654">
        <ele>362</ele>
        <time>2012-03-03T14:19:59Z</time>
      </trkpt>
      <trkpt lat="47.60488" lon="7.2264">
        <ele>363</ele>
        <time>2012-03-03T14:20:00Z</time>
      </trkpt>
      <trkpt lat="47.60496" lon="7.22626">
        <ele>363</ele>
        <time>2012-03-03T14:20:01Z</time>
      </trkpt>
      <trkpt lat="47.60504" lon="7.22612">
        <ele>363</ele>
        <time>2012-03-03T14:20:02Z</time>
      </trkpt>
      <trkpt lat="47.60511" lon="7.22597">
        <ele>363</ele>
        <time>2012-03-03T14:20:03Z</time>
      </trkpt>
      <trkpt lat="47.60519" lon="7.22583">
        <ele>363</ele>
        <time>2012-03-03T14:20:04Z</time>
      </trkpt>
      <trkpt lat="47.60527" lon="7.22568">
        <ele>364</ele>
        <time>2012-03-03T14:20:05Z</time>
      </trkpt>
      <trkpt lat="47.60535" lon="7.22555">
        <ele>363</ele>
        <time>2012-03-03T14:20:06Z</time>
      </trkpt>
      <trkpt lat="47.60541" lon="7.22542">
        <ele>364</ele>
        <time>2012-03-03T14:20:07Z</time>
      </trkpt>
      <trkpt lat="47.60549" lon="7.22528">
        <ele>363</ele>
        <time>2012-03-03T14:20:08Z</time>
      </trkpt>
      <trkpt lat="47.60557" lon="7.22516">
        <ele>363</ele>
        <time>2012-03-03T14:20:09Z</time>
      </trkpt>
      <trkpt lat="47.60563" lon="7.22503">
        <ele>363</ele>
        <time>2012-03-03T14:20:10Z</time>
      </trkpt>
      <trkpt lat="47.6057" lon="7.2249">
        <ele>363</ele>
        <time>2012-03-03T14:20:11Z</time>
      </trkpt>
      <trkpt lat="47.60577" lon="7.22477">
        <ele>363</ele>
        <time>2012-03-03T14:20:12Z</time>
      </trkpt>
      <trkpt lat="47.60585" lon="7.22464">
        <ele>363</ele>
        <time>2012-03-03T14:20:13Z</time>
      </trkpt>
      <trkpt lat="47.60592" lon="7.22452">
        <ele>363</ele>
        <time>2012-03-03T14:20:14Z</time>
      </trkpt>
      <trkpt lat="47.60599" lon="7.22441">
        <ele>362</ele>
        <time>2012-03-03T14:20:15Z</time>
      </trkpt>
      <trkpt lat="47.60609" lon="7.22428">
        <ele>362</ele>
        <time>2012-03-03T14:20:16Z</time>
      </trkpt>
      <trkpt lat="47.60618" lon="7.22418">
        <ele>361</ele>
        <time>2012-03-03T14:20:17Z</time>
      </trkpt>
      <trkpt lat="47.60626" lon="7.22408">
        <ele>361</ele>
        <time>2012-03-03T14:20:18Z</time>
      </trkpt>
      <trkpt lat="47.60634" lon="7.22397">
        <ele>361</ele>
        <time>2012-03-03T14:20:19Z</time>
      </trkpt>
      <trkpt lat="47.60644" lon="7.22386">
        <ele>361</ele>
        <time>2012-03-03T14:20:20Z</time>
      </trkpt>
      <trkpt lat="47.60653" lon="7.22374">
        <ele>361</ele>
        <time>2012-03-03T14:20:21Z</time>
      </trkpt>
      <trkpt lat="47.60662" lon="7.22361">
        <ele>361</ele>
        <time>2012-03-03T14:20:22Z</time>
      </trkpt>
      <trkpt lat="47.60671" lon="7.2235">
        <ele>361</ele>
        <time>2012-03-03T14:20:23Z</time>
      </trkpt>
      <trkpt lat="47.60681" lon="7.22337">
        <ele>361</ele>
        <time>2012-03-03T14:20:24Z</time>
      </trkpt>
      <trkpt lat="47.6069" lon="7.22326">
        <ele>361</ele>
        <time>2012-03-03T14:20:25Z</time>
      </trkpt>
      <trkpt lat="47.60701" lon="7.22314">
        <ele>361</ele>
        <time>2012-03-03T14:20:26Z</time>
      </trkpt>
      <trkpt lat="47.6071" lon="7.22301">
        <ele>361</ele>
        <time>2012-03-03T14:20:27Z</time>
      </trkpt>
      <trkpt lat="47.6072" lon="7.22288">
        <ele>361</ele>
        <time>2012-03-03T14:20:28Z</time>
      </trkpt>
      <trkpt lat="47.60731" lon="7.22272">
        <ele>361</ele>
        <time>2012-03-03T14:20:29Z</time>
      </trkpt>
      <trkpt lat="47.60742" lon="7.22257">
        <ele>361</ele>
        <time>2012-03-03T14:20:30Z</time>
      </trkpt>
      <trkpt lat="47.60754" lon="7.22239">
        <ele>361</ele>
        <time>2012-03-03T14:20:31Z</time>
      </trkpt>
      <trkpt lat="47.60768" lon="7.22218">
        <ele>361</ele>
        <time>2012-03-03T14:20:32Z</time>
      </trkpt>
      <trkpt lat="47.60782" lon="7.22197">
        <ele>361</ele>
        <time>2012-03-03T14:20:33Z</time>
      </trkpt>
      <trkpt lat="47.60796" lon="7.22174">
        <ele>361</ele>
        <time>2012-03-03T14:20:34Z</time>
      </trkpt>
      <trkpt lat="47.6081" lon="7.22147">
        <ele>361</ele>
        <time>2012-03-03T14:20:35Z</time>
      </trkpt>
      <trkpt lat="47.60822" lon="7.2212">
        <ele>360</ele>
        <time>2012-03-03T14:20:36Z</time>
      </trkpt>
      <trkpt lat="47.60837" lon="7.22093">
        <ele>360</ele>
        <time>2012-03-03T14:20:37Z</time>
      </trkpt>
      <trkpt lat="47.60852" lon="7.22067">
        <ele>360</ele>
        <time>2012-03-03T14:20:38Z</time>
      </trkpt>
      <trkpt lat="47.60866" lon="7.22045">
        <ele>359</ele>
        <time>2012-03-03T14:20:39Z</time>
      </trkpt>
      <trkpt lat="47.60887" lon="7.22018">
        <ele>359</ele>
        <time>2012-03-03T14:20:40Z</time>
      </trkpt>
      <trkpt lat="47.60936" lon="7.21957">
        <ele>360</ele>
        <time>2012-03-03T14:20:43Z</time>
      </trkpt>
      <trkpt lat="47.60951" lon="7.2194">
        <ele>360</ele>
        <time>2012-03-03T14:20:44Z</time>
      </trkpt>
      <trkpt lat="47.60966" lon="7.21922">
        <ele>360</ele>
        <time>2012-03-03T14:20:45Z</time>
      </trkpt>
      <trkpt lat="47.6098" lon="7.21907">
        <ele>360</ele>
        <time>2012-03-03T14:20:46Z</time>
      </trkpt>
      <trkpt lat="47.60993" lon="7.21892">
        <ele>360</ele>
        <time>2012-03-03T14:20:47Z</time>
      </trkpt>
      <trkpt lat="47.61005" lon="7.21876">
        <ele>360</ele>
        <time>2012-03-03T14:20:48Z</time>
      </trkpt>
      <trkpt lat="47.61018" lon="7.21861">
        <ele>360</ele>
        <time>2012-03-03T14:20:49Z</time>
      </trkpt>
      <trkpt lat="47.61029" lon="7.21849">
        <ele>361</ele>
        <time>2012-03-03T14:20:50Z</time>
      </trkpt>
      <trkpt lat="47.61041" lon="7.21837">
        <ele>361</ele>
        <time>2012-03-03T14:20:51Z</time>
      </trkpt>
      <trkpt lat="47.61052" lon="7.21822">
        <ele>361</ele>
        <time>2012-03-03T14:20:52Z</time>
      </trkpt>
      <trkpt lat="47.61063" lon="7.2181">
        <ele>361</ele>
        <time>2012-03-03T14:20:53Z</time>
      </trkpt>
      <trkpt lat="47.6107" lon="7.21799">
        <ele>361</ele>
        <time>2012-03-03T14:20:54Z</time>
      </trkpt>
      <trkpt lat="47.6108" lon="7.21787">
        <ele>361</ele>
        <time>2012-03-03T14:20:55Z</time>
      </trkpt>
      <trkpt lat="47.6109" lon="7.21774">
        <ele>361</ele>
        <time>2012-03-03T14:20:56Z</time>
      </trkpt>
      <trkpt lat="47.61102" lon="7.21762">
        <ele>360</ele>
        <time>2012-03-03T14:20:57Z</time>
      </trkpt>
      <trkpt lat="47.61114" lon="7.21749">
        <ele>359</ele>
        <time>2012-03-03T14:20:58Z</time>
      </trkpt>
      <trkpt lat="47.61124" lon="7.21736">
        <ele>359</ele>
        <time>2012-03-03T14:20:59Z</time>
      </trkpt>
      <trkpt lat="47.61136" lon="7.21724">
        <ele>358</ele>
        <time>2012-03-03T14:21:00Z</time>
      </trkpt>
      <trkpt lat="47.61149" lon="7.21713">
        <ele>358</ele>
        <time>2012-03-03T14:21:01Z</time>
      </trkpt>
      <trkpt lat="47.61161" lon="7.21705">
        <ele>358</ele>
        <time>2012-03-03T14:21:02Z</time>
      </trkpt>
      <trkpt lat="47.61172" lon="7.21699">
        <ele>358</ele>
        <time>2012-03-03T14:21:03Z</time>
      </trkpt>
      <trkpt lat="47.61185" lon="7.21693">
        <ele>358</ele>
        <time>2012-03-03T14:21:04Z</time>
      </trkpt>
      <trkpt lat="47.61198" lon="7.21691">
        <ele>358</ele>
        <time>2012-03-03T14:21:05Z</time>
      </trkpt>
      <trkpt lat="47.61214" lon="7.21693">
        <ele>357</ele>
        <time>2012-03-03T14:21:06Z</time>
      </trkpt>
      <trkpt lat="47.61226" lon="7.21691">
        <ele>357</ele>
        <time>2012-03-03T14:21:07Z</time>
      </trkpt>
      <trkpt lat="47.61235" lon="7.21695">
        <ele>357</ele>
        <time>2012-03-03T14:21:08Z</time>
      </trkpt>
      <trkpt lat="47.61248" lon="7.21695">
        <ele>356</ele>
        <time>2012-03-03T14:21:09Z</time>
      </trkpt>
      <trkpt lat="47.61259" lon="7.21695">
        <ele>356</ele>
        <time>2012-03-03T14:21:10Z</time>
      </trkpt>
      <trkpt lat="47.61272" lon="7.21695">
        <ele>356</ele>
        <time>2012-03-03T14:21:11Z</time>
      </trkpt>
      <trkpt lat="47.61283" lon="7.21699">
        <ele>357</ele>
        <time>2012-03-03T14:21:12Z</time>
      </trkpt>
      <trkpt lat="47.61294" lon="7.21705">
        <ele>357</ele>
        <time>2012-03-03T14:21:13Z</time>
      </trkpt>
      <trkpt lat="47.61308" lon="7.21709">
        <ele>357</ele>
        <time>2012-03-03T14:21:14Z</time>
      </trkpt>
      <trkpt lat="47.61318" lon="7.21717">
        <ele>357</ele>
        <time>2012-03-03T14:21:15Z</time>
      </trkpt>
      <trkpt lat="47.6133" lon="7.21724">
        <ele>356</ele>
        <time>2012-03-03T14:21:16Z</time>
      </trkpt>
      <trkpt lat="47.61341" lon="7.2173">
        <ele>356</ele>
        <time>2012-03-03T14:21:17Z</time>
      </trkpt>
      <trkpt lat="47.61352" lon="7.21738">
        <ele>355</ele>
        <time>2012-03-03T14:21:18Z</time>
      </trkpt>
      <trkpt lat="47.61362" lon="7.21744">
        <ele>355</ele>
        <time>2012-03-03T14:21:19Z</time>
      </trkpt>
      <trkpt lat="47.61372" lon="7.21753">
        <ele>355</ele>
        <time>2012-03-03T14:21:20Z</time>
      </trkpt>
      <trkpt lat="47.61382" lon="7.21764">
        <ele>354</ele>
        <time>2012-03-03T14:21:21Z</time>
      </trkpt>
      <trkpt lat="47.61393" lon="7.21772">
        <ele>354</ele>
        <time>2012-03-03T14:21:22Z</time>
      </trkpt>
      <trkpt lat="47.61405" lon="7.21779">
        <ele>355</ele>
        <time>2012-03-03T14:21:23Z</time>
      </trkpt>
      <trkpt lat="47.61415" lon="7.21786">
        <ele>355</ele>
        <time>2012-03-03T14:21:24Z</time>
      </trkpt>
      <trkpt lat="47.61426" lon="7.21794">
        <ele>355</ele>
        <time>2012-03-03T14:21:25Z</time>
      </trkpt>
      <trkpt lat="47.61435" lon="7.21804">
        <ele>356</ele>
        <time>2012-03-03T14:21:26Z</time>
      </trkpt>
      <trkpt lat="47.61448" lon="7.2181">
        <ele>355</ele>
        <time>2012-03-03T14:21:27Z</time>
      </trkpt>
      <trkpt lat="47.61461" lon="7.21819">
        <ele>355</ele>
        <time>2012-03-03T14:21:28Z</time>
      </trkpt>
      <trkpt lat="47.61474" lon="7.21825">
        <ele>355</ele>
        <time>2012-03-03T14:21:29Z</time>
      </trkpt>
      <trkpt lat="47.61486" lon="7.21831">
        <ele>355</ele>
        <time>2012-03-03T14:21:30Z</time>
      </trkpt>
      <trkpt lat="47.61497" lon="7.21838">
        <ele>355</ele>
        <time>2012-03-03T14:21:31Z</time>
      </trkpt>
      <trkpt lat="47.61508" lon="7.21845">
        <ele>355</ele>
        <time>2012-03-03T14:21:32Z</time>
      </trkpt>
      <trkpt lat="47.61519" lon="7.21852">
        <ele>355</ele>
        <time>2012-03-03T14:21:33Z</time>
      </trkpt>
      <trkpt lat="47.61529" lon="7.2186">
        <ele>355</ele>
        <time>2012-03-03T14:21:34Z</time>
      </trkpt>
      <trkpt lat="47.6154" lon="7.21868">
        <ele>356</ele>
        <time>2012-03-03T14:21:35Z</time>
      </trkpt>
      <trkpt lat="47.61552" lon="7.21876">
        <ele>356</ele>
        <time>2012-03-03T14:21:36Z</time>
      </trkpt>
      <trkpt lat="47.61562" lon="7.21886">
        <ele>356</ele>
        <time>2012-03-03T14:21:37Z</time>
      </trkpt>
      <trkpt lat="47.61573" lon="7.21897">
        <ele>357</ele>
        <time>2012-03-03T14:21:38Z</time>
      </trkpt>
      <trkpt lat="47.61584" lon="7.21909">
        <ele>356</ele>
        <time>2012-03-03T14:21:39Z</time>
      </trkpt>
      <trkpt lat="47.61596" lon="7.2192">
        <ele>357</ele>
        <time>2012-03-03T14:21:40Z</time>
      </trkpt>
      <trkpt lat="47.61617" lon="7.21947">
        <ele>356</ele>
        <time>2012-03-03T14:21:42Z</time>
      </trkpt>
      <trkpt lat="47.61626" lon="7.21959">
        <ele>357</ele>
        <time>2012-03-03T14:21:43Z</time>
      </trkpt>
      <trkpt lat="47.61637" lon="7.21972">
        <ele>357</ele>
        <time>2012-03-03T14:21:44Z</time>
      </trkpt>
      <trkpt lat="47.61647" lon="7.21984">
        <ele>358</ele>
        <time>2012-03-03T14:21:45Z</time>
      </trkpt>
      <trkpt lat="47.61657" lon="7.21996">
        <ele>358</ele>
        <time>2012-03-03T14:21:46Z</time>
      </trkpt>
      <trkpt lat="47.61667" lon="7.22007">
        <ele>358</ele>
        <time>2012-03-03T14:21:47Z</time>
      </trkpt>
      <trkpt lat="47.61676" lon="7.22021">
        <ele>358</ele>
        <time>2012-03-03T14:21:48Z</time>
      </trkpt>
      <trkpt lat="47.61683" lon="7.22034">
        <ele>358</ele>
        <time>2012-03-03T14:21:49Z</time>
      </trkpt>
      <trkpt lat="47.61692" lon="7.22048">
        <ele>358</ele>
        <time>2012-03-03T14:21:50Z</time>
      </trkpt>
      <trkpt lat="47.617" lon="7.22061">
        <ele>358</ele>
        <time>2012-03-03T14:21:51Z</time>
      </trkpt>
      <trkpt lat="47.61706" lon="7.2208">
        <ele>358</ele>
        <time>2012-03-03T14:21:52Z</time>
      </trkpt>
      <trkpt lat="47.61713" lon="7.22092">
        <ele>359</ele>
        <time>2012-03-03T14:21:53Z</time>
      </trkpt>
      <trkpt lat="47.6172" lon="7.22104">
        <ele>359</ele>
        <time>2012-03-03T14:21:54Z</time>
      </trkpt>
      <trkpt lat="47.61729" lon="7.22117">
        <ele>359</ele>
        <time>2012-03-03T14:21:55Z</time>
      </trkpt>
      <trkpt lat="47.61736" lon="7.2213">
        <ele>359</ele>
        <time>2012-03-03T14:21:56Z</time>
      </trkpt>
      <trkpt lat="47.61743" lon="7.22143">
        <ele>359</ele>
        <time>2012-03-03T14:21:57Z</time>
      </trkpt>
      <trkpt lat="47.61752" lon="7.22157">
        <ele>359</ele>
        <time>2012-03-03T14:21:58Z</time>
      </trkpt>
      <trkpt lat="47.61762" lon="7.22168">
        <ele>359</ele>
        <time>2012-03-03T14:21:59Z</time>
      </trkpt>
      <trkpt lat="47.61771" lon="7.22182">
        <ele>358</ele>
        <time>2012-03-03T14:22:00Z</time>
      </trkpt>
      <trkpt lat="47.61782" lon="7.22195">
        <ele>358</ele>
        <time>2012-03-03T14:22:01Z</time>
      </trkpt>
      <trkpt lat="47.61793" lon="7.22208">
        <ele>358</ele>
        <time>2012-03-03T14:22:02Z</time>
      </trkpt>
      <trkpt lat="47.61804" lon="7.22223">
        <ele>358</ele>
        <time>2012-03-03T14:22:03Z</time>
      </trkpt>
      <trkpt lat="47.61818" lon="7.22237">
        <ele>356</ele>
        <time>2012-03-03T14:22:04Z</time>
      </trkpt>
      <trkpt lat="47.61831" lon="7.22252">
        <ele>356</ele>
        <time>2012-03-03T14:22:05Z</time>
      </trkpt>
      <trkpt lat="47.61845" lon="7.22268">
        <ele>356</ele>
        <time>2012-03-03T14:22:06Z</time>
      </trkpt>
      <trkpt lat="47.61858" lon="7.2228">
        <ele>355</ele>
        <time>2012-03-03T14:22:07Z</time>
      </trkpt>
      <trkpt lat="47.61871" lon="7.22296">
        <ele>355</ele>
        <time>2012-03-03T14:22:08Z</time>
      </trkpt>
      <trkpt lat="47.61882" lon="7.22312">
        <ele>355</ele>
        <time>2012-03-03T14:22:09Z</time>
      </trkpt>
      <trkpt lat="47.61892" lon="7.22328">
        <ele>355</ele>
        <time>2012-03-03T14:22:10Z</time>
      </trkpt>
      <trkpt lat="47.61902" lon="7.22349">
        <ele>355</ele>
        <time>2012-03-03T14:22:11Z</time>
      </trkpt>
      <trkpt lat="47.61913" lon="7.22368">
        <ele>354</ele>
        <time>2012-03-03T14:22:12Z</time>
      </trkpt>
      <trkpt lat="47.61924" lon="7.22389">
        <ele>354</ele>
        <time>2012-03-03T14:22:13Z</time>
      </trkpt>
      <trkpt lat="47.61934" lon="7.22409">
        <ele>354</ele>
        <time>2012-03-03T14:22:14Z</time>
      </trkpt>
      <trkpt lat="47.61944" lon="7.22425">
        <ele>355</ele>
        <time>2012-03-03T14:22:15Z</time>
      </trkpt>
      <trkpt lat="47.61955" lon="7.22444">
        <ele>355</ele>
        <time>2012-03-03T14:22:16Z</time>
      </trkpt>
      <trkpt lat="47.61963" lon="7.22463">
        <ele>355</ele>
        <time>2012-03-03T14:22:17Z</time>
      </trkpt>
      <trkpt lat="47.61971" lon="7.22477">
        <ele>356</ele>
        <time>2012-03-03T14:22:18Z</time>
      </trkpt>
      <trkpt lat="47.61978" lon="7.2249">
        <ele>357</ele>
        <time>2012-03-03T14:22:19Z</time>
      </trkpt>
      <trkpt lat="47.61984" lon="7.22504">
        <ele>356</ele>
        <time>2012-03-03T14:22:20Z</time>
      </trkpt>
      <trkpt lat="47.6199" lon="7.22519">
        <ele>355</ele>
        <time>2012-03-03T14:22:21Z</time>
      </trkpt>
      <trkpt lat="47.61998" lon="7.22532">
        <ele>355</ele>
        <time>2012-03-03T14:22:22Z</time>
      </trkpt>
      <trkpt lat="47.62004" lon="7.22546">
        <ele>354</ele>
        <time>2012-03-03T14:22:23Z</time>
      </trkpt>
      <trkpt lat="47.6201" lon="7.22561">
        <ele>354</ele>
        <time>2012-03-03T14:22:24Z</time>
      </trkpt>
      <trkpt lat="47.62017" lon="7.22577">
        <ele>354</ele>
        <time>2012-03-03T14:22:25Z</time>
      </trkpt>
      <trkpt lat="47.62024" lon="7.22593">
        <ele>353</ele>
        <time>2012-03-03T14:22:26Z</time>
      </trkpt>
      <trkpt lat="47.6203" lon="7.2261">
        <ele>353</ele>
        <time>2012-03-03T14:22:27Z</time>
      </trkpt>
      <trkpt lat="47.62036" lon="7.22625">
        <ele>352</ele>
        <time>2012-03-03T14:22:28Z</time>
      </trkpt>
      <trkpt lat="47.62042" lon="7.2264">
        <ele>353</ele>
        <time>2012-03-03T14:22:29Z</time>
      </trkpt>
      <trkpt lat="47.62049" lon="7.22654">
        <ele>352</ele>
        <time>2012-03-03T14:22:30Z</time>
      </trkpt>
      <trkpt lat="47.62053" lon="7.22669">
        <ele>353</ele>
        <time>2012-03-03T14:22:31Z</time>
      </trkpt>
      <trkpt lat="47.62059" lon="7.22685">
        <ele>353</ele>
        <time>2012-03-03T14:22:32Z</time>
      </trkpt>
      <trkpt lat="47.62064" lon="7.22701">
        <ele>354</ele>
        <time>2012-03-03T14:22:33Z</time>
      </trkpt>
      <trkpt lat="47.62068" lon="7.22715">
        <ele>353</ele>
        <time>2012-03-03T14:22:34Z</time>
      </trkpt>
      <trkpt lat="47.62074" lon="7.22731">
        <ele>354</ele>
        <time>2012-03-03T14:22:35Z</time>
      </trkpt>
      <trkpt lat="47.62079" lon="7.22747">
        <ele>354</ele>
        <time>2012-03-03T14:22:36Z</time>
      </trkpt>
      <trkpt lat="47.62084" lon="7.22761">
        <ele>354</ele>
        <time>2012-03-03T14:22:37Z</time>
      </trkpt>
      <trkpt lat="47.6209" lon="7.22778">
        <ele>354</ele>
        <time>2012-03-03T14:22:38Z</time>
      </trkpt>
      <trkpt lat="47.62095" lon="7.22792">
        <ele>354</ele>
        <time>2012-03-03T14:22:39Z</time>
      </trkpt>
      <trkpt lat="47.621" lon="7.22809">
        <ele>354</ele>
        <time>2012-03-03T14:22:40Z</time>
      </trkpt>
      <trkpt lat="47.62104" lon="7.22823">
        <ele>354</ele>
        <time>2012-03-03T14:22:41Z</time>
      </trkpt>
      <trkpt lat="47.62109" lon="7.22839">
        <ele>353</ele>
        <time>2012-03-03T14:22:42Z</time>
      </trkpt>
      <trkpt lat="47.62114" lon="7.22854">
        <ele>354</ele>
        <time>2012-03-03T14:22:43Z</time>
      </trkpt>
      <trkpt lat="47.6212" lon="7.22869">
        <ele>353</ele>
        <time>2012-03-03T14:22:44Z</time>
      </trkpt>
      <trkpt lat="47.62125" lon="7.22884">
        <ele>353</ele>
        <time>2012-03-03T14:22:45Z</time>
      </trkpt>
      <trkpt lat="47.6213" lon="7.229">
        <ele>353</ele>
        <time>2012-03-03T14:22:46Z</time>
      </trkpt>
      <trkpt lat="47.62133" lon="7.22914">
        <ele>353</ele>
        <time>2012-03-03T14:22:47Z</time>
      </trkpt>
      <trkpt lat="47.62139" lon="7.22929">
        <ele>352</ele>
        <time>2012-03-03T14:22:48Z</time>
      </trkpt>
      <trkpt lat="47.62144" lon="7.22943">
        <ele>353</ele>
        <time>2012-03-03T14:22:49Z</time>
      </trkpt>
      <trkpt lat="47.62148" lon="7.22958">
        <ele>353</ele>
        <time>2012-03-03T14:22:50Z</time>
      </trkpt>
      <trkpt lat="47.62153" lon="7.22973">
        <ele>353</ele>
        <time>2012-03-03T14:22:51Z</time>
      </trkpt>
      <trkpt lat="47.62158" lon="7.2299">
        <ele>352</ele>
        <time>2012-03-03T14:22:52Z</time>
      </trkpt>
      <trkpt lat="47.62163" lon="7.23005">
        <ele>352</ele>
        <time>2012-03-03T14:22:53Z</time>
      </trkpt>
      <trkpt lat="47.62167" lon="7.2302">
        <ele>352</ele>
        <time>2012-03-03T14:22:54Z</time>
      </trkpt>
      <trkpt lat="47.62173" lon="7.23036">
        <ele>352</ele>
        <time>2012-03-03T14:22:55Z</time>
      </trkpt>
      <trkpt lat="47.62177" lon="7.23053">
        <ele>352</ele>
        <time>2012-03-03T14:22:56Z</time>
      </trkpt>
      <trkpt lat="47.6218" lon="7.23068">
        <ele>351</ele>
        <time>2012-03-03T14:22:57Z</time>
      </trkpt>
      <trkpt lat="47.62184" lon="7.23082">
        <ele>351</ele>
        <time>2012-03-03T14:22:58Z</time>
      </trkpt>
      <trkpt lat="47.62188" lon="7.23098">
        <ele>351</ele>
        <time>2012-03-03T14:22:59Z</time>
      </trkpt>
      <trkpt lat="47.62197" lon="7.23111">
        <ele>351</ele>
        <time>2012-03-03T14:23:00Z</time>
      </trkpt>
      <trkpt lat="47.62203" lon="7.23126">
        <ele>351</ele>
        <time>2012-03-03T14:23:01Z</time>
      </trkpt>
      <trkpt lat="47.62207" lon="7.23141">
        <ele>350</ele>
        <time>2012-03-03T14:23:02Z</time>
      </trkpt>
      <trkpt lat="47.62211" lon="7.23154">
        <ele>349</ele>
        <time>2012-03-03T14:23:03Z</time>
      </trkpt>
      <trkpt lat="47.62213" lon="7.23171">
        <ele>349</ele>
        <time>2012-03-03T14:23:04Z</time>
      </trkpt>
      <trkpt lat="47.62213" lon="7.23185">
        <ele>350</ele>
        <time>2012-03-03T14:23:05Z</time>
      </trkpt>
      <trkpt lat="47.62215" lon="7.232">
        <ele>350</ele>
        <time>2012-03-03T14:23:06Z</time>
      </trkpt>
      <trkpt lat="47.62218" lon="7.23214">
        <ele>351</ele>
        <time>2012-03-03T14:23:07Z</time>
      </trkpt>
      <trkpt lat="47.62219" lon="7.23229">
        <ele>351</ele>
        <time>2012-03-03T14:23:08Z</time>
      </trkpt>
      <trkpt lat="47.62221" lon="7.23241">
        <ele>351</ele>
        <time>2012-03-03T14:23:09Z</time>
      </trkpt>
      <trkpt lat="47.62224" lon="7.23251">
        <ele>351</ele>
        <time>2012-03-03T14:23:10Z</time>
      </trkpt>
      <trkpt lat="47.62224" lon="7.2326">
        <ele>351</ele>
        <time>2012-03-03T14:23:11Z</time>
      </trkpt>
      <trkpt lat="47.62227" lon="7.23272">
        <ele>352</ele>
        <time>2012-03-03T14:23:13Z</time>
      </trkpt>
      <trkpt lat="47.62229" lon="7.23283">
        <ele>351</ele>
        <time>2012-03-03T14:23:15Z</time>
      </trkpt>
      <trkpt lat="47.62233" lon="7.23292">
        <ele>351</ele>
        <time>2012-03-03T14:23:16Z</time>
      </trkpt>
      <trkpt lat="47.62238" lon="7.23299">
        <ele>351</ele>
        <time>2012-03-03T14:23:17Z</time>
      </trkpt>
      <trkpt lat="47.62245" lon="7.23305">
        <ele>351</ele>
        <time>2012-03-03T14:23:18Z</time>
      </trkpt>
      <trkpt lat="47.62254" lon="7.23315">
        <ele>351</ele>
        <time>2012-03-03T14:23:19Z</time>
      </trkpt>
      <trkpt lat="47.62265" lon="7.23326">
        <ele>351</ele>
        <time>2012-03-03T14:23:20Z</time>
      </trkpt>
      <trkpt lat="47.62273" lon="7.23335">
        <ele>352</ele>
        <time>2012-03-03T14:23:21Z</time>
      </trkpt>
      <trkpt lat="47.62283" lon="7.23347">
        <ele>352</ele>
        <time>2012-03-03T14:23:22Z</time>
      </trkpt>
      <trkpt lat="47.6229" lon="7.23358">
        <ele>352</ele>
        <time>2012-03-03T14:23:23Z</time>
      </trkpt>
      <trkpt lat="47.62298" lon="7.23369">
        <ele>352</ele>
        <time>2012-03-03T14:23:24Z</time>
      </trkpt>
      <trkpt lat="47.62307" lon="7.2338">
        <ele>352</ele>
        <time>2012-03-03T14:23:25Z</time>
      </trkpt>
      <trkpt lat="47.62315" lon="7.2339">
        <ele>351</ele>
        <time>2012-03-03T14:23:26Z</time>
      </trkpt>
      <trkpt lat="47.62322" lon="7.23398">
        <ele>351</ele>
        <time>2012-03-03T14:23:27Z</time>
      </trkpt>
      <trkpt lat="47.6233" lon="7.23408">
        <ele>351</ele>
        <time>2012-03-03T14:23:28Z</time>
      </trkpt>
      <trkpt lat="47.62337" lon="7.23418">
        <ele>351</ele>
        <time>2012-03-03T14:23:29Z</time>
      </trkpt>
      <trkpt lat="47.62345" lon="7.23427">
        <ele>352</ele>
        <time>2012-03-03T14:23:30Z</time>
      </trkpt>
      <trkpt lat="47.62353" lon="7.23437">
        <ele>351</ele>
        <time>2012-03-03T14:23:31Z</time>
      </trkpt>
      <trkpt lat="47.6236" lon="7.23446">
        <ele>351</ele>
        <time>2012-03-03T14:23:32Z</time>
      </trkpt>
      <trkpt lat="47.62366" lon="7.23456">
        <ele>350</ele>
        <time>2012-03-03T14:23:33Z</time>
      </trkpt>
      <trkpt lat="47.62373" lon="7.23463">
        <ele>350</ele>
        <time>2012-03-03T14:23:34Z</time>
      </trkpt>
      <trkpt lat="47.6238" lon="7.23471">
        <ele>350</ele>
        <time>2012-03-03T14:23:35Z</time>
      </trkpt>
      <trkpt lat="47.62385" lon="7.23481">
        <ele>350</ele>
        <time>2012-03-03T14:23:36Z</time>
      </trkpt>
      <trkpt lat="47.6239" lon="7.23488">
        <ele>350</ele>
        <time>2012-03-03T14:23:37Z</time>
      </trkpt>
      <trkpt lat="47.62395" lon="7.23496">
        <ele>350</ele>
        <time>2012-03-03T14:23:38Z</time>
      </trkpt>
      <trkpt lat="47.62399" lon="7.23504">
        <ele>350</ele>
        <time>2012-03-03T14:23:39Z</time>
      </trkpt>
      <trkpt lat="47.62402" lon="7.23511">
        <ele>350</ele>
        <time>2012-03-03T14:23:40Z</time>
      </trkpt>
      <trkpt lat="47.62406" lon="7.23516">
        <ele>350</ele>
        <time>2012-03-03T14:23:41Z</time>
      </trkpt>
      <trkpt lat="47.62412" lon="7.23514">
        <ele>350</ele>
        <time>2012-03-03T14:23:42Z</time>
      </trkpt>
      <trkpt lat="47.62414" lon="7.23506">
        <ele>350</ele>
        <time>2012-03-03T14:23:43Z</time>
      </trkpt>
      <trkpt lat="47.6242" lon="7.23497">
        <ele>349</ele>
        <time>2012-03-03T14:23:44Z</time>
      </trkpt>
      <trkpt lat="47.62425" lon="7.23491">
        <ele>349</ele>
        <time>2012-03-03T14:23:45Z</time>
      </trkpt>
      <trkpt lat="47.62433" lon="7.23485">
        <ele>349</ele>
        <time>2012-03-03T14:23:46Z</time>
      </trkpt>
      <trkpt lat="47.62441" lon="7.23479">
        <ele>348</ele>
        <time>2012-03-03T14:23:47Z</time>
      </trkpt>
      <trkpt lat="47.62449" lon="7.23475">
        <ele>348</ele>
        <time>2012-03-03T14:23:48Z</time>
      </trkpt>
      <trkpt lat="47.62457" lon="7.2347">
        <ele>348</ele>
        <time>2012-03-03T14:23:49Z</time>
      </trkpt>
      <trkpt lat="47.62464" lon="7.23467">
        <ele>348</ele>
        <time>2012-03-03T14:23:50Z</time>
      </trkpt>
      <trkpt lat="47.62469" lon="7.23464">
        <ele>349</ele>
        <time>2012-03-03T14:23:51Z</time>
      </trkpt>
      <trkpt lat="47.6248" lon="7.23468">
        <ele>348</ele>
        <time>2012-03-03T14:23:52Z</time>
      </trkpt>
      <trkpt lat="47.62488" lon="7.23474">
        <ele>349</ele>
        <time>2012-03-03T14:23:53Z</time>
      </trkpt>
      <trkpt lat="47.625" lon="7.23481">
        <ele>349</ele>
        <time>2012-03-03T14:23:54Z</time>
      </trkpt>
      <trkpt lat="47.62509" lon="7.23488">
        <ele>350</ele>
        <time>2012-03-03T14:23:55Z</time>
      </trkpt>
      <trkpt lat="47.62517" lon="7.23498">
        <ele>350</ele>
        <time>2012-03-03T14:23:56Z</time>
      </trkpt>
      <trkpt lat="47.62525" lon="7.23508">
        <ele>350</ele>
        <time>2012-03-03T14:23:57Z</time>
      </trkpt>
      <trkpt lat="47.62532" lon="7.23522">
        <ele>350</ele>
        <time>2012-03-03T14:23:58Z</time>
      </trkpt>
      <trkpt lat="47.62538" lon="7.23537">
        <ele>350</ele>
        <time>2012-03-03T14:23:59Z</time>
      </trkpt>
      <trkpt lat="47.62545" lon="7.23551">
        <ele>350</ele>
        <time>2012-03-03T14:24:00Z</time>
      </trkpt>
      <trkpt lat="47.62553" lon="7.23563">
        <ele>350</ele>
        <time>2012-03-03T14:24:01Z</time>
      </trkpt>
      <trkpt lat="47.6256" lon="7.23577">
        <ele>350</ele>
        <time>2012-03-03T14:24:02Z</time>
      </trkpt>
      <trkpt lat="47.62566" lon="7.23593">
        <ele>349</ele>
        <time>2012-03-03T14:24:03Z</time>
      </trkpt>
      <trkpt lat="47.62572" lon="7.23608">
        <ele>348</ele>
        <time>2012-03-03T14:24:04Z</time>
      </trkpt>
      <trkpt lat="47.62577" lon="7.23621">
        <ele>348</ele>
        <time>2012-03-03T14:24:05Z</time>
      </trkpt>
      <trkpt lat="47.62583" lon="7.23632">
        <ele>349</ele>
        <time>2012-03-03T14:24:06Z</time>
      </trkpt>
      <trkpt lat="47.62588" lon="7.23643">
        <ele>348</ele>
        <time>2012-03-03T14:24:07Z</time>
      </trkpt>
      <trkpt lat="47.62596" lon="7.23655">
        <ele>348</ele>
        <time>2012-03-03T14:24:08Z</time>
      </trkpt>
      <trkpt lat="47.62602" lon="7.23666">
        <ele>348</ele>
        <time>2012-03-03T14:24:09Z</time>
      </trkpt>
      <trkpt lat="47.62606" lon="7.23675">
        <ele>347</ele>
        <time>2012-03-03T14:24:10Z</time>
      </trkpt>
      <trkpt lat="47.62614" lon="7.23682">
        <ele>347</ele>
        <time>2012-03-03T14:24:11Z</time>
      </trkpt>
      <trkpt lat="47.6262" lon="7.23693">
        <ele>347</ele>
        <time>2012-03-03T14:24:12Z</time>
      </trkpt>
      <trkpt lat="47.62627" lon="7.23703">
        <ele>348</ele>
        <time>2012-03-03T14:24:13Z</time>
      </trkpt>
      <trkpt lat="47.62631" lon="7.23713">
        <ele>347</ele>
        <time>2012-03-03T14:24:14Z</time>
      </trkpt>
      <trkpt lat="47.62635" lon="7.23723">
        <ele>346</ele>
        <time>2012-03-03T14:24:15Z</time>
      </trkpt>
      <trkpt lat="47.62639" lon="7.23738">
        <ele>346</ele>
        <time>2012-03-03T14:24:16Z</time>
      </trkpt>
      <trkpt lat="47.62642" lon="7.23755">
        <ele>344</ele>
        <time>2012-03-03T14:24:17Z</time>
      </trkpt>
      <trkpt lat="47.62646" lon="7.23772">
        <ele>344</ele>
        <time>2012-03-03T14:24:18Z</time>
      </trkpt>
      <trkpt lat="47.62648" lon="7.23789">
        <ele>343</ele>
        <time>2012-03-03T14:24:19Z</time>
      </trkpt>
      <trkpt lat="47.6265" lon="7.23808">
        <ele>343</ele>
        <time>2012-03-03T14:24:20Z</time>
      </trkpt>
      <trkpt lat="47.62648" lon="7.23826">
        <ele>343</ele>
        <time>2012-03-03T14:24:21Z</time>
      </trkpt>
      <trkpt lat="47.62647" lon="7.23845">
        <ele>344</ele>
        <time>2012-03-03T14:24:22Z</time>
      </trkpt>
      <trkpt lat="47.62646" lon="7.23861">
        <ele>344</ele>
        <time>2012-03-03T14:24:23Z</time>
      </trkpt>
      <trkpt lat="47.62644" lon="7.23879">
        <ele>344</ele>
        <time>2012-03-03T14:24:24Z</time>
      </trkpt>
      <trkpt lat="47.62641" lon="7.23895">
        <ele>343</ele>
        <time>2012-03-03T14:24:25Z</time>
      </trkpt>
      <trkpt lat="47.62642" lon="7.23908">
        <ele>343</ele>
        <time>2012-03-03T14:24:26Z</time>
      </trkpt>
      <trkpt lat="47.62643" lon="7.23921">
        <ele>343</ele>
        <time>2012-03-03T14:24:27Z</time>
      </trkpt>
      <trkpt lat="47.62644" lon="7.23933">
        <ele>341</ele>
        <time>2012-03-03T14:24:28Z</time>
      </trkpt>
      <trkpt lat="47.62648" lon="7.23943">
        <ele>341</ele>
        <time>2012-03-03T14:24:29Z</time>
      </trkpt>
      <trkpt lat="47.6265" lon="7.23952">
        <ele>341</ele>
        <time>2012-03-03T14:24:30Z</time>
      </trkpt>
      <trkpt lat="47.62653" lon="7.23961">
        <ele>341</ele>
        <time>2012-03-03T14:24:31Z</time>
      </trkpt>
      <trkpt lat="47.62656" lon="7.2397">
        <ele>341</ele>
        <time>2012-03-03T14:24:32Z</time>
      </trkpt>
      <trkpt lat="47.62658" lon="7.23978">
        <ele>341</ele>
        <time>2012-03-03T14:24:33Z</time>
      </trkpt>
      <trkpt lat="47.62661" lon="7.23987">
        <ele>341</ele>
        <time>2012-03-03T14:24:34Z</time>
      </trkpt>
      <trkpt lat="47.62664" lon="7.23996">
        <ele>341</ele>
        <time>2012-03-03T14:24:35Z</time>
      </trkpt>
      <trkpt lat="47.62669" lon="7.24004">
        <ele>341</ele>
        <time>2012-03-03T14:24:36Z</time>
      </trkpt>
      <trkpt lat="47.62671" lon="7.24014">
        <ele>341</ele>
        <time>2012-03-03T14:24:37Z</time>
      </trkpt>
      <trkpt lat="47.62674" lon="7.24021">
        <ele>341</ele>
        <time>2012-03-03T14:24:38Z</time>
      </trkpt>
      <trkpt lat="47.62677" lon="7.24029">
        <ele>341</ele>
        <time>2012-03-03T14:24:39Z</time>
      </trkpt>
      <trkpt lat="47.62682" lon="7.2404">
        <ele>341</ele>
        <time>2012-03-03T14:24:40Z</time>
      </trkpt>
      <trkpt lat="47.62686" lon="7.24053">
        <ele>341</ele>
        <time>2012-03-03T14:24:41Z</time>
      </trkpt>
      <trkpt lat="47.62692" lon="7.24063">
        <ele>341</ele>
        <time>2012-03-03T14:24:42Z</time>
      </trkpt>
      <trkpt lat="47.62697" lon="7.24075">
        <ele>341</ele>
        <time>2012-03-03T14:24:43Z</time>
      </trkpt>
      <trkpt lat="47.62701" lon="7.24085">
        <ele>341</ele>
        <time>2012-03-03T14:24:44Z</time>
      </trkpt>
      <trkpt lat="47.62705" lon="7.24096">
        <ele>341</ele>
        <time>2012-03-03T14:24:45Z</time>
      </trkpt>
      <trkpt lat="47.62708" lon="7.24105">
        <ele>341</ele>
        <time>2012-03-03T14:24:46Z</time>
      </trkpt>
      <trkpt lat="47.6271" lon="7.24111">
        <ele>341</ele>
        <time>2012-03-03T14:24:47Z</time>
      </trkpt>
      <trkpt lat="47.62714" lon="7.24119">
        <ele>341</ele>
        <time>2012-03-03T14:24:48Z</time>
      </trkpt>
      <trkpt lat="47.62716" lon="7.24125">
        <ele>341</ele>
        <time>2012-03-03T14:24:50Z</time>
      </trkpt>
      <trkpt lat="47.6272" lon="7.24132">
        <ele>341</ele>
        <time>2012-03-03T14:24:52Z</time>
      </trkpt>
      <trkpt lat="47.62723" lon="7.24143">
        <ele>340</ele>
        <time>2012-03-03T14:24:54Z</time>
      </trkpt>
      <trkpt lat="47.62724" lon="7.24149">
        <ele>339</ele>
        <time>2012-03-03T14:24:55Z</time>
      </trkpt>
      <trkpt lat="47.62723" lon="7.24156">
        <ele>339</ele>
        <time>2012-03-03T14:24:56Z</time>
      </trkpt>
      <trkpt lat="47.62721" lon="7.24162">
        <ele>340</ele>
        <time>2012-03-03T14:24:57Z</time>
      </trkpt>
      <trkpt lat="47.62719" lon="7.2417">
        <ele>340</ele>
        <time>2012-03-03T14:24:58Z</time>
      </trkpt>
      <trkpt lat="47.62719" lon="7.24181">
        <ele>340</ele>
        <time>2012-03-03T14:25:00Z</time>
      </trkpt>
      <trkpt lat="47.62719" lon="7.2419">
        <ele>340</ele>
        <time>2012-03-03T14:25:01Z</time>
      </trkpt>
      <trkpt lat="47.62718" lon="7.24201">
        <ele>340</ele>
        <time>2012-03-03T14:25:02Z</time>
      </trkpt>
      <trkpt lat="47.62716" lon="7.24212">
        <ele>340</ele>
        <time>2012-03-03T14:25:03Z</time>
      </trkpt>
      <trkpt lat="47.6271" lon="7.24226">
        <ele>340</ele>
        <time>2012-03-03T14:25:04Z</time>
      </trkpt>
      <trkpt lat="47.62701" lon="7.24246">
        <ele>340</ele>
        <time>2012-03-03T14:25:05Z</time>
      </trkpt>
      <trkpt lat="47.62692" lon="7.24264">
        <ele>340</ele>
        <time>2012-03-03T14:25:06Z</time>
      </trkpt>
      <trkpt lat="47.62685" lon="7.24279">
        <ele>340</ele>
        <time>2012-03-03T14:25:07Z</time>
      </trkpt>
      <trkpt lat="47.62675" lon="7.24297">
        <ele>340</ele>
        <time>2012-03-03T14:25:08Z</time>
      </trkpt>
      <trkpt lat="47.62669" lon="7.24311">
        <ele>340</ele>
        <time>2012-03-03T14:25:09Z</time>
      </trkpt>
      <trkpt lat="47.62659" lon="7.24328">
        <ele>340</ele>
        <time>2012-03-03T14:25:10Z</time>
      </trkpt>
      <trkpt lat="47.6265" lon="7.24343">
        <ele>340</ele>
        <time>2012-03-03T14:25:11Z</time>
      </trkpt>
      <trkpt lat="47.62639" lon="7.2436">
        <ele>340</ele>
        <time>2012-03-03T14:25:12Z</time>
      </trkpt>
      <trkpt lat="47.6263" lon="7.24376">
        <ele>340</ele>
        <time>2012-03-03T14:25:13Z</time>
      </trkpt>
      <trkpt lat="47.6262" lon="7.24392">
        <ele>340</ele>
        <time>2012-03-03T14:25:14Z</time>
      </trkpt>
      <trkpt lat="47.62607" lon="7.24409">
        <ele>340</ele>
        <time>2012-03-03T14:25:15Z</time>
      </trkpt>
      <trkpt lat="47.62596" lon="7.24427">
        <ele>340</ele>
        <time>2012-03-03T14:25:16Z</time>
      </trkpt>
      <trkpt lat="47.62582" lon="7.24445">
        <ele>340</ele>
        <time>2012-03-03T14:25:17Z</time>
      </trkpt>
      <trkpt lat="47.62569" lon="7.24464">
        <ele>340</ele>
        <time>2012-03-03T14:25:18Z</time>
      </trkpt>
      <trkpt lat="47.62555" lon="7.2448">
        <ele>341</ele>
        <time>2012-03-03T14:25:19Z</time>
      </trkpt>
      <trkpt lat="47.62539" lon="7.245">
        <ele>340</ele>
        <time>2012-03-03T14:25:20Z</time>
      </trkpt>
      <trkpt lat="47.62526" lon="7.24519">
        <ele>340</ele>
        <time>2012-03-03T14:25:21Z</time>
      </trkpt>
      <trkpt lat="47.62513" lon="7.24535">
        <ele>340</ele>
        <time>2012-03-03T14:25:22Z</time>
      </trkpt>
      <trkpt lat="47.625" lon="7.24555">
        <ele>340</ele>
        <time>2012-03-03T14:25:23Z</time>
      </trkpt>
      <trkpt lat="47.62488" lon="7.24581">
        <ele>340</ele>
        <time>2012-03-03T14:25:24Z</time>
      </trkpt>
      <trkpt lat="47.62476" lon="7.24609">
        <ele>340</ele>
        <time>2012-03-03T14:25:25Z</time>
      </trkpt>
      <trkpt lat="47.62462" lon="7.24641">
        <ele>338</ele>
        <time>2012-03-03T14:25:26Z</time>
      </trkpt>
      <trkpt lat="47.62451" lon="7.2467">
        <ele>338</ele>
        <time>2012-03-03T14:25:27Z</time>
      </trkpt>
      <trkpt lat="47.6244" lon="7.24702">
        <ele>338</ele>
        <time>2012-03-03T14:25:28Z</time>
      </trkpt>
      <trkpt lat="47.62432" lon="7.24733">
        <ele>337</ele>
        <time>2012-03-03T14:25:29Z</time>
      </trkpt>
      <trkpt lat="47.62428" lon="7.24767">
        <ele>336</ele>
        <time>2012-03-03T14:25:30Z</time>
      </trkpt>
      <trkpt lat="47.62425" lon="7.24798">
        <ele>336</ele>
        <time>2012-03-03T14:25:31Z</time>
      </trkpt>
      <trkpt lat="47.62421" lon="7.24831">
        <ele>335</ele>
        <time>2012-03-03T14:25:32Z</time>
      </trkpt>
      <trkpt lat="47.62423" lon="7.24864">
        <ele>335</ele>
        <time>2012-03-03T14:25:33Z</time>
      </trkpt>
      <trkpt lat="47.62421" lon="7.24896">
        <ele>335</ele>
        <time>2012-03-03T14:25:34Z</time>
      </trkpt>
      <trkpt lat="47.62424" lon="7.24928">
        <ele>335</ele>
        <time>2012-03-03T14:25:35Z</time>
      </trkpt>
      <trkpt lat="47.62427" lon="7.24964">
        <ele>335</ele>
        <time>2012-03-03T14:25:36Z</time>
      </trkpt>
      <trkpt lat="47.62432" lon="7.24995">
        <ele>335</ele>
        <time>2012-03-03T14:25:37Z</time>
      </trkpt>
      <trkpt lat="47.62441" lon="7.25022">
        <ele>335</ele>
        <time>2012-03-03T14:25:38Z</time>
      </trkpt>
      <trkpt lat="47.62453" lon="7.25044">
        <ele>334</ele>
        <time>2012-03-03T14:25:39Z</time>
      </trkpt>
      <trkpt lat="47.62463" lon="7.25069">
        <ele>334</ele>
        <time>2012-03-03T14:25:40Z</time>
      </trkpt>
      <trkpt lat="47.62485" lon="7.25115">
        <ele>334</ele>
        <time>2012-03-03T14:25:42Z</time>
      </trkpt>
      <trkpt lat="47.62496" lon="7.25137">
        <ele>334</ele>
        <time>2012-03-03T14:25:43Z</time>
      </trkpt>
      <trkpt lat="47.62507" lon="7.25161">
        <ele>334</ele>
        <time>2012-03-03T14:25:44Z</time>
      </trkpt>
      <trkpt lat="47.62517" lon="7.25184">
        <ele>334</ele>
        <time>2012-03-03T14:25:45Z</time>
      </trkpt>
      <trkpt lat="47.62529" lon="7.25205">
        <ele>334</ele>
        <time>2012-03-03T14:25:46Z</time>
      </trkpt>
      <trkpt lat="47.62541" lon="7.25227">
        <ele>334</ele>
        <time>2012-03-03T14:25:47Z</time>
      </trkpt>
      <trkpt lat="47.62551" lon="7.25249">
        <ele>333</ele>
        <time>2012-03-03T14:25:48Z</time>
      </trkpt>
      <trkpt lat="47.62562" lon="7.25271">
        <ele>334</ele>
        <time>2012-03-03T14:25:49Z</time>
      </trkpt>
      <trkpt lat="47.62573" lon="7.25293">
        <ele>334</ele>
        <time>2012-03-03T14:25:50Z</time>
      </trkpt>
      <trkpt lat="47.62583" lon="7.25315">
        <ele>334</ele>
        <time>2012-03-03T14:25:51Z</time>
      </trkpt>
      <trkpt lat="47.62592" lon="7.25341">
        <ele>334</ele>
        <time>2012-03-03T14:25:52Z</time>
      </trkpt>
      <trkpt lat="47.62603" lon="7.25364">
        <ele>334</ele>
        <time>2012-03-03T14:25:53Z</time>
      </trkpt>
      <trkpt lat="47.62615" lon="7.25388">
        <ele>334</ele>
        <time>2012-03-03T14:25:54Z</time>
      </trkpt>
      <trkpt lat="47.62626" lon="7.25412">
        <ele>335</ele>
        <time>2012-03-03T14:25:55Z</time>
      </trkpt>
      <trkpt lat="47.62637" lon="7.25435">
        <ele>335</ele>
        <time>2012-03-03T14:25:56Z</time>
      </trkpt>
      <trkpt lat="47.62648" lon="7.25458">
        <ele>335</ele>
        <time>2012-03-03T14:25:57Z</time>
      </trkpt>
      <trkpt lat="47.62659" lon="7.2548">
        <ele>335</ele>
        <time>2012-03-03T14:25:58Z</time>
      </trkpt>
      <trkpt lat="47.62668" lon="7.25502">
        <ele>335</ele>
        <time>2012-03-03T14:25:59Z</time>
      </trkpt>
      <trkpt lat="47.62679" lon="7.25525">
        <ele>335</ele>
        <time>2012-03-03T14:26:00Z</time>
      </trkpt>
      <trkpt lat="47.62689" lon="7.25548">
        <ele>335</ele>
        <time>2012-03-03T14:26:01Z</time>
      </trkpt>
      <trkpt lat="47.62701" lon="7.25569">
        <ele>336</ele>
        <time>2012-03-03T14:26:02Z</time>
      </trkpt>
      <trkpt lat="47.62714" lon="7.25589">
        <ele>335</ele>
        <time>2012-03-03T14:26:03Z</time>
      </trkpt>
      <trkpt lat="47.62727" lon="7.25612">
        <ele>335</ele>
        <time>2012-03-03T14:26:04Z</time>
      </trkpt>
      <trkpt lat="47.62738" lon="7.25634">
        <ele>334</ele>
        <time>2012-03-03T14:26:05Z</time>
      </trkpt>
      <trkpt lat="47.62751" lon="7.25654">
        <ele>334</ele>
        <time>2012-03-03T14:26:06Z</time>
      </trkpt>
      <trkpt lat="47.62764" lon="7.25674">
        <ele>334</ele>
        <time>2012-03-03T14:26:07Z</time>
      </trkpt>
      <trkpt lat="47.62779" lon="7.25695">
        <ele>334</ele>
        <time>2012-03-03T14:26:08Z</time>
      </trkpt>
      <trkpt lat="47.62792" lon="7.25714">
        <ele>334</ele>
        <time>2012-03-03T14:26:09Z</time>
      </trkpt>
      <trkpt lat="47.62806" lon="7.25733">
        <ele>334</ele>
        <time>2012-03-03T14:26:10Z</time>
      </trkpt>
      <trkpt lat="47.6282" lon="7.25752">
        <ele>334</ele>
        <time>2012-03-03T14:26:11Z</time>
      </trkpt>
      <trkpt lat="47.62833" lon="7.25769">
        <ele>334</ele>
        <time>2012-03-03T14:26:12Z</time>
      </trkpt>
      <trkpt lat="47.62848" lon="7.25787">
        <ele>333</ele>
        <time>2012-03-03T14:26:13Z</time>
      </trkpt>
      <trkpt lat="47.62861" lon="7.25804">
        <ele>333</ele>
        <time>2012-03-03T14:26:14Z</time>
      </trkpt>
      <trkpt lat="47.62872" lon="7.25819">
        <ele>333</ele>
        <time>2012-03-03T14:26:15Z</time>
      </trkpt>
      <trkpt lat="47.62886" lon="7.25837">
        <ele>334</ele>
        <time>2012-03-03T14:26:16Z</time>
      </trkpt>
      <trkpt lat="47.62898" lon="7.25854">
        <ele>334</ele>
        <time>2012-03-03T14:26:17Z</time>
      </trkpt>
      <trkpt lat="47.6291" lon="7.25869">
        <ele>334</ele>
        <time>2012-03-03T14:26:18Z</time>
      </trkpt>
      <trkpt lat="47.62921" lon="7.25885">
        <ele>334</ele>
        <time>2012-03-03T14:26:19Z</time>
      </trkpt>
      <trkpt lat="47.62932" lon="7.25897">
        <ele>334</ele>
        <time>2012-03-03T14:26:20Z</time>
      </trkpt>
      <trkpt lat="47.62942" lon="7.25908">
        <ele>334</ele>
        <time>2012-03-03T14:26:21Z</time>
      </trkpt>
      <trkpt lat="47.6295" lon="7.25919">
        <ele>335</ele>
        <time>2012-03-03T14:26:22Z</time>
      </trkpt>
      <trkpt lat="47.62958" lon="7.25929">
        <ele>335</ele>
        <time>2012-03-03T14:26:23Z</time>
      </trkpt>
      <trkpt lat="47.62962" lon="7.25941">
        <ele>334</ele>
        <time>2012-03-03T14:26:24Z</time>
      </trkpt>
      <trkpt lat="47.62964" lon="7.25952">
        <ele>335</ele>
        <time>2012-03-03T14:26:25Z</time>
      </trkpt>
      <trkpt lat="47.62966" lon="7.25962">
        <ele>335</ele>
        <time>2012-03-03T14:26:26Z</time>
      </trkpt>
      <trkpt lat="47.62964" lon="7.25978">
        <ele>336</ele>
        <time>2012-03-03T14:26:27Z</time>
      </trkpt>
      <trkpt lat="47.62968" lon="7.25991">
        <ele>336</ele>
        <time>2012-03-03T14:26:28Z</time>
      </trkpt>
      <trkpt lat="47.62974" lon="7.26003">
        <ele>335</ele>
        <time>2012-03-03T14:26:29Z</time>
      </trkpt>
      <trkpt lat="47.62982" lon="7.26008">
        <ele>334</ele>
        <time>2012-03-03T14:26:30Z</time>
      </trkpt>
      <trkpt lat="47.62994" lon="7.26011">
        <ele>334</ele>
        <time>2012-03-03T14:26:31Z</time>
      </trkpt>
      <trkpt lat="47.63008" lon="7.26015">
        <ele>334</ele>
        <time>2012-03-03T14:26:32Z</time>
      </trkpt>
      <trkpt lat="47.63027" lon="7.26019">
        <ele>333</ele>
        <time>2012-03-03T14:26:33Z</time>
      </trkpt>
      <trkpt lat="47.63046" lon="7.26027">
        <ele>333</ele>
        <time>2012-03-03T14:26:34Z</time>
      </trkpt>
      <trkpt lat="47.63063" lon="7.26038">
        <ele>332</ele>
        <time>2012-03-03T14:26:35Z</time>
      </trkpt>
      <trkpt lat="47.63082" lon="7.2605">
        <ele>332</ele>
        <time>2012-03-03T14:26:36Z</time>
      </trkpt>
      <trkpt lat="47.63103" lon="7.26064">
        <ele>332</ele>
        <time>2012-03-03T14:26:37Z</time>
      </trkpt>
      <trkpt lat="47.63121" lon="7.26077">
        <ele>332</ele>
        <time>2012-03-03T14:26:38Z</time>
      </trkpt>
      <trkpt lat="47.63137" lon="7.2609">
        <ele>332</ele>
        <time>2012-03-03T14:26:39Z</time>
      </trkpt>
      <trkpt lat="47.63156" lon="7.26101">
        <ele>332</ele>
        <time>2012-03-03T14:26:40Z</time>
      </trkpt>
      <trkpt lat="47.63174" lon="7.26113">
        <ele>332</ele>
        <time>2012-03-03T14:26:41Z</time>
      </trkpt>
      <trkpt lat="47.63192" lon="7.26124">
        <ele>332</ele>
        <time>2012-03-03T14:26:42Z</time>
      </trkpt>
      <trkpt lat="47.63209" lon="7.26136">
        <ele>332</ele>
        <time>2012-03-03T14:26:43Z</time>
      </trkpt>
      <trkpt lat="47.63229" lon="7.26147">
        <ele>332</ele>
        <time>2012-03-03T14:26:44Z</time>
      </trkpt>
      <trkpt lat="47.63251" lon="7.26158">
        <ele>332</ele>
        <time>2012-03-03T14:26:45Z</time>
      </trkpt>
      <trkpt lat="47.63274" lon="7.26172">
        <ele>332</ele>
        <time>2012-03-03T14:26:46Z</time>
      </trkpt>
      <trkpt lat="47.63296" lon="7.26187">
        <ele>332</ele>
        <time>2012-03-03T14:26:47Z</time>
      </trkpt>
      <trkpt lat="47.6332" lon="7.26201">
        <ele>332</ele>
        <time>2012-03-03T14:26:48Z</time>
      </trkpt>
      <trkpt lat="47.63343" lon="7.26213">
        <ele>331</ele>
        <time>2012-03-03T14:26:49Z</time>
      </trkpt>
      <trkpt lat="47.63363" lon="7.26225">
        <ele>332</ele>
        <time>2012-03-03T14:26:50Z</time>
      </trkpt>
      <trkpt lat="47.63384" lon="7.26236">
        <ele>332</ele>
        <time>2012-03-03T14:26:51Z</time>
      </trkpt>
      <trkpt lat="47.63404" lon="7.26248">
        <ele>332</ele>
        <time>2012-03-03T14:26:52Z</time>
      </trkpt>
      <trkpt lat="47.63424" lon="7.26261">
        <ele>332</ele>
        <time>2012-03-03T14:26:53Z</time>
      </trkpt>
      <trkpt lat="47.63444" lon="7.26274">
        <ele>332</ele>
        <time>2012-03-03T14:26:54Z</time>
      </trkpt>
      <trkpt lat="47.63464" lon="7.26287">
        <ele>332</ele>
        <time>2012-03-03T14:26:55Z</time>
      </trkpt>
      <trkpt lat="47.63489" lon="7.263">
        <ele>333</ele>
        <time>2012-03-03T14:26:56Z</time>
      </trkpt>
      <trkpt lat="47.6351" lon="7.26316">
        <ele>333</ele>
        <time>2012-03-03T14:26:57Z</time>
      </trkpt>
      <trkpt lat="47.6353" lon="7.26329">
        <ele>333</ele>
        <time>2012-03-03T14:26:58Z</time>
      </trkpt>
      <trkpt lat="47.63548" lon="7.26342">
        <ele>333</ele>
        <time>2012-03-03T14:26:59Z</time>
      </trkpt>
      <trkpt lat="47.63564" lon="7.26356">
        <ele>333</ele>
        <time>2012-03-03T14:27:00Z</time>
      </trkpt>
      <trkpt lat="47.6358" lon="7.26371">
        <ele>332</ele>
        <time>2012-03-03T14:27:01Z</time>
      </trkpt>
      <trkpt lat="47.63595" lon="7.26386">
        <ele>332</ele>
        <time>2012-03-03T14:27:02Z</time>
      </trkpt>
      <trkpt lat="47.63607" lon="7.26398">
        <ele>332</ele>
        <time>2012-03-03T14:27:03Z</time>
      </trkpt>
      <trkpt lat="47.6362" lon="7.26411">
        <ele>332</ele>
        <time>2012-03-03T14:27:04Z</time>
      </trkpt>
      <trkpt lat="47.6363" lon="7.26423">
        <ele>332</ele>
        <time>2012-03-03T14:27:05Z</time>
      </trkpt>
      <trkpt lat="47.63642" lon="7.26433">
        <ele>332</ele>
        <time>2012-03-03T14:27:06Z</time>
      </trkpt>
      <trkpt lat="47.63652" lon="7.26445">
        <ele>332</ele>
        <time>2012-03-03T14:27:07Z</time>
      </trkpt>
      <trkpt lat="47.63664" lon="7.26454">
        <ele>332</ele>
        <time>2012-03-03T14:27:08Z</time>
      </trkpt>
      <trkpt lat="47.63675" lon="7.26462">
        <ele>332</ele>
        <time>2012-03-03T14:27:09Z</time>
      </trkpt>
      <trkpt lat="47.63686" lon="7.26469">
        <ele>332</ele>
        <time>2012-03-03T14:27:10Z</time>
      </trkpt>
      <trkpt lat="47.63696" lon="7.26475">
        <ele>332</ele>
        <time>2012-03-03T14:27:11Z</time>
      </trkpt>
      <trkpt lat="47.63708" lon="7.26481">
        <ele>332</ele>
        <time>2012-03-03T14:27:12Z</time>
      </trkpt>
      <trkpt lat="47.63722" lon="7.26483">
        <ele>332</ele>
        <time>2012-03-03T14:27:13Z</time>
      </trkpt>
      <trkpt lat="47.63734" lon="7.26485">
        <ele>332</ele>
        <time>2012-03-03T14:27:14Z</time>
      </trkpt>
      <trkpt lat="47.63745" lon="7.26485">
        <ele>332</ele>
        <time>2012-03-03T14:27:15Z</time>
      </trkpt>
      <trkpt lat="47.63759" lon="7.26483">
        <ele>332</ele>
        <time>2012-03-03T14:27:16Z</time>
      </trkpt>
      <trkpt lat="47.63772" lon="7.26478">
        <ele>332</ele>
        <time>2012-03-03T14:27:17Z</time>
      </trkpt>
      <trkpt lat="47.63785" lon="7.26475">
        <ele>333</ele>
        <time>2012-03-03T14:27:18Z</time>
      </trkpt>
      <trkpt lat="47.63796" lon="7.26471">
        <ele>333</ele>
        <time>2012-03-03T14:27:19Z</time>
      </trkpt>
      <trkpt lat="47.63811" lon="7.26467">
        <ele>333</ele>
        <time>2012-03-03T14:27:20Z</time>
      </trkpt>
      <trkpt lat="47.63822" lon="7.26465">
        <ele>333</ele>
        <time>2012-03-03T14:27:21Z</time>
      </trkpt>
      <trkpt lat="47.63835" lon="7.26462">
        <ele>333</ele>
        <time>2012-03-03T14:27:22Z</time>
      </trkpt>
      <trkpt lat="47.63848" lon="7.26458">
        <ele>334</ele>
        <time>2012-03-03T14:27:23Z</time>
      </trkpt>
      <trkpt lat="47.63861" lon="7.26455">
        <ele>334</ele>
        <time>2012-03-03T14:27:24Z</time>
      </trkpt>
      <trkpt lat="47.63875" lon="7.26453">
        <ele>334</ele>
        <time>2012-03-03T14:27:25Z</time>
      </trkpt>
      <trkpt lat="47.63891" lon="7.26449">
        <ele>334</ele>
        <time>2012-03-03T14:27:26Z</time>
      </trkpt>
      <trkpt lat="47.63905" lon="7.26446">
        <ele>334</ele>
        <time>2012-03-03T14:27:27Z</time>
      </trkpt>
      <trkpt lat="47.6392" lon="7.26442">
        <ele>334</ele>
        <time>2012-03-03T14:27:28Z</time>
      </trkpt>
      <trkpt lat="47.63934" lon="7.26439">
        <ele>334</ele>
        <time>2012-03-03T14:27:29Z</time>
      </trkpt>
      <trkpt lat="47.63945" lon="7.26436">
        <ele>334</ele>
        <time>2012-03-03T14:27:30Z</time>
      </trkpt>
      <trkpt lat="47.63954" lon="7.26436">
        <ele>334</ele>
        <time>2012-03-03T14:27:31Z</time>
      </trkpt>
      <trkpt lat="47.63966" lon="7.26435">
        <ele>334</ele>
        <time>2012-03-03T14:27:32Z</time>
      </trkpt>
      <trkpt lat="47.63979" lon="7.26437">
        <ele>335</ele>
        <time>2012-03-03T14:27:33Z</time>
      </trkpt>
      <trkpt lat="47.63993" lon="7.26441">
        <ele>334</ele>
        <time>2012-03-03T14:27:34Z</time>
      </trkpt>
      <trkpt lat="47.64003" lon="7.26448">
        <ele>334</ele>
        <time>2012-03-03T14:27:35Z</time>
      </trkpt>
      <trkpt lat="47.64016" lon="7.26454">
        <ele>334</ele>
        <time>2012-03-03T14:27:36Z</time>
      </trkpt>
      <trkpt lat="47.64028" lon="7.26459">
        <ele>335</ele>
        <time>2012-03-03T14:27:37Z</time>
      </trkpt>
      <trkpt lat="47.6404" lon="7.26465">
        <ele>335</ele>
        <time>2012-03-03T14:27:38Z</time>
      </trkpt>
      <trkpt lat="47.64051" lon="7.26471">
        <ele>335</ele>
        <time>2012-03-03T14:27:39Z</time>
      </trkpt>
      <trkpt lat="47.64063" lon="7.26477">
        <ele>335</ele>
        <time>2012-03-03T14:27:40Z</time>
      </trkpt>
      <trkpt lat="47.64076" lon="7.26481">
        <ele>335</ele>
        <time>2012-03-03T14:27:41Z</time>
      </trkpt>
      <trkpt lat="47.64089" lon="7.26483">
        <ele>335</ele>
        <time>2012-03-03T14:27:42Z</time>
      </trkpt>
      <trkpt lat="47.641" lon="7.26486">
        <ele>335</ele>
        <time>2012-03-03T14:27:43Z</time>
      </trkpt>
      <trkpt lat="47.64113" lon="7.26487">
        <ele>335</ele>
        <time>2012-03-03T14:27:44Z</time>
      </trkpt>
      <trkpt lat="47.64126" lon="7.26488">
        <ele>335</ele>
        <time>2012-03-03T14:27:45Z</time>
      </trkpt>
      <trkpt lat="47.64139" lon="7.2649">
        <ele>335</ele>
        <time>2012-03-03T14:27:46Z</time>
      </trkpt>
      <trkpt lat="47.64152" lon="7.26489">
        <ele>335</ele>
        <time>2012-03-03T14:27:47Z</time>
      </trkpt>
      <trkpt lat="47.64165" lon="7.26488">
        <ele>335</ele>
        <time>2012-03-03T14:27:48Z</time>
      </trkpt>
      <trkpt lat="47.64177" lon="7.26489">
        <ele>335</ele>
        <time>2012-03-03T14:27:49Z</time>
      </trkpt>
      <trkpt lat="47.64189" lon="7.2649">
        <ele>336</ele>
        <time>2012-03-03T14:27:50Z</time>
      </trkpt>
      <trkpt lat="47.642" lon="7.2649">
        <ele>336</ele>
        <time>2012-03-03T14:27:51Z</time>
      </trkpt>
      <trkpt lat="47.64213" lon="7.26486">
        <ele>336</ele>
        <time>2012-03-03T14:27:52Z</time>
      </trkpt>
      <trkpt lat="47.64226" lon="7.26483">
        <ele>336</ele>
        <time>2012-03-03T14:27:53Z</time>
      </trkpt>
      <trkpt lat="47.64239" lon="7.26481">
        <ele>336</ele>
        <time>2012-03-03T14:27:54Z</time>
      </trkpt>
      <trkpt lat="47.64252" lon="7.26479">
        <ele>336</ele>
        <time>2012-03-03T14:27:55Z</time>
      </trkpt>
      <trkpt lat="47.64265" lon="7.26477">
        <ele>336</ele>
        <time>2012-03-03T14:27:56Z</time>
      </trkpt>
      <trkpt lat="47.64278" lon="7.26474">
        <ele>336</ele>
        <time>2012-03-03T14:27:57Z</time>
      </trkpt>
      <trkpt lat="47.64289" lon="7.26472">
        <ele>336</ele>
        <time>2012-03-03T14:27:58Z</time>
      </trkpt>
      <trkpt lat="47.643" lon="7.26471">
        <ele>336</ele>
        <time>2012-03-03T14:27:59Z</time>
      </trkpt>
      <trkpt lat="47.64311" lon="7.26469">
        <ele>336</ele>
        <time>2012-03-03T14:28:00Z</time>
      </trkpt>
      <trkpt lat="47.64319" lon="7.26467">
        <ele>336</ele>
        <time>2012-03-03T14:28:01Z</time>
      </trkpt>
      <trkpt lat="47.64329" lon="7.26464">
        <ele>335</ele>
        <time>2012-03-03T14:28:02Z</time>
      </trkpt>
      <trkpt lat="47.64337" lon="7.26462">
        <ele>335</ele>
        <time>2012-03-03T14:28:03Z</time>
      </trkpt>
      <trkpt lat="47.64348" lon="7.26458">
        <ele>335</ele>
        <time>2012-03-03T14:28:04Z</time>
      </trkpt>
      <trkpt lat="47.6436" lon="7.26455">
        <ele>335</ele>
        <time>2012-03-03T14:28:05Z</time>
      </trkpt>
      <trkpt lat="47.64374" lon="7.26453">
        <ele>335</ele>
        <time>2012-03-03T14:28:06Z</time>
      </trkpt>
      <trkpt lat="47.64386" lon="7.26449">
        <ele>336</ele>
        <time>2012-03-03T14:28:07Z</time>
      </trkpt>
      <trkpt lat="47.64401" lon="7.26444">
        <ele>336</ele>
        <time>2012-03-03T14:28:08Z</time>
      </trkpt>
      <trkpt lat="47.64412" lon="7.2644">
        <ele>335</ele>
        <time>2012-03-03T14:28:09Z</time>
      </trkpt>
      <trkpt lat="47.64422" lon="7.26439">
        <ele>336</ele>
        <time>2012-03-03T14:28:10Z</time>
      </trkpt>
      <trkpt lat="47.64432" lon="7.26437">
        <ele>336</ele>
        <time>2012-03-03T14:28:11Z</time>
      </trkpt>
      <trkpt lat="47.64442" lon="7.26434">
        <ele>336</ele>
        <time>2012-03-03T14:28:12Z</time>
      </trkpt>
      <trkpt lat="47.64453" lon="7.26433">
        <ele>336</ele>
        <time>2012-03-03T14:28:13Z</time>
      </trkpt>
      <trkpt lat="47.64467" lon="7.26431">
        <ele>335</ele>
        <time>2012-03-03T14:28:14Z</time>
      </trkpt>
      <trkpt lat="47.64479" lon="7.2643">
        <ele>335</ele>
        <time>2012-03-03T14:28:15Z</time>
      </trkpt>
      <trkpt lat="47.64488" lon="7.26432">
        <ele>337</ele>
        <time>2012-03-03T14:28:16Z</time>
      </trkpt>
      <trkpt lat="47.645" lon="7.26433">
        <ele>337</ele>
        <time>2012-03-03T14:28:17Z</time>
      </trkpt>
      <trkpt lat="47.64509" lon="7.26436">
        <ele>337</ele>
        <time>2012-03-03T14:28:18Z</time>
      </trkpt>
      <trkpt lat="47.6452" lon="7.26439">
        <ele>337</ele>
        <time>2012-03-03T14:28:19Z</time>
      </trkpt>
      <trkpt lat="47.64533" lon="7.26444">
        <ele>337</ele>
        <time>2012-03-03T14:28:20Z</time>
      </trkpt>
      <trkpt lat="47.64549" lon="7.2645">
        <ele>336</ele>
        <time>2012-03-03T14:28:21Z</time>
      </trkpt>
      <trkpt lat="47.64563" lon="7.26456">
        <ele>336</ele>
        <time>2012-03-03T14:28:22Z</time>
      </trkpt>
      <trkpt lat="47.64575" lon="7.26464">
        <ele>336</ele>
        <time>2012-03-03T14:28:23Z</time>
      </trkpt>
      <trkpt lat="47.64589" lon="7.26469">
        <ele>335</ele>
        <time>2012-03-03T14:28:24Z</time>
      </trkpt>
      <trkpt lat="47.64599" lon="7.26474">
        <ele>333</ele>
        <time>2012-03-03T14:28:25Z</time>
      </trkpt>
      <trkpt lat="47.64609" lon="7.2648">
        <ele>331</ele>
        <time>2012-03-03T14:28:26Z</time>
      </trkpt>
      <trkpt lat="47.64621" lon="7.26483">
        <ele>331</ele>
        <time>2012-03-03T14:28:27Z</time>
      </trkpt>
      <trkpt lat="47.64633" lon="7.26485">
        <ele>332</ele>
        <time>2012-03-03T14:28:28Z</time>
      </trkpt>
      <trkpt lat="47.64643" lon="7.26489">
        <ele>332</ele>
        <time>2012-03-03T14:28:29Z</time>
      </trkpt>
      <trkpt lat="47.64654" lon="7.2649">
        <ele>331</ele>
        <time>2012-03-03T14:28:30Z</time>
      </trkpt>
      <trkpt lat="47.64663" lon="7.26491">
        <ele>331</ele>
        <time>2012-03-03T14:28:31Z</time>
      </trkpt>
      <trkpt lat="47.64673" lon="7.26491">
        <ele>331</ele>
        <time>2012-03-03T14:28:32Z</time>
      </trkpt>
      <trkpt lat="47.64683" lon="7.26491">
        <ele>331</ele>
        <time>2012-03-03T14:28:33Z</time>
      </trkpt>
      <trkpt lat="47.64693" lon="7.26492">
        <ele>331</ele>
        <time>2012-03-03T14:28:34Z</time>
      </trkpt>
      <trkpt lat="47.64703" lon="7.26492">
        <ele>331</ele>
        <time>2012-03-03T14:28:35Z</time>
      </trkpt>
      <trkpt lat="47.64714" lon="7.26491">
        <ele>331</ele>
        <time>2012-03-03T14:28:36Z</time>
      </trkpt>
      <trkpt lat="47.64724" lon="7.26491">
        <ele>330</ele>
        <time>2012-03-03T14:28:37Z</time>
      </trkpt>
      <trkpt lat="47.64734" lon="7.26489">
        <ele>331</ele>
        <time>2012-03-03T14:28:38Z</time>
      </trkpt>
      <trkpt lat="47.64743" lon="7.26486">
        <ele>330</ele>
        <time>2012-03-03T14:28:39Z</time>
      </trkpt>
      <trkpt lat="47.64755" lon="7.26484">
        <ele>330</ele>
        <time>2012-03-03T14:28:40Z</time>
      </trkpt>
      <trkpt lat="47.6478" lon="7.26478">
        <ele>330</ele>
        <time>2012-03-03T14:28:42Z</time>
      </trkpt>
      <trkpt lat="47.6479" lon="7.26475">
        <ele>330</ele>
        <time>2012-03-03T14:28:43Z</time>
      </trkpt>
      <trkpt lat="47.64803" lon="7.26471">
        <ele>330</ele>
        <time>2012-03-03T14:28:44Z</time>
      </trkpt>
      <trkpt lat="47.64813" lon="7.26469">
        <ele>330</ele>
        <time>2012-03-03T14:28:45Z</time>
      </trkpt>
      <trkpt lat="47.64825" lon="7.26467">
        <ele>330</ele>
        <time>2012-03-03T14:28:46Z</time>
      </trkpt>
      <trkpt lat="47.64834" lon="7.26464">
        <ele>331</ele>
        <time>2012-03-03T14:28:47Z</time>
      </trkpt>
      <trkpt lat="47.64847" lon="7.26461">
        <ele>331</ele>
        <time>2012-03-03T14:28:48Z</time>
      </trkpt>
      <trkpt lat="47.64857" lon="7.2646">
        <ele>330</ele>
        <time>2012-03-03T14:28:49Z</time>
      </trkpt>
      <trkpt lat="47.64869" lon="7.26458">
        <ele>330</ele>
        <time>2012-03-03T14:28:50Z</time>
      </trkpt>
      <trkpt lat="47.64884" lon="7.26455">
        <ele>330</ele>
        <time>2012-03-03T14:28:51Z</time>
      </trkpt>
      <trkpt lat="47.64899" lon="7.26452">
        <ele>330</ele>
        <time>2012-03-03T14:28:52Z</time>
      </trkpt>
      <trkpt lat="47.64914" lon="7.26449">
        <ele>330</ele>
        <time>2012-03-03T14:28:53Z</time>
      </trkpt>
      <trkpt lat="47.64927" lon="7.2645">
        <ele>330</ele>
        <time>2012-03-03T14:28:54Z</time>
      </trkpt>
      <trkpt lat="47.64943" lon="7.2645">
        <ele>330</ele>
        <time>2012-03-03T14:28:55Z</time>
      </trkpt>
      <trkpt lat="47.64959" lon="7.26451">
        <ele>331</ele>
        <time>2012-03-03T14:28:56Z</time>
      </trkpt>
      <trkpt lat="47.64974" lon="7.26451">
        <ele>331</ele>
        <time>2012-03-03T14:28:57Z</time>
      </trkpt>
      <trkpt lat="47.64988" lon="7.26451">
        <ele>331</ele>
        <time>2012-03-03T14:28:58Z</time>
      </trkpt>
      <trkpt lat="47.65003" lon="7.26452">
        <ele>331</ele>
        <time>2012-03-03T14:28:59Z</time>
      </trkpt>
      <trkpt lat="47.65017" lon="7.26453">
        <ele>331</ele>
        <time>2012-03-03T14:29:00Z</time>
      </trkpt>
      <trkpt lat="47.65032" lon="7.26453">
        <ele>331</ele>
        <time>2012-03-03T14:29:01Z</time>
      </trkpt>
      <trkpt lat="47.65046" lon="7.26455">
        <ele>331</ele>
        <time>2012-03-03T14:29:02Z</time>
      </trkpt>
      <trkpt lat="47.6506" lon="7.26456">
        <ele>331</ele>
        <time>2012-03-03T14:29:03Z</time>
      </trkpt>
      <trkpt lat="47.65074" lon="7.26459">
        <ele>330</ele>
        <time>2012-03-03T14:29:04Z</time>
      </trkpt>
      <trkpt lat="47.6509" lon="7.2646">
        <ele>330</ele>
        <time>2012-03-03T14:29:05Z</time>
      </trkpt>
      <trkpt lat="47.65104" lon="7.26463">
        <ele>330</ele>
        <time>2012-03-03T14:29:06Z</time>
      </trkpt>
      <trkpt lat="47.6512" lon="7.26464">
        <ele>330</ele>
        <time>2012-03-03T14:29:07Z</time>
      </trkpt>
      <trkpt lat="47.65135" lon="7.26467">
        <ele>330</ele>
        <time>2012-03-03T14:29:08Z</time>
      </trkpt>
      <trkpt lat="47.65151" lon="7.26468">
        <ele>329</ele>
        <time>2012-03-03T14:29:09Z</time>
      </trkpt>
      <trkpt lat="47.65167" lon="7.26469">
        <ele>330</ele>
        <time>2012-03-03T14:29:10Z</time>
      </trkpt>
      <trkpt lat="47.65183" lon="7.26471">
        <ele>330</ele>
        <time>2012-03-03T14:29:11Z</time>
      </trkpt>
      <trkpt lat="47.652" lon="7.26473">
        <ele>330</ele>
        <time>2012-03-03T14:29:12Z</time>
      </trkpt>
      <trkpt lat="47.65218" lon="7.26474">
        <ele>331</ele>
        <time>2012-03-03T14:29:13Z</time>
      </trkpt>
      <trkpt lat="47.65234" lon="7.26475">
        <ele>330</ele>
        <time>2012-03-03T14:29:14Z</time>
      </trkpt>
      <trkpt lat="47.65248" lon="7.26477">
        <ele>331</ele>
        <time>2012-03-03T14:29:15Z</time>
      </trkpt>
      <trkpt lat="47.65263" lon="7.26481">
        <ele>331</ele>
        <time>2012-03-03T14:29:16Z</time>
      </trkpt>
      <trkpt lat="47.65278" lon="7.26484">
        <ele>331</ele>
        <time>2012-03-03T14:29:17Z</time>
      </trkpt>
      <trkpt lat="47.65292" lon="7.26491">
        <ele>331</ele>
        <time>2012-03-03T14:29:18Z</time>
      </trkpt>
      <trkpt lat="47.65309" lon="7.26496">
        <ele>330</ele>
        <time>2012-03-03T14:29:19Z</time>
      </trkpt>
      <trkpt lat="47.65326" lon="7.26502">
        <ele>330</ele>
        <time>2012-03-03T14:29:20Z</time>
      </trkpt>
      <trkpt lat="47.65343" lon="7.26511">
        <ele>330</ele>
        <time>2012-03-03T14:29:21Z</time>
      </trkpt>
      <trkpt lat="47.65357" lon="7.2652">
        <ele>330</ele>
        <time>2012-03-03T14:29:22Z</time>
      </trkpt>
      <trkpt lat="47.6537" lon="7.26532">
        <ele>330</ele>
        <time>2012-03-03T14:29:23Z</time>
      </trkpt>
      <trkpt lat="47.65384" lon="7.26537">
        <ele>330</ele>
        <time>2012-03-03T14:29:24Z</time>
      </trkpt>
      <trkpt lat="47.65399" lon="7.26545">
        <ele>330</ele>
        <time>2012-03-03T14:29:25Z</time>
      </trkpt>
      <trkpt lat="47.65414" lon="7.26548">
        <ele>330</ele>
        <time>2012-03-03T14:29:26Z</time>
      </trkpt>
      <trkpt lat="47.65428" lon="7.26554">
        <ele>329</ele>
        <time>2012-03-03T14:29:27Z</time>
      </trkpt>
      <trkpt lat="47.65444" lon="7.2656">
        <ele>329</ele>
        <time>2012-03-03T14:29:28Z</time>
      </trkpt>
      <trkpt lat="47.65458" lon="7.26565">
        <ele>327</ele>
        <time>2012-03-03T14:29:29Z</time>
      </trkpt>
      <trkpt lat="47.65474" lon="7.26566">
        <ele>328</ele>
        <time>2012-03-03T14:29:30Z</time>
      </trkpt>
      <trkpt lat="47.65489" lon="7.26567">
        <ele>327</ele>
        <time>2012-03-03T14:29:31Z</time>
      </trkpt>
      <trkpt lat="47.65505" lon="7.26567">
        <ele>327</ele>
        <time>2012-03-03T14:29:32Z</time>
      </trkpt>
      <trkpt lat="47.6552" lon="7.26566">
        <ele>327</ele>
        <time>2012-03-03T14:29:33Z</time>
      </trkpt>
      <trkpt lat="47.65538" lon="7.26564">
        <ele>327</ele>
        <time>2012-03-03T14:29:34Z</time>
      </trkpt>
      <trkpt lat="47.65554" lon="7.26561">
        <ele>327</ele>
        <time>2012-03-03T14:29:35Z</time>
      </trkpt>
      <trkpt lat="47.65571" lon="7.26558">
        <ele>327</ele>
        <time>2012-03-03T14:29:36Z</time>
      </trkpt>
      <trkpt lat="47.65591" lon="7.26551">
        <ele>327</ele>
        <time>2012-03-03T14:29:37Z</time>
      </trkpt>
      <trkpt lat="47.65608" lon="7.26548">
        <ele>327</ele>
        <time>2012-03-03T14:29:38Z</time>
      </trkpt>
      <trkpt lat="47.65627" lon="7.26543">
        <ele>327</ele>
        <time>2012-03-03T14:29:39Z</time>
      </trkpt>
      <trkpt lat="47.65645" lon="7.26537">
        <ele>327</ele>
        <time>2012-03-03T14:29:40Z</time>
      </trkpt>
      <trkpt lat="47.65663" lon="7.26529">
        <ele>328</ele>
        <time>2012-03-03T14:29:41Z</time>
      </trkpt>
      <trkpt lat="47.6568" lon="7.26528">
        <ele>328</ele>
        <time>2012-03-03T14:29:42Z</time>
      </trkpt>
      <trkpt lat="47.65696" lon="7.26523">
        <ele>328</ele>
        <time>2012-03-03T14:29:43Z</time>
      </trkpt>
      <trkpt lat="47.65716" lon="7.2652">
        <ele>328</ele>
        <time>2012-03-03T14:29:44Z</time>
      </trkpt>
      <trkpt lat="47.65736" lon="7.26515">
        <ele>328</ele>
        <time>2012-03-03T14:29:45Z</time>
      </trkpt>
      <trkpt lat="47.65755" lon="7.26513">
        <ele>328</ele>
        <time>2012-03-03T14:29:46Z</time>
      </trkpt>
      <trkpt lat="47.65776" lon="7.26514">
        <ele>328</ele>
        <time>2012-03-03T14:29:47Z</time>
      </trkpt>
      <trkpt lat="47.65794" lon="7.26516">
        <ele>328</ele>
        <time>2012-03-03T14:29:48Z</time>
      </trkpt>
      <trkpt lat="47.65816" lon="7.26518">
        <ele>328</ele>
        <time>2012-03-03T14:29:49Z</time>
      </trkpt>
      <trkpt lat="47.65836" lon="7.26521">
        <ele>328</ele>
        <time>2012-03-03T14:29:50Z</time>
      </trkpt>
      <trkpt lat="47.65857" lon="7.26527">
        <ele>328</ele>
        <time>2012-03-03T14:29:51Z</time>
      </trkpt>
      <trkpt lat="47.65882" lon="7.26534">
        <ele>328</ele>
        <time>2012-03-03T14:29:52Z</time>
      </trkpt>
      <trkpt lat="47.65904" lon="7.2654">
        <ele>328</ele>
        <time>2012-03-03T14:29:53Z</time>
      </trkpt>
      <trkpt lat="47.65927" lon="7.26546">
        <ele>328</ele>
        <time>2012-03-03T14:29:54Z</time>
      </trkpt>
      <trkpt lat="47.65951" lon="7.26551">
        <ele>328</ele>
        <time>2012-03-03T14:29:55Z</time>
      </trkpt>
      <trkpt lat="47.65973" lon="7.26558">
        <ele>328</ele>
        <time>2012-03-03T14:29:56Z</time>
      </trkpt>
      <trkpt lat="47.65997" lon="7.26564">
        <ele>329</ele>
        <time>2012-03-03T14:29:57Z</time>
      </trkpt>
      <trkpt lat="47.66021" lon="7.2657">
        <ele>329</ele>
        <time>2012-03-03T14:29:58Z</time>
      </trkpt>
      <trkpt lat="47.66043" lon="7.26576">
        <ele>329</ele>
        <time>2012-03-03T14:29:59Z</time>
      </trkpt>
      <trkpt lat="47.66066" lon="7.26582">
        <ele>329</ele>
        <time>2012-03-03T14:30:00Z</time>
      </trkpt>
      <trkpt lat="47.66087" lon="7.26588">
        <ele>329</ele>
        <time>2012-03-03T14:30:01Z</time>
      </trkpt>
      <trkpt lat="47.66107" lon="7.26594">
        <ele>329</ele>
        <time>2012-03-03T14:30:02Z</time>
      </trkpt>
      <trkpt lat="47.66128" lon="7.266">
        <ele>329</ele>
        <time>2012-03-03T14:30:03Z</time>
      </trkpt>
      <trkpt lat="47.66144" lon="7.26606">
        <ele>329</ele>
        <time>2012-03-03T14:30:04Z</time>
      </trkpt>
      <trkpt lat="47.66163" lon="7.2661">
        <ele>328</ele>
        <time>2012-03-03T14:30:05Z</time>
      </trkpt>
      <trkpt lat="47.6618" lon="7.26613">
        <ele>328</ele>
        <time>2012-03-03T14:30:06Z</time>
      </trkpt>
      <trkpt lat="47.66193" lon="7.26616">
        <ele>328</ele>
        <time>2012-03-03T14:30:07Z</time>
      </trkpt>
      <trkpt lat="47.66209" lon="7.26621">
        <ele>328</ele>
        <time>2012-03-03T14:30:08Z</time>
      </trkpt>
      <trkpt lat="47.66225" lon="7.26624">
        <ele>328</ele>
        <time>2012-03-03T14:30:09Z</time>
      </trkpt>
      <trkpt lat="47.66241" lon="7.26628">
        <ele>328</ele>
        <time>2012-03-03T14:30:10Z</time>
      </trkpt>
      <trkpt lat="47.66258" lon="7.26631">
        <ele>328</ele>
        <time>2012-03-03T14:30:11Z</time>
      </trkpt>
      <trkpt lat="47.66274" lon="7.26633">
        <ele>328</ele>
        <time>2012-03-03T14:30:12Z</time>
      </trkpt>
      <trkpt lat="47.66288" lon="7.26635">
        <ele>329</ele>
        <time>2012-03-03T14:30:13Z</time>
      </trkpt>
      <trkpt lat="47.663" lon="7.26639">
        <ele>328</ele>
        <time>2012-03-03T14:30:14Z</time>
      </trkpt>
      <trkpt lat="47.66309" lon="7.26639">
        <ele>327</ele>
        <time>2012-03-03T14:30:15Z</time>
      </trkpt>
      <trkpt lat="47.66323" lon="7.26638">
        <ele>327</ele>
        <time>2012-03-03T14:30:16Z</time>
      </trkpt>
      <trkpt lat="47.66338" lon="7.26637">
        <ele>326</ele>
        <time>2012-03-03T14:30:17Z</time>
      </trkpt>
      <trkpt lat="47.66352" lon="7.2663">
        <ele>326</ele>
        <time>2012-03-03T14:30:18Z</time>
      </trkpt>
      <trkpt lat="47.66367" lon="7.26625">
        <ele>326</ele>
        <time>2012-03-03T14:30:19Z</time>
      </trkpt>
      <trkpt lat="47.66379" lon="7.2662">
        <ele>326</ele>
        <time>2012-03-03T14:30:20Z</time>
      </trkpt>
      <trkpt lat="47.66393" lon="7.2661">
        <ele>326</ele>
        <time>2012-03-03T14:30:21Z</time>
      </trkpt>
      <trkpt lat="47.66405" lon="7.26601">
        <ele>326</ele>
        <time>2012-03-03T14:30:22Z</time>
      </trkpt>
      <trkpt lat="47.66412" lon="7.26593">
        <ele>326</ele>
        <time>2012-03-03T14:30:23Z</time>
      </trkpt>
      <trkpt lat="47.66418" lon="7.26583">
        <ele>326</ele>
        <time>2012-03-03T14:30:24Z</time>
      </trkpt>
      <trkpt lat="47.66427" lon="7.26574">
        <ele>326</ele>
        <time>2012-03-03T14:30:25Z</time>
      </trkpt>
      <trkpt lat="47.66436" lon="7.26567">
        <ele>326</ele>
        <time>2012-03-03T14:30:26Z</time>
      </trkpt>
      <trkpt lat="47.66445" lon="7.26558">
        <ele>326</ele>
        <time>2012-03-03T14:30:27Z</time>
      </trkpt>
      <trkpt lat="47.6645" lon="7.26551">
        <ele>326</ele>
        <time>2012-03-03T14:30:28Z</time>
      </trkpt>
      <trkpt lat="47.66458" lon="7.26548">
        <ele>326</ele>
        <time>2012-03-03T14:30:29Z</time>
      </trkpt>
      <trkpt lat="47.66466" lon="7.26546">
        <ele>326</ele>
        <time>2012-03-03T14:30:30Z</time>
      </trkpt>
      <trkpt lat="47.66473" lon="7.26546">
        <ele>325</ele>
        <time>2012-03-03T14:30:31Z</time>
      </trkpt>
      <trkpt lat="47.66482" lon="7.26544">
        <ele>325</ele>
        <time>2012-03-03T14:30:32Z</time>
      </trkpt>
      <trkpt lat="47.66492" lon="7.26543">
        <ele>325</ele>
        <time>2012-03-03T14:30:33Z</time>
      </trkpt>
      <trkpt lat="47.66502" lon="7.26542">
        <ele>325</ele>
        <time>2012-03-03T14:30:34Z</time>
      </trkpt>
      <trkpt lat="47.6651" lon="7.26543">
        <ele>324</ele>
        <time>2012-03-03T14:30:35Z</time>
      </trkpt>
      <trkpt lat="47.6652" lon="7.26542">
        <ele>324</ele>
        <time>2012-03-03T14:30:36Z</time>
      </trkpt>
      <trkpt lat="47.6653" lon="7.2654">
        <ele>324</ele>
        <time>2012-03-03T14:30:37Z</time>
      </trkpt>
      <trkpt lat="47.66536" lon="7.2654">
        <ele>325</ele>
        <time>2012-03-03T14:30:38Z</time>
      </trkpt>
      <trkpt lat="47.66542" lon="7.26538">
        <ele>324</ele>
        <time>2012-03-03T14:30:39Z</time>
      </trkpt>
      <trkpt lat="47.66552" lon="7.26538">
        <ele>325</ele>
        <time>2012-03-03T14:30:40Z</time>
      </trkpt>
      <trkpt lat="47.66557" lon="7.26538">
        <ele>324</ele>
        <time>2012-03-03T14:30:41Z</time>
      </trkpt>
      <trkpt lat="47.66562" lon="7.2654">
        <ele>324</ele>
        <time>2012-03-03T14:30:42Z</time>
      </trkpt>
      <trkpt lat="47.66567" lon="7.2654">
        <ele>324</ele>
        <time>2012-03-03T14:30:43Z</time>
      </trkpt>
      <trkpt lat="47.66573" lon="7.26541">
        <ele>324</ele>
        <time>2012-03-03T14:30:44Z</time>
      </trkpt>
      <trkpt lat="47.66582" lon="7.2654">
        <ele>324</ele>
        <time>2012-03-03T14:30:45Z</time>
      </trkpt>
      <trkpt lat="47.66587" lon="7.26541">
        <ele>324</ele>
        <time>2012-03-03T14:30:46Z</time>
      </trkpt>
      <trkpt lat="47.66599" lon="7.26545">
        <ele>324</ele>
        <time>2012-03-03T14:30:48Z</time>
      </trkpt>
      <trkpt lat="47.66605" lon="7.26548">
        <ele>324</ele>
        <time>2012-03-03T14:30:49Z</time>
      </trkpt>
      <trkpt lat="47.6661" lon="7.26549">
        <ele>324</ele>
        <time>2012-03-03T14:30:50Z</time>
      </trkpt>
      <trkpt lat="47.66617" lon="7.26552">
        <ele>324</ele>
        <time>2012-03-03T14:30:51Z</time>
      </trkpt>
      <trkpt lat="47.66626" lon="7.26555">
        <ele>324</ele>
        <time>2012-03-03T14:30:52Z</time>
      </trkpt>
      <trkpt lat="47.66634" lon="7.26557">
        <ele>325</ele>
        <time>2012-03-03T14:30:53Z</time>
      </trkpt>
      <trkpt lat="47.66642" lon="7.26559">
        <ele>325</ele>
        <time>2012-03-03T14:30:54Z</time>
      </trkpt>
      <trkpt lat="47.66648" lon="7.26562">
        <ele>325</ele>
        <time>2012-03-03T14:30:55Z</time>
      </trkpt>
      <trkpt lat="47.66656" lon="7.26566">
        <ele>325</ele>
        <time>2012-03-03T14:30:56Z</time>
      </trkpt>
      <trkpt lat="47.66664" lon="7.26568">
        <ele>325</ele>
        <time>2012-03-03T14:30:57Z</time>
      </trkpt>
      <trkpt lat="47.66674" lon="7.26571">
        <ele>325</ele>
        <time>2012-03-03T14:30:58Z</time>
      </trkpt>
      <trkpt lat="47.66683" lon="7.26573">
        <ele>325</ele>
        <time>2012-03-03T14:30:59Z</time>
      </trkpt>
      <trkpt lat="47.66697" lon="7.26573">
        <ele>324</ele>
        <time>2012-03-03T14:31:00Z</time>
      </trkpt>
      <trkpt lat="47.66705" lon="7.26577">
        <ele>323</ele>
        <time>2012-03-03T14:31:01Z</time>
      </trkpt>
      <trkpt lat="47.66715" lon="7.26578">
        <ele>324</ele>
        <time>2012-03-03T14:31:02Z</time>
      </trkpt>
      <trkpt lat="47.66725" lon="7.2658">
        <ele>325</ele>
        <time>2012-03-03T14:31:03Z</time>
      </trkpt>
      <trkpt lat="47.66738" lon="7.2658">
        <ele>326</ele>
        <time>2012-03-03T14:31:04Z</time>
      </trkpt>
      <trkpt lat="47.66748" lon="7.26581">
        <ele>325</ele>
        <time>2012-03-03T14:31:05Z</time>
      </trkpt>
      <trkpt lat="47.66758" lon="7.2658">
        <ele>325</ele>
        <time>2012-03-03T14:31:06Z</time>
      </trkpt>
      <trkpt lat="47.66769" lon="7.2658">
        <ele>324</ele>
        <time>2012-03-03T14:31:07Z</time>
      </trkpt>
      <trkpt lat="47.6678" lon="7.2658">
        <ele>324</ele>
        <time>2012-03-03T14:31:08Z</time>
      </trkpt>
      <trkpt lat="47.66791" lon="7.2658">
        <ele>324</ele>
        <time>2012-03-03T14:31:09Z</time>
      </trkpt>
      <trkpt lat="47.66801" lon="7.26578">
        <ele>324</ele>
        <time>2012-03-03T14:31:10Z</time>
      </trkpt>
      <trkpt lat="47.6681" lon="7.26581">
        <ele>324</ele>
        <time>2012-03-03T14:31:11Z</time>
      </trkpt>
      <trkpt lat="47.66821" lon="7.2658">
        <ele>323</ele>
        <time>2012-03-03T14:31:12Z</time>
      </trkpt>
      <trkpt lat="47.66831" lon="7.2658">
        <ele>324</ele>
        <time>2012-03-03T14:31:13Z</time>
      </trkpt>
      <trkpt lat="47.66839" lon="7.26578">
        <ele>323</ele>
        <time>2012-03-03T14:31:14Z</time>
      </trkpt>
      <trkpt lat="47.66849" lon="7.26577">
        <ele>323</ele>
        <time>2012-03-03T14:31:15Z</time>
      </trkpt>
      <trkpt lat="47.66856" lon="7.26576">
        <ele>324</ele>
        <time>2012-03-03T14:31:16Z</time>
      </trkpt>
      <trkpt lat="47.66865" lon="7.26574">
        <ele>324</ele>
        <time>2012-03-03T14:31:17Z</time>
      </trkpt>
      <trkpt lat="47.6687" lon="7.26573">
        <ele>324</ele>
        <time>2012-03-03T14:31:18Z</time>
      </trkpt>
      <trkpt lat="47.66878" lon="7.26571">
        <ele>324</ele>
        <time>2012-03-03T14:31:19Z</time>
      </trkpt>
      <trkpt lat="47.66889" lon="7.26565">
        <ele>324</ele>
        <time>2012-03-03T14:31:20Z</time>
      </trkpt>
      <trkpt lat="47.66897" lon="7.26562">
        <ele>324</ele>
        <time>2012-03-03T14:31:21Z</time>
      </trkpt>
      <trkpt lat="47.66908" lon="7.26556">
        <ele>324</ele>
        <time>2012-03-03T14:31:22Z</time>
      </trkpt>
      <trkpt lat="47.6692" lon="7.26546">
        <ele>323</ele>
        <time>2012-03-03T14:31:23Z</time>
      </trkpt>
      <trkpt lat="47.6693" lon="7.26542">
        <ele>323</ele>
        <time>2012-03-03T14:31:24Z</time>
      </trkpt>
      <trkpt lat="47.66938" lon="7.26536">
        <ele>323</ele>
        <time>2012-03-03T14:31:25Z</time>
      </trkpt>
      <trkpt lat="47.66947" lon="7.2653">
        <ele>323</ele>
        <time>2012-03-03T14:31:26Z</time>
      </trkpt>
      <trkpt lat="47.66956" lon="7.26522">
        <ele>323</ele>
        <time>2012-03-03T14:31:27Z</time>
      </trkpt>
      <trkpt lat="47.66966" lon="7.26515">
        <ele>324</ele>
        <time>2012-03-03T14:31:28Z</time>
      </trkpt>
      <trkpt lat="47.66975" lon="7.26509">
        <ele>324</ele>
        <time>2012-03-03T14:31:29Z</time>
      </trkpt>
      <trkpt lat="47.66983" lon="7.26504">
        <ele>324</ele>
        <time>2012-03-03T14:31:30Z</time>
      </trkpt>
      <trkpt lat="47.66994" lon="7.26498">
        <ele>324</ele>
        <time>2012-03-03T14:31:31Z</time>
      </trkpt>
      <trkpt lat="47.67005" lon="7.26497">
        <ele>323</ele>
        <time>2012-03-03T14:31:32Z</time>
      </trkpt>
      <trkpt lat="47.67015" lon="7.26497">
        <ele>324</ele>
        <time>2012-03-03T14:31:33Z</time>
      </trkpt>
      <trkpt lat="47.67025" lon="7.26498">
        <ele>323</ele>
        <time>2012-03-03T14:31:34Z</time>
      </trkpt>
      <trkpt lat="47.67036" lon="7.26497">
        <ele>323</ele>
        <time>2012-03-03T14:31:35Z</time>
      </trkpt>
      <trkpt lat="47.67047" lon="7.26497">
        <ele>322</ele>
        <time>2012-03-03T14:31:36Z</time>
      </trkpt>
      <trkpt lat="47.67059" lon="7.26496">
        <ele>322</ele>
        <time>2012-03-03T14:31:37Z</time>
      </trkpt>
      <trkpt lat="47.67068" lon="7.26497">
        <ele>322</ele>
        <time>2012-03-03T14:31:38Z</time>
      </trkpt>
      <trkpt lat="47.67076" lon="7.26497">
        <ele>322</ele>
        <time>2012-03-03T14:31:39Z</time>
      </trkpt>
      <trkpt lat="47.67081" lon="7.26499">
        <ele>322</ele>
        <time>2012-03-03T14:31:40Z</time>
      </trkpt>
      <trkpt lat="47.6709" lon="7.26501">
        <ele>322</ele>
        <time>2012-03-03T14:31:41Z</time>
      </trkpt>
      <trkpt lat="47.67099" lon="7.26502">
        <ele>322</ele>
        <time>2012-03-03T14:31:42Z</time>
      </trkpt>
      <trkpt lat="47.67107" lon="7.26504">
        <ele>322</ele>
        <time>2012-03-03T14:31:43Z</time>
      </trkpt>
      <trkpt lat="47.67117" lon="7.26506">
        <ele>322</ele>
        <time>2012-03-03T14:31:44Z</time>
      </trkpt>
      <trkpt lat="47.67125" lon="7.26511">
        <ele>323</ele>
        <time>2012-03-03T14:31:45Z</time>
      </trkpt>
      <trkpt lat="47.67136" lon="7.26516">
        <ele>324</ele>
        <time>2012-03-03T14:31:46Z</time>
      </trkpt>
      <trkpt lat="47.67147" lon="7.2652">
        <ele>324</ele>
        <time>2012-03-03T14:31:47Z</time>
      </trkpt>
      <trkpt lat="47.67159" lon="7.26524">
        <ele>324</ele>
        <time>2012-03-03T14:31:48Z</time>
      </trkpt>
      <trkpt lat="47.6717" lon="7.2653">
        <ele>324</ele>
        <time>2012-03-03T14:31:49Z</time>
      </trkpt>
      <trkpt lat="47.67182" lon="7.26541">
        <ele>323</ele>
        <time>2012-03-03T14:31:50Z</time>
      </trkpt>
      <trkpt lat="47.6719" lon="7.26546">
        <ele>322</ele>
        <time>2012-03-03T14:31:51Z</time>
      </trkpt>
      <trkpt lat="47.67203" lon="7.26553">
        <ele>321</ele>
        <time>2012-03-03T14:31:52Z</time>
      </trkpt>
      <trkpt lat="47.67212" lon="7.26558">
        <ele>321</ele>
        <time>2012-03-03T14:31:53Z</time>
      </trkpt>
      <trkpt lat="47.67222" lon="7.26564">
        <ele>321</ele>
        <time>2012-03-03T14:31:54Z</time>
      </trkpt>
      <trkpt lat="47.67233" lon="7.26568">
        <ele>321</ele>
        <time>2012-03-03T14:31:55Z</time>
      </trkpt>
      <trkpt lat="47.67244" lon="7.2657">
        <ele>320</ele>
        <time>2012-03-03T14:31:56Z</time>
      </trkpt>
      <trkpt lat="47.67257" lon="7.26571">
        <ele>321</ele>
        <time>2012-03-03T14:31:57Z</time>
      </trkpt>
      <trkpt lat="47.67268" lon="7.26574">
        <ele>321</ele>
        <time>2012-03-03T14:31:58Z</time>
      </trkpt>
      <trkpt lat="47.67277" lon="7.26576">
        <ele>322</ele>
        <time>2012-03-03T14:31:59Z</time>
      </trkpt>
      <trkpt lat="47.67286" lon="7.26578">
        <ele>322</ele>
        <time>2012-03-03T14:32:00Z</time>
      </trkpt>
      <trkpt lat="47.67296" lon="7.26579">
        <ele>322</ele>
        <time>2012-03-03T14:32:01Z</time>
      </trkpt>
      <trkpt lat="47.67305" lon="7.26583">
        <ele>322</ele>
        <time>2012-03-03T14:32:02Z</time>
      </trkpt>
      <trkpt lat="47.67309" lon="7.26588">
        <ele>321</ele>
        <time>2012-03-03T14:32:03Z</time>
      </trkpt>
      <trkpt lat="47.67318" lon="7.2659">
        <ele>322</ele>
        <time>2012-03-03T14:32:04Z</time>
      </trkpt>
      <trkpt lat="47.67326" lon="7.26593">
        <ele>321</ele>
        <time>2012-03-03T14:32:05Z</time>
      </trkpt>
      <trkpt lat="47.67334" lon="7.26595">
        <ele>322</ele>
        <time>2012-03-03T14:32:06Z</time>
      </trkpt>
      <trkpt lat="47.67341" lon="7.26599">
        <ele>321</ele>
        <time>2012-03-03T14:32:07Z</time>
      </trkpt>
      <trkpt lat="47.67346" lon="7.26602">
        <ele>321</ele>
        <time>2012-03-03T14:32:08Z</time>
      </trkpt>
      <trkpt lat="47.67352" lon="7.26604">
        <ele>321</ele>
        <time>2012-03-03T14:32:09Z</time>
      </trkpt>
      <trkpt lat="47.67356" lon="7.26606">
        <ele>320</ele>
        <time>2012-03-03T14:32:10Z</time>
      </trkpt>
      <trkpt lat="47.67362" lon="7.26606">
        <ele>319</ele>
        <time>2012-03-03T14:32:11Z</time>
      </trkpt>
      <trkpt lat="47.67367" lon="7.26602">
        <ele>319</ele>
        <time>2012-03-03T14:32:12Z</time>
      </trkpt>
      <trkpt lat="47.67371" lon="7.26597">
        <ele>319</ele>
        <time>2012-03-03T14:32:13Z</time>
      </trkpt>
      <trkpt lat="47.67369" lon="7.26584">
        <ele>317</ele>
        <time>2012-03-03T14:32:14Z</time>
      </trkpt>
      <trkpt lat="47.67369" lon="7.26574">
        <ele>318</ele>
        <time>2012-03-03T14:32:15Z</time>
      </trkpt>
      <trkpt lat="47.67372" lon="7.2656">
        <ele>318</ele>
        <time>2012-03-03T14:32:16Z</time>
      </trkpt>
      <trkpt lat="47.67376" lon="7.26546">
        <ele>318</ele>
        <time>2012-03-03T14:32:17Z</time>
      </trkpt>
      <trkpt lat="47.67379" lon="7.26529">
        <ele>317</ele>
        <time>2012-03-03T14:32:18Z</time>
      </trkpt>
      <trkpt lat="47.67381" lon="7.26513">
        <ele>317</ele>
        <time>2012-03-03T14:32:19Z</time>
      </trkpt>
      <trkpt lat="47.67385" lon="7.26496">
        <ele>317</ele>
        <time>2012-03-03T14:32:20Z</time>
      </trkpt>
      <trkpt lat="47.67392" lon="7.26479">
        <ele>316</ele>
        <time>2012-03-03T14:32:21Z</time>
      </trkpt>
      <trkpt lat="47.67397" lon="7.26461">
        <ele>315</ele>
        <time>2012-03-03T14:32:22Z</time>
      </trkpt>
      <trkpt lat="47.67399" lon="7.26444">
        <ele>314</ele>
        <time>2012-03-03T14:32:23Z</time>
      </trkpt>
      <trkpt lat="47.67401" lon="7.26424">
        <ele>314</ele>
        <time>2012-03-03T14:32:24Z</time>
      </trkpt>
      <trkpt lat="47.67406" lon="7.26405">
        <ele>314</ele>
        <time>2012-03-03T14:32:25Z</time>
      </trkpt>
      <trkpt lat="47.67411" lon="7.26388">
        <ele>313</ele>
        <time>2012-03-03T14:32:26Z</time>
      </trkpt>
      <trkpt lat="47.67414" lon="7.26372">
        <ele>314</ele>
        <time>2012-03-03T14:32:27Z</time>
      </trkpt>
      <trkpt lat="47.67418" lon="7.26357">
        <ele>314</ele>
        <time>2012-03-03T14:32:28Z</time>
      </trkpt>
      <trkpt lat="47.67423" lon="7.26343">
        <ele>314</ele>
        <time>2012-03-03T14:32:29Z</time>
      </trkpt>
      <trkpt lat="47.67428" lon="7.26329">
        <ele>313</ele>
        <time>2012-03-03T14:32:30Z</time>
      </trkpt>
      <trkpt lat="47.67433" lon="7.26314">
        <ele>313</ele>
        <time>2012-03-03T14:32:31Z</time>
      </trkpt>
      <trkpt lat="47.67439" lon="7.26299">
        <ele>313</ele>
        <time>2012-03-03T14:32:32Z</time>
      </trkpt>
      <trkpt lat="47.67445" lon="7.26282">
        <ele>313</ele>
        <time>2012-03-03T14:32:33Z</time>
      </trkpt>
      <trkpt lat="47.67451" lon="7.26265">
        <ele>313</ele>
        <time>2012-03-03T14:32:34Z</time>
      </trkpt>
      <trkpt lat="47.67459" lon="7.26249">
        <ele>313</ele>
        <time>2012-03-03T14:32:35Z</time>
      </trkpt>
      <trkpt lat="47.67466" lon="7.26234">
        <ele>313</ele>
        <time>2012-03-03T14:32:36Z</time>
      </trkpt>
      <trkpt lat="47.67475" lon="7.26218">
        <ele>313</ele>
        <time>2012-03-03T14:32:37Z</time>
      </trkpt>
      <trkpt lat="47.67482" lon="7.26203">
        <ele>313</ele>
        <time>2012-03-03T14:32:38Z</time>
      </trkpt>
      <trkpt lat="47.6749" lon="7.26189">
        <ele>314</ele>
        <time>2012-03-03T14:32:39Z</time>
      </trkpt>
      <trkpt lat="47.67497" lon="7.26173">
        <ele>315</ele>
        <time>2012-03-03T14:32:40Z</time>
      </trkpt>
      <trkpt lat="47.67502" lon="7.2616">
        <ele>316</ele>
        <time>2012-03-03T14:32:41Z</time>
      </trkpt>
      <trkpt lat="47.67512" lon="7.26149">
        <ele>315</ele>
        <time>2012-03-03T14:32:42Z</time>
      </trkpt>
      <trkpt lat="47.6753" lon="7.2612">
        <ele>316</ele>
        <time>2012-03-03T14:32:44Z</time>
      </trkpt>
      <trkpt lat="47.6754" lon="7.26102">
        <ele>316</ele>
        <time>2012-03-03T14:32:45Z</time>
      </trkpt>
      <trkpt lat="47.6755" lon="7.26086">
        <ele>317</ele>
        <time>2012-03-03T14:32:46Z</time>
      </trkpt>
      <trkpt lat="47.6756" lon="7.26071">
        <ele>317</ele>
        <time>2012-03-03T14:32:47Z</time>
      </trkpt>
      <trkpt lat="47.67571" lon="7.26054">
        <ele>318</ele>
        <time>2012-03-03T14:32:48Z</time>
      </trkpt>
      <trkpt lat="47.67582" lon="7.26037">
        <ele>318</ele>
        <time>2012-03-03T14:32:49Z</time>
      </trkpt>
      <trkpt lat="47.67594" lon="7.26018">
        <ele>317</ele>
        <time>2012-03-03T14:32:50Z</time>
      </trkpt>
      <trkpt lat="47.67606" lon="7.26">
        <ele>317</ele>
        <time>2012-03-03T14:32:51Z</time>
      </trkpt>
      <trkpt lat="47.67617" lon="7.25982">
        <ele>318</ele>
        <time>2012-03-03T14:32:52Z</time>
      </trkpt>
      <trkpt lat="47.67626" lon="7.25964">
        <ele>318</ele>
        <time>2012-03-03T14:32:53Z</time>
      </trkpt>
      <trkpt lat="47.67636" lon="7.25946">
        <ele>318</ele>
        <time>2012-03-03T14:32:54Z</time>
      </trkpt>
      <trkpt lat="47.67645" lon="7.25929">
        <ele>318</ele>
        <time>2012-03-03T14:32:55Z</time>
      </trkpt>
      <trkpt lat="47.67656" lon="7.25911">
        <ele>319</ele>
        <time>2012-03-03T14:32:56Z</time>
      </trkpt>
      <trkpt lat="47.67666" lon="7.25895">
        <ele>318</ele>
        <time>2012-03-03T14:32:57Z</time>
      </trkpt>
      <trkpt lat="47.67675" lon="7.2588">
        <ele>318</ele>
        <time>2012-03-03T14:32:58Z</time>
      </trkpt>
      <trkpt lat="47.67686" lon="7.25862">
        <ele>319</ele>
        <time>2012-03-03T14:32:59Z</time>
      </trkpt>
      <trkpt lat="47.67695" lon="7.25846">
        <ele>319</ele>
        <time>2012-03-03T14:33:00Z</time>
      </trkpt>
      <trkpt lat="47.67704" lon="7.25828">
        <ele>319</ele>
        <time>2012-03-03T14:33:01Z</time>
      </trkpt>
      <trkpt lat="47.67712" lon="7.25812">
        <ele>319</ele>
        <time>2012-03-03T14:33:02Z</time>
      </trkpt>
      <trkpt lat="47.6772" lon="7.25795">
        <ele>319</ele>
        <time>2012-03-03T14:33:03Z</time>
      </trkpt>
      <trkpt lat="47.67729" lon="7.25775">
        <ele>319</ele>
        <time>2012-03-03T14:33:04Z</time>
      </trkpt>
      <trkpt lat="47.67738" lon="7.25757">
        <ele>320</ele>
        <time>2012-03-03T14:33:05Z</time>
      </trkpt>
      <trkpt lat="47.67744" lon="7.25741">
        <ele>320</ele>
        <time>2012-03-03T14:33:06Z</time>
      </trkpt>
      <trkpt lat="47.67749" lon="7.25724">
        <ele>319</ele>
        <time>2012-03-03T14:33:07Z</time>
      </trkpt>
      <trkpt lat="47.67754" lon="7.2571">
        <ele>318</ele>
        <time>2012-03-03T14:33:08Z</time>
      </trkpt>
      <trkpt lat="47.6776" lon="7.25697">
        <ele>319</ele>
        <time>2012-03-03T14:33:09Z</time>
      </trkpt>
      <trkpt lat="47.67766" lon="7.25687">
        <ele>318</ele>
        <time>2012-03-03T14:33:10Z</time>
      </trkpt>
      <trkpt lat="47.67773" lon="7.25679">
        <ele>318</ele>
        <time>2012-03-03T14:33:11Z</time>
      </trkpt>
      <trkpt lat="47.67783" lon="7.25672">
        <ele>318</ele>
        <time>2012-03-03T14:33:12Z</time>
      </trkpt>
      <trkpt lat="47.67794" lon="7.25668">
        <ele>318</ele>
        <time>2012-03-03T14:33:13Z</time>
      </trkpt>
      <trkpt lat="47.67808" lon="7.25672">
        <ele>318</ele>
        <time>2012-03-03T14:33:14Z</time>
      </trkpt>
      <trkpt lat="47.67822" lon="7.25679">
        <ele>319</ele>
        <time>2012-03-03T14:33:15Z</time>
      </trkpt>
      <trkpt lat="47.67836" lon="7.25688">
        <ele>318</ele>
        <time>2012-03-03T14:33:16Z</time>
      </trkpt>
      <trkpt lat="47.67848" lon="7.257">
        <ele>318</ele>
        <time>2012-03-03T14:33:17Z</time>
      </trkpt>
      <trkpt lat="47.6786" lon="7.25715">
        <ele>317</ele>
        <time>2012-03-03T14:33:18Z</time>
      </trkpt>
      <trkpt lat="47.67872" lon="7.25728">
        <ele>317</ele>
        <time>2012-03-03T14:33:19Z</time>
      </trkpt>
      <trkpt lat="47.67887" lon="7.25743">
        <ele>317</ele>
        <time>2012-03-03T14:33:20Z</time>
      </trkpt>
      <trkpt lat="47.67901" lon="7.25756">
        <ele>317</ele>
        <time>2012-03-03T14:33:21Z</time>
      </trkpt>
      <trkpt lat="47.67914" lon="7.25769">
        <ele>317</ele>
        <time>2012-03-03T14:33:22Z</time>
      </trkpt>
      <trkpt lat="47.67926" lon="7.25784">
        <ele>317</ele>
        <time>2012-03-03T14:33:23Z</time>
      </trkpt>
      <trkpt lat="47.67939" lon="7.25801">
        <ele>317</ele>
        <time>2012-03-03T14:33:24Z</time>
      </trkpt>
      <trkpt lat="47.67952" lon="7.25816">
        <ele>317</ele>
        <time>2012-03-03T14:33:25Z</time>
      </trkpt>
      <trkpt lat="47.67967" lon="7.25832">
        <ele>317</ele>
        <time>2012-03-03T14:33:26Z</time>
      </trkpt>
      <trkpt lat="47.6798" lon="7.2585">
        <ele>317</ele>
        <time>2012-03-03T14:33:27Z</time>
      </trkpt>
      <trkpt lat="47.67997" lon="7.2587">
        <ele>318</ele>
        <time>2012-03-03T14:33:28Z</time>
      </trkpt>
      <trkpt lat="47.68013" lon="7.25889">
        <ele>318</ele>
        <time>2012-03-03T14:33:29Z</time>
      </trkpt>
      <trkpt lat="47.68028" lon="7.25908">
        <ele>318</ele>
        <time>2012-03-03T14:33:30Z</time>
      </trkpt>
      <trkpt lat="47.68049" lon="7.25929">
        <ele>318</ele>
        <time>2012-03-03T14:33:31Z</time>
      </trkpt>
      <trkpt lat="47.68066" lon="7.2595">
        <ele>318</ele>
        <time>2012-03-03T14:33:32Z</time>
      </trkpt>
      <trkpt lat="47.68082" lon="7.25975">
        <ele>318</ele>
        <time>2012-03-03T14:33:33Z</time>
      </trkpt>
      <trkpt lat="47.68099" lon="7.26">
        <ele>318</ele>
        <time>2012-03-03T14:33:34Z</time>
      </trkpt>
      <trkpt lat="47.68115" lon="7.26025">
        <ele>318</ele>
        <time>2012-03-03T14:33:35Z</time>
      </trkpt>
      <trkpt lat="47.68133" lon="7.26054">
        <ele>319</ele>
        <time>2012-03-03T14:33:36Z</time>
      </trkpt>
      <trkpt lat="47.68149" lon="7.26082">
        <ele>319</ele>
        <time>2012-03-03T14:33:37Z</time>
      </trkpt>
      <trkpt lat="47.68164" lon="7.2611">
        <ele>319</ele>
        <time>2012-03-03T14:33:38Z</time>
      </trkpt>
      <trkpt lat="47.68181" lon="7.26142">
        <ele>319</ele>
        <time>2012-03-03T14:33:39Z</time>
      </trkpt>
      <trkpt lat="47.68195" lon="7.2617">
        <ele>319</ele>
        <time>2012-03-03T14:33:40Z</time>
      </trkpt>
      <trkpt lat="47.68208" lon="7.262">
        <ele>319</ele>
        <time>2012-03-03T14:33:41Z</time>
      </trkpt>
      <trkpt lat="47.68221" lon="7.26225">
        <ele>318</ele>
        <time>2012-03-03T14:33:42Z</time>
      </trkpt>
      <trkpt lat="47.68236" lon="7.26248">
        <ele>319</ele>
        <time>2012-03-03T14:33:43Z</time>
      </trkpt>
      <trkpt lat="47.6825" lon="7.26275">
        <ele>319</ele>
        <time>2012-03-03T14:33:44Z</time>
      </trkpt>
      <trkpt lat="47.68264" lon="7.263">
        <ele>319</ele>
        <time>2012-03-03T14:33:45Z</time>
      </trkpt>
      <trkpt lat="47.68278" lon="7.26324">
        <ele>319</ele>
        <time>2012-03-03T14:33:46Z</time>
      </trkpt>
      <trkpt lat="47.68293" lon="7.26349">
        <ele>319</ele>
        <time>2012-03-03T14:33:47Z</time>
      </trkpt>
      <trkpt lat="47.68311" lon="7.26374">
        <ele>320</ele>
        <time>2012-03-03T14:33:48Z</time>
      </trkpt>
      <trkpt lat="47.68326" lon="7.26397">
        <ele>320</ele>
        <time>2012-03-03T14:33:49Z</time>
      </trkpt>
      <trkpt lat="47.68343" lon="7.26422">
        <ele>320</ele>
        <time>2012-03-03T14:33:50Z</time>
      </trkpt>
      <trkpt lat="47.68363" lon="7.26437">
        <ele>320</ele>
        <time>2012-03-03T14:33:51Z</time>
      </trkpt>
      <trkpt lat="47.68389" lon="7.26452">
        <ele>319</ele>
        <time>2012-03-03T14:33:52Z</time>
      </trkpt>
      <trkpt lat="47.6841" lon="7.26466">
        <ele>319</ele>
        <time>2012-03-03T14:33:53Z</time>
      </trkpt>
      <trkpt lat="47.68431" lon="7.26481">
        <ele>319</ele>
        <time>2012-03-03T14:33:54Z</time>
      </trkpt>
      <trkpt lat="47.68447" lon="7.26494">
        <ele>319</ele>
        <time>2012-03-03T14:33:55Z</time>
      </trkpt>
      <trkpt lat="47.68463" lon="7.26507">
        <ele>319</ele>
        <time>2012-03-03T14:33:56Z</time>
      </trkpt>
      <trkpt lat="47.68481" lon="7.26519">
        <ele>319</ele>
        <time>2012-03-03T14:33:57Z</time>
      </trkpt>
      <trkpt lat="47.68497" lon="7.26531">
        <ele>319</ele>
        <time>2012-03-03T14:33:58Z</time>
      </trkpt>
      <trkpt lat="47.68511" lon="7.26543">
        <ele>320</ele>
        <time>2012-03-03T14:33:59Z</time>
      </trkpt>
      <trkpt lat="47.68529" lon="7.26554">
        <ele>320</ele>
        <time>2012-03-03T14:34:00Z</time>
      </trkpt>
      <trkpt lat="47.68544" lon="7.26564">
        <ele>320</ele>
        <time>2012-03-03T14:34:01Z</time>
      </trkpt>
      <trkpt lat="47.6856" lon="7.26571">
        <ele>320</ele>
        <time>2012-03-03T14:34:02Z</time>
      </trkpt>
      <trkpt lat="47.68571" lon="7.26581">
        <ele>320</ele>
        <time>2012-03-03T14:34:03Z</time>
      </trkpt>
      <trkpt lat="47.68584" lon="7.26588">
        <ele>320</ele>
        <time>2012-03-03T14:34:04Z</time>
      </trkpt>
      <trkpt lat="47.68595" lon="7.26595">
        <ele>320</ele>
        <time>2012-03-03T14:34:05Z</time>
      </trkpt>
      <trkpt lat="47.68607" lon="7.26602">
        <ele>320</ele>
        <time>2012-03-03T14:34:06Z</time>
      </trkpt>
      <trkpt lat="47.68614" lon="7.26611">
        <ele>320</ele>
        <time>2012-03-03T14:34:07Z</time>
      </trkpt>
      <trkpt lat="47.68624" lon="7.26618">
        <ele>320</ele>
        <time>2012-03-03T14:34:08Z</time>
      </trkpt>
      <trkpt lat="47.68634" lon="7.26623">
        <ele>320</ele>
        <time>2012-03-03T14:34:09Z</time>
      </trkpt>
      <trkpt lat="47.68645" lon="7.26628">
        <ele>320</ele>
        <time>2012-03-03T14:34:10Z</time>
      </trkpt>
      <trkpt lat="47.68658" lon="7.26634">
        <ele>320</ele>
        <time>2012-03-03T14:34:11Z</time>
      </trkpt>
      <trkpt lat="47.68672" lon="7.26641">
        <ele>320</ele>
        <time>2012-03-03T14:34:12Z</time>
      </trkpt>
      <trkpt lat="47.68684" lon="7.26648">
        <ele>320</ele>
        <time>2012-03-03T14:34:13Z</time>
      </trkpt>
      <trkpt lat="47.68697" lon="7.26655">
        <ele>321</ele>
        <time>2012-03-03T14:34:14Z</time>
      </trkpt>
      <trkpt lat="47.68708" lon="7.26662">
        <ele>321</ele>
        <time>2012-03-03T14:34:15Z</time>
      </trkpt>
      <trkpt lat="47.6872" lon="7.26669">
        <ele>321</ele>
        <time>2012-03-03T14:34:16Z</time>
      </trkpt>
      <trkpt lat="47.68731" lon="7.26677">
        <ele>321</ele>
        <time>2012-03-03T14:34:17Z</time>
      </trkpt>
      <trkpt lat="47.6874" lon="7.26688">
        <ele>320</ele>
        <time>2012-03-03T14:34:18Z</time>
      </trkpt>
      <trkpt lat="47.68752" lon="7.267">
        <ele>320</ele>
        <time>2012-03-03T14:34:19Z</time>
      </trkpt>
      <trkpt lat="47.68764" lon="7.26712">
        <ele>320</ele>
        <time>2012-03-03T14:34:20Z</time>
      </trkpt>
      <trkpt lat="47.68773" lon="7.26728">
        <ele>320</ele>
        <time>2012-03-03T14:34:21Z</time>
      </trkpt>
      <trkpt lat="47.68783" lon="7.26741">
        <ele>321</ele>
        <time>2012-03-03T14:34:22Z</time>
      </trkpt>
      <trkpt lat="47.68794" lon="7.26753">
        <ele>321</ele>
        <time>2012-03-03T14:34:23Z</time>
      </trkpt>
      <trkpt lat="47.68805" lon="7.26769">
        <ele>320</ele>
        <time>2012-03-03T14:34:24Z</time>
      </trkpt>
      <trkpt lat="47.68815" lon="7.26782">
        <ele>320</ele>
        <time>2012-03-03T14:34:25Z</time>
      </trkpt>
      <trkpt lat="47.68826" lon="7.26796">
        <ele>319</ele>
        <time>2012-03-03T14:34:26Z</time>
      </trkpt>
      <trkpt lat="47.68834" lon="7.26812">
        <ele>319</ele>
        <time>2012-03-03T14:34:27Z</time>
      </trkpt>
      <trkpt lat="47.6884" lon="7.26829">
        <ele>318</ele>
        <time>2012-03-03T14:34:28Z</time>
      </trkpt>
      <trkpt lat="47.68848" lon="7.26846">
        <ele>317</ele>
        <time>2012-03-03T14:34:29Z</time>
      </trkpt>
      <trkpt lat="47.68854" lon="7.26864">
        <ele>317</ele>
        <time>2012-03-03T14:34:30Z</time>
      </trkpt>
      <trkpt lat="47.68859" lon="7.2688">
        <ele>316</ele>
        <time>2012-03-03T14:34:31Z</time>
      </trkpt>
      <trkpt lat="47.68866" lon="7.26897">
        <ele>316</ele>
        <time>2012-03-03T14:34:32Z</time>
      </trkpt>
      <trkpt lat="47.68872" lon="7.26917">
        <ele>315</ele>
        <time>2012-03-03T14:34:33Z</time>
      </trkpt>
      <trkpt lat="47.68876" lon="7.26936">
        <ele>315</ele>
        <time>2012-03-03T14:34:34Z</time>
      </trkpt>
      <trkpt lat="47.68883" lon="7.26955">
        <ele>315</ele>
        <time>2012-03-03T14:34:35Z</time>
      </trkpt>
      <trkpt lat="47.68887" lon="7.26976">
        <ele>314</ele>
        <time>2012-03-03T14:34:36Z</time>
      </trkpt>
      <trkpt lat="47.68895" lon="7.26996">
        <ele>314</ele>
        <time>2012-03-03T14:34:37Z</time>
      </trkpt>
      <trkpt lat="47.68902" lon="7.27016">
        <ele>314</ele>
        <time>2012-03-03T14:34:38Z</time>
      </trkpt>
      <trkpt lat="47.68906" lon="7.27035">
        <ele>315</ele>
        <time>2012-03-03T14:34:39Z</time>
      </trkpt>
      <trkpt lat="47.68914" lon="7.27054">
        <ele>315</ele>
        <time>2012-03-03T14:34:40Z</time>
      </trkpt>
      <trkpt lat="47.6892" lon="7.27071">
        <ele>314</ele>
        <time>2012-03-03T14:34:41Z</time>
      </trkpt>
      <trkpt lat="47.68929" lon="7.27087">
        <ele>314</ele>
        <time>2012-03-03T14:34:42Z</time>
      </trkpt>
      <trkpt lat="47.68938" lon="7.27102">
        <ele>314</ele>
        <time>2012-03-03T14:34:43Z</time>
      </trkpt>
      <trkpt lat="47.68947" lon="7.27119">
        <ele>314</ele>
        <time>2012-03-03T14:34:44Z</time>
      </trkpt>
      <trkpt lat="47.68954" lon="7.27133">
        <ele>315</ele>
        <time>2012-03-03T14:34:45Z</time>
      </trkpt>
      <trkpt lat="47.68961" lon="7.27147">
        <ele>315</ele>
        <time>2012-03-03T14:34:46Z</time>
      </trkpt>
      <trkpt lat="47.68969" lon="7.27158">
        <ele>315</ele>
        <time>2012-03-03T14:34:47Z</time>
      </trkpt>
      <trkpt lat="47.68983" lon="7.27167">
        <ele>314</ele>
        <time>2012-03-03T14:34:48Z</time>
      </trkpt>
      <trkpt lat="47.68992" lon="7.2718">
        <ele>314</ele>
        <time>2012-03-03T14:34:49Z</time>
      </trkpt>
      <trkpt lat="47.69002" lon="7.2719">
        <ele>313</ele>
        <time>2012-03-03T14:34:50Z</time>
      </trkpt>
      <trkpt lat="47.69014" lon="7.27202">
        <ele>314</ele>
        <time>2012-03-03T14:34:51Z</time>
      </trkpt>
      <trkpt lat="47.69024" lon="7.27212">
        <ele>314</ele>
        <time>2012-03-03T14:34:52Z</time>
      </trkpt>
      <trkpt lat="47.69034" lon="7.27225">
        <ele>315</ele>
        <time>2012-03-03T14:34:53Z</time>
      </trkpt>
      <trkpt lat="47.69047" lon="7.27234">
        <ele>314</ele>
        <time>2012-03-03T14:34:54Z</time>
      </trkpt>
      <trkpt lat="47.69062" lon="7.27241">
        <ele>314</ele>
        <time>2012-03-03T14:34:55Z</time>
      </trkpt>
      <trkpt lat="47.69075" lon="7.27251">
        <ele>314</ele>
        <time>2012-03-03T14:34:56Z</time>
      </trkpt>
      <trkpt lat="47.69088" lon="7.27261">
        <ele>314</ele>
        <time>2012-03-03T14:34:57Z</time>
      </trkpt>
      <trkpt lat="47.69103" lon="7.27271">
        <ele>315</ele>
        <time>2012-03-03T14:34:58Z</time>
      </trkpt>
      <trkpt lat="47.69117" lon="7.27279">
        <ele>314</ele>
        <time>2012-03-03T14:34:59Z</time>
      </trkpt>
      <trkpt lat="47.6913" lon="7.27288">
        <ele>314</ele>
        <time>2012-03-03T14:35:00Z</time>
      </trkpt>
      <trkpt lat="47.69144" lon="7.27296">
        <ele>314</ele>
        <time>2012-03-03T14:35:01Z</time>
      </trkpt>
      <trkpt lat="47.69157" lon="7.27306">
        <ele>314</ele>
        <time>2012-03-03T14:35:02Z</time>
      </trkpt>
      <trkpt lat="47.69168" lon="7.27315">
        <ele>314</ele>
        <time>2012-03-03T14:35:03Z</time>
      </trkpt>
      <trkpt lat="47.6918" lon="7.27325">
        <ele>314</ele>
        <time>2012-03-03T14:35:04Z</time>
      </trkpt>
      <trkpt lat="47.69192" lon="7.27334">
        <ele>314</ele>
        <time>2012-03-03T14:35:05Z</time>
      </trkpt>
      <trkpt lat="47.69206" lon="7.27343">
        <ele>314</ele>
        <time>2012-03-03T14:35:06Z</time>
      </trkpt>
      <trkpt lat="47.69219" lon="7.27352">
        <ele>314</ele>
        <time>2012-03-03T14:35:07Z</time>
      </trkpt>
      <trkpt lat="47.69234" lon="7.27357">
        <ele>315</ele>
        <time>2012-03-03T14:35:08Z</time>
      </trkpt>
      <trkpt lat="47.69249" lon="7.27364">
        <ele>315</ele>
        <time>2012-03-03T14:35:09Z</time>
      </trkpt>
      <trkpt lat="47.69263" lon="7.27374">
        <ele>314</ele>
        <time>2012-03-03T14:35:10Z</time>
      </trkpt>
      <trkpt lat="47.6928" lon="7.27379">
        <ele>314</ele>
        <time>2012-03-03T14:35:11Z</time>
      </trkpt>
      <trkpt lat="47.69298" lon="7.27387">
        <ele>315</ele>
        <time>2012-03-03T14:35:12Z</time>
      </trkpt>
      <trkpt lat="47.69311" lon="7.27398">
        <ele>315</ele>
        <time>2012-03-03T14:35:13Z</time>
      </trkpt>
      <trkpt lat="47.69326" lon="7.27412">
        <ele>314</ele>
        <time>2012-03-03T14:35:14Z</time>
      </trkpt>
      <trkpt lat="47.69338" lon="7.27428">
        <ele>314</ele>
        <time>2012-03-03T14:35:15Z</time>
      </trkpt>
      <trkpt lat="47.69354" lon="7.27444">
        <ele>313</ele>
        <time>2012-03-03T14:35:16Z</time>
      </trkpt>
      <trkpt lat="47.69369" lon="7.27463">
        <ele>313</ele>
        <time>2012-03-03T14:35:17Z</time>
      </trkpt>
      <trkpt lat="47.69383" lon="7.27486">
        <ele>313</ele>
        <time>2012-03-03T14:35:18Z</time>
      </trkpt>
      <trkpt lat="47.69397" lon="7.27506">
        <ele>313</ele>
        <time>2012-03-03T14:35:19Z</time>
      </trkpt>
      <trkpt lat="47.69413" lon="7.27529">
        <ele>313</ele>
        <time>2012-03-03T14:35:20Z</time>
      </trkpt>
      <trkpt lat="47.69428" lon="7.27551">
        <ele>313</ele>
        <time>2012-03-03T14:35:21Z</time>
      </trkpt>
      <trkpt lat="47.69441" lon="7.27569">
        <ele>313</ele>
        <time>2012-03-03T14:35:22Z</time>
      </trkpt>
      <trkpt lat="47.69456" lon="7.27587">
        <ele>313</ele>
        <time>2012-03-03T14:35:23Z</time>
      </trkpt>
      <trkpt lat="47.69471" lon="7.27606">
        <ele>313</ele>
        <time>2012-03-03T14:35:24Z</time>
      </trkpt>
      <trkpt lat="47.69482" lon="7.27624">
        <ele>313</ele>
        <time>2012-03-03T14:35:25Z</time>
      </trkpt>
      <trkpt lat="47.69494" lon="7.27641">
        <ele>313</ele>
        <time>2012-03-03T14:35:26Z</time>
      </trkpt>
      <trkpt lat="47.69506" lon="7.27654">
        <ele>313</ele>
        <time>2012-03-03T14:35:27Z</time>
      </trkpt>
      <trkpt lat="47.6952" lon="7.27672">
        <ele>313</ele>
        <time>2012-03-03T14:35:28Z</time>
      </trkpt>
      <trkpt lat="47.69531" lon="7.27689">
        <ele>314</ele>
        <time>2012-03-03T14:35:29Z</time>
      </trkpt>
      <trkpt lat="47.69546" lon="7.27704">
        <ele>314</ele>
        <time>2012-03-03T14:35:30Z</time>
      </trkpt>
      <trkpt lat="47.69559" lon="7.27718">
        <ele>313</ele>
        <time>2012-03-03T14:35:31Z</time>
      </trkpt>
      <trkpt lat="47.69568" lon="7.27733">
        <ele>313</ele>
        <time>2012-03-03T14:35:32Z</time>
      </trkpt>
      <trkpt lat="47.69579" lon="7.27747">
        <ele>313</ele>
        <time>2012-03-03T14:35:33Z</time>
      </trkpt>
      <trkpt lat="47.69589" lon="7.27762">
        <ele>313</ele>
        <time>2012-03-03T14:35:34Z</time>
      </trkpt>
      <trkpt lat="47.69596" lon="7.27774">
        <ele>313</ele>
        <time>2012-03-03T14:35:35Z</time>
      </trkpt>
      <trkpt lat="47.69603" lon="7.27787">
        <ele>313</ele>
        <time>2012-03-03T14:35:36Z</time>
      </trkpt>
      <trkpt lat="47.69612" lon="7.278">
        <ele>313</ele>
        <time>2012-03-03T14:35:37Z</time>
      </trkpt>
      <trkpt lat="47.69623" lon="7.27811">
        <ele>313</ele>
        <time>2012-03-03T14:35:38Z</time>
      </trkpt>
      <trkpt lat="47.69632" lon="7.27823">
        <ele>312</ele>
        <time>2012-03-03T14:35:39Z</time>
      </trkpt>
      <trkpt lat="47.69642" lon="7.27836">
        <ele>312</ele>
        <time>2012-03-03T14:35:40Z</time>
      </trkpt>
      <trkpt lat="47.69653" lon="7.27844">
        <ele>312</ele>
        <time>2012-03-03T14:35:41Z</time>
      </trkpt>
      <trkpt lat="47.69661" lon="7.27854">
        <ele>312</ele>
        <time>2012-03-03T14:35:42Z</time>
      </trkpt>
      <trkpt lat="47.69668" lon="7.27861">
        <ele>312</ele>
        <time>2012-03-03T14:35:43Z</time>
      </trkpt>
      <trkpt lat="47.69677" lon="7.2787">
        <ele>312</ele>
        <time>2012-03-03T14:35:44Z</time>
      </trkpt>
      <trkpt lat="47.69685" lon="7.27878">
        <ele>311</ele>
        <time>2012-03-03T14:35:45Z</time>
      </trkpt>
      <trkpt lat="47.69696" lon="7.27882">
        <ele>311</ele>
        <time>2012-03-03T14:35:46Z</time>
      </trkpt>
      <trkpt lat="47.69705" lon="7.2789">
        <ele>311</ele>
        <time>2012-03-03T14:35:47Z</time>
      </trkpt>
      <trkpt lat="47.69713" lon="7.27898">
        <ele>311</ele>
        <time>2012-03-03T14:35:48Z</time>
      </trkpt>
      <trkpt lat="47.69722" lon="7.27906">
        <ele>311</ele>
        <time>2012-03-03T14:35:49Z</time>
      </trkpt>
      <trkpt lat="47.6973" lon="7.27915">
        <ele>311</ele>
        <time>2012-03-03T14:35:50Z</time>
      </trkpt>
      <trkpt lat="47.69739" lon="7.27921">
        <ele>311</ele>
        <time>2012-03-03T14:35:51Z</time>
      </trkpt>
      <trkpt lat="47.69749" lon="7.27931">
        <ele>311</ele>
        <time>2012-03-03T14:35:52Z</time>
      </trkpt>
      <trkpt lat="47.69759" lon="7.27938">
        <ele>311</ele>
        <time>2012-03-03T14:35:53Z</time>
      </trkpt>
      <trkpt lat="47.69766" lon="7.27944">
        <ele>311</ele>
        <time>2012-03-03T14:35:54Z</time>
      </trkpt>
      <trkpt lat="47.69773" lon="7.27952">
        <ele>311</ele>
        <time>2012-03-03T14:35:55Z</time>
      </trkpt>
      <trkpt lat="47.6978" lon="7.2796">
        <ele>311</ele>
        <time>2012-03-03T14:35:56Z</time>
      </trkpt>
      <trkpt lat="47.69785" lon="7.27971">
        <ele>311</ele>
        <time>2012-03-03T14:35:57Z</time>
      </trkpt>
      <trkpt lat="47.6979" lon="7.2798">
        <ele>311</ele>
        <time>2012-03-03T14:35:58Z</time>
      </trkpt>
      <trkpt lat="47.69798" lon="7.27987">
        <ele>310</ele>
        <time>2012-03-03T14:35:59Z</time>
      </trkpt>
      <trkpt lat="47.69808" lon="7.27991">
        <ele>310</ele>
        <time>2012-03-03T14:36:00Z</time>
      </trkpt>
      <trkpt lat="47.69816" lon="7.27994">
        <ele>310</ele>
        <time>2012-03-03T14:36:01Z</time>
      </trkpt>
      <trkpt lat="47.69823" lon="7.27998">
        <ele>310</ele>
        <time>2012-03-03T14:36:02Z</time>
      </trkpt>
      <trkpt lat="47.6983" lon="7.28002">
        <ele>310</ele>
        <time>2012-03-03T14:36:03Z</time>
      </trkpt>
      <trkpt lat="47.69838" lon="7.28006">
        <ele>310</ele>
        <time>2012-03-03T14:36:04Z</time>
      </trkpt>
      <trkpt lat="47.69847" lon="7.2801">
        <ele>310</ele>
        <time>2012-03-03T14:36:05Z</time>
      </trkpt>
      <trkpt lat="47.69853" lon="7.28014">
        <ele>310</ele>
        <time>2012-03-03T14:36:06Z</time>
      </trkpt>
      <trkpt lat="47.6986" lon="7.28018">
        <ele>310</ele>
        <time>2012-03-03T14:36:07Z</time>
      </trkpt>
      <trkpt lat="47.69868" lon="7.28021">
        <ele>310</ele>
        <time>2012-03-03T14:36:08Z</time>
      </trkpt>
      <trkpt lat="47.69878" lon="7.28024">
        <ele>310</ele>
        <time>2012-03-03T14:36:09Z</time>
      </trkpt>
      <trkpt lat="47.69888" lon="7.28027">
        <ele>310</ele>
        <time>2012-03-03T14:36:10Z</time>
      </trkpt>
      <trkpt lat="47.69896" lon="7.28034">
        <ele>309</ele>
        <time>2012-03-03T14:36:11Z</time>
      </trkpt>
      <trkpt lat="47.69907" lon="7.28035">
        <ele>308</ele>
        <time>2012-03-03T14:36:12Z</time>
      </trkpt>
      <trkpt lat="47.69917" lon="7.28041">
        <ele>308</ele>
        <time>2012-03-03T14:36:13Z</time>
      </trkpt>
      <trkpt lat="47.69928" lon="7.28048">
        <ele>307</ele>
        <time>2012-03-03T14:36:14Z</time>
      </trkpt>
      <trkpt lat="47.69938" lon="7.28054">
        <ele>307</ele>
        <time>2012-03-03T14:36:15Z</time>
      </trkpt>
      <trkpt lat="47.69948" lon="7.28061">
        <ele>307</ele>
        <time>2012-03-03T14:36:16Z</time>
      </trkpt>
      <trkpt lat="47.69959" lon="7.28066">
        <ele>305</ele>
        <time>2012-03-03T14:36:17Z</time>
      </trkpt>
      <trkpt lat="47.69968" lon="7.28072">
        <ele>305</ele>
        <time>2012-03-03T14:36:18Z</time>
      </trkpt>
      <trkpt lat="47.69977" lon="7.28078">
        <ele>306</ele>
        <time>2012-03-03T14:36:19Z</time>
      </trkpt>
      <trkpt lat="47.69989" lon="7.28082">
        <ele>306</ele>
        <time>2012-03-03T14:36:20Z</time>
      </trkpt>
      <trkpt lat="47.69998" lon="7.28087">
        <ele>306</ele>
        <time>2012-03-03T14:36:21Z</time>
      </trkpt>
      <trkpt lat="47.70007" lon="7.28093">
        <ele>306</ele>
        <time>2012-03-03T14:36:22Z</time>
      </trkpt>
      <trkpt lat="47.7002" lon="7.28094">
        <ele>306</ele>
        <time>2012-03-03T14:36:23Z</time>
      </trkpt>
      <trkpt lat="47.7003" lon="7.281">
        <ele>306</ele>
        <time>2012-03-03T14:36:24Z</time>
      </trkpt>
      <trkpt lat="47.70038" lon="7.28108">
        <ele>305</ele>
        <time>2012-03-03T14:36:25Z</time>
      </trkpt>
      <trkpt lat="47.7005" lon="7.28113">
        <ele>305</ele>
        <time>2012-03-03T14:36:26Z</time>
      </trkpt>
      <trkpt lat="47.7006" lon="7.28118">
        <ele>305</ele>
        <time>2012-03-03T14:36:27Z</time>
      </trkpt>
      <trkpt lat="47.70071" lon="7.28124">
        <ele>305</ele>
        <time>2012-03-03T14:36:28Z</time>
      </trkpt>
      <trkpt lat="47.70081" lon="7.28129">
        <ele>305</ele>
        <time>2012-03-03T14:36:29Z</time>
      </trkpt>
      <trkpt lat="47.7009" lon="7.28136">
        <ele>304</ele>
        <time>2012-03-03T14:36:30Z</time>
      </trkpt>
      <trkpt lat="47.70097" lon="7.28144">
        <ele>305</ele>
        <time>2012-03-03T14:36:31Z</time>
      </trkpt>
      <trkpt lat="47.7011" lon="7.28148">
        <ele>305</ele>
        <time>2012-03-03T14:36:32Z</time>
      </trkpt>
      <trkpt lat="47.7012" lon="7.28155">
        <ele>304</ele>
        <time>2012-03-03T14:36:33Z</time>
      </trkpt>
      <trkpt lat="47.7013" lon="7.28164">
        <ele>304</ele>
        <time>2012-03-03T14:36:34Z</time>
      </trkpt>
      <trkpt lat="47.70139" lon="7.28171">
        <ele>304</ele>
        <time>2012-03-03T14:36:35Z</time>
      </trkpt>
      <trkpt lat="47.70149" lon="7.28178">
        <ele>304</ele>
        <time>2012-03-03T14:36:36Z</time>
      </trkpt>
      <trkpt lat="47.70158" lon="7.28185">
        <ele>303</ele>
        <time>2012-03-03T14:36:37Z</time>
      </trkpt>
      <trkpt lat="47.70168" lon="7.28192">
        <ele>302</ele>
        <time>2012-03-03T14:36:38Z</time>
      </trkpt>
      <trkpt lat="47.70176" lon="7.28197">
        <ele>303</ele>
        <time>2012-03-03T14:36:39Z</time>
      </trkpt>
      <trkpt lat="47.70185" lon="7.28205">
        <ele>303</ele>
        <time>2012-03-03T14:36:40Z</time>
      </trkpt>
      <trkpt lat="47.70196" lon="7.28211">
        <ele>303</ele>
        <time>2012-03-03T14:36:41Z</time>
      </trkpt>
      <trkpt lat="47.70205" lon="7.2822">
        <ele>303</ele>
        <time>2012-03-03T14:36:42Z</time>
      </trkpt>
      <trkpt lat="47.70212" lon="7.28228">
        <ele>302</ele>
        <time>2012-03-03T14:36:43Z</time>
      </trkpt>
      <trkpt lat="47.70222" lon="7.28234">
        <ele>302</ele>
        <time>2012-03-03T14:36:44Z</time>
      </trkpt>
      <trkpt lat="47.70234" lon="7.2824">
        <ele>302</ele>
        <time>2012-03-03T14:36:45Z</time>
      </trkpt>
      <trkpt lat="47.70249" lon="7.28241">
        <ele>301</ele>
        <time>2012-03-03T14:36:46Z</time>
      </trkpt>
      <trkpt lat="47.70261" lon="7.28244">
        <ele>301</ele>
        <time>2012-03-03T14:36:47Z</time>
      </trkpt>
      <trkpt lat="47.70273" lon="7.28244">
        <ele>302</ele>
        <time>2012-03-03T14:36:48Z</time>
      </trkpt>
      <trkpt lat="47.70286" lon="7.28244">
        <ele>302</ele>
        <time>2012-03-03T14:36:49Z</time>
      </trkpt>
      <trkpt lat="47.70301" lon="7.28243">
        <ele>302</ele>
        <time>2012-03-03T14:36:50Z</time>
      </trkpt>
      <trkpt lat="47.70315" lon="7.28242">
        <ele>302</ele>
        <time>2012-03-03T14:36:51Z</time>
      </trkpt>
      <trkpt lat="47.70329" lon="7.2824">
        <ele>302</ele>
        <time>2012-03-03T14:36:52Z</time>
      </trkpt>
      <trkpt lat="47.70341" lon="7.28236">
        <ele>302</ele>
        <time>2012-03-03T14:36:53Z</time>
      </trkpt>
      <trkpt lat="47.70351" lon="7.28232">
        <ele>302</ele>
        <time>2012-03-03T14:36:54Z</time>
      </trkpt>
      <trkpt lat="47.70362" lon="7.28223">
        <ele>303</ele>
        <time>2012-03-03T14:36:55Z</time>
      </trkpt>
      <trkpt lat="47.70376" lon="7.28217">
        <ele>303</ele>
        <time>2012-03-03T14:36:56Z</time>
      </trkpt>
      <trkpt lat="47.70389" lon="7.28211">
        <ele>302</ele>
        <time>2012-03-03T14:36:57Z</time>
      </trkpt>
      <trkpt lat="47.704" lon="7.28205">
        <ele>303</ele>
        <time>2012-03-03T14:36:58Z</time>
      </trkpt>
      <trkpt lat="47.70413" lon="7.28199">
        <ele>302</ele>
        <time>2012-03-03T14:36:59Z</time>
      </trkpt>
      <trkpt lat="47.70425" lon="7.28193">
        <ele>302</ele>
        <time>2012-03-03T14:37:00Z</time>
      </trkpt>
      <trkpt lat="47.70437" lon="7.28186">
        <ele>302</ele>
        <time>2012-03-03T14:37:01Z</time>
      </trkpt>
      <trkpt lat="47.7045" lon="7.28179">
        <ele>302</ele>
        <time>2012-03-03T14:37:02Z</time>
      </trkpt>
      <trkpt lat="47.70463" lon="7.28174">
        <ele>302</ele>
        <time>2012-03-03T14:37:03Z</time>
      </trkpt>
      <trkpt lat="47.70476" lon="7.28169">
        <ele>303</ele>
        <time>2012-03-03T14:37:04Z</time>
      </trkpt>
      <trkpt lat="47.70488" lon="7.28168">
        <ele>304</ele>
        <time>2012-03-03T14:37:05Z</time>
      </trkpt>
      <trkpt lat="47.705" lon="7.28169">
        <ele>304</ele>
        <time>2012-03-03T14:37:06Z</time>
      </trkpt>
      <trkpt lat="47.70512" lon="7.28168">
        <ele>305</ele>
        <time>2012-03-03T14:37:07Z</time>
      </trkpt>
      <trkpt lat="47.70524" lon="7.28171">
        <ele>306</ele>
        <time>2012-03-03T14:37:08Z</time>
      </trkpt>
      <trkpt lat="47.70538" lon="7.28174">
        <ele>306</ele>
        <time>2012-03-03T14:37:09Z</time>
      </trkpt>
      <trkpt lat="47.70551" lon="7.28176">
        <ele>306</ele>
        <time>2012-03-03T14:37:10Z</time>
      </trkpt>
      <trkpt lat="47.70562" lon="7.2818">
        <ele>306</ele>
        <time>2012-03-03T14:37:11Z</time>
      </trkpt>
      <trkpt lat="47.70575" lon="7.28183">
        <ele>306</ele>
        <time>2012-03-03T14:37:12Z</time>
      </trkpt>
      <trkpt lat="47.70588" lon="7.28185">
        <ele>307</ele>
        <time>2012-03-03T14:37:13Z</time>
      </trkpt>
      <trkpt lat="47.70599" lon="7.28189">
        <ele>307</ele>
        <time>2012-03-03T14:37:14Z</time>
      </trkpt>
      <trkpt lat="47.70614" lon="7.28192">
        <ele>307</ele>
        <time>2012-03-03T14:37:15Z</time>
      </trkpt>
      <trkpt lat="47.70627" lon="7.28196">
        <ele>307</ele>
        <time>2012-03-03T14:37:16Z</time>
      </trkpt>
      <trkpt lat="47.7064" lon="7.28198">
        <ele>307</ele>
        <time>2012-03-03T14:37:17Z</time>
      </trkpt>
      <trkpt lat="47.70653" lon="7.28201">
        <ele>307</ele>
        <time>2012-03-03T14:37:18Z</time>
      </trkpt>
      <trkpt lat="47.70666" lon="7.28205">
        <ele>307</ele>
        <time>2012-03-03T14:37:19Z</time>
      </trkpt>
      <trkpt lat="47.70677" lon="7.2821">
        <ele>307</ele>
        <time>2012-03-03T14:37:20Z</time>
      </trkpt>
      <trkpt lat="47.70686" lon="7.28211">
        <ele>306</ele>
        <time>2012-03-03T14:37:21Z</time>
      </trkpt>
      <trkpt lat="47.70696" lon="7.28215">
        <ele>305</ele>
        <time>2012-03-03T14:37:22Z</time>
      </trkpt>
      <trkpt lat="47.70708" lon="7.28219">
        <ele>305</ele>
        <time>2012-03-03T14:37:23Z</time>
      </trkpt>
      <trkpt lat="47.70721" lon="7.28221">
        <ele>306</ele>
        <time>2012-03-03T14:37:24Z</time>
      </trkpt>
      <trkpt lat="47.70733" lon="7.28224">
        <ele>306</ele>
        <time>2012-03-03T14:37:25Z</time>
      </trkpt>
      <trkpt lat="47.70745" lon="7.28228">
        <ele>305</ele>
        <time>2012-03-03T14:37:26Z</time>
      </trkpt>
      <trkpt lat="47.70758" lon="7.2823">
        <ele>305</ele>
        <time>2012-03-03T14:37:27Z</time>
      </trkpt>
      <trkpt lat="47.70771" lon="7.28234">
        <ele>305</ele>
        <time>2012-03-03T14:37:28Z</time>
      </trkpt>
      <trkpt lat="47.70782" lon="7.28237">
        <ele>306</ele>
        <time>2012-03-03T14:37:29Z</time>
      </trkpt>
      <trkpt lat="47.70796" lon="7.2824">
        <ele>306</ele>
        <time>2012-03-03T14:37:30Z</time>
      </trkpt>
      <trkpt lat="47.70803" lon="7.28243">
        <ele>306</ele>
        <time>2012-03-03T14:37:31Z</time>
      </trkpt>
      <trkpt lat="47.70812" lon="7.28245">
        <ele>306</ele>
        <time>2012-03-03T14:37:32Z</time>
      </trkpt>
      <trkpt lat="47.70823" lon="7.28247">
        <ele>306</ele>
        <time>2012-03-03T14:37:33Z</time>
      </trkpt>
      <trkpt lat="47.70831" lon="7.28248">
        <ele>306</ele>
        <time>2012-03-03T14:37:34Z</time>
      </trkpt>
      <trkpt lat="47.70845" lon="7.28252">
        <ele>306</ele>
        <time>2012-03-03T14:37:36Z</time>
      </trkpt>
      <trkpt lat="47.70852" lon="7.28255">
        <ele>306</ele>
        <time>2012-03-03T14:37:37Z</time>
      </trkpt>
      <trkpt lat="47.70858" lon="7.28256">
        <ele>306</ele>
        <time>2012-03-03T14:37:38Z</time>
      </trkpt>
      <trkpt lat="47.70868" lon="7.2826">
        <ele>307</ele>
        <time>2012-03-03T14:37:39Z</time>
      </trkpt>
      <trkpt lat="47.7088" lon="7.28263">
        <ele>306</ele>
        <time>2012-03-03T14:37:40Z</time>
      </trkpt>
      <trkpt lat="47.7089" lon="7.28267">
        <ele>306</ele>
        <time>2012-03-03T14:37:41Z</time>
      </trkpt>
      <trkpt lat="47.709" lon="7.2827">
        <ele>306</ele>
        <time>2012-03-03T14:37:42Z</time>
      </trkpt>
      <trkpt lat="47.70913" lon="7.28272">
        <ele>306</ele>
        <time>2012-03-03T14:37:43Z</time>
      </trkpt>
      <trkpt lat="47.70924" lon="7.28276">
        <ele>305</ele>
        <time>2012-03-03T14:37:44Z</time>
      </trkpt>
      <trkpt lat="47.70938" lon="7.28279">
        <ele>305</ele>
        <time>2012-03-03T14:37:45Z</time>
      </trkpt>
      <trkpt lat="47.70949" lon="7.28284">
        <ele>305</ele>
        <time>2012-03-03T14:37:46Z</time>
      </trkpt>
      <trkpt lat="47.70966" lon="7.28285">
        <ele>305</ele>
        <time>2012-03-03T14:37:47Z</time>
      </trkpt>
      <trkpt lat="47.7098" lon="7.28291">
        <ele>305</ele>
        <time>2012-03-03T14:37:48Z</time>
      </trkpt>
      <trkpt lat="47.70995" lon="7.28294">
        <ele>306</ele>
        <time>2012-03-03T14:37:49Z</time>
      </trkpt>
      <trkpt lat="47.71007" lon="7.28299">
        <ele>306</ele>
        <time>2012-03-03T14:37:50Z</time>
      </trkpt>
      <trkpt lat="47.7102" lon="7.28304">
        <ele>306</ele>
        <time>2012-03-03T14:37:51Z</time>
      </trkpt>
      <trkpt lat="47.71037" lon="7.28311">
        <ele>307</ele>
        <time>2012-03-03T14:37:52Z</time>
      </trkpt>
      <trkpt lat="47.71051" lon="7.28318">
        <ele>307</ele>
        <time>2012-03-03T14:37:53Z</time>
      </trkpt>
      <trkpt lat="47.71064" lon="7.28324">
        <ele>307</ele>
        <time>2012-03-03T14:37:54Z</time>
      </trkpt>
      <trkpt lat="47.71075" lon="7.28333">
        <ele>307</ele>
        <time>2012-03-03T14:37:55Z</time>
      </trkpt>
      <trkpt lat="47.71089" lon="7.28339">
        <ele>307</ele>
        <time>2012-03-03T14:37:56Z</time>
      </trkpt>
      <trkpt lat="47.71105" lon="7.28344">
        <ele>306</ele>
        <time>2012-03-03T14:37:57Z</time>
      </trkpt>
      <trkpt lat="47.71119" lon="7.28351">
        <ele>307</ele>
        <time>2012-03-03T14:37:58Z</time>
      </trkpt>
      <trkpt lat="47.71133" lon="7.2836">
        <ele>308</ele>
        <time>2012-03-03T14:37:59Z</time>
      </trkpt>
      <trkpt lat="47.71151" lon="7.28364">
        <ele>308</ele>
        <time>2012-03-03T14:38:00Z</time>
      </trkpt>
      <trkpt lat="47.71167" lon="7.28374">
        <ele>308</ele>
        <time>2012-03-03T14:38:01Z</time>
      </trkpt>
      <trkpt lat="47.71178" lon="7.28384">
        <ele>308</ele>
        <time>2012-03-03T14:38:02Z</time>
      </trkpt>
      <trkpt lat="47.71194" lon="7.28392">
        <ele>307</ele>
        <time>2012-03-03T14:38:03Z</time>
      </trkpt>
      <trkpt lat="47.71207" lon="7.28401">
        <ele>307</ele>
        <time>2012-03-03T14:38:04Z</time>
      </trkpt>
      <trkpt lat="47.71223" lon="7.28409">
        <ele>308</ele>
        <time>2012-03-03T14:38:05Z</time>
      </trkpt>
      <trkpt lat="47.71237" lon="7.28419">
        <ele>308</ele>
        <time>2012-03-03T14:38:06Z</time>
      </trkpt>
      <trkpt lat="47.71248" lon="7.28431">
        <ele>308</ele>
        <time>2012-03-03T14:38:07Z</time>
      </trkpt>
      <trkpt lat="47.71263" lon="7.28442">
        <ele>308</ele>
        <time>2012-03-03T14:38:08Z</time>
      </trkpt>
      <trkpt lat="47.71276" lon="7.28451">
        <ele>309</ele>
        <time>2012-03-03T14:38:09Z</time>
      </trkpt>
      <trkpt lat="47.7129" lon="7.2846">
        <ele>309</ele>
        <time>2012-03-03T14:38:10Z</time>
      </trkpt>
      <trkpt lat="47.71304" lon="7.28468">
        <ele>309</ele>
        <time>2012-03-03T14:38:11Z</time>
      </trkpt>
      <trkpt lat="47.7132" lon="7.28474">
        <ele>308</ele>
        <time>2012-03-03T14:38:12Z</time>
      </trkpt>
      <trkpt lat="47.71334" lon="7.28482">
        <ele>308</ele>
        <time>2012-03-03T14:38:13Z</time>
      </trkpt>
      <trkpt lat="47.7135" lon="7.28488">
        <ele>307</ele>
        <time>2012-03-03T14:38:14Z</time>
      </trkpt>
      <trkpt lat="47.71365" lon="7.28494">
        <ele>308</ele>
        <time>2012-03-03T14:38:15Z</time>
      </trkpt>
      <trkpt lat="47.7138" lon="7.28501">
        <ele>309</ele>
        <time>2012-03-03T14:38:16Z</time>
      </trkpt>
      <trkpt lat="47.71396" lon="7.28506">
        <ele>310</ele>
        <time>2012-03-03T14:38:17Z</time>
      </trkpt>
      <trkpt lat="47.7141" lon="7.28512">
        <ele>309</ele>
        <time>2012-03-03T14:38:18Z</time>
      </trkpt>
      <trkpt lat="47.71427" lon="7.28517">
        <ele>309</ele>
        <time>2012-03-03T14:38:19Z</time>
      </trkpt>
      <trkpt lat="47.71443" lon="7.28523">
        <ele>309</ele>
        <time>2012-03-03T14:38:20Z</time>
      </trkpt>
      <trkpt lat="47.71459" lon="7.28529">
        <ele>310</ele>
        <time>2012-03-03T14:38:21Z</time>
      </trkpt>
      <trkpt lat="47.71473" lon="7.28538">
        <ele>310</ele>
        <time>2012-03-03T14:38:22Z</time>
      </trkpt>
      <trkpt lat="47.71487" lon="7.28549">
        <ele>310</ele>
        <time>2012-03-03T14:38:23Z</time>
      </trkpt>
      <trkpt lat="47.71501" lon="7.28561">
        <ele>310</ele>
        <time>2012-03-03T14:38:24Z</time>
      </trkpt>
      <trkpt lat="47.71515" lon="7.28575">
        <ele>310</ele>
        <time>2012-03-03T14:38:25Z</time>
      </trkpt>
      <trkpt lat="47.71528" lon="7.2859">
        <ele>310</ele>
        <time>2012-03-03T14:38:26Z</time>
      </trkpt>
      <trkpt lat="47.7154" lon="7.28605">
        <ele>310</ele>
        <time>2012-03-03T14:38:27Z</time>
      </trkpt>
      <trkpt lat="47.71551" lon="7.28621">
        <ele>310</ele>
        <time>2012-03-03T14:38:28Z</time>
      </trkpt>
      <trkpt lat="47.71562" lon="7.28638">
        <ele>311</ele>
        <time>2012-03-03T14:38:29Z</time>
      </trkpt>
      <trkpt lat="47.7157" lon="7.28653">
        <ele>311</ele>
        <time>2012-03-03T14:38:30Z</time>
      </trkpt>
      <trkpt lat="47.71577" lon="7.28666">
        <ele>312</ele>
        <time>2012-03-03T14:38:31Z</time>
      </trkpt>
      <trkpt lat="47.71585" lon="7.28681">
        <ele>313</ele>
        <time>2012-03-03T14:38:32Z</time>
      </trkpt>
      <trkpt lat="47.71592" lon="7.28696">
        <ele>313</ele>
        <time>2012-03-03T14:38:33Z</time>
      </trkpt>
      <trkpt lat="47.71599" lon="7.28711">
        <ele>315</ele>
        <time>2012-03-03T14:38:34Z</time>
      </trkpt>
      <trkpt lat="47.71608" lon="7.28728">
        <ele>315</ele>
        <time>2012-03-03T14:38:35Z</time>
      </trkpt>
      <trkpt lat="47.71616" lon="7.28745">
        <ele>315</ele>
        <time>2012-03-03T14:38:36Z</time>
      </trkpt>
      <trkpt lat="47.7162" lon="7.2876">
        <ele>316</ele>
        <time>2012-03-03T14:38:37Z</time>
      </trkpt>
      <trkpt lat="47.71624" lon="7.28775">
        <ele>317</ele>
        <time>2012-03-03T14:38:38Z</time>
      </trkpt>
      <trkpt lat="47.71629" lon="7.28787">
        <ele>317</ele>
        <time>2012-03-03T14:38:39Z</time>
      </trkpt>
      <trkpt lat="47.71634" lon="7.28796">
        <ele>316</ele>
        <time>2012-03-03T14:38:40Z</time>
      </trkpt>
      <trkpt lat="47.71638" lon="7.28806">
        <ele>317</ele>
        <time>2012-03-03T14:38:41Z</time>
      </trkpt>
      <trkpt lat="47.7164" lon="7.28814">
        <ele>317</ele>
        <time>2012-03-03T14:38:42Z</time>
      </trkpt>
      <trkpt lat="47.71642" lon="7.28822">
        <ele>318</ele>
        <time>2012-03-03T14:38:44Z</time>
      </trkpt>
      <trkpt lat="47.71643" lon="7.28829">
        <ele>318</ele>
        <time>2012-03-03T14:38:46Z</time>
      </trkpt>
      <trkpt lat="47.71645" lon="7.28836">
        <ele>319</ele>
        <time>2012-03-03T14:38:48Z</time>
      </trkpt>
      <trkpt lat="47.71647" lon="7.28842">
        <ele>319</ele>
        <time>2012-03-03T14:38:49Z</time>
      </trkpt>
      <trkpt lat="47.71648" lon="7.28851">
        <ele>319</ele>
        <time>2012-03-03T14:38:50Z</time>
      </trkpt>
      <trkpt lat="47.71649" lon="7.28861">
        <ele>319</ele>
        <time>2012-03-03T14:38:51Z</time>
      </trkpt>
      <trkpt lat="47.71651" lon="7.28872">
        <ele>319</ele>
        <time>2012-03-03T14:38:52Z</time>
      </trkpt>
      <trkpt lat="47.71658" lon="7.2888">
        <ele>319</ele>
        <time>2012-03-03T14:38:53Z</time>
      </trkpt>
      <trkpt lat="47.71665" lon="7.28883">
        <ele>319</ele>
        <time>2012-03-03T14:38:54Z</time>
      </trkpt>
      <trkpt lat="47.71672" lon="7.28881">
        <ele>319</ele>
        <time>2012-03-03T14:38:55Z</time>
      </trkpt>
      <trkpt lat="47.71679" lon="7.28873">
        <ele>319</ele>
        <time>2012-03-03T14:38:56Z</time>
      </trkpt>
      <trkpt lat="47.71687" lon="7.28869">
        <ele>319</ele>
        <time>2012-03-03T14:38:57Z</time>
      </trkpt>
      <trkpt lat="47.71695" lon="7.28866">
        <ele>319</ele>
        <time>2012-03-03T14:38:58Z</time>
      </trkpt>
      <trkpt lat="47.71706" lon="7.28863">
        <ele>319</ele>
        <time>2012-03-03T14:38:59Z</time>
      </trkpt>
      <trkpt lat="47.7172" lon="7.28864">
        <ele>318</ele>
        <time>2012-03-03T14:39:00Z</time>
      </trkpt>
      <trkpt lat="47.71732" lon="7.28863">
        <ele>319</ele>
        <time>2012-03-03T14:39:01Z</time>
      </trkpt>
      <trkpt lat="47.71745" lon="7.28863">
        <ele>319</ele>
        <time>2012-03-03T14:39:02Z</time>
      </trkpt>
      <trkpt lat="47.71759" lon="7.28861">
        <ele>318</ele>
        <time>2012-03-03T14:39:03Z</time>
      </trkpt>
      <trkpt lat="47.71775" lon="7.2886">
        <ele>319</ele>
        <time>2012-03-03T14:39:04Z</time>
      </trkpt>
      <trkpt lat="47.71792" lon="7.28859">
        <ele>319</ele>
        <time>2012-03-03T14:39:05Z</time>
      </trkpt>
      <trkpt lat="47.71806" lon="7.28861">
        <ele>320</ele>
        <time>2012-03-03T14:39:06Z</time>
      </trkpt>
      <trkpt lat="47.71824" lon="7.28861">
        <ele>319</ele>
        <time>2012-03-03T14:39:07Z</time>
      </trkpt>
      <trkpt lat="47.71841" lon="7.28864">
        <ele>319</ele>
        <time>2012-03-03T14:39:08Z</time>
      </trkpt>
      <trkpt lat="47.71857" lon="7.28868">
        <ele>319</ele>
        <time>2012-03-03T14:39:09Z</time>
      </trkpt>
      <trkpt lat="47.71873" lon="7.28874">
        <ele>320</ele>
        <time>2012-03-03T14:39:10Z</time>
      </trkpt>
      <trkpt lat="47.7189" lon="7.28881">
        <ele>319</ele>
        <time>2012-03-03T14:39:11Z</time>
      </trkpt>
      <trkpt lat="47.71909" lon="7.28889">
        <ele>318</ele>
        <time>2012-03-03T14:39:12Z</time>
      </trkpt>
      <trkpt lat="47.7193" lon="7.28897">
        <ele>319</ele>
        <time>2012-03-03T14:39:13Z</time>
      </trkpt>
      <trkpt lat="47.71948" lon="7.28908">
        <ele>319</ele>
        <time>2012-03-03T14:39:14Z</time>
      </trkpt>
      <trkpt lat="47.71966" lon="7.2892">
        <ele>319</ele>
        <time>2012-03-03T14:39:15Z</time>
      </trkpt>
      <trkpt lat="47.71984" lon="7.28933">
        <ele>319</ele>
        <time>2012-03-03T14:39:16Z</time>
      </trkpt>
      <trkpt lat="47.72004" lon="7.28944">
        <ele>319</ele>
        <time>2012-03-03T14:39:17Z</time>
      </trkpt>
      <trkpt lat="47.72023" lon="7.28955">
        <ele>320</ele>
        <time>2012-03-03T14:39:18Z</time>
      </trkpt>
      <trkpt lat="47.72044" lon="7.28963">
        <ele>320</ele>
        <time>2012-03-03T14:39:19Z</time>
      </trkpt>
      <trkpt lat="47.72064" lon="7.28972">
        <ele>320</ele>
        <time>2012-03-03T14:39:20Z</time>
      </trkpt>
      <trkpt lat="47.72084" lon="7.2898">
        <ele>320</ele>
        <time>2012-03-03T14:39:21Z</time>
      </trkpt>
      <trkpt lat="47.72105" lon="7.28985">
        <ele>321</ele>
        <time>2012-03-03T14:39:22Z</time>
      </trkpt>
      <trkpt lat="47.72128" lon="7.28991">
        <ele>321</ele>
        <time>2012-03-03T14:39:23Z</time>
      </trkpt>
      <trkpt lat="47.7215" lon="7.28993">
        <ele>321</ele>
        <time>2012-03-03T14:39:24Z</time>
      </trkpt>
      <trkpt lat="47.72177" lon="7.28993">
        <ele>321</ele>
        <time>2012-03-03T14:39:25Z</time>
      </trkpt>
      <trkpt lat="47.72198" lon="7.28995">
        <ele>321</ele>
        <time>2012-03-03T14:39:26Z</time>
      </trkpt>
      <trkpt lat="47.7222" lon="7.28994">
        <ele>321</ele>
        <time>2012-03-03T14:39:27Z</time>
      </trkpt>
      <trkpt lat="47.72245" lon="7.28989">
        <ele>321</ele>
        <time>2012-03-03T14:39:28Z</time>
      </trkpt>
      <trkpt lat="47.72267" lon="7.28984">
        <ele>321</ele>
        <time>2012-03-03T14:39:29Z</time>
      </trkpt>
      <trkpt lat="47.72292" lon="7.28979">
        <ele>322</ele>
        <time>2012-03-03T14:39:30Z</time>
      </trkpt>
      <trkpt lat="47.72314" lon="7.28973">
        <ele>322</ele>
        <time>2012-03-03T14:39:31Z</time>
      </trkpt>
      <trkpt lat="47.72339" lon="7.28962">
        <ele>322</ele>
        <time>2012-03-03T14:39:32Z</time>
      </trkpt>
      <trkpt lat="47.72362" lon="7.28951">
        <ele>322</ele>
        <time>2012-03-03T14:39:33Z</time>
      </trkpt>
      <trkpt lat="47.72383" lon="7.28938">
        <ele>323</ele>
        <time>2012-03-03T14:39:34Z</time>
      </trkpt>
      <trkpt lat="47.72404" lon="7.28921">
        <ele>323</ele>
        <time>2012-03-03T14:39:35Z</time>
      </trkpt>
      <trkpt lat="47.72429" lon="7.28906">
        <ele>323</ele>
        <time>2012-03-03T14:39:36Z</time>
      </trkpt>
      <trkpt lat="47.72453" lon="7.28889">
        <ele>323</ele>
        <time>2012-03-03T14:39:37Z</time>
      </trkpt>
      <trkpt lat="47.72475" lon="7.28869">
        <ele>323</ele>
        <time>2012-03-03T14:39:38Z</time>
      </trkpt>
      <trkpt lat="47.72496" lon="7.28848">
        <ele>324</ele>
        <time>2012-03-03T14:39:39Z</time>
      </trkpt>
      <trkpt lat="47.72517" lon="7.28825">
        <ele>323</ele>
        <time>2012-03-03T14:39:40Z</time>
      </trkpt>
      <trkpt lat="47.72556" lon="7.28779">
        <ele>325</ele>
        <time>2012-03-03T14:39:42Z</time>
      </trkpt>
      <trkpt lat="47.72573" lon="7.28758">
        <ele>325</ele>
        <time>2012-03-03T14:39:43Z</time>
      </trkpt>
      <trkpt lat="47.72593" lon="7.28734">
        <ele>325</ele>
        <time>2012-03-03T14:39:44Z</time>
      </trkpt>
      <trkpt lat="47.72614" lon="7.28711">
        <ele>326</ele>
        <time>2012-03-03T14:39:45Z</time>
      </trkpt>
      <trkpt lat="47.72635" lon="7.28687">
        <ele>325</ele>
        <time>2012-03-03T14:39:46Z</time>
      </trkpt>
      <trkpt lat="47.72655" lon="7.28663">
        <ele>325</ele>
        <time>2012-03-03T14:39:47Z</time>
      </trkpt>
      <trkpt lat="47.72675" lon="7.28638">
        <ele>325</ele>
        <time>2012-03-03T14:39:48Z</time>
      </trkpt>
      <trkpt lat="47.72696" lon="7.28616">
        <ele>327</ele>
        <time>2012-03-03T14:39:49Z</time>
      </trkpt>
      <trkpt lat="47.72717" lon="7.28592">
        <ele>327</ele>
        <time>2012-03-03T14:39:50Z</time>
      </trkpt>
      <trkpt lat="47.72736" lon="7.28572">
        <ele>327</ele>
        <time>2012-03-03T14:39:51Z</time>
      </trkpt>
      <trkpt lat="47.72758" lon="7.2855">
        <ele>327</ele>
        <time>2012-03-03T14:39:52Z</time>
      </trkpt>
      <trkpt lat="47.72777" lon="7.2853">
        <ele>327</ele>
        <time>2012-03-03T14:39:53Z</time>
      </trkpt>
      <trkpt lat="47.72799" lon="7.28512">
        <ele>327</ele>
        <time>2012-03-03T14:39:54Z</time>
      </trkpt>
      <trkpt lat="47.72821" lon="7.28496">
        <ele>327</ele>
        <time>2012-03-03T14:39:55Z</time>
      </trkpt>
      <trkpt lat="47.72844" lon="7.28483">
        <ele>327</ele>
        <time>2012-03-03T14:39:56Z</time>
      </trkpt>
      <trkpt lat="47.72866" lon="7.2847">
        <ele>327</ele>
        <time>2012-03-03T14:39:57Z</time>
      </trkpt>
      <trkpt lat="47.7289" lon="7.2846">
        <ele>327</ele>
        <time>2012-03-03T14:39:58Z</time>
      </trkpt>
      <trkpt lat="47.72912" lon="7.28451">
        <ele>327</ele>
        <time>2012-03-03T14:39:59Z</time>
      </trkpt>
      <trkpt lat="47.72942" lon="7.28444">
        <ele>327</ele>
        <time>2012-03-03T14:40:00Z</time>
      </trkpt>
      <trkpt lat="47.72969" lon="7.28441">
        <ele>327</ele>
        <time>2012-03-03T14:40:01Z</time>
      </trkpt>
      <trkpt lat="47.72996" lon="7.2844">
        <ele>327</ele>
        <time>2012-03-03T14:40:02Z</time>
      </trkpt>
      <trkpt lat="47.7302" lon="7.28442">
        <ele>328</ele>
        <time>2012-03-03T14:40:03Z</time>
      </trkpt>
      <trkpt lat="47.73044" lon="7.28448">
        <ele>328</ele>
        <time>2012-03-03T14:40:04Z</time>
      </trkpt>
      <trkpt lat="47.73073" lon="7.28453">
        <ele>327</ele>
        <time>2012-03-03T14:40:05Z</time>
      </trkpt>
      <trkpt lat="47.731" lon="7.2846">
        <ele>327</ele>
        <time>2012-03-03T14:40:06Z</time>
      </trkpt>
      <trkpt lat="47.73124" lon="7.28469">
        <ele>327</ele>
        <time>2012-03-03T14:40:07Z</time>
      </trkpt>
      <trkpt lat="47.7315" lon="7.2848">
        <ele>326</ele>
        <time>2012-03-03T14:40:08Z</time>
      </trkpt>
      <trkpt lat="47.73173" lon="7.28493">
        <ele>326</ele>
        <time>2012-03-03T14:40:09Z</time>
      </trkpt>
      <trkpt lat="47.73195" lon="7.28509">
        <ele>325</ele>
        <time>2012-03-03T14:40:10Z</time>
      </trkpt>
      <trkpt lat="47.73218" lon="7.28524">
        <ele>325</ele>
        <time>2012-03-03T14:40:11Z</time>
      </trkpt>
      <trkpt lat="47.7324" lon="7.2854">
        <ele>326</ele>
        <time>2012-03-03T14:40:12Z</time>
      </trkpt>
      <trkpt lat="47.73256" lon="7.28562">
        <ele>325</ele>
        <time>2012-03-03T14:40:13Z</time>
      </trkpt>
      <trkpt lat="47.73274" lon="7.28583">
        <ele>325</ele>
        <time>2012-03-03T14:40:14Z</time>
      </trkpt>
      <trkpt lat="47.7329" lon="7.28602">
        <ele>325</ele>
        <time>2012-03-03T14:40:15Z</time>
      </trkpt>
      <trkpt lat="47.73305" lon="7.28623">
        <ele>324</ele>
        <time>2012-03-03T14:40:16Z</time>
      </trkpt>
      <trkpt lat="47.73321" lon="7.28641">
        <ele>323</ele>
        <time>2012-03-03T14:40:17Z</time>
      </trkpt>
      <trkpt lat="47.73335" lon="7.2866">
        <ele>323</ele>
        <time>2012-03-03T14:40:18Z</time>
      </trkpt>
      <trkpt lat="47.7335" lon="7.28679">
        <ele>322</ele>
        <time>2012-03-03T14:40:19Z</time>
      </trkpt>
      <trkpt lat="47.73367" lon="7.28696">
        <ele>321</ele>
        <time>2012-03-03T14:40:20Z</time>
      </trkpt>
      <trkpt lat="47.73381" lon="7.28713">
        <ele>321</ele>
        <time>2012-03-03T14:40:21Z</time>
      </trkpt>
      <trkpt lat="47.73396" lon="7.28729">
        <ele>320</ele>
        <time>2012-03-03T14:40:22Z</time>
      </trkpt>
      <trkpt lat="47.73409" lon="7.28744">
        <ele>320</ele>
        <time>2012-03-03T14:40:23Z</time>
      </trkpt>
      <trkpt lat="47.73424" lon="7.28762">
        <ele>320</ele>
        <time>2012-03-03T14:40:24Z</time>
      </trkpt>
      <trkpt lat="47.73441" lon="7.28773">
        <ele>319</ele>
        <time>2012-03-03T14:40:25Z</time>
      </trkpt>
      <trkpt lat="47.73457" lon="7.28786">
        <ele>319</ele>
        <time>2012-03-03T14:40:26Z</time>
      </trkpt>
      <trkpt lat="47.73473" lon="7.28796">
        <ele>319</ele>
        <time>2012-03-03T14:40:27Z</time>
      </trkpt>
      <trkpt lat="47.73488" lon="7.2881">
        <ele>318</ele>
        <time>2012-03-03T14:40:28Z</time>
      </trkpt>
      <trkpt lat="47.73504" lon="7.28817">
        <ele>318</ele>
        <time>2012-03-03T14:40:29Z</time>
      </trkpt>
      <trkpt lat="47.73518" lon="7.28825">
        <ele>318</ele>
        <time>2012-03-03T14:40:30Z</time>
      </trkpt>
      <trkpt lat="47.73532" lon="7.28831">
        <ele>318</ele>
        <time>2012-03-03T14:40:31Z</time>
      </trkpt>
      <trkpt lat="47.73544" lon="7.28837">
        <ele>318</ele>
        <time>2012-03-03T14:40:32Z</time>
      </trkpt>
      <trkpt lat="47.73556" lon="7.28844">
        <ele>318</ele>
        <time>2012-03-03T14:40:33Z</time>
      </trkpt>
      <trkpt lat="47.73568" lon="7.2885">
        <ele>320</ele>
        <time>2012-03-03T14:40:34Z</time>
      </trkpt>
      <trkpt lat="47.7358" lon="7.28853">
        <ele>319</ele>
        <time>2012-03-03T14:40:35Z</time>
      </trkpt>
      <trkpt lat="47.73592" lon="7.28859">
        <ele>318</ele>
        <time>2012-03-03T14:40:36Z</time>
      </trkpt>
      <trkpt lat="47.73606" lon="7.28863">
        <ele>319</ele>
        <time>2012-03-03T14:40:37Z</time>
      </trkpt>
      <trkpt lat="47.73618" lon="7.28865">
        <ele>319</ele>
        <time>2012-03-03T14:40:38Z</time>
      </trkpt>
      <trkpt lat="47.7363" lon="7.28867">
        <ele>319</ele>
        <time>2012-03-03T14:40:39Z</time>
      </trkpt>
      <trkpt lat="47.73645" lon="7.28869">
        <ele>320</ele>
        <time>2012-03-03T14:40:40Z</time>
      </trkpt>
      <trkpt lat="47.73658" lon="7.2887">
        <ele>319</ele>
        <time>2012-03-03T14:40:41Z</time>
      </trkpt>
      <trkpt lat="47.73672" lon="7.28872">
        <ele>320</ele>
        <time>2012-03-03T14:40:42Z</time>
      </trkpt>
      <trkpt lat="47.73688" lon="7.28869">
        <ele>320</ele>
        <time>2012-03-03T14:40:43Z</time>
      </trkpt>
      <trkpt lat="47.73704" lon="7.28863">
        <ele>319</ele>
        <time>2012-03-03T14:40:44Z</time>
      </trkpt>
      <trkpt lat="47.73722" lon="7.2886">
        <ele>319</ele>
        <time>2012-03-03T14:40:45Z</time>
      </trkpt>
      <trkpt lat="47.73741" lon="7.28857">
        <ele>318</ele>
        <time>2012-03-03T14:40:46Z</time>
      </trkpt>
      <trkpt lat="47.73758" lon="7.28852">
        <ele>318</ele>
        <time>2012-03-03T14:40:47Z</time>
      </trkpt>
      <trkpt lat="47.73778" lon="7.28846">
        <ele>318</ele>
        <time>2012-03-03T14:40:48Z</time>
      </trkpt>
      <trkpt lat="47.73798" lon="7.28837">
        <ele>319</ele>
        <time>2012-03-03T14:40:49Z</time>
      </trkpt>
      <trkpt lat="47.73816" lon="7.28828">
        <ele>319</ele>
        <time>2012-03-03T14:40:50Z</time>
      </trkpt>
      <trkpt lat="47.73834" lon="7.28818">
        <ele>319</ele>
        <time>2012-03-03T14:40:51Z</time>
      </trkpt>
      <trkpt lat="47.73852" lon="7.28807">
        <ele>319</ele>
        <time>2012-03-03T14:40:52Z</time>
      </trkpt>
      <trkpt lat="47.73867" lon="7.28793">
        <ele>319</ele>
        <time>2012-03-03T14:40:53Z</time>
      </trkpt>
      <trkpt lat="47.73883" lon="7.28779">
        <ele>319</ele>
        <time>2012-03-03T14:40:54Z</time>
      </trkpt>
      <trkpt lat="47.739" lon="7.28765">
        <ele>318</ele>
        <time>2012-03-03T14:40:55Z</time>
      </trkpt>
      <trkpt lat="47.73917" lon="7.28747">
        <ele>318</ele>
        <time>2012-03-03T14:40:56Z</time>
      </trkpt>
      <trkpt lat="47.73934" lon="7.28729">
        <ele>318</ele>
        <time>2012-03-03T14:40:57Z</time>
      </trkpt>
      <trkpt lat="47.73953" lon="7.2871">
        <ele>318</ele>
        <time>2012-03-03T14:40:58Z</time>
      </trkpt>
      <trkpt lat="47.7397" lon="7.28691">
        <ele>317</ele>
        <time>2012-03-03T14:40:59Z</time>
      </trkpt>
      <trkpt lat="47.73987" lon="7.2867">
        <ele>316</ele>
        <time>2012-03-03T14:41:00Z</time>
      </trkpt>
      <trkpt lat="47.74005" lon="7.28649">
        <ele>316</ele>
        <time>2012-03-03T14:41:01Z</time>
      </trkpt>
      <trkpt lat="47.74021" lon="7.28628">
        <ele>316</ele>
        <time>2012-03-03T14:41:02Z</time>
      </trkpt>
      <trkpt lat="47.74036" lon="7.28609">
        <ele>315</ele>
        <time>2012-03-03T14:41:03Z</time>
      </trkpt>
      <trkpt lat="47.74052" lon="7.28588">
        <ele>315</ele>
        <time>2012-03-03T14:41:04Z</time>
      </trkpt>
      <trkpt lat="47.74068" lon="7.28566">
        <ele>315</ele>
        <time>2012-03-03T14:41:05Z</time>
      </trkpt>
      <trkpt lat="47.74083" lon="7.28544">
        <ele>314</ele>
        <time>2012-03-03T14:41:06Z</time>
      </trkpt>
      <trkpt lat="47.74099" lon="7.28521">
        <ele>314</ele>
        <time>2012-03-03T14:41:07Z</time>
      </trkpt>
      <trkpt lat="47.74114" lon="7.28495">
        <ele>314</ele>
        <time>2012-03-03T14:41:08Z</time>
      </trkpt>
      <trkpt lat="47.74129" lon="7.2847">
        <ele>313</ele>
        <time>2012-03-03T14:41:09Z</time>
      </trkpt>
      <trkpt lat="47.74144" lon="7.28443">
        <ele>312</ele>
        <time>2012-03-03T14:41:10Z</time>
      </trkpt>
      <trkpt lat="47.74158" lon="7.28419">
        <ele>312</ele>
        <time>2012-03-03T14:41:11Z</time>
      </trkpt>
      <trkpt lat="47.74173" lon="7.2839">
        <ele>312</ele>
        <time>2012-03-03T14:41:12Z</time>
      </trkpt>
      <trkpt lat="47.74188" lon="7.28362">
        <ele>312</ele>
        <time>2012-03-03T14:41:13Z</time>
      </trkpt>
      <trkpt lat="47.74205" lon="7.28337">
        <ele>311</ele>
        <time>2012-03-03T14:41:14Z</time>
      </trkpt>
      <trkpt lat="47.74221" lon="7.28313">
        <ele>310</ele>
        <time>2012-03-03T14:41:15Z</time>
      </trkpt>
      <trkpt lat="47.74236" lon="7.28288">
        <ele>310</ele>
        <time>2012-03-03T14:41:16Z</time>
      </trkpt>
      <trkpt lat="47.74251" lon="7.28261">
        <ele>310</ele>
        <time>2012-03-03T14:41:17Z</time>
      </trkpt>
      <trkpt lat="47.74266" lon="7.28235">
        <ele>310</ele>
        <time>2012-03-03T14:41:18Z</time>
      </trkpt>
      <trkpt lat="47.7428" lon="7.28208">
        <ele>310</ele>
        <time>2012-03-03T14:41:19Z</time>
      </trkpt>
      <trkpt lat="47.74299" lon="7.2818">
        <ele>310</ele>
        <time>2012-03-03T14:41:20Z</time>
      </trkpt>
      <trkpt lat="47.74317" lon="7.28155">
        <ele>310</ele>
        <time>2012-03-03T14:41:21Z</time>
      </trkpt>
      <trkpt lat="47.74335" lon="7.28128">
        <ele>310</ele>
        <time>2012-03-03T14:41:22Z</time>
      </trkpt>
      <trkpt lat="47.74352" lon="7.28101">
        <ele>310</ele>
        <time>2012-03-03T14:41:23Z</time>
      </trkpt>
      <trkpt lat="47.74372" lon="7.28074">
        <ele>310</ele>
        <time>2012-03-03T14:41:24Z</time>
      </trkpt>
      <trkpt lat="47.74389" lon="7.28049">
        <ele>310</ele>
        <time>2012-03-03T14:41:25Z</time>
      </trkpt>
      <trkpt lat="47.74407" lon="7.28024">
        <ele>310</ele>
        <time>2012-03-03T14:41:26Z</time>
      </trkpt>
      <trkpt lat="47.74423" lon="7.28002">
        <ele>309</ele>
        <time>2012-03-03T14:41:27Z</time>
      </trkpt>
      <trkpt lat="47.74441" lon="7.27976">
        <ele>309</ele>
        <time>2012-03-03T14:41:28Z</time>
      </trkpt>
      <trkpt lat="47.74458" lon="7.27952">
        <ele>309</ele>
        <time>2012-03-03T14:41:29Z</time>
      </trkpt>
      <trkpt lat="47.74474" lon="7.2793">
        <ele>309</ele>
        <time>2012-03-03T14:41:30Z</time>
      </trkpt>
      <trkpt lat="47.74494" lon="7.27908">
        <ele>309</ele>
        <time>2012-03-03T14:41:31Z</time>
      </trkpt>
      <trkpt lat="47.74515" lon="7.27889">
        <ele>309</ele>
        <time>2012-03-03T14:41:32Z</time>
      </trkpt>
      <trkpt lat="47.74538" lon="7.27872">
        <ele>309</ele>
        <time>2012-03-03T14:41:33Z</time>
      </trkpt>
      <trkpt lat="47.74562" lon="7.2786">
        <ele>309</ele>
        <time>2012-03-03T14:41:34Z</time>
      </trkpt>
      <trkpt lat="47.74583" lon="7.27847">
        <ele>309</ele>
        <time>2012-03-03T14:41:35Z</time>
      </trkpt>
      <trkpt lat="47.74607" lon="7.2784">
        <ele>310</ele>
        <time>2012-03-03T14:41:36Z</time>
      </trkpt>
      <trkpt lat="47.74628" lon="7.27838">
        <ele>309</ele>
        <time>2012-03-03T14:41:37Z</time>
      </trkpt>
      <trkpt lat="47.74653" lon="7.27836">
        <ele>310</ele>
        <time>2012-03-03T14:41:38Z</time>
      </trkpt>
      <trkpt lat="47.74674" lon="7.27842">
        <ele>310</ele>
        <time>2012-03-03T14:41:39Z</time>
      </trkpt>
      <trkpt lat="47.74697" lon="7.2785">
        <ele>310</ele>
        <time>2012-03-03T14:41:40Z</time>
      </trkpt>
      <trkpt lat="47.74722" lon="7.27859">
        <ele>310</ele>
        <time>2012-03-03T14:41:41Z</time>
      </trkpt>
      <trkpt lat="47.74743" lon="7.27872">
        <ele>310</ele>
        <time>2012-03-03T14:41:42Z</time>
      </trkpt>
      <trkpt lat="47.74763" lon="7.27889">
        <ele>309</ele>
        <time>2012-03-03T14:41:43Z</time>
      </trkpt>
      <trkpt lat="47.74785" lon="7.27912">
        <ele>309</ele>
        <time>2012-03-03T14:41:44Z</time>
      </trkpt>
      <trkpt lat="47.74808" lon="7.27933">
        <ele>309</ele>
        <time>2012-03-03T14:41:45Z</time>
      </trkpt>
      <trkpt lat="47.74828" lon="7.27957">
        <ele>310</ele>
        <time>2012-03-03T14:41:46Z</time>
      </trkpt>
      <trkpt lat="47.7485" lon="7.27983">
        <ele>310</ele>
        <time>2012-03-03T14:41:47Z</time>
      </trkpt>
      <trkpt lat="47.74868" lon="7.28013">
        <ele>310</ele>
        <time>2012-03-03T14:41:48Z</time>
      </trkpt>
      <trkpt lat="47.74882" lon="7.28051">
        <ele>309</ele>
        <time>2012-03-03T14:41:49Z</time>
      </trkpt>
      <trkpt lat="47.74891" lon="7.28088">
        <ele>309</ele>
        <time>2012-03-03T14:41:50Z</time>
      </trkpt>
      <trkpt lat="47.74904" lon="7.2812">
        <ele>309</ele>
        <time>2012-03-03T14:41:51Z</time>
      </trkpt>
      <trkpt lat="47.74917" lon="7.28156">
        <ele>308</ele>
        <time>2012-03-03T14:41:52Z</time>
      </trkpt>
      <trkpt lat="47.74932" lon="7.28191">
        <ele>308</ele>
        <time>2012-03-03T14:41:53Z</time>
      </trkpt>
      <trkpt lat="47.74946" lon="7.28226">
        <ele>307</ele>
        <time>2012-03-03T14:41:54Z</time>
      </trkpt>
      <trkpt lat="47.74959" lon="7.2826">
        <ele>306</ele>
        <time>2012-03-03T14:41:55Z</time>
      </trkpt>
      <trkpt lat="47.74973" lon="7.28296">
        <ele>306</ele>
        <time>2012-03-03T14:41:56Z</time>
      </trkpt>
      <trkpt lat="47.74986" lon="7.2833">
        <ele>306</ele>
        <time>2012-03-03T14:41:57Z</time>
      </trkpt>
      <trkpt lat="47.74999" lon="7.28364">
        <ele>306</ele>
        <time>2012-03-03T14:41:58Z</time>
      </trkpt>
      <trkpt lat="47.7501" lon="7.28396">
        <ele>305</ele>
        <time>2012-03-03T14:41:59Z</time>
      </trkpt>
      <trkpt lat="47.75025" lon="7.2843">
        <ele>305</ele>
        <time>2012-03-03T14:42:00Z</time>
      </trkpt>
      <trkpt lat="47.75039" lon="7.28464">
        <ele>305</ele>
        <time>2012-03-03T14:42:01Z</time>
      </trkpt>
      <trkpt lat="47.75051" lon="7.28498">
        <ele>304</ele>
        <time>2012-03-03T14:42:02Z</time>
      </trkpt>
      <trkpt lat="47.75065" lon="7.28531">
        <ele>303</ele>
        <time>2012-03-03T14:42:03Z</time>
      </trkpt>
      <trkpt lat="47.75077" lon="7.28564">
        <ele>303</ele>
        <time>2012-03-03T14:42:04Z</time>
      </trkpt>
      <trkpt lat="47.7509" lon="7.28596">
        <ele>302</ele>
        <time>2012-03-03T14:42:05Z</time>
      </trkpt>
      <trkpt lat="47.75104" lon="7.28629">
        <ele>302</ele>
        <time>2012-03-03T14:42:06Z</time>
      </trkpt>
      <trkpt lat="47.75116" lon="7.28662">
        <ele>302</ele>
        <time>2012-03-03T14:42:07Z</time>
      </trkpt>
      <trkpt lat="47.75131" lon="7.28696">
        <ele>302</ele>
        <time>2012-03-03T14:42:08Z</time>
      </trkpt>
      <trkpt lat="47.75144" lon="7.28732">
        <ele>302</ele>
        <time>2012-03-03T14:42:09Z</time>
      </trkpt>
      <trkpt lat="47.75159" lon="7.28765">
        <ele>303</ele>
        <time>2012-03-03T14:42:10Z</time>
      </trkpt>
      <trkpt lat="47.75173" lon="7.28801">
        <ele>304</ele>
        <time>2012-03-03T14:42:11Z</time>
      </trkpt>
      <trkpt lat="47.75187" lon="7.28836">
        <ele>304</ele>
        <time>2012-03-03T14:42:12Z</time>
      </trkpt>
      <trkpt lat="47.75201" lon="7.2887">
        <ele>304</ele>
        <time>2012-03-03T14:42:13Z</time>
      </trkpt>
      <trkpt lat="47.75216" lon="7.28905">
        <ele>303</ele>
        <time>2012-03-03T14:42:14Z</time>
      </trkpt>
      <trkpt lat="47.7523" lon="7.28936">
        <ele>303</ele>
        <time>2012-03-03T14:42:15Z</time>
      </trkpt>
      <trkpt lat="47.75291" lon="7.29076">
        <ele>303</ele>
        <time>2012-03-03T14:42:19Z</time>
      </trkpt>
      <trkpt lat="47.75306" lon="7.29112">
        <ele>303</ele>
        <time>2012-03-03T14:42:20Z</time>
      </trkpt>
      <trkpt lat="47.7532" lon="7.29148">
        <ele>303</ele>
        <time>2012-03-03T14:42:21Z</time>
      </trkpt>
      <trkpt lat="47.75337" lon="7.29182">
        <ele>303</ele>
        <time>2012-03-03T14:42:22Z</time>
      </trkpt>
      <trkpt lat="47.7535" lon="7.29215">
        <ele>303</ele>
        <time>2012-03-03T14:42:23Z</time>
      </trkpt>
      <trkpt lat="47.75367" lon="7.29251">
        <ele>303</ele>
        <time>2012-03-03T14:42:24Z</time>
      </trkpt>
      <trkpt lat="47.75382" lon="7.29286">
        <ele>302</ele>
        <time>2012-03-03T14:42:25Z</time>
      </trkpt>
      <trkpt lat="47.75398" lon="7.29321">
        <ele>302</ele>
        <time>2012-03-03T14:42:26Z</time>
      </trkpt>
      <trkpt lat="47.75414" lon="7.29356">
        <ele>302</ele>
        <time>2012-03-03T14:42:27Z</time>
      </trkpt>
      <trkpt lat="47.7543" lon="7.29392">
        <ele>302</ele>
        <time>2012-03-03T14:42:28Z</time>
      </trkpt>
      <trkpt lat="47.75444" lon="7.29429">
        <ele>302</ele>
        <time>2012-03-03T14:42:29Z</time>
      </trkpt>
      <trkpt lat="47.7546" lon="7.29466">
        <ele>302</ele>
        <time>2012-03-03T14:42:30Z</time>
      </trkpt>
      <trkpt lat="47.75473" lon="7.29501">
        <ele>301</ele>
        <time>2012-03-03T14:42:31Z</time>
      </trkpt>
      <trkpt lat="47.75489" lon="7.2954">
        <ele>301</ele>
        <time>2012-03-03T14:42:32Z</time>
      </trkpt>
      <trkpt lat="47.75502" lon="7.29576">
        <ele>301</ele>
        <time>2012-03-03T14:42:33Z</time>
      </trkpt>
      <trkpt lat="47.75517" lon="7.29613">
        <ele>301</ele>
        <time>2012-03-03T14:42:34Z</time>
      </trkpt>
      <trkpt lat="47.75529" lon="7.2965">
        <ele>300</ele>
        <time>2012-03-03T14:42:35Z</time>
      </trkpt>
      <trkpt lat="47.75542" lon="7.29687">
        <ele>299</ele>
        <time>2012-03-03T14:42:36Z</time>
      </trkpt>
      <trkpt lat="47.75555" lon="7.29725">
        <ele>299</ele>
        <time>2012-03-03T14:42:37Z</time>
      </trkpt>
      <trkpt lat="47.75567" lon="7.29759">
        <ele>299</ele>
        <time>2012-03-03T14:42:38Z</time>
      </trkpt>
      <trkpt lat="47.75578" lon="7.29794">
        <ele>299</ele>
        <time>2012-03-03T14:42:39Z</time>
      </trkpt>
      <trkpt lat="47.7559" lon="7.29834">
        <ele>299</ele>
        <time>2012-03-03T14:42:40Z</time>
      </trkpt>
      <trkpt lat="47.75602" lon="7.29871">
        <ele>299</ele>
        <time>2012-03-03T14:42:41Z</time>
      </trkpt>
      <trkpt lat="47.75613" lon="7.2991">
        <ele>298</ele>
        <time>2012-03-03T14:42:42Z</time>
      </trkpt>
      <trkpt lat="47.75624" lon="7.29948">
        <ele>299</ele>
        <time>2012-03-03T14:42:43Z</time>
      </trkpt>
      <trkpt lat="47.75635" lon="7.29988">
        <ele>299</ele>
        <time>2012-03-03T14:42:44Z</time>
      </trkpt>
      <trkpt lat="47.75646" lon="7.30029">
        <ele>298</ele>
        <time>2012-03-03T14:42:45Z</time>
      </trkpt>
      <trkpt lat="47.75657" lon="7.30067">
        <ele>298</ele>
        <time>2012-03-03T14:42:46Z</time>
      </trkpt>
      <trkpt lat="47.75666" lon="7.30103">
        <ele>298</ele>
        <time>2012-03-03T14:42:47Z</time>
      </trkpt>
      <trkpt lat="47.75676" lon="7.30147">
        <ele>298</ele>
        <time>2012-03-03T14:42:48Z</time>
      </trkpt>
      <trkpt lat="47.75683" lon="7.30187">
        <ele>297</ele>
        <time>2012-03-03T14:42:49Z</time>
      </trkpt>
      <trkpt lat="47.75691" lon="7.30228">
        <ele>297</ele>
        <time>2012-03-03T14:42:50Z</time>
      </trkpt>
      <trkpt lat="47.75699" lon="7.30268">
        <ele>296</ele>
        <time>2012-03-03T14:42:51Z</time>
      </trkpt>
      <trkpt lat="47.75708" lon="7.30307">
        <ele>296</ele>
        <time>2012-03-03T14:42:52Z</time>
      </trkpt>
      <trkpt lat="47.75718" lon="7.30346">
        <ele>296</ele>
        <time>2012-03-03T14:42:53Z</time>
      </trkpt>
      <trkpt lat="47.75727" lon="7.30383">
        <ele>297</ele>
        <time>2012-03-03T14:42:54Z</time>
      </trkpt>
      <trkpt lat="47.75736" lon="7.30416">
        <ele>297</ele>
        <time>2012-03-03T14:42:55Z</time>
      </trkpt>
      <trkpt lat="47.75744" lon="7.3046">
        <ele>297</ele>
        <time>2012-03-03T14:42:56Z</time>
      </trkpt>
      <trkpt lat="47.75753" lon="7.30498">
        <ele>296</ele>
        <time>2012-03-03T14:42:57Z</time>
      </trkpt>
      <trkpt lat="47.75763" lon="7.30538">
        <ele>296</ele>
        <time>2012-03-03T14:42:58Z</time>
      </trkpt>
      <trkpt lat="47.75772" lon="7.30577">
        <ele>296</ele>
        <time>2012-03-03T14:42:59Z</time>
      </trkpt>
      <trkpt lat="47.75783" lon="7.30616">
        <ele>296</ele>
        <time>2012-03-03T14:43:00Z</time>
      </trkpt>
      <trkpt lat="47.75794" lon="7.30654">
        <ele>295</ele>
        <time>2012-03-03T14:43:01Z</time>
      </trkpt>
      <trkpt lat="47.75807" lon="7.3069">
        <ele>295</ele>
        <time>2012-03-03T14:43:02Z</time>
      </trkpt>
      <trkpt lat="47.75817" lon="7.30725">
        <ele>295</ele>
        <time>2012-03-03T14:43:03Z</time>
      </trkpt>
      <trkpt lat="47.75831" lon="7.30761">
        <ele>295</ele>
        <time>2012-03-03T14:43:04Z</time>
      </trkpt>
      <trkpt lat="47.75843" lon="7.30795">
        <ele>294</ele>
        <time>2012-03-03T14:43:05Z</time>
      </trkpt>
      <trkpt lat="47.75857" lon="7.30827">
        <ele>294</ele>
        <time>2012-03-03T14:43:06Z</time>
      </trkpt>
      <trkpt lat="47.75867" lon="7.30859">
        <ele>294</ele>
        <time>2012-03-03T14:43:07Z</time>
      </trkpt>
      <trkpt lat="47.75881" lon="7.30889">
        <ele>294</ele>
        <time>2012-03-03T14:43:08Z</time>
      </trkpt>
      <trkpt lat="47.75893" lon="7.30918">
        <ele>294</ele>
        <time>2012-03-03T14:43:09Z</time>
      </trkpt>
      <trkpt lat="47.75902" lon="7.30951">
        <ele>294</ele>
        <time>2012-03-03T14:43:10Z</time>
      </trkpt>
      <trkpt lat="47.75915" lon="7.30977">
        <ele>293</ele>
        <time>2012-03-03T14:43:11Z</time>
      </trkpt>
      <trkpt lat="47.75931" lon="7.3101">
        <ele>292</ele>
        <time>2012-03-03T14:43:12Z</time>
      </trkpt>
      <trkpt lat="47.75943" lon="7.31043">
        <ele>292</ele>
        <time>2012-03-03T14:43:13Z</time>
      </trkpt>
      <trkpt lat="47.75957" lon="7.31074">
        <ele>292</ele>
        <time>2012-03-03T14:43:14Z</time>
      </trkpt>
      <trkpt lat="47.75972" lon="7.31104">
        <ele>291</ele>
        <time>2012-03-03T14:43:15Z</time>
      </trkpt>
      <trkpt lat="47.75988" lon="7.31132">
        <ele>292</ele>
        <time>2012-03-03T14:43:16Z</time>
      </trkpt>
      <trkpt lat="47.76001" lon="7.31162">
        <ele>292</ele>
        <time>2012-03-03T14:43:17Z</time>
      </trkpt>
      <trkpt lat="47.76016" lon="7.31193">
        <ele>292</ele>
        <time>2012-03-03T14:43:18Z</time>
      </trkpt>
      <trkpt lat="47.76031" lon="7.31222">
        <ele>291</ele>
        <time>2012-03-03T14:43:19Z</time>
      </trkpt>
      <trkpt lat="47.76047" lon="7.31257">
        <ele>291</ele>
        <time>2012-03-03T14:43:20Z</time>
      </trkpt>
      <trkpt lat="47.76063" lon="7.31288">
        <ele>290</ele>
        <time>2012-03-03T14:43:21Z</time>
      </trkpt>
      <trkpt lat="47.7608" lon="7.31318">
        <ele>290</ele>
        <time>2012-03-03T14:43:22Z</time>
      </trkpt>
      <trkpt lat="47.76096" lon="7.31347">
        <ele>290</ele>
        <time>2012-03-03T14:43:23Z</time>
      </trkpt>
      <trkpt lat="47.76111" lon="7.31377">
        <ele>290</ele>
        <time>2012-03-03T14:43:24Z</time>
      </trkpt>
      <trkpt lat="47.76126" lon="7.31406">
        <ele>290</ele>
        <time>2012-03-03T14:43:25Z</time>
      </trkpt>
      <trkpt lat="47.7614" lon="7.31436">
        <ele>290</ele>
        <time>2012-03-03T14:43:26Z</time>
      </trkpt>
      <trkpt lat="47.76152" lon="7.31461">
        <ele>290</ele>
        <time>2012-03-03T14:43:27Z</time>
      </trkpt>
      <trkpt lat="47.76166" lon="7.31492">
        <ele>291</ele>
        <time>2012-03-03T14:43:28Z</time>
      </trkpt>
      <trkpt lat="47.76176" lon="7.31519">
        <ele>291</ele>
        <time>2012-03-03T14:43:29Z</time>
      </trkpt>
      <trkpt lat="47.76189" lon="7.31542">
        <ele>291</ele>
        <time>2012-03-03T14:43:30Z</time>
      </trkpt>
      <trkpt lat="47.762" lon="7.31568">
        <ele>291</ele>
        <time>2012-03-03T14:43:31Z</time>
      </trkpt>
      <trkpt lat="47.7621" lon="7.31593">
        <ele>291</ele>
        <time>2012-03-03T14:43:32Z</time>
      </trkpt>
      <trkpt lat="47.76221" lon="7.31617">
        <ele>291</ele>
        <time>2012-03-03T14:43:33Z</time>
      </trkpt>
      <trkpt lat="47.7623" lon="7.31639">
        <ele>292</ele>
        <time>2012-03-03T14:43:34Z</time>
      </trkpt>
      <trkpt lat="47.7624" lon="7.31662">
        <ele>292</ele>
        <time>2012-03-03T14:43:35Z</time>
      </trkpt>
      <trkpt lat="47.76249" lon="7.31688">
        <ele>291</ele>
        <time>2012-03-03T14:43:36Z</time>
      </trkpt>
      <trkpt lat="47.76259" lon="7.31711">
        <ele>291</ele>
        <time>2012-03-03T14:43:37Z</time>
      </trkpt>
      <trkpt lat="47.76266" lon="7.31735">
        <ele>291</ele>
        <time>2012-03-03T14:43:38Z</time>
      </trkpt>
      <trkpt lat="47.76276" lon="7.3176">
        <ele>291</ele>
        <time>2012-03-03T14:43:39Z</time>
      </trkpt>
      <trkpt lat="47.76285" lon="7.31785">
        <ele>291</ele>
        <time>2012-03-03T14:43:40Z</time>
      </trkpt>
      <trkpt lat="47.76293" lon="7.31813">
        <ele>290</ele>
        <time>2012-03-03T14:43:41Z</time>
      </trkpt>
      <trkpt lat="47.76302" lon="7.3184">
        <ele>291</ele>
        <time>2012-03-03T14:43:42Z</time>
      </trkpt>
      <trkpt lat="47.76309" lon="7.31867">
        <ele>290</ele>
        <time>2012-03-03T14:43:43Z</time>
      </trkpt>
      <trkpt lat="47.76318" lon="7.31895">
        <ele>290</ele>
        <time>2012-03-03T14:43:44Z</time>
      </trkpt>
      <trkpt lat="47.76326" lon="7.31923">
        <ele>290</ele>
        <time>2012-03-03T14:43:45Z</time>
      </trkpt>
      <trkpt lat="47.76334" lon="7.31952">
        <ele>289</ele>
        <time>2012-03-03T14:43:46Z</time>
      </trkpt>
      <trkpt lat="47.7634" lon="7.31981">
        <ele>290</ele>
        <time>2012-03-03T14:43:47Z</time>
      </trkpt>
      <trkpt lat="47.76347" lon="7.3201">
        <ele>291</ele>
        <time>2012-03-03T14:43:48Z</time>
      </trkpt>
      <trkpt lat="47.76353" lon="7.32039">
        <ele>290</ele>
        <time>2012-03-03T14:43:49Z</time>
      </trkpt>
      <trkpt lat="47.76359" lon="7.32067">
        <ele>290</ele>
        <time>2012-03-03T14:43:50Z</time>
      </trkpt>
      <trkpt lat="47.76365" lon="7.32094">
        <ele>290</ele>
        <time>2012-03-03T14:43:51Z</time>
      </trkpt>
      <trkpt lat="47.76369" lon="7.32123">
        <ele>291</ele>
        <time>2012-03-03T14:43:52Z</time>
      </trkpt>
      <trkpt lat="47.76374" lon="7.32152">
        <ele>291</ele>
        <time>2012-03-03T14:43:53Z</time>
      </trkpt>
      <trkpt lat="47.76379" lon="7.32183">
        <ele>290</ele>
        <time>2012-03-03T14:43:54Z</time>
      </trkpt>
      <trkpt lat="47.76382" lon="7.32213">
        <ele>290</ele>
        <time>2012-03-03T14:43:55Z</time>
      </trkpt>
      <trkpt lat="47.76386" lon="7.32243">
        <ele>290</ele>
        <time>2012-03-03T14:43:56Z</time>
      </trkpt>
      <trkpt lat="47.7639" lon="7.32274">
        <ele>290</ele>
        <time>2012-03-03T14:43:57Z</time>
      </trkpt>
      <trkpt lat="47.76392" lon="7.32305">
        <ele>290</ele>
        <time>2012-03-03T14:43:58Z</time>
      </trkpt>
      <trkpt lat="47.76396" lon="7.32333">
        <ele>289</ele>
        <time>2012-03-03T14:43:59Z</time>
      </trkpt>
      <trkpt lat="47.76399" lon="7.32364">
        <ele>289</ele>
        <time>2012-03-03T14:44:00Z</time>
      </trkpt>
      <trkpt lat="47.76403" lon="7.32395">
        <ele>289</ele>
        <time>2012-03-03T14:44:01Z</time>
      </trkpt>
      <trkpt lat="47.76407" lon="7.32426">
        <ele>289</ele>
        <time>2012-03-03T14:44:02Z</time>
      </trkpt>
      <trkpt lat="47.7641" lon="7.32458">
        <ele>289</ele>
        <time>2012-03-03T14:44:03Z</time>
      </trkpt>
      <trkpt lat="47.76413" lon="7.32488">
        <ele>289</ele>
        <time>2012-03-03T14:44:04Z</time>
      </trkpt>
      <trkpt lat="47.76417" lon="7.32519">
        <ele>289</ele>
        <time>2012-03-03T14:44:05Z</time>
      </trkpt>
      <trkpt lat="47.7642" lon="7.32547">
        <ele>290</ele>
        <time>2012-03-03T14:44:06Z</time>
      </trkpt>
      <trkpt lat="47.76422" lon="7.32579">
        <ele>290</ele>
        <time>2012-03-03T14:44:07Z</time>
      </trkpt>
      <trkpt lat="47.76424" lon="7.32611">
        <ele>289</ele>
        <time>2012-03-03T14:44:08Z</time>
      </trkpt>
      <trkpt lat="47.76426" lon="7.3264">
        <ele>289</ele>
        <time>2012-03-03T14:44:09Z</time>
      </trkpt>
      <trkpt lat="47.76428" lon="7.32672">
        <ele>289</ele>
        <time>2012-03-03T14:44:10Z</time>
      </trkpt>
      <trkpt lat="47.76431" lon="7.32702">
        <ele>289</ele>
        <time>2012-03-03T14:44:11Z</time>
      </trkpt>
      <trkpt lat="47.76434" lon="7.32732">
        <ele>289</ele>
        <time>2012-03-03T14:44:12Z</time>
      </trkpt>
      <trkpt lat="47.76437" lon="7.32764">
        <ele>289</ele>
        <time>2012-03-03T14:44:13Z</time>
      </trkpt>
      <trkpt lat="47.76442" lon="7.32793">
        <ele>289</ele>
        <time>2012-03-03T14:44:14Z</time>
      </trkpt>
      <trkpt lat="47.76445" lon="7.32823">
        <ele>289</ele>
        <time>2012-03-03T14:44:15Z</time>
      </trkpt>
      <trkpt lat="47.76451" lon="7.32856">
        <ele>289</ele>
        <time>2012-03-03T14:44:16Z</time>
      </trkpt>
      <trkpt lat="47.76454" lon="7.3289">
        <ele>289</ele>
        <time>2012-03-03T14:44:17Z</time>
      </trkpt>
      <trkpt lat="47.76459" lon="7.3292">
        <ele>289</ele>
        <time>2012-03-03T14:44:18Z</time>
      </trkpt>
      <trkpt lat="47.76463" lon="7.32952">
        <ele>290</ele>
        <time>2012-03-03T14:44:19Z</time>
      </trkpt>
      <trkpt lat="47.76469" lon="7.32983">
        <ele>290</ele>
        <time>2012-03-03T14:44:20Z</time>
      </trkpt>
      <trkpt lat="47.76475" lon="7.33017">
        <ele>290</ele>
        <time>2012-03-03T14:44:21Z</time>
      </trkpt>
      <trkpt lat="47.76483" lon="7.33047">
        <ele>290</ele>
        <time>2012-03-03T14:44:22Z</time>
      </trkpt>
      <trkpt lat="47.7649" lon="7.33077">
        <ele>289</ele>
        <time>2012-03-03T14:44:23Z</time>
      </trkpt>
      <trkpt lat="47.76498" lon="7.3311">
        <ele>289</ele>
        <time>2012-03-03T14:44:24Z</time>
      </trkpt>
      <trkpt lat="47.76505" lon="7.33146">
        <ele>289</ele>
        <time>2012-03-03T14:44:25Z</time>
      </trkpt>
      <trkpt lat="47.76513" lon="7.33178">
        <ele>289</ele>
        <time>2012-03-03T14:44:26Z</time>
      </trkpt>
      <trkpt lat="47.76522" lon="7.33211">
        <ele>288</ele>
        <time>2012-03-03T14:44:27Z</time>
      </trkpt>
      <trkpt lat="47.76531" lon="7.33246">
        <ele>288</ele>
        <time>2012-03-03T14:44:28Z</time>
      </trkpt>
      <trkpt lat="47.76541" lon="7.33277">
        <ele>288</ele>
        <time>2012-03-03T14:44:29Z</time>
      </trkpt>
      <trkpt lat="47.7655" lon="7.33306">
        <ele>288</ele>
        <time>2012-03-03T14:44:30Z</time>
      </trkpt>
      <trkpt lat="47.76559" lon="7.33336">
        <ele>289</ele>
        <time>2012-03-03T14:44:31Z</time>
      </trkpt>
      <trkpt lat="47.7657" lon="7.33367">
        <ele>288</ele>
        <time>2012-03-03T14:44:32Z</time>
      </trkpt>
      <trkpt lat="47.7658" lon="7.33396">
        <ele>288</ele>
        <time>2012-03-03T14:44:33Z</time>
      </trkpt>
      <trkpt lat="47.76592" lon="7.33426">
        <ele>288</ele>
        <time>2012-03-03T14:44:34Z</time>
      </trkpt>
      <trkpt lat="47.76606" lon="7.33454">
        <ele>287</ele>
        <time>2012-03-03T14:44:35Z</time>
      </trkpt>
      <trkpt lat="47.7662" lon="7.33483">
        <ele>287</ele>
        <time>2012-03-03T14:44:36Z</time>
      </trkpt>
      <trkpt lat="47.76634" lon="7.33515">
        <ele>287</ele>
        <time>2012-03-03T14:44:37Z</time>
      </trkpt>
      <trkpt lat="47.76647" lon="7.33547">
        <ele>287</ele>
        <time>2012-03-03T14:44:38Z</time>
      </trkpt>
      <trkpt lat="47.76661" lon="7.33575">
        <ele>286</ele>
        <time>2012-03-03T14:44:39Z</time>
      </trkpt>
      <trkpt lat="47.76676" lon="7.33607">
        <ele>286</ele>
        <time>2012-03-03T14:44:40Z</time>
      </trkpt>
      <trkpt lat="47.76692" lon="7.33634">
        <ele>287</ele>
        <time>2012-03-03T14:44:41Z</time>
      </trkpt>
      <trkpt lat="47.76706" lon="7.33664">
        <ele>286</ele>
        <time>2012-03-03T14:44:42Z</time>
      </trkpt>
      <trkpt lat="47.76721" lon="7.33691">
        <ele>286</ele>
        <time>2012-03-03T14:44:43Z</time>
      </trkpt>
      <trkpt lat="47.76736" lon="7.33718">
        <ele>286</ele>
        <time>2012-03-03T14:44:44Z</time>
      </trkpt>
      <trkpt lat="47.76751" lon="7.33745">
        <ele>287</ele>
        <time>2012-03-03T14:44:45Z</time>
      </trkpt>
      <trkpt lat="47.76767" lon="7.33771">
        <ele>286</ele>
        <time>2012-03-03T14:44:46Z</time>
      </trkpt>
      <trkpt lat="47.76782" lon="7.33794">
        <ele>286</ele>
        <time>2012-03-03T14:44:47Z</time>
      </trkpt>
      <trkpt lat="47.76799" lon="7.33822">
        <ele>286</ele>
        <time>2012-03-03T14:44:48Z</time>
      </trkpt>
      <trkpt lat="47.76816" lon="7.33847">
        <ele>286</ele>
        <time>2012-03-03T14:44:49Z</time>
      </trkpt>
      <trkpt lat="47.76831" lon="7.33872">
        <ele>286</ele>
        <time>2012-03-03T14:44:50Z</time>
      </trkpt>
      <trkpt lat="47.76847" lon="7.339">
        <ele>286</ele>
        <time>2012-03-03T14:44:51Z</time>
      </trkpt>
      <trkpt lat="47.76863" lon="7.33926">
        <ele>286</ele>
        <time>2012-03-03T14:44:52Z</time>
      </trkpt>
      <trkpt lat="47.76878" lon="7.3395">
        <ele>285</ele>
        <time>2012-03-03T14:44:53Z</time>
      </trkpt>
      <trkpt lat="47.76893" lon="7.33976">
        <ele>285</ele>
        <time>2012-03-03T14:44:54Z</time>
      </trkpt>
      <trkpt lat="47.76906" lon="7.34">
        <ele>285</ele>
        <time>2012-03-03T14:44:55Z</time>
      </trkpt>
      <trkpt lat="47.76921" lon="7.34022">
        <ele>286</ele>
        <time>2012-03-03T14:44:56Z</time>
      </trkpt>
      <trkpt lat="47.76936" lon="7.34046">
        <ele>286</ele>
        <time>2012-03-03T14:44:57Z</time>
      </trkpt>
      <trkpt lat="47.76952" lon="7.34069">
        <ele>286</ele>
        <time>2012-03-03T14:44:58Z</time>
      </trkpt>
      <trkpt lat="47.76966" lon="7.3409">
        <ele>287</ele>
        <time>2012-03-03T14:44:59Z</time>
      </trkpt>
      <trkpt lat="47.76979" lon="7.34112">
        <ele>286</ele>
        <time>2012-03-03T14:45:00Z</time>
      </trkpt>
      <trkpt lat="47.76993" lon="7.34133">
        <ele>287</ele>
        <time>2012-03-03T14:45:01Z</time>
      </trkpt>
      <trkpt lat="47.77007" lon="7.34154">
        <ele>286</ele>
        <time>2012-03-03T14:45:02Z</time>
      </trkpt>
      <trkpt lat="47.77017" lon="7.34172">
        <ele>286</ele>
        <time>2012-03-03T14:45:03Z</time>
      </trkpt>
      <trkpt lat="47.7703" lon="7.34192">
        <ele>286</ele>
        <time>2012-03-03T14:45:04Z</time>
      </trkpt>
      <trkpt lat="47.7704" lon="7.34213">
        <ele>286</ele>
        <time>2012-03-03T14:45:05Z</time>
      </trkpt>
      <trkpt lat="47.77051" lon="7.3423">
        <ele>286</ele>
        <time>2012-03-03T14:45:06Z</time>
      </trkpt>
      <trkpt lat="47.77061" lon="7.34249">
        <ele>286</ele>
        <time>2012-03-03T14:45:07Z</time>
      </trkpt>
      <trkpt lat="47.77066" lon="7.34268">
        <ele>286</ele>
        <time>2012-03-03T14:45:08Z</time>
      </trkpt>
      <trkpt lat="47.7707" lon="7.34288">
        <ele>285</ele>
        <time>2012-03-03T14:45:09Z</time>
      </trkpt>
      <trkpt lat="47.77065" lon="7.34313">
        <ele>286</ele>
        <time>2012-03-03T14:45:10Z</time>
      </trkpt>
      <trkpt lat="47.77064" lon="7.34334">
        <ele>285</ele>
        <time>2012-03-03T14:45:11Z</time>
      </trkpt>
      <trkpt lat="47.7706" lon="7.34356">
        <ele>285</ele>
        <time>2012-03-03T14:45:12Z</time>
      </trkpt>
      <trkpt lat="47.77053" lon="7.34375">
        <ele>283</ele>
        <time>2012-03-03T14:45:13Z</time>
      </trkpt>
      <trkpt lat="47.77043" lon="7.34388">
        <ele>282</ele>
        <time>2012-03-03T14:45:14Z</time>
      </trkpt>
      <trkpt lat="47.77032" lon="7.3439">
        <ele>282</ele>
        <time>2012-03-03T14:45:15Z</time>
      </trkpt>
      <trkpt lat="47.77017" lon="7.34389">
        <ele>282</ele>
        <time>2012-03-03T14:45:16Z</time>
      </trkpt>
      <trkpt lat="47.77002" lon="7.34388">
        <ele>283</ele>
        <time>2012-03-03T14:45:17Z</time>
      </trkpt>
      <trkpt lat="47.7699" lon="7.34378">
        <ele>283</ele>
        <time>2012-03-03T14:45:18Z</time>
      </trkpt>
      <trkpt lat="47.76979" lon="7.34369">
        <ele>283</ele>
        <time>2012-03-03T14:45:19Z</time>
      </trkpt>
      <trkpt lat="47.76966" lon="7.34354">
        <ele>284</ele>
        <time>2012-03-03T14:45:20Z</time>
      </trkpt>
      <trkpt lat="47.76955" lon="7.34342">
        <ele>284</ele>
        <time>2012-03-03T14:45:21Z</time>
      </trkpt>
      <trkpt lat="47.76943" lon="7.34327">
        <ele>284</ele>
        <time>2012-03-03T14:45:22Z</time>
      </trkpt>
      <trkpt lat="47.76934" lon="7.34308">
        <ele>284</ele>
        <time>2012-03-03T14:45:23Z</time>
      </trkpt>
      <trkpt lat="47.76927" lon="7.34289">
        <ele>284</ele>
        <time>2012-03-03T14:45:24Z</time>
      </trkpt>
      <trkpt lat="47.76925" lon="7.34267">
        <ele>284</ele>
        <time>2012-03-03T14:45:25Z</time>
      </trkpt>
      <trkpt lat="47.76924" lon="7.34243">
        <ele>284</ele>
        <time>2012-03-03T14:45:26Z</time>
      </trkpt>
      <trkpt lat="47.76927" lon="7.34227">
        <ele>284</ele>
        <time>2012-03-03T14:45:27Z</time>
      </trkpt>
      <trkpt lat="47.76933" lon="7.34208">
        <ele>284</ele>
        <time>2012-03-03T14:45:28Z</time>
      </trkpt>
      <trkpt lat="47.76938" lon="7.34189">
        <ele>285</ele>
        <time>2012-03-03T14:45:29Z</time>
      </trkpt>
      <trkpt lat="47.76948" lon="7.34169">
        <ele>286</ele>
        <time>2012-03-03T14:45:30Z</time>
      </trkpt>
      <trkpt lat="47.7696" lon="7.3415">
        <ele>286</ele>
        <time>2012-03-03T14:45:31Z</time>
      </trkpt>
      <trkpt lat="47.76975" lon="7.34133">
        <ele>286</ele>
        <time>2012-03-03T14:45:32Z</time>
      </trkpt>
      <trkpt lat="47.76987" lon="7.34115">
        <ele>286</ele>
        <time>2012-03-03T14:45:33Z</time>
      </trkpt>
      <trkpt lat="47.77001" lon="7.34095">
        <ele>287</ele>
        <time>2012-03-03T14:45:34Z</time>
      </trkpt>
      <trkpt lat="47.77013" lon="7.34074">
        <ele>287</ele>
        <time>2012-03-03T14:45:35Z</time>
      </trkpt>
      <trkpt lat="47.77026" lon="7.34052">
        <ele>287</ele>
        <time>2012-03-03T14:45:36Z</time>
      </trkpt>
      <trkpt lat="47.77038" lon="7.34032">
        <ele>287</ele>
        <time>2012-03-03T14:45:37Z</time>
      </trkpt>
      <trkpt lat="47.77051" lon="7.34012">
        <ele>287</ele>
        <time>2012-03-03T14:45:38Z</time>
      </trkpt>
      <trkpt lat="47.77064" lon="7.33992">
        <ele>287</ele>
        <time>2012-03-03T14:45:39Z</time>
      </trkpt>
      <trkpt lat="47.77078" lon="7.33971">
        <ele>287</ele>
        <time>2012-03-03T14:45:40Z</time>
      </trkpt>
      <trkpt lat="47.77106" lon="7.33928">
        <ele>288</ele>
        <time>2012-03-03T14:45:42Z</time>
      </trkpt>
      <trkpt lat="47.7712" lon="7.33908">
        <ele>287</ele>
        <time>2012-03-03T14:45:43Z</time>
      </trkpt>
      <trkpt lat="47.77136" lon="7.33884">
        <ele>288</ele>
        <time>2012-03-03T14:45:44Z</time>
      </trkpt>
      <trkpt lat="47.77153" lon="7.33863">
        <ele>288</ele>
        <time>2012-03-03T14:45:45Z</time>
      </trkpt>
      <trkpt lat="47.77169" lon="7.33844">
        <ele>288</ele>
        <time>2012-03-03T14:45:46Z</time>
      </trkpt>
      <trkpt lat="47.77185" lon="7.33825">
        <ele>288</ele>
        <time>2012-03-03T14:45:47Z</time>
      </trkpt>
      <trkpt lat="47.77201" lon="7.33804">
        <ele>288</ele>
        <time>2012-03-03T14:45:48Z</time>
      </trkpt>
      <trkpt lat="47.77218" lon="7.33784">
        <ele>288</ele>
        <time>2012-03-03T14:45:49Z</time>
      </trkpt>
      <trkpt lat="47.77236" lon="7.33765">
        <ele>288</ele>
        <time>2012-03-03T14:45:50Z</time>
      </trkpt>
      <trkpt lat="47.77255" lon="7.33746">
        <ele>288</ele>
        <time>2012-03-03T14:45:51Z</time>
      </trkpt>
      <trkpt lat="47.77276" lon="7.33726">
        <ele>288</ele>
        <time>2012-03-03T14:45:52Z</time>
      </trkpt>
      <trkpt lat="47.77296" lon="7.33709">
        <ele>288</ele>
        <time>2012-03-03T14:45:53Z</time>
      </trkpt>
      <trkpt lat="47.77317" lon="7.33691">
        <ele>288</ele>
        <time>2012-03-03T14:45:54Z</time>
      </trkpt>
      <trkpt lat="47.77338" lon="7.33674">
        <ele>288</ele>
        <time>2012-03-03T14:45:55Z</time>
      </trkpt>
      <trkpt lat="47.7736" lon="7.33658">
        <ele>289</ele>
        <time>2012-03-03T14:45:56Z</time>
      </trkpt>
      <trkpt lat="47.77381" lon="7.33642">
        <ele>289</ele>
        <time>2012-03-03T14:45:57Z</time>
      </trkpt>
      <trkpt lat="47.774" lon="7.33626">
        <ele>289</ele>
        <time>2012-03-03T14:45:58Z</time>
      </trkpt>
      <trkpt lat="47.77419" lon="7.33613">
        <ele>289</ele>
        <time>2012-03-03T14:45:59Z</time>
      </trkpt>
      <trkpt lat="47.77442" lon="7.33597">
        <ele>289</ele>
        <time>2012-03-03T14:46:00Z</time>
      </trkpt>
      <trkpt lat="47.77463" lon="7.3358">
        <ele>289</ele>
        <time>2012-03-03T14:46:01Z</time>
      </trkpt>
      <trkpt lat="47.77483" lon="7.33564">
        <ele>289</ele>
        <time>2012-03-03T14:46:02Z</time>
      </trkpt>
      <trkpt lat="47.77504" lon="7.33548">
        <ele>290</ele>
        <time>2012-03-03T14:46:03Z</time>
      </trkpt>
      <trkpt lat="47.77526" lon="7.33531">
        <ele>289</ele>
        <time>2012-03-03T14:46:04Z</time>
      </trkpt>
      <trkpt lat="47.77547" lon="7.33515">
        <ele>289</ele>
        <time>2012-03-03T14:46:05Z</time>
      </trkpt>
      <trkpt lat="47.77566" lon="7.33499">
        <ele>289</ele>
        <time>2012-03-03T14:46:06Z</time>
      </trkpt>
      <trkpt lat="47.77585" lon="7.33485">
        <ele>289</ele>
        <time>2012-03-03T14:46:07Z</time>
      </trkpt>
      <trkpt lat="47.77607" lon="7.33468">
        <ele>289</ele>
        <time>2012-03-03T14:46:08Z</time>
      </trkpt>
      <trkpt lat="47.77628" lon="7.33451">
        <ele>289</ele>
        <time>2012-03-03T14:46:09Z</time>
      </trkpt>
      <trkpt lat="47.77648" lon="7.33436">
        <ele>288</ele>
        <time>2012-03-03T14:46:10Z</time>
      </trkpt>
      <trkpt lat="47.77669" lon="7.3342">
        <ele>289</ele>
        <time>2012-03-03T14:46:11Z</time>
      </trkpt>
      <trkpt lat="47.7769" lon="7.33404">
        <ele>289</ele>
        <time>2012-03-03T14:46:12Z</time>
      </trkpt>
      <trkpt lat="47.77711" lon="7.33389">
        <ele>289</ele>
        <time>2012-03-03T14:46:13Z</time>
      </trkpt>
      <trkpt lat="47.77731" lon="7.33373">
        <ele>288</ele>
        <time>2012-03-03T14:46:14Z</time>
      </trkpt>
      <trkpt lat="47.77749" lon="7.3336">
        <ele>289</ele>
        <time>2012-03-03T14:46:15Z</time>
      </trkpt>
      <trkpt lat="47.7777" lon="7.33344">
        <ele>289</ele>
        <time>2012-03-03T14:46:16Z</time>
      </trkpt>
      <trkpt lat="47.77789" lon="7.33329">
        <ele>289</ele>
        <time>2012-03-03T14:46:17Z</time>
      </trkpt>
      <trkpt lat="47.77808" lon="7.33315">
        <ele>289</ele>
        <time>2012-03-03T14:46:18Z</time>
      </trkpt>
      <trkpt lat="47.77828" lon="7.333">
        <ele>289</ele>
        <time>2012-03-03T14:46:19Z</time>
      </trkpt>
      <trkpt lat="47.77847" lon="7.33285">
        <ele>290</ele>
        <time>2012-03-03T14:46:20Z</time>
      </trkpt>
      <trkpt lat="47.77865" lon="7.33271">
        <ele>289</ele>
        <time>2012-03-03T14:46:21Z</time>
      </trkpt>
      <trkpt lat="47.77882" lon="7.33257">
        <ele>289</ele>
        <time>2012-03-03T14:46:22Z</time>
      </trkpt>
      <trkpt lat="47.77898" lon="7.33246">
        <ele>289</ele>
        <time>2012-03-03T14:46:23Z</time>
      </trkpt>
      <trkpt lat="47.77915" lon="7.33232">
        <ele>289</ele>
        <time>2012-03-03T14:46:24Z</time>
      </trkpt>
      <trkpt lat="47.77929" lon="7.33219">
        <ele>290</ele>
        <time>2012-03-03T14:46:25Z</time>
      </trkpt>
      <trkpt lat="47.77946" lon="7.33207">
        <ele>290</ele>
        <time>2012-03-03T14:46:26Z</time>
      </trkpt>
      <trkpt lat="47.77958" lon="7.33196">
        <ele>291</ele>
        <time>2012-03-03T14:46:27Z</time>
      </trkpt>
      <trkpt lat="47.77971" lon="7.33186">
        <ele>291</ele>
        <time>2012-03-03T14:46:28Z</time>
      </trkpt>
      <trkpt lat="47.77983" lon="7.33176">
        <ele>291</ele>
        <time>2012-03-03T14:46:29Z</time>
      </trkpt>
      <trkpt lat="47.77995" lon="7.33168">
        <ele>292</ele>
        <time>2012-03-03T14:46:30Z</time>
      </trkpt>
      <trkpt lat="47.78005" lon="7.33161">
        <ele>292</ele>
        <time>2012-03-03T14:46:31Z</time>
      </trkpt>
      <trkpt lat="47.78018" lon="7.33153">
        <ele>291</ele>
        <time>2012-03-03T14:46:32Z</time>
      </trkpt>
      <trkpt lat="47.78031" lon="7.33144">
        <ele>292</ele>
        <time>2012-03-03T14:46:33Z</time>
      </trkpt>
      <trkpt lat="47.78042" lon="7.33134">
        <ele>292</ele>
        <time>2012-03-03T14:46:34Z</time>
      </trkpt>
      <trkpt lat="47.78054" lon="7.33122">
        <ele>292</ele>
        <time>2012-03-03T14:46:35Z</time>
      </trkpt>
      <trkpt lat="47.78067" lon="7.33109">
        <ele>292</ele>
        <time>2012-03-03T14:46:36Z</time>
      </trkpt>
      <trkpt lat="47.78079" lon="7.33096">
        <ele>292</ele>
        <time>2012-03-03T14:46:37Z</time>
      </trkpt>
      <trkpt lat="47.78089" lon="7.33082">
        <ele>292</ele>
        <time>2012-03-03T14:46:38Z</time>
      </trkpt>
      <trkpt lat="47.78099" lon="7.33072">
        <ele>292</ele>
        <time>2012-03-03T14:46:39Z</time>
      </trkpt>
      <trkpt lat="47.78108" lon="7.33061">
        <ele>292</ele>
        <time>2012-03-03T14:46:40Z</time>
      </trkpt>
      <trkpt lat="47.78121" lon="7.33042">
        <ele>291</ele>
        <time>2012-03-03T14:46:42Z</time>
      </trkpt>
      <trkpt lat="47.7813" lon="7.33034">
        <ele>291</ele>
        <time>2012-03-03T14:46:43Z</time>
      </trkpt>
      <trkpt lat="47.78137" lon="7.33028">
        <ele>292</ele>
        <time>2012-03-03T14:46:44Z</time>
      </trkpt>
      <trkpt lat="47.78143" lon="7.33021">
        <ele>291</ele>
        <time>2012-03-03T14:46:45Z</time>
      </trkpt>
      <trkpt lat="47.78147" lon="7.33016">
        <ele>291</ele>
        <time>2012-03-03T14:46:46Z</time>
      </trkpt>
      <trkpt lat="47.78152" lon="7.33008">
        <ele>291</ele>
        <time>2012-03-03T14:46:47Z</time>
      </trkpt>
      <trkpt lat="47.7816" lon="7.32997">
        <ele>291</ele>
        <time>2012-03-03T14:46:48Z</time>
      </trkpt>
      <trkpt lat="47.78166" lon="7.32985">
        <ele>291</ele>
        <time>2012-03-03T14:46:49Z</time>
      </trkpt>
      <trkpt lat="47.78174" lon="7.32968">
        <ele>291</ele>
        <time>2012-03-03T14:46:50Z</time>
      </trkpt>
      <trkpt lat="47.78181" lon="7.32946">
        <ele>289</ele>
        <time>2012-03-03T14:46:51Z</time>
      </trkpt>
      <trkpt lat="47.78188" lon="7.32925">
        <ele>290</ele>
        <time>2012-03-03T14:46:52Z</time>
      </trkpt>
      <trkpt lat="47.78197" lon="7.32902">
        <ele>290</ele>
        <time>2012-03-03T14:46:53Z</time>
      </trkpt>
      <trkpt lat="47.78205" lon="7.32878">
        <ele>289</ele>
        <time>2012-03-03T14:46:54Z</time>
      </trkpt>
      <trkpt lat="47.78213" lon="7.32857">
        <ele>289</ele>
        <time>2012-03-03T14:46:55Z</time>
      </trkpt>
      <trkpt lat="47.78227" lon="7.32832">
        <ele>289</ele>
        <time>2012-03-03T14:46:56Z</time>
      </trkpt>
      <trkpt lat="47.78237" lon="7.32808">
        <ele>290</ele>
        <time>2012-03-03T14:46:57Z</time>
      </trkpt>
      <trkpt lat="47.78249" lon="7.3278">
        <ele>290</ele>
        <time>2012-03-03T14:46:58Z</time>
      </trkpt>
      <trkpt lat="47.78259" lon="7.32754">
        <ele>290</ele>
        <time>2012-03-03T14:46:59Z</time>
      </trkpt>
      <trkpt lat="47.78266" lon="7.32726">
        <ele>289</ele>
        <time>2012-03-03T14:47:00Z</time>
      </trkpt>
      <trkpt lat="47.78278" lon="7.32699">
        <ele>289</ele>
        <time>2012-03-03T14:47:01Z</time>
      </trkpt>
      <trkpt lat="47.7829" lon="7.32672">
        <ele>289</ele>
        <time>2012-03-03T14:47:02Z</time>
      </trkpt>
      <trkpt lat="47.78301" lon="7.32646">
        <ele>289</ele>
        <time>2012-03-03T14:47:03Z</time>
      </trkpt>
      <trkpt lat="47.78315" lon="7.32617">
        <ele>289</ele>
        <time>2012-03-03T14:47:04Z</time>
      </trkpt>
      <trkpt lat="47.78327" lon="7.3259">
        <ele>289</ele>
        <time>2012-03-03T14:47:05Z</time>
      </trkpt>
      <trkpt lat="47.7834" lon="7.32563">
        <ele>289</ele>
        <time>2012-03-03T14:47:06Z</time>
      </trkpt>
      <trkpt lat="47.78352" lon="7.32535">
        <ele>289</ele>
        <time>2012-03-03T14:47:07Z</time>
      </trkpt>
      <trkpt lat="47.78362" lon="7.32509">
        <ele>290</ele>
        <time>2012-03-03T14:47:08Z</time>
      </trkpt>
      <trkpt lat="47.78374" lon="7.32482">
        <ele>290</ele>
        <time>2012-03-03T14:47:09Z</time>
      </trkpt>
      <trkpt lat="47.78385" lon="7.32456">
        <ele>290</ele>
        <time>2012-03-03T14:47:10Z</time>
      </trkpt>
      <trkpt lat="47.78394" lon="7.32433">
        <ele>290</ele>
        <time>2012-03-03T14:47:11Z</time>
      </trkpt>
      <trkpt lat="47.78407" lon="7.32408">
        <ele>290</ele>
        <time>2012-03-03T14:47:12Z</time>
      </trkpt>
      <trkpt lat="47.78418" lon="7.32382">
        <ele>290</ele>
        <time>2012-03-03T14:47:13Z</time>
      </trkpt>
      <trkpt lat="47.7843" lon="7.32359">
        <ele>290</ele>
        <time>2012-03-03T14:47:14Z</time>
      </trkpt>
      <trkpt lat="47.7844" lon="7.32337">
        <ele>290</ele>
        <time>2012-03-03T14:47:15Z</time>
      </trkpt>
      <trkpt lat="47.78451" lon="7.32313">
        <ele>290</ele>
        <time>2012-03-03T14:47:16Z</time>
      </trkpt>
      <trkpt lat="47.78463" lon="7.32289">
        <ele>291</ele>
        <time>2012-03-03T14:47:17Z</time>
      </trkpt>
      <trkpt lat="47.78473" lon="7.32264">
        <ele>290</ele>
        <time>2012-03-03T14:47:18Z</time>
      </trkpt>
      <trkpt lat="47.78484" lon="7.3224">
        <ele>290</ele>
        <time>2012-03-03T14:47:19Z</time>
      </trkpt>
      <trkpt lat="47.78495" lon="7.32214">
        <ele>290</ele>
        <time>2012-03-03T14:47:20Z</time>
      </trkpt>
      <trkpt lat="47.78508" lon="7.3219">
        <ele>290</ele>
        <time>2012-03-03T14:47:21Z</time>
      </trkpt>
      <trkpt lat="47.78523" lon="7.32165">
        <ele>290</ele>
        <time>2012-03-03T14:47:22Z</time>
      </trkpt>
      <trkpt lat="47.78536" lon="7.32139">
        <ele>289</ele>
        <time>2012-03-03T14:47:23Z</time>
      </trkpt>
      <trkpt lat="47.78549" lon="7.32113">
        <ele>289</ele>
        <time>2012-03-03T14:47:24Z</time>
      </trkpt>
      <trkpt lat="47.78561" lon="7.32085">
        <ele>289</ele>
        <time>2012-03-03T14:47:25Z</time>
      </trkpt>
      <trkpt lat="47.78575" lon="7.32057">
        <ele>289</ele>
        <time>2012-03-03T14:47:26Z</time>
      </trkpt>
      <trkpt lat="47.78586" lon="7.32031">
        <ele>288</ele>
        <time>2012-03-03T14:47:27Z</time>
      </trkpt>
      <trkpt lat="47.78599" lon="7.32001">
        <ele>287</ele>
        <time>2012-03-03T14:47:28Z</time>
      </trkpt>
      <trkpt lat="47.78612" lon="7.31974">
        <ele>288</ele>
        <time>2012-03-03T14:47:29Z</time>
      </trkpt>
      <trkpt lat="47.78625" lon="7.31945">
        <ele>288</ele>
        <time>2012-03-03T14:47:30Z</time>
      </trkpt>
      <trkpt lat="47.78638" lon="7.31917">
        <ele>287</ele>
        <time>2012-03-03T14:47:31Z</time>
      </trkpt>
      <trkpt lat="47.78653" lon="7.31888">
        <ele>287</ele>
        <time>2012-03-03T14:47:32Z</time>
      </trkpt>
      <trkpt lat="47.78668" lon="7.3186">
        <ele>287</ele>
        <time>2012-03-03T14:47:33Z</time>
      </trkpt>
      <trkpt lat="47.78682" lon="7.31834">
        <ele>286</ele>
        <time>2012-03-03T14:47:34Z</time>
      </trkpt>
      <trkpt lat="47.78695" lon="7.3181">
        <ele>286</ele>
        <time>2012-03-03T14:47:35Z</time>
      </trkpt>
      <trkpt lat="47.7871" lon="7.31784">
        <ele>287</ele>
        <time>2012-03-03T14:47:36Z</time>
      </trkpt>
      <trkpt lat="47.78727" lon="7.31762">
        <ele>287</ele>
        <time>2012-03-03T14:47:37Z</time>
      </trkpt>
      <trkpt lat="47.78742" lon="7.3174">
        <ele>287</ele>
        <time>2012-03-03T14:47:38Z</time>
      </trkpt>
      <trkpt lat="47.78761" lon="7.31722">
        <ele>288</ele>
        <time>2012-03-03T14:47:39Z</time>
      </trkpt>
      <trkpt lat="47.7878" lon="7.31702">
        <ele>288</ele>
        <time>2012-03-03T14:47:40Z</time>
      </trkpt>
      <trkpt lat="47.78817" lon="7.31666">
        <ele>288</ele>
        <time>2012-03-03T14:47:42Z</time>
      </trkpt>
      <trkpt lat="47.78833" lon="7.3165">
        <ele>288</ele>
        <time>2012-03-03T14:47:43Z</time>
      </trkpt>
      <trkpt lat="47.78852" lon="7.31632">
        <ele>289</ele>
        <time>2012-03-03T14:47:44Z</time>
      </trkpt>
      <trkpt lat="47.78869" lon="7.31615">
        <ele>289</ele>
        <time>2012-03-03T14:47:45Z</time>
      </trkpt>
      <trkpt lat="47.78886" lon="7.31598">
        <ele>289</ele>
        <time>2012-03-03T14:47:46Z</time>
      </trkpt>
      <trkpt lat="47.78906" lon="7.31579">
        <ele>289</ele>
        <time>2012-03-03T14:47:47Z</time>
      </trkpt>
      <trkpt lat="47.78927" lon="7.3156">
        <ele>289</ele>
        <time>2012-03-03T14:47:48Z</time>
      </trkpt>
      <trkpt lat="47.78946" lon="7.3154">
        <ele>289</ele>
        <time>2012-03-03T14:47:49Z</time>
      </trkpt>
      <trkpt lat="47.78965" lon="7.31522">
        <ele>289</ele>
        <time>2012-03-03T14:47:50Z</time>
      </trkpt>
      <trkpt lat="47.78982" lon="7.31502">
        <ele>289</ele>
        <time>2012-03-03T14:47:51Z</time>
      </trkpt>
      <trkpt lat="47.79003" lon="7.31482">
        <ele>289</ele>
        <time>2012-03-03T14:47:52Z</time>
      </trkpt>
      <trkpt lat="47.79023" lon="7.31463">
        <ele>289</ele>
        <time>2012-03-03T14:47:53Z</time>
      </trkpt>
      <trkpt lat="47.79042" lon="7.31445">
        <ele>290</ele>
        <time>2012-03-03T14:47:54Z</time>
      </trkpt>
      <trkpt lat="47.79061" lon="7.31424">
        <ele>290</ele>
        <time>2012-03-03T14:47:55Z</time>
      </trkpt>
      <trkpt lat="47.79081" lon="7.31404">
        <ele>290</ele>
        <time>2012-03-03T14:47:56Z</time>
      </trkpt>
      <trkpt lat="47.791" lon="7.31383">
        <ele>290</ele>
        <time>2012-03-03T14:47:57Z</time>
      </trkpt>
      <trkpt lat="47.79121" lon="7.31361">
        <ele>290</ele>
        <time>2012-03-03T14:47:58Z</time>
      </trkpt>
      <trkpt lat="47.7914" lon="7.31339">
        <ele>290</ele>
        <time>2012-03-03T14:47:59Z</time>
      </trkpt>
      <trkpt lat="47.79162" lon="7.31315">
        <ele>290</ele>
        <time>2012-03-03T14:48:00Z</time>
      </trkpt>
      <trkpt lat="47.79184" lon="7.31292">
        <ele>291</ele>
        <time>2012-03-03T14:48:01Z</time>
      </trkpt>
      <trkpt lat="47.79206" lon="7.31269">
        <ele>291</ele>
        <time>2012-03-03T14:48:02Z</time>
      </trkpt>
      <trkpt lat="47.79228" lon="7.3125">
        <ele>291</ele>
        <time>2012-03-03T14:48:03Z</time>
      </trkpt>
      <trkpt lat="47.79253" lon="7.3123">
        <ele>291</ele>
        <time>2012-03-03T14:48:04Z</time>
      </trkpt>
      <trkpt lat="47.79277" lon="7.31211">
        <ele>291</ele>
        <time>2012-03-03T14:48:05Z</time>
      </trkpt>
      <trkpt lat="47.793" lon="7.31193">
        <ele>291</ele>
        <time>2012-03-03T14:48:06Z</time>
      </trkpt>
      <trkpt lat="47.79324" lon="7.31178">
        <ele>291</ele>
        <time>2012-03-03T14:48:07Z</time>
      </trkpt>
      <trkpt lat="47.7935" lon="7.31162">
        <ele>292</ele>
        <time>2012-03-03T14:48:08Z</time>
      </trkpt>
      <trkpt lat="47.79376" lon="7.31147">
        <ele>292</ele>
        <time>2012-03-03T14:48:09Z</time>
      </trkpt>
      <trkpt lat="47.79404" lon="7.31134">
        <ele>292</ele>
        <time>2012-03-03T14:48:10Z</time>
      </trkpt>
      <trkpt lat="47.7943" lon="7.31122">
        <ele>292</ele>
        <time>2012-03-03T14:48:11Z</time>
      </trkpt>
      <trkpt lat="47.79458" lon="7.31111">
        <ele>292</ele>
        <time>2012-03-03T14:48:12Z</time>
      </trkpt>
      <trkpt lat="47.79487" lon="7.311">
        <ele>291</ele>
        <time>2012-03-03T14:48:13Z</time>
      </trkpt>
      <trkpt lat="47.79513" lon="7.3109">
        <ele>291</ele>
        <time>2012-03-03T14:48:14Z</time>
      </trkpt>
      <trkpt lat="47.7954" lon="7.31079">
        <ele>291</ele>
        <time>2012-03-03T14:48:15Z</time>
      </trkpt>
      <trkpt lat="47.7957" lon="7.31066">
        <ele>291</ele>
        <time>2012-03-03T14:48:16Z</time>
      </trkpt>
      <trkpt lat="47.79597" lon="7.31052">
        <ele>291</ele>
        <time>2012-03-03T14:48:17Z</time>
      </trkpt>
      <trkpt lat="47.79624" lon="7.31039">
        <ele>291</ele>
        <time>2012-03-03T14:48:18Z</time>
      </trkpt>
      <trkpt lat="47.7965" lon="7.31025">
        <ele>291</ele>
        <time>2012-03-03T14:48:19Z</time>
      </trkpt>
      <trkpt lat="47.79675" lon="7.3101">
        <ele>291</ele>
        <time>2012-03-03T14:48:20Z</time>
      </trkpt>
      <trkpt lat="47.79701" lon="7.30994">
        <ele>291</ele>
        <time>2012-03-03T14:48:21Z</time>
      </trkpt>
      <trkpt lat="47.79725" lon="7.30976">
        <ele>291</ele>
        <time>2012-03-03T14:48:22Z</time>
      </trkpt>
      <trkpt lat="47.79748" lon="7.3096">
        <ele>291</ele>
        <time>2012-03-03T14:48:23Z</time>
      </trkpt>
      <trkpt lat="47.79773" lon="7.30941">
        <ele>291</ele>
        <time>2012-03-03T14:48:24Z</time>
      </trkpt>
      <trkpt lat="47.79798" lon="7.30922">
        <ele>291</ele>
        <time>2012-03-03T14:48:25Z</time>
      </trkpt>
      <trkpt lat="47.79822" lon="7.309">
        <ele>291</ele>
        <time>2012-03-03T14:48:26Z</time>
      </trkpt>
      <trkpt lat="47.79844" lon="7.30877">
        <ele>292</ele>
        <time>2012-03-03T14:48:27Z</time>
      </trkpt>
      <trkpt lat="47.7987" lon="7.30854">
        <ele>292</ele>
        <time>2012-03-03T14:48:28Z</time>
      </trkpt>
      <trkpt lat="47.79894" lon="7.30832">
        <ele>292</ele>
        <time>2012-03-03T14:48:29Z</time>
      </trkpt>
      <trkpt lat="47.79918" lon="7.30808">
        <ele>290</ele>
        <time>2012-03-03T14:48:30Z</time>
      </trkpt>
      <trkpt lat="47.79939" lon="7.30786">
        <ele>291</ele>
        <time>2012-03-03T14:48:31Z</time>
      </trkpt>
      <trkpt lat="47.79965" lon="7.3076">
        <ele>291</ele>
        <time>2012-03-03T14:48:32Z</time>
      </trkpt>
      <trkpt lat="47.79988" lon="7.30736">
        <ele>291</ele>
        <time>2012-03-03T14:48:33Z</time>
      </trkpt>
      <trkpt lat="47.80012" lon="7.30715">
        <ele>292</ele>
        <time>2012-03-03T14:48:34Z</time>
      </trkpt>
      <trkpt lat="47.80036" lon="7.30691">
        <ele>292</ele>
        <time>2012-03-03T14:48:35Z</time>
      </trkpt>
      <trkpt lat="47.80061" lon="7.30668">
        <ele>292</ele>
        <time>2012-03-03T14:48:36Z</time>
      </trkpt>
      <trkpt lat="47.80085" lon="7.30646">
        <ele>292</ele>
        <time>2012-03-03T14:48:37Z</time>
      </trkpt>
      <trkpt lat="47.80112" lon="7.30622">
        <ele>292</ele>
        <time>2012-03-03T14:48:38Z</time>
      </trkpt>
      <trkpt lat="47.80135" lon="7.30602">
        <ele>291</ele>
        <time>2012-03-03T14:48:39Z</time>
      </trkpt>
      <trkpt lat="47.80161" lon="7.30579">
        <ele>292</ele>
        <time>2012-03-03T14:48:40Z</time>
      </trkpt>
      <trkpt lat="47.80213" lon="7.30536">
        <ele>292</ele>
        <time>2012-03-03T14:48:42Z</time>
      </trkpt>
      <trkpt lat="47.80238" lon="7.30515">
        <ele>292</ele>
        <time>2012-03-03T14:48:43Z</time>
      </trkpt>
      <trkpt lat="47.80263" lon="7.30493">
        <ele>293</ele>
        <time>2012-03-03T14:48:44Z</time>
      </trkpt>
      <trkpt lat="47.8029" lon="7.30474">
        <ele>293</ele>
        <time>2012-03-03T14:48:45Z</time>
      </trkpt>
      <trkpt lat="47.80315" lon="7.30454">
        <ele>293</ele>
        <time>2012-03-03T14:48:46Z</time>
      </trkpt>
      <trkpt lat="47.80337" lon="7.30436">
        <ele>293</ele>
        <time>2012-03-03T14:48:47Z</time>
      </trkpt>
      <trkpt lat="47.80362" lon="7.3042">
        <ele>293</ele>
        <time>2012-03-03T14:48:48Z</time>
      </trkpt>
      <trkpt lat="47.80388" lon="7.30405">
        <ele>293</ele>
        <time>2012-03-03T14:48:49Z</time>
      </trkpt>
      <trkpt lat="47.80412" lon="7.30389">
        <ele>293</ele>
        <time>2012-03-03T14:48:50Z</time>
      </trkpt>
      <trkpt lat="47.80436" lon="7.30373">
        <ele>294</ele>
        <time>2012-03-03T14:48:51Z</time>
      </trkpt>
      <trkpt lat="47.80459" lon="7.30358">
        <ele>294</ele>
        <time>2012-03-03T14:48:52Z</time>
      </trkpt>
      <trkpt lat="47.80483" lon="7.30343">
        <ele>294</ele>
        <time>2012-03-03T14:48:53Z</time>
      </trkpt>
      <trkpt lat="47.80509" lon="7.30328">
        <ele>294</ele>
        <time>2012-03-03T14:48:54Z</time>
      </trkpt>
      <trkpt lat="47.80533" lon="7.30313">
        <ele>294</ele>
        <time>2012-03-03T14:48:55Z</time>
      </trkpt>
      <trkpt lat="47.8056" lon="7.30301">
        <ele>294</ele>
        <time>2012-03-03T14:48:56Z</time>
      </trkpt>
      <trkpt lat="47.80584" lon="7.30288">
        <ele>294</ele>
        <time>2012-03-03T14:48:57Z</time>
      </trkpt>
      <trkpt lat="47.80608" lon="7.30274">
        <ele>295</ele>
        <time>2012-03-03T14:48:58Z</time>
      </trkpt>
      <trkpt lat="47.80632" lon="7.30259">
        <ele>295</ele>
        <time>2012-03-03T14:48:59Z</time>
      </trkpt>
      <trkpt lat="47.80657" lon="7.30245">
        <ele>295</ele>
        <time>2012-03-03T14:49:00Z</time>
      </trkpt>
      <trkpt lat="47.80684" lon="7.30231">
        <ele>295</ele>
        <time>2012-03-03T14:49:01Z</time>
      </trkpt>
      <trkpt lat="47.80711" lon="7.30219">
        <ele>296</ele>
        <time>2012-03-03T14:49:02Z</time>
      </trkpt>
      <trkpt lat="47.80733" lon="7.30206">
        <ele>296</ele>
        <time>2012-03-03T14:49:03Z</time>
      </trkpt>
      <trkpt lat="47.80759" lon="7.30192">
        <ele>296</ele>
        <time>2012-03-03T14:49:04Z</time>
      </trkpt>
      <trkpt lat="47.80784" lon="7.30178">
        <ele>296</ele>
        <time>2012-03-03T14:49:05Z</time>
      </trkpt>
      <trkpt lat="47.80808" lon="7.30166">
        <ele>296</ele>
        <time>2012-03-03T14:49:06Z</time>
      </trkpt>
      <trkpt lat="47.80834" lon="7.30152">
        <ele>295</ele>
        <time>2012-03-03T14:49:07Z</time>
      </trkpt>
      <trkpt lat="47.8086" lon="7.30138">
        <ele>296</ele>
        <time>2012-03-03T14:49:08Z</time>
      </trkpt>
      <trkpt lat="47.80885" lon="7.30124">
        <ele>295</ele>
        <time>2012-03-03T14:49:09Z</time>
      </trkpt>
      <trkpt lat="47.8091" lon="7.3011">
        <ele>295</ele>
        <time>2012-03-03T14:49:10Z</time>
      </trkpt>
      <trkpt lat="47.80935" lon="7.30097">
        <ele>294</ele>
        <time>2012-03-03T14:49:11Z</time>
      </trkpt>
      <trkpt lat="47.80964" lon="7.30083">
        <ele>294</ele>
        <time>2012-03-03T14:49:12Z</time>
      </trkpt>
      <trkpt lat="47.8099" lon="7.30069">
        <ele>295</ele>
        <time>2012-03-03T14:49:13Z</time>
      </trkpt>
      <trkpt lat="47.81018" lon="7.30055">
        <ele>295</ele>
        <time>2012-03-03T14:49:14Z</time>
      </trkpt>
      <trkpt lat="47.81044" lon="7.30042">
        <ele>295</ele>
        <time>2012-03-03T14:49:15Z</time>
      </trkpt>
      <trkpt lat="47.81071" lon="7.30029">
        <ele>295</ele>
        <time>2012-03-03T14:49:16Z</time>
      </trkpt>
      <trkpt lat="47.81096" lon="7.30015">
        <ele>295</ele>
        <time>2012-03-03T14:49:17Z</time>
      </trkpt>
      <trkpt lat="47.81123" lon="7.30001">
        <ele>295</ele>
        <time>2012-03-03T14:49:18Z</time>
      </trkpt>
      <trkpt lat="47.81149" lon="7.29989">
        <ele>295</ele>
        <time>2012-03-03T14:49:19Z</time>
      </trkpt>
      <trkpt lat="47.81178" lon="7.29974">
        <ele>295</ele>
        <time>2012-03-03T14:49:20Z</time>
      </trkpt>
      <trkpt lat="47.81204" lon="7.29958">
        <ele>295</ele>
        <time>2012-03-03T14:49:21Z</time>
      </trkpt>
      <trkpt lat="47.81228" lon="7.29942">
        <ele>295</ele>
        <time>2012-03-03T14:49:22Z</time>
      </trkpt>
      <trkpt lat="47.81254" lon="7.29927">
        <ele>295</ele>
        <time>2012-03-03T14:49:23Z</time>
      </trkpt>
      <trkpt lat="47.81278" lon="7.29914">
        <ele>294</ele>
        <time>2012-03-03T14:49:24Z</time>
      </trkpt>
      <trkpt lat="47.81302" lon="7.29899">
        <ele>294</ele>
        <time>2012-03-03T14:49:25Z</time>
      </trkpt>
      <trkpt lat="47.81328" lon="7.29881">
        <ele>295</ele>
        <time>2012-03-03T14:49:26Z</time>
      </trkpt>
      <trkpt lat="47.81351" lon="7.29866">
        <ele>294</ele>
        <time>2012-03-03T14:49:27Z</time>
      </trkpt>
      <trkpt lat="47.81377" lon="7.29849">
        <ele>294</ele>
        <time>2012-03-03T14:49:28Z</time>
      </trkpt>
      <trkpt lat="47.814" lon="7.29833">
        <ele>295</ele>
        <time>2012-03-03T14:49:29Z</time>
      </trkpt>
      <trkpt lat="47.81423" lon="7.29817">
        <ele>295</ele>
        <time>2012-03-03T14:49:30Z</time>
      </trkpt>
      <trkpt lat="47.81445" lon="7.29801">
        <ele>296</ele>
        <time>2012-03-03T14:49:31Z</time>
      </trkpt>
      <trkpt lat="47.8147" lon="7.29784">
        <ele>296</ele>
        <time>2012-03-03T14:49:32Z</time>
      </trkpt>
      <trkpt lat="47.81494" lon="7.29767">
        <ele>296</ele>
        <time>2012-03-03T14:49:33Z</time>
      </trkpt>
      <trkpt lat="47.81518" lon="7.29745">
        <ele>296</ele>
        <time>2012-03-03T14:49:34Z</time>
      </trkpt>
      <trkpt lat="47.81541" lon="7.29727">
        <ele>296</ele>
        <time>2012-03-03T14:49:35Z</time>
      </trkpt>
      <trkpt lat="47.81567" lon="7.29705">
        <ele>296</ele>
        <time>2012-03-03T14:49:36Z</time>
      </trkpt>
      <trkpt lat="47.81592" lon="7.29683">
        <ele>296</ele>
        <time>2012-03-03T14:49:37Z</time>
      </trkpt>
      <trkpt lat="47.81616" lon="7.29661">
        <ele>297</ele>
        <time>2012-03-03T14:49:38Z</time>
      </trkpt>
      <trkpt lat="47.8164" lon="7.29638">
        <ele>298</ele>
        <time>2012-03-03T14:49:39Z</time>
      </trkpt>
      <trkpt lat="47.81664" lon="7.29614">
        <ele>298</ele>
        <time>2012-03-03T14:49:40Z</time>
      </trkpt>
      <trkpt lat="47.81688" lon="7.2959">
        <ele>298</ele>
        <time>2012-03-03T14:49:41Z</time>
      </trkpt>
      <trkpt lat="47.81713" lon="7.29567">
        <ele>297</ele>
        <time>2012-03-03T14:49:42Z</time>
      </trkpt>
      <trkpt lat="47.81736" lon="7.29543">
        <ele>296</ele>
        <time>2012-03-03T14:49:43Z</time>
      </trkpt>
      <trkpt lat="47.81761" lon="7.29516">
        <ele>296</ele>
        <time>2012-03-03T14:49:44Z</time>
      </trkpt>
      <trkpt lat="47.81785" lon="7.29493">
        <ele>297</ele>
        <time>2012-03-03T14:49:45Z</time>
      </trkpt>
      <trkpt lat="47.81808" lon="7.29468">
        <ele>297</ele>
        <time>2012-03-03T14:49:46Z</time>
      </trkpt>
      <trkpt lat="47.81832" lon="7.29444">
        <ele>297</ele>
        <time>2012-03-03T14:49:47Z</time>
      </trkpt>
      <trkpt lat="47.81854" lon="7.29419">
        <ele>297</ele>
        <time>2012-03-03T14:49:48Z</time>
      </trkpt>
      <trkpt lat="47.81877" lon="7.29394">
        <ele>297</ele>
        <time>2012-03-03T14:49:49Z</time>
      </trkpt>
      <trkpt lat="47.81901" lon="7.2937">
        <ele>297</ele>
        <time>2012-03-03T14:49:50Z</time>
      </trkpt>
      <trkpt lat="47.81922" lon="7.29347">
        <ele>297</ele>
        <time>2012-03-03T14:49:51Z</time>
      </trkpt>
      <trkpt lat="47.81947" lon="7.29321">
        <ele>297</ele>
        <time>2012-03-03T14:49:52Z</time>
      </trkpt>
      <trkpt lat="47.81971" lon="7.29298">
        <ele>297</ele>
        <time>2012-03-03T14:49:53Z</time>
      </trkpt>
      <trkpt lat="47.81994" lon="7.29275">
        <ele>297</ele>
        <time>2012-03-03T14:49:54Z</time>
      </trkpt>
      <trkpt lat="47.82015" lon="7.29251">
        <ele>297</ele>
        <time>2012-03-03T14:49:55Z</time>
      </trkpt>
      <trkpt lat="47.82039" lon="7.29228">
        <ele>297</ele>
        <time>2012-03-03T14:49:56Z</time>
      </trkpt>
      <trkpt lat="47.82062" lon="7.29204">
        <ele>297</ele>
        <time>2012-03-03T14:49:57Z</time>
      </trkpt>
      <trkpt lat="47.82082" lon="7.29182">
        <ele>297</ele>
        <time>2012-03-03T14:49:58Z</time>
      </trkpt>
      <trkpt lat="47.82102" lon="7.2916">
        <ele>296</ele>
        <time>2012-03-03T14:49:59Z</time>
      </trkpt>
      <trkpt lat="47.82124" lon="7.29135">
        <ele>298</ele>
        <time>2012-03-03T14:50:00Z</time>
      </trkpt>
      <trkpt lat="47.82146" lon="7.29112">
        <ele>297</ele>
        <time>2012-03-03T14:50:01Z</time>
      </trkpt>
      <trkpt lat="47.82168" lon="7.29088">
        <ele>296</ele>
        <time>2012-03-03T14:50:02Z</time>
      </trkpt>
      <trkpt lat="47.82189" lon="7.29064">
        <ele>296</ele>
        <time>2012-03-03T14:50:03Z</time>
      </trkpt>
      <trkpt lat="47.82211" lon="7.29042">
        <ele>296</ele>
        <time>2012-03-03T14:50:04Z</time>
      </trkpt>
      <trkpt lat="47.82232" lon="7.29016">
        <ele>296</ele>
        <time>2012-03-03T14:50:05Z</time>
      </trkpt>
      <trkpt lat="47.82255" lon="7.28993">
        <ele>296</ele>
        <time>2012-03-03T14:50:06Z</time>
      </trkpt>
      <trkpt lat="47.82277" lon="7.2897">
        <ele>296</ele>
        <time>2012-03-03T14:50:07Z</time>
      </trkpt>
      <trkpt lat="47.823" lon="7.28944">
        <ele>295</ele>
        <time>2012-03-03T14:50:08Z</time>
      </trkpt>
      <trkpt lat="47.82323" lon="7.2892">
        <ele>295</ele>
        <time>2012-03-03T14:50:09Z</time>
      </trkpt>
      <trkpt lat="47.82343" lon="7.28897">
        <ele>296</ele>
        <time>2012-03-03T14:50:10Z</time>
      </trkpt>
      <trkpt lat="47.82365" lon="7.28874">
        <ele>296</ele>
        <time>2012-03-03T14:50:11Z</time>
      </trkpt>
      <trkpt lat="47.82384" lon="7.28852">
        <ele>296</ele>
        <time>2012-03-03T14:50:12Z</time>
      </trkpt>
      <trkpt lat="47.82405" lon="7.2883">
        <ele>296</ele>
        <time>2012-03-03T14:50:13Z</time>
      </trkpt>
      <trkpt lat="47.82426" lon="7.28808">
        <ele>296</ele>
        <time>2012-03-03T14:50:14Z</time>
      </trkpt>
      <trkpt lat="47.82446" lon="7.28787">
        <ele>296</ele>
        <time>2012-03-03T14:50:15Z</time>
      </trkpt>
      <trkpt lat="47.82467" lon="7.28765">
        <ele>296</ele>
        <time>2012-03-03T14:50:16Z</time>
      </trkpt>
      <trkpt lat="47.82487" lon="7.28742">
        <ele>295</ele>
        <time>2012-03-03T14:50:17Z</time>
      </trkpt>
      <trkpt lat="47.82508" lon="7.28722">
        <ele>295</ele>
        <time>2012-03-03T14:50:18Z</time>
      </trkpt>
      <trkpt lat="47.82528" lon="7.287">
        <ele>295</ele>
        <time>2012-03-03T14:50:19Z</time>
      </trkpt>
      <trkpt lat="47.82549" lon="7.28679">
        <ele>295</ele>
        <time>2012-03-03T14:50:20Z</time>
      </trkpt>
      <trkpt lat="47.82569" lon="7.28658">
        <ele>295</ele>
        <time>2012-03-03T14:50:21Z</time>
      </trkpt>
      <trkpt lat="47.82588" lon="7.2864">
        <ele>295</ele>
        <time>2012-03-03T14:50:22Z</time>
      </trkpt>
      <trkpt lat="47.82606" lon="7.28625">
        <ele>295</ele>
        <time>2012-03-03T14:50:23Z</time>
      </trkpt>
      <trkpt lat="47.82625" lon="7.28605">
        <ele>295</ele>
        <time>2012-03-03T14:50:24Z</time>
      </trkpt>
      <trkpt lat="47.82642" lon="7.28588">
        <ele>296</ele>
        <time>2012-03-03T14:50:25Z</time>
      </trkpt>
      <trkpt lat="47.82657" lon="7.28572">
        <ele>296</ele>
        <time>2012-03-03T14:50:26Z</time>
      </trkpt>
      <trkpt lat="47.82669" lon="7.28559">
        <ele>296</ele>
        <time>2012-03-03T14:50:27Z</time>
      </trkpt>
      <trkpt lat="47.82678" lon="7.28547">
        <ele>297</ele>
        <time>2012-03-03T14:50:28Z</time>
      </trkpt>
      <trkpt lat="47.82688" lon="7.2854">
        <ele>297</ele>
        <time>2012-03-03T14:50:29Z</time>
      </trkpt>
      <trkpt lat="47.82699" lon="7.28535">
        <ele>296</ele>
        <time>2012-03-03T14:50:30Z</time>
      </trkpt>
      <trkpt lat="47.8271" lon="7.28534">
        <ele>295</ele>
        <time>2012-03-03T14:50:31Z</time>
      </trkpt>
      <trkpt lat="47.82726" lon="7.28537">
        <ele>295</ele>
        <time>2012-03-03T14:50:32Z</time>
      </trkpt>
      <trkpt lat="47.82739" lon="7.28546">
        <ele>295</ele>
        <time>2012-03-03T14:50:33Z</time>
      </trkpt>
      <trkpt lat="47.82749" lon="7.28558">
        <ele>295</ele>
        <time>2012-03-03T14:50:34Z</time>
      </trkpt>
      <trkpt lat="47.82758" lon="7.28574">
        <ele>295</ele>
        <time>2012-03-03T14:50:35Z</time>
      </trkpt>
      <trkpt lat="47.82764" lon="7.28589">
        <ele>295</ele>
        <time>2012-03-03T14:50:36Z</time>
      </trkpt>
      <trkpt lat="47.82761" lon="7.28608">
        <ele>296</ele>
        <time>2012-03-03T14:50:37Z</time>
      </trkpt>
      <trkpt lat="47.82742" lon="7.28638">
        <ele>292</ele>
        <time>2012-03-03T14:50:38Z</time>
      </trkpt>
      <trkpt lat="47.8273" lon="7.28651">
        <ele>290</ele>
        <time>2012-03-03T14:50:39Z</time>
      </trkpt>
      <trkpt lat="47.82712" lon="7.28648">
        <ele>290</ele>
        <time>2012-03-03T14:50:40Z</time>
      </trkpt>
      <trkpt lat="47.82696" lon="7.28658">
        <ele>289</ele>
        <time>2012-03-03T14:50:42Z</time>
      </trkpt>
      <trkpt lat="47.82692" lon="7.28661">
        <ele>290</ele>
        <time>2012-03-03T14:50:43Z</time>
      </trkpt>
      <trkpt lat="47.82688" lon="7.2867">
        <ele>290</ele>
        <time>2012-03-03T14:50:47Z</time>
      </trkpt>
      <trkpt lat="47.82688" lon="7.28681">
        <ele>290</ele>
        <time>2012-03-03T14:50:48Z</time>
      </trkpt>
      <trkpt lat="47.82689" lon="7.2869">
        <ele>290</ele>
        <time>2012-03-03T14:50:49Z</time>
      </trkpt>
      <trkpt lat="47.82692" lon="7.28702">
        <ele>290</ele>
        <time>2012-03-03T14:50:50Z</time>
      </trkpt>
      <trkpt lat="47.82699" lon="7.28717">
        <ele>291</ele>
        <time>2012-03-03T14:50:51Z</time>
      </trkpt>
      <trkpt lat="47.82708" lon="7.28735">
        <ele>291</ele>
        <time>2012-03-03T14:50:52Z</time>
      </trkpt>
      <trkpt lat="47.82717" lon="7.28756">
        <ele>292</ele>
        <time>2012-03-03T14:50:53Z</time>
      </trkpt>
      <trkpt lat="47.82727" lon="7.28779">
        <ele>292</ele>
        <time>2012-03-03T14:50:54Z</time>
      </trkpt>
      <trkpt lat="47.82738" lon="7.28803">
        <ele>292</ele>
        <time>2012-03-03T14:50:55Z</time>
      </trkpt>
      <trkpt lat="47.8275" lon="7.28831">
        <ele>292</ele>
        <time>2012-03-03T14:50:56Z</time>
      </trkpt>
      <trkpt lat="47.82763" lon="7.28861">
        <ele>292</ele>
        <time>2012-03-03T14:50:57Z</time>
      </trkpt>
      <trkpt lat="47.82777" lon="7.28892">
        <ele>292</ele>
        <time>2012-03-03T14:50:58Z</time>
      </trkpt>
      <trkpt lat="47.82791" lon="7.28925">
        <ele>292</ele>
        <time>2012-03-03T14:50:59Z</time>
      </trkpt>
      <trkpt lat="47.82804" lon="7.28957">
        <ele>292</ele>
        <time>2012-03-03T14:51:00Z</time>
      </trkpt>
      <trkpt lat="47.82818" lon="7.28988">
        <ele>292</ele>
        <time>2012-03-03T14:51:01Z</time>
      </trkpt>
      <trkpt lat="47.82832" lon="7.29017">
        <ele>292</ele>
        <time>2012-03-03T14:51:02Z</time>
      </trkpt>
      <trkpt lat="47.82844" lon="7.29046">
        <ele>292</ele>
        <time>2012-03-03T14:51:03Z</time>
      </trkpt>
      <trkpt lat="47.82857" lon="7.29078">
        <ele>292</ele>
        <time>2012-03-03T14:51:04Z</time>
      </trkpt>
      <trkpt lat="47.8287" lon="7.29108">
        <ele>292</ele>
        <time>2012-03-03T14:51:05Z</time>
      </trkpt>
      <trkpt lat="47.82882" lon="7.29139">
        <ele>292</ele>
        <time>2012-03-03T14:51:06Z</time>
      </trkpt>
      <trkpt lat="47.82894" lon="7.2917">
        <ele>292</ele>
        <time>2012-03-03T14:51:07Z</time>
      </trkpt>
      <trkpt lat="47.82905" lon="7.292">
        <ele>292</ele>
        <time>2012-03-03T14:51:08Z</time>
      </trkpt>
      <trkpt lat="47.82918" lon="7.2923">
        <ele>292</ele>
        <time>2012-03-03T14:51:09Z</time>
      </trkpt>
      <trkpt lat="47.8293" lon="7.29262">
        <ele>292</ele>
        <time>2012-03-03T14:51:10Z</time>
      </trkpt>
      <trkpt lat="47.82942" lon="7.2929">
        <ele>292</ele>
        <time>2012-03-03T14:51:11Z</time>
      </trkpt>
      <trkpt lat="47.82954" lon="7.29322">
        <ele>292</ele>
        <time>2012-03-03T14:51:12Z</time>
      </trkpt>
      <trkpt lat="47.82967" lon="7.29353">
        <ele>291</ele>
        <time>2012-03-03T14:51:13Z</time>
      </trkpt>
      <trkpt lat="47.82982" lon="7.29383">
        <ele>291</ele>
        <time>2012-03-03T14:51:14Z</time>
      </trkpt>
      <trkpt lat="47.82992" lon="7.29416">
        <ele>291</ele>
        <time>2012-03-03T14:51:15Z</time>
      </trkpt>
      <trkpt lat="47.83004" lon="7.29446">
        <ele>291</ele>
        <time>2012-03-03T14:51:16Z</time>
      </trkpt>
      <trkpt lat="47.83019" lon="7.29474">
        <ele>290</ele>
        <time>2012-03-03T14:51:17Z</time>
      </trkpt>
      <trkpt lat="47.83032" lon="7.29503">
        <ele>290</ele>
        <time>2012-03-03T14:51:18Z</time>
      </trkpt>
      <trkpt lat="47.83044" lon="7.2953">
        <ele>290</ele>
        <time>2012-03-03T14:51:19Z</time>
      </trkpt>
      <trkpt lat="47.83058" lon="7.2956">
        <ele>290</ele>
        <time>2012-03-03T14:51:20Z</time>
      </trkpt>
      <trkpt lat="47.83074" lon="7.29584">
        <ele>290</ele>
        <time>2012-03-03T14:51:21Z</time>
      </trkpt>
      <trkpt lat="47.83092" lon="7.2961">
        <ele>290</ele>
        <time>2012-03-03T14:51:22Z</time>
      </trkpt>
      <trkpt lat="47.83109" lon="7.29636">
        <ele>290</ele>
        <time>2012-03-03T14:51:23Z</time>
      </trkpt>
      <trkpt lat="47.83127" lon="7.29662">
        <ele>290</ele>
        <time>2012-03-03T14:51:24Z</time>
      </trkpt>
      <trkpt lat="47.83144" lon="7.29686">
        <ele>291</ele>
        <time>2012-03-03T14:51:25Z</time>
      </trkpt>
      <trkpt lat="47.83159" lon="7.29712">
        <ele>291</ele>
        <time>2012-03-03T14:51:26Z</time>
      </trkpt>
      <trkpt lat="47.83175" lon="7.29735">
        <ele>291</ele>
        <time>2012-03-03T14:51:27Z</time>
      </trkpt>
      <trkpt lat="47.83189" lon="7.29762">
        <ele>291</ele>
        <time>2012-03-03T14:51:28Z</time>
      </trkpt>
      <trkpt lat="47.83203" lon="7.29785">
        <ele>291</ele>
        <time>2012-03-03T14:51:29Z</time>
      </trkpt>
      <trkpt lat="47.83214" lon="7.29806">
        <ele>290</ele>
        <time>2012-03-03T14:51:30Z</time>
      </trkpt>
      <trkpt lat="47.83227" lon="7.29827">
        <ele>290</ele>
        <time>2012-03-03T14:51:31Z</time>
      </trkpt>
      <trkpt lat="47.83242" lon="7.29846">
        <ele>291</ele>
        <time>2012-03-03T14:51:32Z</time>
      </trkpt>
      <trkpt lat="47.83254" lon="7.29866">
        <ele>291</ele>
        <time>2012-03-03T14:51:33Z</time>
      </trkpt>
      <trkpt lat="47.83263" lon="7.29886">
        <ele>291</ele>
        <time>2012-03-03T14:51:34Z</time>
      </trkpt>
      <trkpt lat="47.83274" lon="7.29903">
        <ele>291</ele>
        <time>2012-03-03T14:51:35Z</time>
      </trkpt>
      <trkpt lat="47.83287" lon="7.29921">
        <ele>291</ele>
        <time>2012-03-03T14:51:36Z</time>
      </trkpt>
      <trkpt lat="47.83296" lon="7.29937">
        <ele>291</ele>
        <time>2012-03-03T14:51:37Z</time>
      </trkpt>
      <trkpt lat="47.83304" lon="7.29954">
        <ele>292</ele>
        <time>2012-03-03T14:51:38Z</time>
      </trkpt>
      <trkpt lat="47.83312" lon="7.2997">
        <ele>292</ele>
        <time>2012-03-03T14:51:39Z</time>
      </trkpt>
      <trkpt lat="47.83317" lon="7.29984">
        <ele>291</ele>
        <time>2012-03-03T14:51:40Z</time>
      </trkpt>
      <trkpt lat="47.83324" lon="7.29996">
        <ele>291</ele>
        <time>2012-03-03T14:51:41Z</time>
      </trkpt>
      <trkpt lat="47.8333" lon="7.30007">
        <ele>291</ele>
        <time>2012-03-03T14:51:42Z</time>
      </trkpt>
      <trkpt lat="47.83336" lon="7.30015">
        <ele>291</ele>
        <time>2012-03-03T14:51:43Z</time>
      </trkpt>
      <trkpt lat="47.83342" lon="7.30026">
        <ele>291</ele>
        <time>2012-03-03T14:51:44Z</time>
      </trkpt>
      <trkpt lat="47.83347" lon="7.30036">
        <ele>291</ele>
        <time>2012-03-03T14:51:45Z</time>
      </trkpt>
      <trkpt lat="47.83353" lon="7.30047">
        <ele>291</ele>
        <time>2012-03-03T14:51:46Z</time>
      </trkpt>
      <trkpt lat="47.83359" lon="7.30059">
        <ele>290</ele>
        <time>2012-03-03T14:51:47Z</time>
      </trkpt>
      <trkpt lat="47.83363" lon="7.30067">
        <ele>291</ele>
        <time>2012-03-03T14:51:48Z</time>
      </trkpt>
      <trkpt lat="47.83367" lon="7.30075">
        <ele>290</ele>
        <time>2012-03-03T14:51:49Z</time>
      </trkpt>
      <trkpt lat="47.83371" lon="7.30082">
        <ele>290</ele>
        <time>2012-03-03T14:51:50Z</time>
      </trkpt>
      <trkpt lat="47.83374" lon="7.30088">
        <ele>288</ele>
        <time>2012-03-03T14:51:52Z</time>
      </trkpt>
      <trkpt lat="47.83379" lon="7.30091">
        <ele>286</ele>
        <time>2012-03-03T14:52:06Z</time>
      </trkpt>
      <trkpt lat="47.83386" lon="7.30102">
        <ele>286</ele>
        <time>2012-03-03T14:52:07Z</time>
      </trkpt>
      <trkpt lat="47.83395" lon="7.30114">
        <ele>286</ele>
        <time>2012-03-03T14:52:08Z</time>
      </trkpt>
      <trkpt lat="47.83406" lon="7.30127">
        <ele>287</ele>
        <time>2012-03-03T14:52:09Z</time>
      </trkpt>
      <trkpt lat="47.83417" lon="7.30144">
        <ele>285</ele>
        <time>2012-03-03T14:52:10Z</time>
      </trkpt>
      <trkpt lat="47.83428" lon="7.3016">
        <ele>285</ele>
        <time>2012-03-03T14:52:11Z</time>
      </trkpt>
      <trkpt lat="47.83438" lon="7.30178">
        <ele>284</ele>
        <time>2012-03-03T14:52:12Z</time>
      </trkpt>
      <trkpt lat="47.83445" lon="7.30194">
        <ele>284</ele>
        <time>2012-03-03T14:52:13Z</time>
      </trkpt>
      <trkpt lat="47.83454" lon="7.30211">
        <ele>284</ele>
        <time>2012-03-03T14:52:14Z</time>
      </trkpt>
      <trkpt lat="47.83461" lon="7.30227">
        <ele>284</ele>
        <time>2012-03-03T14:52:15Z</time>
      </trkpt>
      <trkpt lat="47.83472" lon="7.30242">
        <ele>284</ele>
        <time>2012-03-03T14:52:16Z</time>
      </trkpt>
      <trkpt lat="47.8348" lon="7.30258">
        <ele>283</ele>
        <time>2012-03-03T14:52:17Z</time>
      </trkpt>
      <trkpt lat="47.8349" lon="7.30274">
        <ele>283</ele>
        <time>2012-03-03T14:52:18Z</time>
      </trkpt>
      <trkpt lat="47.83498" lon="7.30288">
        <ele>283</ele>
        <time>2012-03-03T14:52:19Z</time>
      </trkpt>
      <trkpt lat="47.83505" lon="7.30301">
        <ele>283</ele>
        <time>2012-03-03T14:52:20Z</time>
      </trkpt>
      <trkpt lat="47.83513" lon="7.30317">
        <ele>283</ele>
        <time>2012-03-03T14:52:21Z</time>
      </trkpt>
      <trkpt lat="47.83522" lon="7.30332">
        <ele>283</ele>
        <time>2012-03-03T14:52:22Z</time>
      </trkpt>
      <trkpt lat="47.8353" lon="7.30347">
        <ele>283</ele>
        <time>2012-03-03T14:52:23Z</time>
      </trkpt>
      <trkpt lat="47.83539" lon="7.30363">
        <ele>283</ele>
        <time>2012-03-03T14:52:24Z</time>
      </trkpt>
      <trkpt lat="47.83546" lon="7.30377">
        <ele>282</ele>
        <time>2012-03-03T14:52:25Z</time>
      </trkpt>
      <trkpt lat="47.83553" lon="7.30393">
        <ele>282</ele>
        <time>2012-03-03T14:52:26Z</time>
      </trkpt>
      <trkpt lat="47.83562" lon="7.30406">
        <ele>283</ele>
        <time>2012-03-03T14:52:27Z</time>
      </trkpt>
      <trkpt lat="47.83571" lon="7.30423">
        <ele>282</ele>
        <time>2012-03-03T14:52:28Z</time>
      </trkpt>
      <trkpt lat="47.8358" lon="7.30437">
        <ele>282</ele>
        <time>2012-03-03T14:52:29Z</time>
      </trkpt>
      <trkpt lat="47.83588" lon="7.30452">
        <ele>281</ele>
        <time>2012-03-03T14:52:30Z</time>
      </trkpt>
      <trkpt lat="47.83595" lon="7.30465">
        <ele>281</ele>
        <time>2012-03-03T14:52:31Z</time>
      </trkpt>
      <trkpt lat="47.83605" lon="7.30482">
        <ele>282</ele>
        <time>2012-03-03T14:52:32Z</time>
      </trkpt>
      <trkpt lat="47.83612" lon="7.30497">
        <ele>283</ele>
        <time>2012-03-03T14:52:33Z</time>
      </trkpt>
      <trkpt lat="47.83622" lon="7.30512">
        <ele>283</ele>
        <time>2012-03-03T14:52:34Z</time>
      </trkpt>
      <trkpt lat="47.83628" lon="7.30526">
        <ele>284</ele>
        <time>2012-03-03T14:52:35Z</time>
      </trkpt>
      <trkpt lat="47.83636" lon="7.30539">
        <ele>284</ele>
        <time>2012-03-03T14:52:36Z</time>
      </trkpt>
      <trkpt lat="47.83642" lon="7.30551">
        <ele>284</ele>
        <time>2012-03-03T14:52:37Z</time>
      </trkpt>
      <trkpt lat="47.83648" lon="7.30562">
        <ele>285</ele>
        <time>2012-03-03T14:52:38Z</time>
      </trkpt>
      <trkpt lat="47.83652" lon="7.30573">
        <ele>283</ele>
        <time>2012-03-03T14:52:39Z</time>
      </trkpt>
      <trkpt lat="47.83656" lon="7.30585">
        <ele>282</ele>
        <time>2012-03-03T14:52:40Z</time>
      </trkpt>
      <trkpt lat="47.83659" lon="7.30597">
        <ele>282</ele>
        <time>2012-03-03T14:52:41Z</time>
      </trkpt>
      <trkpt lat="47.83667" lon="7.30605">
        <ele>282</ele>
        <time>2012-03-03T14:52:42Z</time>
      </trkpt>
      <trkpt lat="47.83678" lon="7.30612">
        <ele>282</ele>
        <time>2012-03-03T14:52:43Z</time>
      </trkpt>
      <trkpt lat="47.83688" lon="7.30624">
        <ele>282</ele>
        <time>2012-03-03T14:52:44Z</time>
      </trkpt>
      <trkpt lat="47.83695" lon="7.30636">
        <ele>282</ele>
        <time>2012-03-03T14:52:45Z</time>
      </trkpt>
      <trkpt lat="47.83703" lon="7.30648">
        <ele>282</ele>
        <time>2012-03-03T14:52:46Z</time>
      </trkpt>
      <trkpt lat="47.83711" lon="7.30662">
        <ele>282</ele>
        <time>2012-03-03T14:52:47Z</time>
      </trkpt>
      <trkpt lat="47.83719" lon="7.30675">
        <ele>282</ele>
        <time>2012-03-03T14:52:48Z</time>
      </trkpt>
      <trkpt lat="47.83728" lon="7.3069">
        <ele>282</ele>
        <time>2012-03-03T14:52:49Z</time>
      </trkpt>
      <trkpt lat="47.83735" lon="7.30706">
        <ele>282</ele>
        <time>2012-03-03T14:52:50Z</time>
      </trkpt>
      <trkpt lat="47.83743" lon="7.30721">
        <ele>282</ele>
        <time>2012-03-03T14:52:51Z</time>
      </trkpt>
      <trkpt lat="47.83751" lon="7.30736">
        <ele>282</ele>
        <time>2012-03-03T14:52:52Z</time>
      </trkpt>
      <trkpt lat="47.83759" lon="7.3075">
        <ele>282</ele>
        <time>2012-03-03T14:52:53Z</time>
      </trkpt>
      <trkpt lat="47.83768" lon="7.30764">
        <ele>282</ele>
        <time>2012-03-03T14:52:54Z</time>
      </trkpt>
      <trkpt lat="47.83776" lon="7.30776">
        <ele>282</ele>
        <time>2012-03-03T14:52:55Z</time>
      </trkpt>
      <trkpt lat="47.83784" lon="7.30791">
        <ele>282</ele>
        <time>2012-03-03T14:52:56Z</time>
      </trkpt>
      <trkpt lat="47.83792" lon="7.30805">
        <ele>282</ele>
        <time>2012-03-03T14:52:57Z</time>
      </trkpt>
      <trkpt lat="47.838" lon="7.30821">
        <ele>282</ele>
        <time>2012-03-03T14:52:58Z</time>
      </trkpt>
      <trkpt lat="47.83808" lon="7.30835">
        <ele>282</ele>
        <time>2012-03-03T14:52:59Z</time>
      </trkpt>
      <trkpt lat="47.83816" lon="7.30848">
        <ele>282</ele>
        <time>2012-03-03T14:53:00Z</time>
      </trkpt>
      <trkpt lat="47.83823" lon="7.30865">
        <ele>282</ele>
        <time>2012-03-03T14:53:01Z</time>
      </trkpt>
      <trkpt lat="47.83831" lon="7.30878">
        <ele>281</ele>
        <time>2012-03-03T14:53:02Z</time>
      </trkpt>
      <trkpt lat="47.83838" lon="7.30893">
        <ele>280</ele>
        <time>2012-03-03T14:53:03Z</time>
      </trkpt>
      <trkpt lat="47.83847" lon="7.30909">
        <ele>279</ele>
        <time>2012-03-03T14:53:04Z</time>
      </trkpt>
      <trkpt lat="47.83857" lon="7.30923">
        <ele>279</ele>
        <time>2012-03-03T14:53:05Z</time>
      </trkpt>
      <trkpt lat="47.83866" lon="7.30939">
        <ele>279</ele>
        <time>2012-03-03T14:53:06Z</time>
      </trkpt>
      <trkpt lat="47.83872" lon="7.30954">
        <ele>279</ele>
        <time>2012-03-03T14:53:07Z</time>
      </trkpt>
      <trkpt lat="47.8388" lon="7.30968">
        <ele>279</ele>
        <time>2012-03-03T14:53:08Z</time>
      </trkpt>
      <trkpt lat="47.83888" lon="7.30982">
        <ele>279</ele>
        <time>2012-03-03T14:53:09Z</time>
      </trkpt>
      <trkpt lat="47.83897" lon="7.30995">
        <ele>279</ele>
        <time>2012-03-03T14:53:10Z</time>
      </trkpt>
      <trkpt lat="47.83906" lon="7.31008">
        <ele>279</ele>
        <time>2012-03-03T14:53:11Z</time>
      </trkpt>
      <trkpt lat="47.83915" lon="7.31022">
        <ele>279</ele>
        <time>2012-03-03T14:53:12Z</time>
      </trkpt>
      <trkpt lat="47.83923" lon="7.31036">
        <ele>279</ele>
        <time>2012-03-03T14:53:13Z</time>
      </trkpt>
      <trkpt lat="47.8393" lon="7.31051">
        <ele>279</ele>
        <time>2012-03-03T14:53:14Z</time>
      </trkpt>
      <trkpt lat="47.83939" lon="7.31066">
        <ele>279</ele>
        <time>2012-03-03T14:53:15Z</time>
      </trkpt>
      <trkpt lat="47.83948" lon="7.31082">
        <ele>280</ele>
        <time>2012-03-03T14:53:16Z</time>
      </trkpt>
      <trkpt lat="47.83956" lon="7.31096">
        <ele>280</ele>
        <time>2012-03-03T14:53:17Z</time>
      </trkpt>
      <trkpt lat="47.83967" lon="7.31111">
        <ele>280</ele>
        <time>2012-03-03T14:53:18Z</time>
      </trkpt>
      <trkpt lat="47.83976" lon="7.31126">
        <ele>280</ele>
        <time>2012-03-03T14:53:19Z</time>
      </trkpt>
      <trkpt lat="47.83983" lon="7.31143">
        <ele>280</ele>
        <time>2012-03-03T14:53:20Z</time>
      </trkpt>
      <trkpt lat="47.83993" lon="7.31159">
        <ele>279</ele>
        <time>2012-03-03T14:53:21Z</time>
      </trkpt>
      <trkpt lat="47.84001" lon="7.31174">
        <ele>279</ele>
        <time>2012-03-03T14:53:22Z</time>
      </trkpt>
      <trkpt lat="47.84009" lon="7.31189">
        <ele>279</ele>
        <time>2012-03-03T14:53:23Z</time>
      </trkpt>
      <trkpt lat="47.84018" lon="7.31204">
        <ele>279</ele>
        <time>2012-03-03T14:53:24Z</time>
      </trkpt>
      <trkpt lat="47.84028" lon="7.3122">
        <ele>279</ele>
        <time>2012-03-03T14:53:25Z</time>
      </trkpt>
      <trkpt lat="47.84036" lon="7.31235">
        <ele>279</ele>
        <time>2012-03-03T14:53:26Z</time>
      </trkpt>
      <trkpt lat="47.84045" lon="7.3125">
        <ele>279</ele>
        <time>2012-03-03T14:53:27Z</time>
      </trkpt>
      <trkpt lat="47.84056" lon="7.31267">
        <ele>280</ele>
        <time>2012-03-03T14:53:28Z</time>
      </trkpt>
      <trkpt lat="47.84062" lon="7.31284">
        <ele>279</ele>
        <time>2012-03-03T14:53:29Z</time>
      </trkpt>
      <trkpt lat="47.8407" lon="7.31302">
        <ele>279</ele>
        <time>2012-03-03T14:53:30Z</time>
      </trkpt>
      <trkpt lat="47.84077" lon="7.31322">
        <ele>280</ele>
        <time>2012-03-03T14:53:31Z</time>
      </trkpt>
      <trkpt lat="47.84085" lon="7.31347">
        <ele>280</ele>
        <time>2012-03-03T14:53:32Z</time>
      </trkpt>
      <trkpt lat="47.84095" lon="7.31372">
        <ele>279</ele>
        <time>2012-03-03T14:53:33Z</time>
      </trkpt>
      <trkpt lat="47.84104" lon="7.31398">
        <ele>279</ele>
        <time>2012-03-03T14:53:34Z</time>
      </trkpt>
      <trkpt lat="47.84111" lon="7.31423">
        <ele>279</ele>
        <time>2012-03-03T14:53:35Z</time>
      </trkpt>
      <trkpt lat="47.84119" lon="7.31452">
        <ele>279</ele>
        <time>2012-03-03T14:53:36Z</time>
      </trkpt>
      <trkpt lat="47.84127" lon="7.31479">
        <ele>280</ele>
        <time>2012-03-03T14:53:37Z</time>
      </trkpt>
      <trkpt lat="47.8414" lon="7.31507">
        <ele>279</ele>
        <time>2012-03-03T14:53:38Z</time>
      </trkpt>
      <trkpt lat="47.84154" lon="7.31536">
        <ele>279</ele>
        <time>2012-03-03T14:53:39Z</time>
      </trkpt>
      <trkpt lat="47.8417" lon="7.31561">
        <ele>279</ele>
        <time>2012-03-03T14:53:40Z</time>
      </trkpt>
      <trkpt lat="47.84203" lon="7.31612">
        <ele>279</ele>
        <time>2012-03-03T14:53:42Z</time>
      </trkpt>
      <trkpt lat="47.8422" lon="7.31635">
        <ele>279</ele>
        <time>2012-03-03T14:53:43Z</time>
      </trkpt>
      <trkpt lat="47.84238" lon="7.31663">
        <ele>279</ele>
        <time>2012-03-03T14:53:44Z</time>
      </trkpt>
      <trkpt lat="47.84255" lon="7.31688">
        <ele>278</ele>
        <time>2012-03-03T14:53:45Z</time>
      </trkpt>
      <trkpt lat="47.84273" lon="7.31714">
        <ele>278</ele>
        <time>2012-03-03T14:53:46Z</time>
      </trkpt>
      <trkpt lat="47.84292" lon="7.31739">
        <ele>279</ele>
        <time>2012-03-03T14:53:47Z</time>
      </trkpt>
      <trkpt lat="47.84311" lon="7.31762">
        <ele>279</ele>
        <time>2012-03-03T14:53:48Z</time>
      </trkpt>
      <trkpt lat="47.8433" lon="7.31785">
        <ele>279</ele>
        <time>2012-03-03T14:53:49Z</time>
      </trkpt>
      <trkpt lat="47.84351" lon="7.31808">
        <ele>279</ele>
        <time>2012-03-03T14:53:50Z</time>
      </trkpt>
      <trkpt lat="47.84369" lon="7.31832">
        <ele>279</ele>
        <time>2012-03-03T14:53:51Z</time>
      </trkpt>
      <trkpt lat="47.8439" lon="7.31858">
        <ele>279</ele>
        <time>2012-03-03T14:53:52Z</time>
      </trkpt>
      <trkpt lat="47.84409" lon="7.31881">
        <ele>279</ele>
        <time>2012-03-03T14:53:53Z</time>
      </trkpt>
      <trkpt lat="47.84428" lon="7.31906">
        <ele>279</ele>
        <time>2012-03-03T14:53:54Z</time>
      </trkpt>
      <trkpt lat="47.84448" lon="7.31931">
        <ele>279</ele>
        <time>2012-03-03T14:53:55Z</time>
      </trkpt>
      <trkpt lat="47.84469" lon="7.31952">
        <ele>279</ele>
        <time>2012-03-03T14:53:56Z</time>
      </trkpt>
      <trkpt lat="47.84488" lon="7.31975">
        <ele>280</ele>
        <time>2012-03-03T14:53:57Z</time>
      </trkpt>
      <trkpt lat="47.84509" lon="7.31997">
        <ele>279</ele>
        <time>2012-03-03T14:53:58Z</time>
      </trkpt>
      <trkpt lat="47.8453" lon="7.32016">
        <ele>280</ele>
        <time>2012-03-03T14:53:59Z</time>
      </trkpt>
      <trkpt lat="47.84553" lon="7.32039">
        <ele>280</ele>
        <time>2012-03-03T14:54:00Z</time>
      </trkpt>
      <trkpt lat="47.84575" lon="7.32058">
        <ele>280</ele>
        <time>2012-03-03T14:54:01Z</time>
      </trkpt>
      <trkpt lat="47.84596" lon="7.32076">
        <ele>280</ele>
        <time>2012-03-03T14:54:02Z</time>
      </trkpt>
      <trkpt lat="47.84616" lon="7.32096">
        <ele>280</ele>
        <time>2012-03-03T14:54:03Z</time>
      </trkpt>
      <trkpt lat="47.84638" lon="7.32114">
        <ele>280</ele>
        <time>2012-03-03T14:54:04Z</time>
      </trkpt>
      <trkpt lat="47.84659" lon="7.32132">
        <ele>280</ele>
        <time>2012-03-03T14:54:05Z</time>
      </trkpt>
      <trkpt lat="47.8468" lon="7.3215">
        <ele>280</ele>
        <time>2012-03-03T14:54:06Z</time>
      </trkpt>
      <trkpt lat="47.84699" lon="7.32165">
        <ele>280</ele>
        <time>2012-03-03T14:54:07Z</time>
      </trkpt>
      <trkpt lat="47.84721" lon="7.32182">
        <ele>280</ele>
        <time>2012-03-03T14:54:08Z</time>
      </trkpt>
      <trkpt lat="47.84741" lon="7.32203">
        <ele>280</ele>
        <time>2012-03-03T14:54:09Z</time>
      </trkpt>
      <trkpt lat="47.84762" lon="7.32218">
        <ele>280</ele>
        <time>2012-03-03T14:54:10Z</time>
      </trkpt>
      <trkpt lat="47.84781" lon="7.32234">
        <ele>280</ele>
        <time>2012-03-03T14:54:11Z</time>
      </trkpt>
      <trkpt lat="47.84804" lon="7.32253">
        <ele>280</ele>
        <time>2012-03-03T14:54:12Z</time>
      </trkpt>
      <trkpt lat="47.84824" lon="7.32273">
        <ele>280</ele>
        <time>2012-03-03T14:54:13Z</time>
      </trkpt>
      <trkpt lat="47.84845" lon="7.32291">
        <ele>280</ele>
        <time>2012-03-03T14:54:14Z</time>
      </trkpt>
      <trkpt lat="47.84863" lon="7.32309">
        <ele>281</ele>
        <time>2012-03-03T14:54:15Z</time>
      </trkpt>
      <trkpt lat="47.84885" lon="7.32326">
        <ele>281</ele>
        <time>2012-03-03T14:54:16Z</time>
      </trkpt>
      <trkpt lat="47.84905" lon="7.32344">
        <ele>281</ele>
        <time>2012-03-03T14:54:17Z</time>
      </trkpt>
      <trkpt lat="47.84926" lon="7.3236">
        <ele>281</ele>
        <time>2012-03-03T14:54:18Z</time>
      </trkpt>
      <trkpt lat="47.84943" lon="7.32377">
        <ele>281</ele>
        <time>2012-03-03T14:54:19Z</time>
      </trkpt>
      <trkpt lat="47.84963" lon="7.32393">
        <ele>281</ele>
        <time>2012-03-03T14:54:20Z</time>
      </trkpt>
      <trkpt lat="47.84985" lon="7.3241">
        <ele>281</ele>
        <time>2012-03-03T14:54:21Z</time>
      </trkpt>
      <trkpt lat="47.85005" lon="7.32425">
        <ele>281</ele>
        <time>2012-03-03T14:54:22Z</time>
      </trkpt>
      <trkpt lat="47.85027" lon="7.32438">
        <ele>281</ele>
        <time>2012-03-03T14:54:23Z</time>
      </trkpt>
      <trkpt lat="47.85047" lon="7.32454">
        <ele>281</ele>
        <time>2012-03-03T14:54:24Z</time>
      </trkpt>
      <trkpt lat="47.85064" lon="7.32476">
        <ele>281</ele>
        <time>2012-03-03T14:54:25Z</time>
      </trkpt>
      <trkpt lat="47.85086" lon="7.32498">
        <ele>280</ele>
        <time>2012-03-03T14:54:26Z</time>
      </trkpt>
      <trkpt lat="47.85107" lon="7.32525">
        <ele>280</ele>
        <time>2012-03-03T14:54:27Z</time>
      </trkpt>
      <trkpt lat="47.85123" lon="7.32554">
        <ele>279</ele>
        <time>2012-03-03T14:54:28Z</time>
      </trkpt>
      <trkpt lat="47.85139" lon="7.32584">
        <ele>278</ele>
        <time>2012-03-03T14:54:29Z</time>
      </trkpt>
      <trkpt lat="47.85153" lon="7.32612">
        <ele>278</ele>
        <time>2012-03-03T14:54:30Z</time>
      </trkpt>
      <trkpt lat="47.8517" lon="7.32638">
        <ele>277</ele>
        <time>2012-03-03T14:54:31Z</time>
      </trkpt>
      <trkpt lat="47.85188" lon="7.32664">
        <ele>278</ele>
        <time>2012-03-03T14:54:32Z</time>
      </trkpt>
      <trkpt lat="47.85204" lon="7.32689">
        <ele>278</ele>
        <time>2012-03-03T14:54:33Z</time>
      </trkpt>
      <trkpt lat="47.85223" lon="7.32711">
        <ele>277</ele>
        <time>2012-03-03T14:54:34Z</time>
      </trkpt>
      <trkpt lat="47.85238" lon="7.32732">
        <ele>277</ele>
        <time>2012-03-03T14:54:35Z</time>
      </trkpt>
      <trkpt lat="47.85257" lon="7.32747">
        <ele>277</ele>
        <time>2012-03-03T14:54:36Z</time>
      </trkpt>
      <trkpt lat="47.85274" lon="7.32766">
        <ele>277</ele>
        <time>2012-03-03T14:54:37Z</time>
      </trkpt>
      <trkpt lat="47.8529" lon="7.3278">
        <ele>276</ele>
        <time>2012-03-03T14:54:38Z</time>
      </trkpt>
      <trkpt lat="47.85303" lon="7.32795">
        <ele>276</ele>
        <time>2012-03-03T14:54:39Z</time>
      </trkpt>
      <trkpt lat="47.85319" lon="7.32807">
        <ele>276</ele>
        <time>2012-03-03T14:54:40Z</time>
      </trkpt>
      <trkpt lat="47.85345" lon="7.32834">
        <ele>276</ele>
        <time>2012-03-03T14:54:42Z</time>
      </trkpt>
      <trkpt lat="47.85358" lon="7.32845">
        <ele>275</ele>
        <time>2012-03-03T14:54:43Z</time>
      </trkpt>
      <trkpt lat="47.8537" lon="7.32857">
        <ele>276</ele>
        <time>2012-03-03T14:54:44Z</time>
      </trkpt>
      <trkpt lat="47.85381" lon="7.32867">
        <ele>276</ele>
        <time>2012-03-03T14:54:45Z</time>
      </trkpt>
      <trkpt lat="47.85393" lon="7.32877">
        <ele>276</ele>
        <time>2012-03-03T14:54:46Z</time>
      </trkpt>
      <trkpt lat="47.85404" lon="7.32887">
        <ele>276</ele>
        <time>2012-03-03T14:54:47Z</time>
      </trkpt>
      <trkpt lat="47.85414" lon="7.32898">
        <ele>276</ele>
        <time>2012-03-03T14:54:48Z</time>
      </trkpt>
      <trkpt lat="47.85424" lon="7.32908">
        <ele>276</ele>
        <time>2012-03-03T14:54:49Z</time>
      </trkpt>
      <trkpt lat="47.85433" lon="7.32918">
        <ele>276</ele>
        <time>2012-03-03T14:54:50Z</time>
      </trkpt>
      <trkpt lat="47.8544" lon="7.32926">
        <ele>277</ele>
        <time>2012-03-03T14:54:51Z</time>
      </trkpt>
      <trkpt lat="47.85448" lon="7.32934">
        <ele>276</ele>
        <time>2012-03-03T14:54:52Z</time>
      </trkpt>
      <trkpt lat="47.85455" lon="7.3294">
        <ele>276</ele>
        <time>2012-03-03T14:54:53Z</time>
      </trkpt>
      <trkpt lat="47.85462" lon="7.32946">
        <ele>275</ele>
        <time>2012-03-03T14:54:54Z</time>
      </trkpt>
      <trkpt lat="47.8547" lon="7.32954">
        <ele>275</ele>
        <time>2012-03-03T14:54:55Z</time>
      </trkpt>
      <trkpt lat="47.85477" lon="7.32962">
        <ele>275</ele>
        <time>2012-03-03T14:54:56Z</time>
      </trkpt>
      <trkpt lat="47.85486" lon="7.32972">
        <ele>274</ele>
        <time>2012-03-03T14:54:57Z</time>
      </trkpt>
      <trkpt lat="47.85497" lon="7.32986">
        <ele>273</ele>
        <time>2012-03-03T14:54:58Z</time>
      </trkpt>
      <trkpt lat="47.85507" lon="7.32999">
        <ele>272</ele>
        <time>2012-03-03T14:54:59Z</time>
      </trkpt>
      <trkpt lat="47.85515" lon="7.33014">
        <ele>272</ele>
        <time>2012-03-03T14:55:00Z</time>
      </trkpt>
      <trkpt lat="47.85524" lon="7.33029">
        <ele>272</ele>
        <time>2012-03-03T14:55:01Z</time>
      </trkpt>
      <trkpt lat="47.85532" lon="7.33046">
        <ele>271</ele>
        <time>2012-03-03T14:55:02Z</time>
      </trkpt>
      <trkpt lat="47.85538" lon="7.3306">
        <ele>271</ele>
        <time>2012-03-03T14:55:03Z</time>
      </trkpt>
      <trkpt lat="47.85546" lon="7.33077">
        <ele>271</ele>
        <time>2012-03-03T14:55:04Z</time>
      </trkpt>
      <trkpt lat="47.85552" lon="7.33093">
        <ele>271</ele>
        <time>2012-03-03T14:55:05Z</time>
      </trkpt>
      <trkpt lat="47.85558" lon="7.3311">
        <ele>271</ele>
        <time>2012-03-03T14:55:06Z</time>
      </trkpt>
      <trkpt lat="47.85564" lon="7.33126">
        <ele>271</ele>
        <time>2012-03-03T14:55:07Z</time>
      </trkpt>
      <trkpt lat="47.85569" lon="7.33144">
        <ele>271</ele>
        <time>2012-03-03T14:55:08Z</time>
      </trkpt>
      <trkpt lat="47.85577" lon="7.33161">
        <ele>271</ele>
        <time>2012-03-03T14:55:09Z</time>
      </trkpt>
      <trkpt lat="47.85582" lon="7.33176">
        <ele>272</ele>
        <time>2012-03-03T14:55:10Z</time>
      </trkpt>
      <trkpt lat="47.85587" lon="7.33194">
        <ele>271</ele>
        <time>2012-03-03T14:55:11Z</time>
      </trkpt>
      <trkpt lat="47.85594" lon="7.33211">
        <ele>271</ele>
        <time>2012-03-03T14:55:12Z</time>
      </trkpt>
      <trkpt lat="47.856" lon="7.33227">
        <ele>271</ele>
        <time>2012-03-03T14:55:13Z</time>
      </trkpt>
      <trkpt lat="47.85608" lon="7.33246">
        <ele>270</ele>
        <time>2012-03-03T14:55:14Z</time>
      </trkpt>
      <trkpt lat="47.85613" lon="7.33263">
        <ele>270</ele>
        <time>2012-03-03T14:55:15Z</time>
      </trkpt>
      <trkpt lat="47.85618" lon="7.3328">
        <ele>270</ele>
        <time>2012-03-03T14:55:16Z</time>
      </trkpt>
      <trkpt lat="47.85626" lon="7.33297">
        <ele>269</ele>
        <time>2012-03-03T14:55:17Z</time>
      </trkpt>
      <trkpt lat="47.85634" lon="7.33314">
        <ele>268</ele>
        <time>2012-03-03T14:55:18Z</time>
      </trkpt>
      <trkpt lat="47.85639" lon="7.33331">
        <ele>268</ele>
        <time>2012-03-03T14:55:19Z</time>
      </trkpt>
      <trkpt lat="47.85644" lon="7.33348">
        <ele>268</ele>
        <time>2012-03-03T14:55:20Z</time>
      </trkpt>
      <trkpt lat="47.85649" lon="7.33364">
        <ele>268</ele>
        <time>2012-03-03T14:55:21Z</time>
      </trkpt>
      <trkpt lat="47.85656" lon="7.33381">
        <ele>268</ele>
        <time>2012-03-03T14:55:22Z</time>
      </trkpt>
      <trkpt lat="47.85662" lon="7.33396">
        <ele>268</ele>
        <time>2012-03-03T14:55:23Z</time>
      </trkpt>
      <trkpt lat="47.85666" lon="7.33412">
        <ele>268</ele>
        <time>2012-03-03T14:55:24Z</time>
      </trkpt>
      <trkpt lat="47.8567" lon="7.33428">
        <ele>268</ele>
        <time>2012-03-03T14:55:25Z</time>
      </trkpt>
      <trkpt lat="47.85676" lon="7.33442">
        <ele>268</ele>
        <time>2012-03-03T14:55:26Z</time>
      </trkpt>
      <trkpt lat="47.85681" lon="7.33457">
        <ele>267</ele>
        <time>2012-03-03T14:55:27Z</time>
      </trkpt>
      <trkpt lat="47.85688" lon="7.33474">
        <ele>268</ele>
        <time>2012-03-03T14:55:28Z</time>
      </trkpt>
      <trkpt lat="47.85694" lon="7.3349">
        <ele>267</ele>
        <time>2012-03-03T14:55:29Z</time>
      </trkpt>
      <trkpt lat="47.857" lon="7.33507">
        <ele>268</ele>
        <time>2012-03-03T14:55:30Z</time>
      </trkpt>
      <trkpt lat="47.85706" lon="7.33524">
        <ele>268</ele>
        <time>2012-03-03T14:55:31Z</time>
      </trkpt>
      <trkpt lat="47.85711" lon="7.3354">
        <ele>269</ele>
        <time>2012-03-03T14:55:32Z</time>
      </trkpt>
      <trkpt lat="47.85718" lon="7.33558">
        <ele>269</ele>
        <time>2012-03-03T14:55:33Z</time>
      </trkpt>
      <trkpt lat="47.85724" lon="7.33577">
        <ele>269</ele>
        <time>2012-03-03T14:55:34Z</time>
      </trkpt>
      <trkpt lat="47.85731" lon="7.33592">
        <ele>268</ele>
        <time>2012-03-03T14:55:35Z</time>
      </trkpt>
      <trkpt lat="47.85738" lon="7.3361">
        <ele>268</ele>
        <time>2012-03-03T14:55:36Z</time>
      </trkpt>
      <trkpt lat="47.85745" lon="7.33625">
        <ele>269</ele>
        <time>2012-03-03T14:55:37Z</time>
      </trkpt>
      <trkpt lat="47.8575" lon="7.33641">
        <ele>268</ele>
        <time>2012-03-03T14:55:38Z</time>
      </trkpt>
      <trkpt lat="47.85756" lon="7.33658">
        <ele>267</ele>
        <time>2012-03-03T14:55:39Z</time>
      </trkpt>
      <trkpt lat="47.85762" lon="7.33675">
        <ele>267</ele>
        <time>2012-03-03T14:55:40Z</time>
      </trkpt>
      <trkpt lat="47.85768" lon="7.33691">
        <ele>267</ele>
        <time>2012-03-03T14:55:41Z</time>
      </trkpt>
      <trkpt lat="47.85773" lon="7.33709">
        <ele>267</ele>
        <time>2012-03-03T14:55:42Z</time>
      </trkpt>
      <trkpt lat="47.85779" lon="7.33724">
        <ele>267</ele>
        <time>2012-03-03T14:55:43Z</time>
      </trkpt>
      <trkpt lat="47.85786" lon="7.33741">
        <ele>268</ele>
        <time>2012-03-03T14:55:44Z</time>
      </trkpt>
      <trkpt lat="47.8579" lon="7.33758">
        <ele>268</ele>
        <time>2012-03-03T14:55:45Z</time>
      </trkpt>
      <trkpt lat="47.85796" lon="7.33775">
        <ele>268</ele>
        <time>2012-03-03T14:55:46Z</time>
      </trkpt>
      <trkpt lat="47.858" lon="7.33792">
        <ele>268</ele>
        <time>2012-03-03T14:55:47Z</time>
      </trkpt>
      <trkpt lat="47.85806" lon="7.33808">
        <ele>268</ele>
        <time>2012-03-03T14:55:48Z</time>
      </trkpt>
      <trkpt lat="47.85814" lon="7.33822">
        <ele>269</ele>
        <time>2012-03-03T14:55:49Z</time>
      </trkpt>
      <trkpt lat="47.85818" lon="7.33838">
        <ele>269</ele>
        <time>2012-03-03T14:55:50Z</time>
      </trkpt>
      <trkpt lat="47.85822" lon="7.33854">
        <ele>269</ele>
        <time>2012-03-03T14:55:51Z</time>
      </trkpt>
      <trkpt lat="47.85826" lon="7.3387">
        <ele>269</ele>
        <time>2012-03-03T14:55:52Z</time>
      </trkpt>
      <trkpt lat="47.85831" lon="7.33884">
        <ele>269</ele>
        <time>2012-03-03T14:55:53Z</time>
      </trkpt>
      <trkpt lat="47.85836" lon="7.33898">
        <ele>268</ele>
        <time>2012-03-03T14:55:54Z</time>
      </trkpt>
      <trkpt lat="47.8584" lon="7.33913">
        <ele>268</ele>
        <time>2012-03-03T14:55:55Z</time>
      </trkpt>
      <trkpt lat="47.85844" lon="7.33926">
        <ele>269</ele>
        <time>2012-03-03T14:55:56Z</time>
      </trkpt>
      <trkpt lat="47.8585" lon="7.33942">
        <ele>269</ele>
        <time>2012-03-03T14:55:57Z</time>
      </trkpt>
      <trkpt lat="47.85857" lon="7.33959">
        <ele>269</ele>
        <time>2012-03-03T14:55:58Z</time>
      </trkpt>
      <trkpt lat="47.85862" lon="7.33975">
        <ele>269</ele>
        <time>2012-03-03T14:55:59Z</time>
      </trkpt>
      <trkpt lat="47.85867" lon="7.33993">
        <ele>270</ele>
        <time>2012-03-03T14:56:00Z</time>
      </trkpt>
      <trkpt lat="47.85871" lon="7.34011">
        <ele>270</ele>
        <time>2012-03-03T14:56:01Z</time>
      </trkpt>
      <trkpt lat="47.85877" lon="7.34028">
        <ele>270</ele>
        <time>2012-03-03T14:56:02Z</time>
      </trkpt>
      <trkpt lat="47.85884" lon="7.34044">
        <ele>269</ele>
        <time>2012-03-03T14:56:03Z</time>
      </trkpt>
      <trkpt lat="47.85891" lon="7.34061">
        <ele>269</ele>
        <time>2012-03-03T14:56:04Z</time>
      </trkpt>
      <trkpt lat="47.85898" lon="7.34077">
        <ele>270</ele>
        <time>2012-03-03T14:56:05Z</time>
      </trkpt>
      <trkpt lat="47.85903" lon="7.34091">
        <ele>269</ele>
        <time>2012-03-03T14:56:06Z</time>
      </trkpt>
      <trkpt lat="47.85908" lon="7.34105">
        <ele>269</ele>
        <time>2012-03-03T14:56:07Z</time>
      </trkpt>
      <trkpt lat="47.85915" lon="7.34123">
        <ele>269</ele>
        <time>2012-03-03T14:56:08Z</time>
      </trkpt>
      <trkpt lat="47.85921" lon="7.34138">
        <ele>269</ele>
        <time>2012-03-03T14:56:09Z</time>
      </trkpt>
      <trkpt lat="47.85927" lon="7.34154">
        <ele>269</ele>
        <time>2012-03-03T14:56:10Z</time>
      </trkpt>
      <trkpt lat="47.85934" lon="7.34169">
        <ele>269</ele>
        <time>2012-03-03T14:56:11Z</time>
      </trkpt>
      <trkpt lat="47.85942" lon="7.34185">
        <ele>269</ele>
        <time>2012-03-03T14:56:12Z</time>
      </trkpt>
      <trkpt lat="47.85949" lon="7.34199">
        <ele>269</ele>
        <time>2012-03-03T14:56:13Z</time>
      </trkpt>
      <trkpt lat="47.85954" lon="7.34214">
        <ele>269</ele>
        <time>2012-03-03T14:56:14Z</time>
      </trkpt>
      <trkpt lat="47.85962" lon="7.3423">
        <ele>270</ele>
        <time>2012-03-03T14:56:15Z</time>
      </trkpt>
      <trkpt lat="47.85971" lon="7.34246">
        <ele>269</ele>
        <time>2012-03-03T14:56:16Z</time>
      </trkpt>
      <trkpt lat="47.85978" lon="7.34263">
        <ele>269</ele>
        <time>2012-03-03T14:56:17Z</time>
      </trkpt>
      <trkpt lat="47.85985" lon="7.34279">
        <ele>269</ele>
        <time>2012-03-03T14:56:18Z</time>
      </trkpt>
      <trkpt lat="47.85994" lon="7.34296">
        <ele>269</ele>
        <time>2012-03-03T14:56:19Z</time>
      </trkpt>
      <trkpt lat="47.86001" lon="7.34309">
        <ele>270</ele>
        <time>2012-03-03T14:56:20Z</time>
      </trkpt>
      <trkpt lat="47.86008" lon="7.34325">
        <ele>269</ele>
        <time>2012-03-03T14:56:21Z</time>
      </trkpt>
      <trkpt lat="47.86014" lon="7.34339">
        <ele>269</ele>
        <time>2012-03-03T14:56:22Z</time>
      </trkpt>
      <trkpt lat="47.8602" lon="7.34353">
        <ele>269</ele>
        <time>2012-03-03T14:56:23Z</time>
      </trkpt>
      <trkpt lat="47.86027" lon="7.34367">
        <ele>270</ele>
        <time>2012-03-03T14:56:24Z</time>
      </trkpt>
      <trkpt lat="47.86033" lon="7.34381">
        <ele>270</ele>
        <time>2012-03-03T14:56:25Z</time>
      </trkpt>
      <trkpt lat="47.86039" lon="7.34394">
        <ele>270</ele>
        <time>2012-03-03T14:56:26Z</time>
      </trkpt>
      <trkpt lat="47.86045" lon="7.34408">
        <ele>270</ele>
        <time>2012-03-03T14:56:27Z</time>
      </trkpt>
      <trkpt lat="47.86051" lon="7.34422">
        <ele>270</ele>
        <time>2012-03-03T14:56:28Z</time>
      </trkpt>
      <trkpt lat="47.86056" lon="7.34436">
        <ele>269</ele>
        <time>2012-03-03T14:56:29Z</time>
      </trkpt>
      <trkpt lat="47.86063" lon="7.3445">
        <ele>269</ele>
        <time>2012-03-03T14:56:30Z</time>
      </trkpt>
      <trkpt lat="47.86069" lon="7.34465">
        <ele>269</ele>
        <time>2012-03-03T14:56:31Z</time>
      </trkpt>
      <trkpt lat="47.86076" lon="7.34479">
        <ele>269</ele>
        <time>2012-03-03T14:56:32Z</time>
      </trkpt>
      <trkpt lat="47.8608" lon="7.34493">
        <ele>269</ele>
        <time>2012-03-03T14:56:33Z</time>
      </trkpt>
      <trkpt lat="47.86086" lon="7.34507">
        <ele>269</ele>
        <time>2012-03-03T14:56:34Z</time>
      </trkpt>
      <trkpt lat="47.86091" lon="7.34519">
        <ele>269</ele>
        <time>2012-03-03T14:56:35Z</time>
      </trkpt>
      <trkpt lat="47.86095" lon="7.3453">
        <ele>269</ele>
        <time>2012-03-03T14:56:36Z</time>
      </trkpt>
      <trkpt lat="47.861" lon="7.34538">
        <ele>269</ele>
        <time>2012-03-03T14:56:37Z</time>
      </trkpt>
      <trkpt lat="47.86103" lon="7.34549">
        <ele>269</ele>
        <time>2012-03-03T14:56:38Z</time>
      </trkpt>
      <trkpt lat="47.86104" lon="7.34558">
        <ele>269</ele>
        <time>2012-03-03T14:56:39Z</time>
      </trkpt>
      <trkpt lat="47.86104" lon="7.34571">
        <ele>268</ele>
        <time>2012-03-03T14:56:40Z</time>
      </trkpt>
      <trkpt lat="47.86107" lon="7.34581">
        <ele>267</ele>
        <time>2012-03-03T14:56:41Z</time>
      </trkpt>
      <trkpt lat="47.86114" lon="7.34586">
        <ele>267</ele>
        <time>2012-03-03T14:56:42Z</time>
      </trkpt>
      <trkpt lat="47.86122" lon="7.34586">
        <ele>268</ele>
        <time>2012-03-03T14:56:43Z</time>
      </trkpt>
      <trkpt lat="47.86129" lon="7.3458">
        <ele>268</ele>
        <time>2012-03-03T14:56:44Z</time>
      </trkpt>
      <trkpt lat="47.86137" lon="7.34571">
        <ele>268</ele>
        <time>2012-03-03T14:56:45Z</time>
      </trkpt>
      <trkpt lat="47.86146" lon="7.34563">
        <ele>267</ele>
        <time>2012-03-03T14:56:46Z</time>
      </trkpt>
      <trkpt lat="47.86157" lon="7.34558">
        <ele>267</ele>
        <time>2012-03-03T14:56:47Z</time>
      </trkpt>
      <trkpt lat="47.86169" lon="7.34557">
        <ele>268</ele>
        <time>2012-03-03T14:56:48Z</time>
      </trkpt>
      <trkpt lat="47.86182" lon="7.34552">
        <ele>268</ele>
        <time>2012-03-03T14:56:49Z</time>
      </trkpt>
      <trkpt lat="47.86196" lon="7.34546">
        <ele>268</ele>
        <time>2012-03-03T14:56:50Z</time>
      </trkpt>
      <trkpt lat="47.86212" lon="7.34542">
        <ele>268</ele>
        <time>2012-03-03T14:56:51Z</time>
      </trkpt>
      <trkpt lat="47.86225" lon="7.34537">
        <ele>269</ele>
        <time>2012-03-03T14:56:52Z</time>
      </trkpt>
      <trkpt lat="47.86239" lon="7.34532">
        <ele>268</ele>
        <time>2012-03-03T14:56:53Z</time>
      </trkpt>
      <trkpt lat="47.86254" lon="7.34528">
        <ele>269</ele>
        <time>2012-03-03T14:56:54Z</time>
      </trkpt>
      <trkpt lat="47.86266" lon="7.34523">
        <ele>268</ele>
        <time>2012-03-03T14:56:55Z</time>
      </trkpt>
      <trkpt lat="47.8628" lon="7.3452">
        <ele>269</ele>
        <time>2012-03-03T14:56:56Z</time>
      </trkpt>
      <trkpt lat="47.86292" lon="7.34515">
        <ele>268</ele>
        <time>2012-03-03T14:56:57Z</time>
      </trkpt>
      <trkpt lat="47.86306" lon="7.3451">
        <ele>269</ele>
        <time>2012-03-03T14:56:58Z</time>
      </trkpt>
      <trkpt lat="47.8632" lon="7.34507">
        <ele>269</ele>
        <time>2012-03-03T14:56:59Z</time>
      </trkpt>
      <trkpt lat="47.86333" lon="7.34505">
        <ele>269</ele>
        <time>2012-03-03T14:57:00Z</time>
      </trkpt>
      <trkpt lat="47.86348" lon="7.34503">
        <ele>269</ele>
        <time>2012-03-03T14:57:01Z</time>
      </trkpt>
      <trkpt lat="47.86363" lon="7.34501">
        <ele>269</ele>
        <time>2012-03-03T14:57:02Z</time>
      </trkpt>
      <trkpt lat="47.86379" lon="7.34502">
        <ele>269</ele>
        <time>2012-03-03T14:57:03Z</time>
      </trkpt>
      <trkpt lat="47.86398" lon="7.34502">
        <ele>269</ele>
        <time>2012-03-03T14:57:04Z</time>
      </trkpt>
      <trkpt lat="47.86412" lon="7.34504">
        <ele>270</ele>
        <time>2012-03-03T14:57:05Z</time>
      </trkpt>
      <trkpt lat="47.86427" lon="7.34508">
        <ele>270</ele>
        <time>2012-03-03T14:57:06Z</time>
      </trkpt>
      <trkpt lat="47.86442" lon="7.34511">
        <ele>271</ele>
        <time>2012-03-03T14:57:07Z</time>
      </trkpt>
      <trkpt lat="47.86457" lon="7.34516">
        <ele>270</ele>
        <time>2012-03-03T14:57:08Z</time>
      </trkpt>
      <trkpt lat="47.8647" lon="7.34522">
        <ele>270</ele>
        <time>2012-03-03T14:57:09Z</time>
      </trkpt>
      <trkpt lat="47.86481" lon="7.3453">
        <ele>270</ele>
        <time>2012-03-03T14:57:10Z</time>
      </trkpt>
      <trkpt lat="47.86493" lon="7.34535">
        <ele>270</ele>
        <time>2012-03-03T14:57:11Z</time>
      </trkpt>
      <trkpt lat="47.86504" lon="7.34542">
        <ele>269</ele>
        <time>2012-03-03T14:57:12Z</time>
      </trkpt>
      <trkpt lat="47.86513" lon="7.34548">
        <ele>270</ele>
        <time>2012-03-03T14:57:13Z</time>
      </trkpt>
      <trkpt lat="47.86524" lon="7.34554">
        <ele>270</ele>
        <time>2012-03-03T14:57:14Z</time>
      </trkpt>
      <trkpt lat="47.86532" lon="7.34563">
        <ele>270</ele>
        <time>2012-03-03T14:57:15Z</time>
      </trkpt>
      <trkpt lat="47.86538" lon="7.3457">
        <ele>270</ele>
        <time>2012-03-03T14:57:16Z</time>
      </trkpt>
      <trkpt lat="47.86544" lon="7.34579">
        <ele>271</ele>
        <time>2012-03-03T14:57:17Z</time>
      </trkpt>
      <trkpt lat="47.8655" lon="7.34585">
        <ele>270</ele>
        <time>2012-03-03T14:57:18Z</time>
      </trkpt>
      <trkpt lat="47.86555" lon="7.3459">
        <ele>270</ele>
        <time>2012-03-03T14:57:19Z</time>
      </trkpt>
      <trkpt lat="47.8656" lon="7.34599">
        <ele>270</ele>
        <time>2012-03-03T14:57:20Z</time>
      </trkpt>
      <trkpt lat="47.86564" lon="7.34604">
        <ele>269</ele>
        <time>2012-03-03T14:57:21Z</time>
      </trkpt>
      <trkpt lat="47.86574" lon="7.34602">
        <ele>268</ele>
        <time>2012-03-03T14:57:23Z</time>
      </trkpt>
      <trkpt lat="47.86577" lon="7.34594">
        <ele>268</ele>
        <time>2012-03-03T14:57:24Z</time>
      </trkpt>
      <trkpt lat="47.8658" lon="7.34584">
        <ele>268</ele>
        <time>2012-03-03T14:57:25Z</time>
      </trkpt>
      <trkpt lat="47.86583" lon="7.34573">
        <ele>267</ele>
        <time>2012-03-03T14:57:26Z</time>
      </trkpt>
      <trkpt lat="47.86587" lon="7.34562">
        <ele>268</ele>
        <time>2012-03-03T14:57:27Z</time>
      </trkpt>
      <trkpt lat="47.86592" lon="7.34549">
        <ele>268</ele>
        <time>2012-03-03T14:57:28Z</time>
      </trkpt>
      <trkpt lat="47.86598" lon="7.34537">
        <ele>268</ele>
        <time>2012-03-03T14:57:29Z</time>
      </trkpt>
      <trkpt lat="47.86603" lon="7.34523">
        <ele>268</ele>
        <time>2012-03-03T14:57:30Z</time>
      </trkpt>
      <trkpt lat="47.86607" lon="7.3451">
        <ele>268</ele>
        <time>2012-03-03T14:57:31Z</time>
      </trkpt>
      <trkpt lat="47.86612" lon="7.34497">
        <ele>268</ele>
        <time>2012-03-03T14:57:32Z</time>
      </trkpt>
      <trkpt lat="47.86616" lon="7.34478">
        <ele>267</ele>
        <time>2012-03-03T14:57:33Z</time>
      </trkpt>
      <trkpt lat="47.86619" lon="7.34458">
        <ele>267</ele>
        <time>2012-03-03T14:57:34Z</time>
      </trkpt>
      <trkpt lat="47.86622" lon="7.3444">
        <ele>267</ele>
        <time>2012-03-03T14:57:35Z</time>
      </trkpt>
      <trkpt lat="47.86625" lon="7.34419">
        <ele>267</ele>
        <time>2012-03-03T14:57:36Z</time>
      </trkpt>
      <trkpt lat="47.86632" lon="7.344">
        <ele>268</ele>
        <time>2012-03-03T14:57:37Z</time>
      </trkpt>
      <trkpt lat="47.86637" lon="7.3438">
        <ele>267</ele>
        <time>2012-03-03T14:57:38Z</time>
      </trkpt>
      <trkpt lat="47.86643" lon="7.34365">
        <ele>267</ele>
        <time>2012-03-03T14:57:39Z</time>
      </trkpt>
      <trkpt lat="47.86649" lon="7.34348">
        <ele>267</ele>
        <time>2012-03-03T14:57:40Z</time>
      </trkpt>
      <trkpt lat="47.86663" lon="7.34315">
        <ele>267</ele>
        <time>2012-03-03T14:57:42Z</time>
      </trkpt>
      <trkpt lat="47.86669" lon="7.34301">
        <ele>267</ele>
        <time>2012-03-03T14:57:43Z</time>
      </trkpt>
      <trkpt lat="47.86676" lon="7.34285">
        <ele>267</ele>
        <time>2012-03-03T14:57:44Z</time>
      </trkpt>
      <trkpt lat="47.8668" lon="7.34273">
        <ele>267</ele>
        <time>2012-03-03T14:57:45Z</time>
      </trkpt>
      <trkpt lat="47.86682" lon="7.34262">
        <ele>267</ele>
        <time>2012-03-03T14:57:46Z</time>
      </trkpt>
      <trkpt lat="47.86686" lon="7.34252">
        <ele>267</ele>
        <time>2012-03-03T14:57:47Z</time>
      </trkpt>
      <trkpt lat="47.8669" lon="7.34244">
        <ele>266</ele>
        <time>2012-03-03T14:57:48Z</time>
      </trkpt>
      <trkpt lat="47.86694" lon="7.34238">
        <ele>267</ele>
        <time>2012-03-03T14:57:49Z</time>
      </trkpt>
      <trkpt lat="47.86697" lon="7.34232">
        <ele>267</ele>
        <time>2012-03-03T14:57:50Z</time>
      </trkpt>
      <trkpt lat="47.86702" lon="7.34219">
        <ele>268</ele>
        <time>2012-03-03T14:57:52Z</time>
      </trkpt>
      <trkpt lat="47.86703" lon="7.3421">
        <ele>268</ele>
        <time>2012-03-03T14:57:53Z</time>
      </trkpt>
      <trkpt lat="47.86703" lon="7.34198">
        <ele>268</ele>
        <time>2012-03-03T14:57:54Z</time>
      </trkpt>
      <trkpt lat="47.86702" lon="7.34186">
        <ele>268</ele>
        <time>2012-03-03T14:57:55Z</time>
      </trkpt>
      <trkpt lat="47.867" lon="7.3417">
        <ele>268</ele>
        <time>2012-03-03T14:57:56Z</time>
      </trkpt>
      <trkpt lat="47.867" lon="7.34155">
        <ele>267</ele>
        <time>2012-03-03T14:57:57Z</time>
      </trkpt>
      <trkpt lat="47.867" lon="7.34143">
        <ele>267</ele>
        <time>2012-03-03T14:57:58Z</time>
      </trkpt>
      <trkpt lat="47.86699" lon="7.34131">
        <ele>266</ele>
        <time>2012-03-03T14:57:59Z</time>
      </trkpt>
      <trkpt lat="47.86701" lon="7.34118">
        <ele>265</ele>
        <time>2012-03-03T14:58:00Z</time>
      </trkpt>
      <trkpt lat="47.86701" lon="7.34109">
        <ele>266</ele>
        <time>2012-03-03T14:58:01Z</time>
      </trkpt>
      <trkpt lat="47.86698" lon="7.34103">
        <ele>266</ele>
        <time>2012-03-03T14:58:02Z</time>
      </trkpt>
      <trkpt lat="47.86693" lon="7.341">
        <ele>266</ele>
        <time>2012-03-03T14:58:03Z</time>
      </trkpt>
      <trkpt lat="47.86684" lon="7.341">
        <ele>265</ele>
        <time>2012-03-03T14:58:05Z</time>
      </trkpt>
      <trkpt lat="47.86677" lon="7.34098">
        <ele>265</ele>
        <time>2012-03-03T14:58:07Z</time>
      </trkpt>
      <trkpt lat="47.86671" lon="7.341">
        <ele>265</ele>
        <time>2012-03-03T14:58:09Z</time>
      </trkpt>
      <trkpt lat="47.86669" lon="7.34107">
        <ele>266</ele>
        <time>2012-03-03T14:58:11Z</time>
      </trkpt>
      <trkpt lat="47.86668" lon="7.34116">
        <ele>265</ele>
        <time>2012-03-03T14:58:13Z</time>
      </trkpt>
      <trkpt lat="47.86666" lon="7.34124">
        <ele>265</ele>
        <time>2012-03-03T14:58:15Z</time>
      </trkpt>
      <trkpt lat="47.86666" lon="7.34132">
        <ele>265</ele>
        <time>2012-03-03T14:58:18Z</time>
      </trkpt>
      <trkpt lat="47.86676" lon="7.34134">
        <ele>265</ele>
        <time>2012-03-03T14:59:44Z</time>
      </trkpt>
    </trkseg>
  </trk>
</gpx>